<?xml version="1.0" encoding="UTF-8" standalone="no" ?>
<gpx xmlns="http://www.topografix.com/GPX/1/1" xmlns:xsi="http://www.w3.org/2001/XMLSchema-instance" xsi:schemaLocation="http://www.topografix.com/GPX/1/1 http://www.topografix.com/GPX/1/1/gpx.xsd" version="1.1" creator="VisuGPX - https://www.visugpx.com">
  <metadata>
    <name>Rodez Olemps Agnac</name>
    <desc><![CDATA[Rodez Olemps Agnac]]></desc>
  </metadata>
  <trk>
    <name><![CDATA[RODEZ_2011-04-06-01]]></name>
    <trkseg>
      <trkpt lat="44.3565" lon="2.55661">
        <ele>598.7</ele>
        <time>2011-04-06T15:57:01Z</time>
      </trkpt>
      <trkpt lat="44.35648" lon="2.55661">
        <ele>598.7</ele>
        <time>2011-04-06T15:57:02Z</time>
      </trkpt>
      <trkpt lat="44.35645" lon="2.5566">
        <ele>598.7</ele>
        <time>2011-04-06T15:57:03Z</time>
      </trkpt>
      <trkpt lat="44.35643" lon="2.55658">
        <ele>598.9</ele>
        <time>2011-04-06T15:57:04Z</time>
      </trkpt>
      <trkpt lat="44.3564" lon="2.55657">
        <ele>598.9</ele>
        <time>2011-04-06T15:57:05Z</time>
      </trkpt>
      <trkpt lat="44.35637" lon="2.55654">
        <ele>598.7</ele>
        <time>2011-04-06T15:57:07Z</time>
      </trkpt>
      <trkpt lat="44.35636" lon="2.55653">
        <ele>598.5</ele>
        <time>2011-04-06T15:57:08Z</time>
      </trkpt>
      <trkpt lat="44.35631" lon="2.5565">
        <ele>598</ele>
        <time>2011-04-06T15:57:10Z</time>
      </trkpt>
      <trkpt lat="44.35629" lon="2.55648">
        <ele>597.9</ele>
        <time>2011-04-06T15:57:11Z</time>
      </trkpt>
      <trkpt lat="44.35626" lon="2.55646">
        <ele>597.7</ele>
        <time>2011-04-06T15:57:12Z</time>
      </trkpt>
      <trkpt lat="44.35623" lon="2.55645">
        <ele>597.4</ele>
        <time>2011-04-06T15:57:13Z</time>
      </trkpt>
      <trkpt lat="44.3562" lon="2.55643">
        <ele>597.2</ele>
        <time>2011-04-06T15:57:14Z</time>
      </trkpt>
      <trkpt lat="44.35617" lon="2.55641">
        <ele>597</ele>
        <time>2011-04-06T15:57:15Z</time>
      </trkpt>
      <trkpt lat="44.35614" lon="2.55638">
        <ele>596.7</ele>
        <time>2011-04-06T15:57:16Z</time>
      </trkpt>
      <trkpt lat="44.35611" lon="2.55636">
        <ele>596.2</ele>
        <time>2011-04-06T15:57:17Z</time>
      </trkpt>
      <trkpt lat="44.35608" lon="2.55633">
        <ele>595.9</ele>
        <time>2011-04-06T15:57:18Z</time>
      </trkpt>
      <trkpt lat="44.35604" lon="2.5563">
        <ele>595.5</ele>
        <time>2011-04-06T15:57:19Z</time>
      </trkpt>
      <trkpt lat="44.35601" lon="2.55627">
        <ele>595</ele>
        <time>2011-04-06T15:57:20Z</time>
      </trkpt>
      <trkpt lat="44.35597" lon="2.55623">
        <ele>594.7</ele>
        <time>2011-04-06T15:57:21Z</time>
      </trkpt>
      <trkpt lat="44.35592" lon="2.55619">
        <ele>594.2</ele>
        <time>2011-04-06T15:57:22Z</time>
      </trkpt>
      <trkpt lat="44.35588" lon="2.55615">
        <ele>593.7</ele>
        <time>2011-04-06T15:57:23Z</time>
      </trkpt>
      <trkpt lat="44.35584" lon="2.55611">
        <ele>593.2</ele>
        <time>2011-04-06T15:57:24Z</time>
      </trkpt>
      <trkpt lat="44.35579" lon="2.55607">
        <ele>592.5</ele>
        <time>2011-04-06T15:57:25Z</time>
      </trkpt>
      <trkpt lat="44.35575" lon="2.55603">
        <ele>591.9</ele>
        <time>2011-04-06T15:57:26Z</time>
      </trkpt>
      <trkpt lat="44.35571" lon="2.55599">
        <ele>591.2</ele>
        <time>2011-04-06T15:57:27Z</time>
      </trkpt>
      <trkpt lat="44.35567" lon="2.55595">
        <ele>590.4</ele>
        <time>2011-04-06T15:57:28Z</time>
      </trkpt>
      <trkpt lat="44.35563" lon="2.55594">
        <ele>589.7</ele>
        <time>2011-04-06T15:57:29Z</time>
      </trkpt>
      <trkpt lat="44.35558" lon="2.55595">
        <ele>589</ele>
        <time>2011-04-06T15:57:30Z</time>
      </trkpt>
      <trkpt lat="44.35554" lon="2.55595">
        <ele>588.2</ele>
        <time>2011-04-06T15:57:31Z</time>
      </trkpt>
      <trkpt lat="44.35549" lon="2.55592">
        <ele>587.5</ele>
        <time>2011-04-06T15:57:32Z</time>
      </trkpt>
      <trkpt lat="44.35546" lon="2.55585">
        <ele>586.9</ele>
        <time>2011-04-06T15:57:33Z</time>
      </trkpt>
      <trkpt lat="44.35543" lon="2.55578">
        <ele>586</ele>
        <time>2011-04-06T15:57:34Z</time>
      </trkpt>
      <trkpt lat="44.35539" lon="2.55572">
        <ele>585.5</ele>
        <time>2011-04-06T15:57:35Z</time>
      </trkpt>
      <trkpt lat="44.35534" lon="2.55567">
        <ele>584.7</ele>
        <time>2011-04-06T15:57:36Z</time>
      </trkpt>
      <trkpt lat="44.35529" lon="2.55564">
        <ele>584</ele>
        <time>2011-04-06T15:57:37Z</time>
      </trkpt>
      <trkpt lat="44.35525" lon="2.5556">
        <ele>583.2</ele>
        <time>2011-04-06T15:57:38Z</time>
      </trkpt>
      <trkpt lat="44.3552" lon="2.55556">
        <ele>582.5</ele>
        <time>2011-04-06T15:57:39Z</time>
      </trkpt>
      <trkpt lat="44.35515" lon="2.55553">
        <ele>581.7</ele>
        <time>2011-04-06T15:57:40Z</time>
      </trkpt>
      <trkpt lat="44.3551" lon="2.5555">
        <ele>580.9</ele>
        <time>2011-04-06T15:57:41Z</time>
      </trkpt>
      <trkpt lat="44.35504" lon="2.55547">
        <ele>579.9</ele>
        <time>2011-04-06T15:57:42Z</time>
      </trkpt>
      <trkpt lat="44.35498" lon="2.55544">
        <ele>579</ele>
        <time>2011-04-06T15:57:43Z</time>
      </trkpt>
      <trkpt lat="44.35492" lon="2.55541">
        <ele>578</ele>
        <time>2011-04-06T15:57:44Z</time>
      </trkpt>
      <trkpt lat="44.35485" lon="2.55538">
        <ele>577</ele>
        <time>2011-04-06T15:57:45Z</time>
      </trkpt>
      <trkpt lat="44.35477" lon="2.55537">
        <ele>576</ele>
        <time>2011-04-06T15:57:46Z</time>
      </trkpt>
      <trkpt lat="44.3547" lon="2.55537">
        <ele>575.2</ele>
        <time>2011-04-06T15:57:47Z</time>
      </trkpt>
      <trkpt lat="44.35462" lon="2.55537">
        <ele>574.4</ele>
        <time>2011-04-06T15:57:48Z</time>
      </trkpt>
      <trkpt lat="44.35454" lon="2.55538">
        <ele>573.4</ele>
        <time>2011-04-06T15:57:49Z</time>
      </trkpt>
      <trkpt lat="44.35447" lon="2.5554">
        <ele>572.2</ele>
        <time>2011-04-06T15:57:50Z</time>
      </trkpt>
      <trkpt lat="44.35439" lon="2.55541">
        <ele>571</ele>
        <time>2011-04-06T15:57:51Z</time>
      </trkpt>
      <trkpt lat="44.35431" lon="2.55544">
        <ele>570</ele>
        <time>2011-04-06T15:57:52Z</time>
      </trkpt>
      <trkpt lat="44.35423" lon="2.55546">
        <ele>568.7</ele>
        <time>2011-04-06T15:57:53Z</time>
      </trkpt>
      <trkpt lat="44.35414" lon="2.55548">
        <ele>567.7</ele>
        <time>2011-04-06T15:57:54Z</time>
      </trkpt>
      <trkpt lat="44.35406" lon="2.5555">
        <ele>566.7</ele>
        <time>2011-04-06T15:57:55Z</time>
      </trkpt>
      <trkpt lat="44.35397" lon="2.55552">
        <ele>565.7</ele>
        <time>2011-04-06T15:57:56Z</time>
      </trkpt>
      <trkpt lat="44.3539" lon="2.55552">
        <ele>564.5</ele>
        <time>2011-04-06T15:57:57Z</time>
      </trkpt>
      <trkpt lat="44.35382" lon="2.55552">
        <ele>563.5</ele>
        <time>2011-04-06T15:57:58Z</time>
      </trkpt>
      <trkpt lat="44.35374" lon="2.55551">
        <ele>562.5</ele>
        <time>2011-04-06T15:57:59Z</time>
      </trkpt>
      <trkpt lat="44.35365" lon="2.55551">
        <ele>561.4</ele>
        <time>2011-04-06T15:58:00Z</time>
      </trkpt>
      <trkpt lat="44.35357" lon="2.55552">
        <ele>560.2</ele>
        <time>2011-04-06T15:58:01Z</time>
      </trkpt>
      <trkpt lat="44.3535" lon="2.55553">
        <ele>559.2</ele>
        <time>2011-04-06T15:58:02Z</time>
      </trkpt>
      <trkpt lat="44.35343" lon="2.55552">
        <ele>558.2</ele>
        <time>2011-04-06T15:58:03Z</time>
      </trkpt>
      <trkpt lat="44.35336" lon="2.5555">
        <ele>557</ele>
        <time>2011-04-06T15:58:04Z</time>
      </trkpt>
      <trkpt lat="44.35328" lon="2.55547">
        <ele>555.9</ele>
        <time>2011-04-06T15:58:05Z</time>
      </trkpt>
      <trkpt lat="44.35321" lon="2.55544">
        <ele>554.5</ele>
        <time>2011-04-06T15:58:06Z</time>
      </trkpt>
      <trkpt lat="44.35314" lon="2.55539">
        <ele>553.5</ele>
        <time>2011-04-06T15:58:07Z</time>
      </trkpt>
      <trkpt lat="44.35309" lon="2.55532">
        <ele>552.7</ele>
        <time>2011-04-06T15:58:08Z</time>
      </trkpt>
      <trkpt lat="44.35306" lon="2.55524">
        <ele>551.9</ele>
        <time>2011-04-06T15:58:09Z</time>
      </trkpt>
      <trkpt lat="44.35304" lon="2.55515">
        <ele>551.2</ele>
        <time>2011-04-06T15:58:10Z</time>
      </trkpt>
      <trkpt lat="44.35303" lon="2.55504">
        <ele>550.4</ele>
        <time>2011-04-06T15:58:11Z</time>
      </trkpt>
      <trkpt lat="44.35304" lon="2.55494">
        <ele>549.7</ele>
        <time>2011-04-06T15:58:12Z</time>
      </trkpt>
      <trkpt lat="44.35305" lon="2.55484">
        <ele>548.9</ele>
        <time>2011-04-06T15:58:13Z</time>
      </trkpt>
      <trkpt lat="44.35308" lon="2.55476">
        <ele>548.2</ele>
        <time>2011-04-06T15:58:14Z</time>
      </trkpt>
      <trkpt lat="44.35313" lon="2.55469">
        <ele>547.5</ele>
        <time>2011-04-06T15:58:15Z</time>
      </trkpt>
      <trkpt lat="44.35317" lon="2.55463">
        <ele>546.5</ele>
        <time>2011-04-06T15:58:16Z</time>
      </trkpt>
      <trkpt lat="44.35321" lon="2.55457">
        <ele>545.7</ele>
        <time>2011-04-06T15:58:17Z</time>
      </trkpt>
      <trkpt lat="44.35326" lon="2.55451">
        <ele>544.7</ele>
        <time>2011-04-06T15:58:18Z</time>
      </trkpt>
      <trkpt lat="44.3533" lon="2.55445">
        <ele>544.2</ele>
        <time>2011-04-06T15:58:19Z</time>
      </trkpt>
      <trkpt lat="44.35333" lon="2.5544">
        <ele>543.5</ele>
        <time>2011-04-06T15:58:20Z</time>
      </trkpt>
      <trkpt lat="44.35336" lon="2.55439">
        <ele>542.9</ele>
        <time>2011-04-06T15:58:21Z</time>
      </trkpt>
      <trkpt lat="44.3534" lon="2.55436">
        <ele>541</ele>
        <time>2011-04-06T15:58:30Z</time>
      </trkpt>
      <trkpt lat="44.35343" lon="2.55437">
        <ele>541</ele>
        <time>2011-04-06T15:58:32Z</time>
      </trkpt>
      <trkpt lat="44.35346" lon="2.55437">
        <ele>541</ele>
        <time>2011-04-06T15:58:33Z</time>
      </trkpt>
      <trkpt lat="44.35349" lon="2.55435">
        <ele>540.7</ele>
        <time>2011-04-06T15:58:34Z</time>
      </trkpt>
      <trkpt lat="44.35353" lon="2.55432">
        <ele>540.4</ele>
        <time>2011-04-06T15:58:35Z</time>
      </trkpt>
      <trkpt lat="44.35356" lon="2.55427">
        <ele>540</ele>
        <time>2011-04-06T15:58:36Z</time>
      </trkpt>
      <trkpt lat="44.35358" lon="2.55421">
        <ele>539.5</ele>
        <time>2011-04-06T15:58:37Z</time>
      </trkpt>
      <trkpt lat="44.3536" lon="2.55414">
        <ele>539</ele>
        <time>2011-04-06T15:58:38Z</time>
      </trkpt>
      <trkpt lat="44.35361" lon="2.55407">
        <ele>538.7</ele>
        <time>2011-04-06T15:58:39Z</time>
      </trkpt>
      <trkpt lat="44.35362" lon="2.55399">
        <ele>538.2</ele>
        <time>2011-04-06T15:58:40Z</time>
      </trkpt>
      <trkpt lat="44.35362" lon="2.55391">
        <ele>537.7</ele>
        <time>2011-04-06T15:58:41Z</time>
      </trkpt>
      <trkpt lat="44.35361" lon="2.55384">
        <ele>537.4</ele>
        <time>2011-04-06T15:58:42Z</time>
      </trkpt>
      <trkpt lat="44.3536" lon="2.55378">
        <ele>537</ele>
        <time>2011-04-06T15:58:43Z</time>
      </trkpt>
      <trkpt lat="44.35358" lon="2.55373">
        <ele>536.7</ele>
        <time>2011-04-06T15:58:44Z</time>
      </trkpt>
      <trkpt lat="44.35355" lon="2.55369">
        <ele>536.7</ele>
        <time>2011-04-06T15:58:45Z</time>
      </trkpt>
      <trkpt lat="44.35351" lon="2.55366">
        <ele>536.7</ele>
        <time>2011-04-06T15:58:46Z</time>
      </trkpt>
      <trkpt lat="44.35346" lon="2.55364">
        <ele>536.5</ele>
        <time>2011-04-06T15:58:47Z</time>
      </trkpt>
      <trkpt lat="44.35341" lon="2.55364">
        <ele>536.5</ele>
        <time>2011-04-06T15:58:48Z</time>
      </trkpt>
      <trkpt lat="44.35336" lon="2.55365">
        <ele>536.5</ele>
        <time>2011-04-06T15:58:49Z</time>
      </trkpt>
      <trkpt lat="44.35331" lon="2.55365">
        <ele>536.5</ele>
        <time>2011-04-06T15:58:50Z</time>
      </trkpt>
      <trkpt lat="44.35326" lon="2.55365">
        <ele>536.2</ele>
        <time>2011-04-06T15:58:51Z</time>
      </trkpt>
      <trkpt lat="44.3532" lon="2.55364">
        <ele>536</ele>
        <time>2011-04-06T15:58:52Z</time>
      </trkpt>
      <trkpt lat="44.35315" lon="2.55364">
        <ele>535.9</ele>
        <time>2011-04-06T15:58:53Z</time>
      </trkpt>
      <trkpt lat="44.3531" lon="2.55363">
        <ele>535.7</ele>
        <time>2011-04-06T15:58:54Z</time>
      </trkpt>
      <trkpt lat="44.35304" lon="2.55363">
        <ele>535.5</ele>
        <time>2011-04-06T15:58:55Z</time>
      </trkpt>
      <trkpt lat="44.35299" lon="2.55362">
        <ele>535.2</ele>
        <time>2011-04-06T15:58:56Z</time>
      </trkpt>
      <trkpt lat="44.35293" lon="2.55361">
        <ele>535</ele>
        <time>2011-04-06T15:58:57Z</time>
      </trkpt>
      <trkpt lat="44.35288" lon="2.55361">
        <ele>534.7</ele>
        <time>2011-04-06T15:58:58Z</time>
      </trkpt>
      <trkpt lat="44.35282" lon="2.5536">
        <ele>534.5</ele>
        <time>2011-04-06T15:58:59Z</time>
      </trkpt>
      <trkpt lat="44.35276" lon="2.55359">
        <ele>534.4</ele>
        <time>2011-04-06T15:59:00Z</time>
      </trkpt>
      <trkpt lat="44.3527" lon="2.55359">
        <ele>534.2</ele>
        <time>2011-04-06T15:59:01Z</time>
      </trkpt>
      <trkpt lat="44.35264" lon="2.55358">
        <ele>534</ele>
        <time>2011-04-06T15:59:02Z</time>
      </trkpt>
      <trkpt lat="44.35258" lon="2.55358">
        <ele>533.7</ele>
        <time>2011-04-06T15:59:03Z</time>
      </trkpt>
      <trkpt lat="44.35251" lon="2.55358">
        <ele>533.5</ele>
        <time>2011-04-06T15:59:04Z</time>
      </trkpt>
      <trkpt lat="44.35245" lon="2.55358">
        <ele>533.2</ele>
        <time>2011-04-06T15:59:05Z</time>
      </trkpt>
      <trkpt lat="44.35239" lon="2.55358">
        <ele>533</ele>
        <time>2011-04-06T15:59:06Z</time>
      </trkpt>
      <trkpt lat="44.35232" lon="2.55357">
        <ele>532.9</ele>
        <time>2011-04-06T15:59:07Z</time>
      </trkpt>
      <trkpt lat="44.35226" lon="2.55357">
        <ele>532.7</ele>
        <time>2011-04-06T15:59:08Z</time>
      </trkpt>
      <trkpt lat="44.3522" lon="2.55358">
        <ele>532.7</ele>
        <time>2011-04-06T15:59:09Z</time>
      </trkpt>
      <trkpt lat="44.35214" lon="2.55358">
        <ele>532.5</ele>
        <time>2011-04-06T15:59:10Z</time>
      </trkpt>
      <trkpt lat="44.35208" lon="2.55359">
        <ele>532.5</ele>
        <time>2011-04-06T15:59:11Z</time>
      </trkpt>
      <trkpt lat="44.35202" lon="2.55361">
        <ele>532.4</ele>
        <time>2011-04-06T15:59:12Z</time>
      </trkpt>
      <trkpt lat="44.35197" lon="2.55364">
        <ele>532.2</ele>
        <time>2011-04-06T15:59:13Z</time>
      </trkpt>
      <trkpt lat="44.35192" lon="2.55367">
        <ele>532.2</ele>
        <time>2011-04-06T15:59:14Z</time>
      </trkpt>
      <trkpt lat="44.35187" lon="2.55371">
        <ele>532.2</ele>
        <time>2011-04-06T15:59:15Z</time>
      </trkpt>
      <trkpt lat="44.35183" lon="2.55375">
        <ele>532.2</ele>
        <time>2011-04-06T15:59:16Z</time>
      </trkpt>
      <trkpt lat="44.35179" lon="2.55378">
        <ele>532</ele>
        <time>2011-04-06T15:59:17Z</time>
      </trkpt>
      <trkpt lat="44.35176" lon="2.55382">
        <ele>532</ele>
        <time>2011-04-06T15:59:18Z</time>
      </trkpt>
      <trkpt lat="44.35172" lon="2.55385">
        <ele>532</ele>
        <time>2011-04-06T15:59:20Z</time>
      </trkpt>
      <trkpt lat="44.35169" lon="2.55384">
        <ele>532.5</ele>
        <time>2011-04-06T15:59:35Z</time>
      </trkpt>
      <trkpt lat="44.35165" lon="2.55381">
        <ele>532.7</ele>
        <time>2011-04-06T15:59:38Z</time>
      </trkpt>
      <trkpt lat="44.35162" lon="2.55378">
        <ele>533</ele>
        <time>2011-04-06T15:59:40Z</time>
      </trkpt>
      <trkpt lat="44.3516" lon="2.55374">
        <ele>533.5</ele>
        <time>2011-04-06T15:59:42Z</time>
      </trkpt>
      <trkpt lat="44.35157" lon="2.5537">
        <ele>534.4</ele>
        <time>2011-04-06T15:59:44Z</time>
      </trkpt>
      <trkpt lat="44.35154" lon="2.55366">
        <ele>535</ele>
        <time>2011-04-06T15:59:46Z</time>
      </trkpt>
      <trkpt lat="44.3515" lon="2.55366">
        <ele>535.5</ele>
        <time>2011-04-06T15:59:48Z</time>
      </trkpt>
      <trkpt lat="44.35148" lon="2.55366">
        <ele>535.7</ele>
        <time>2011-04-06T15:59:49Z</time>
      </trkpt>
      <trkpt lat="44.35145" lon="2.55368">
        <ele>536</ele>
        <time>2011-04-06T15:59:50Z</time>
      </trkpt>
      <trkpt lat="44.35142" lon="2.5537">
        <ele>536.2</ele>
        <time>2011-04-06T15:59:51Z</time>
      </trkpt>
      <trkpt lat="44.35139" lon="2.55373">
        <ele>536.2</ele>
        <time>2011-04-06T15:59:52Z</time>
      </trkpt>
      <trkpt lat="44.35136" lon="2.55377">
        <ele>536</ele>
        <time>2011-04-06T15:59:53Z</time>
      </trkpt>
      <trkpt lat="44.35133" lon="2.55381">
        <ele>536</ele>
        <time>2011-04-06T15:59:54Z</time>
      </trkpt>
      <trkpt lat="44.3513" lon="2.55385">
        <ele>536.2</ele>
        <time>2011-04-06T15:59:55Z</time>
      </trkpt>
      <trkpt lat="44.35127" lon="2.55386">
        <ele>536.5</ele>
        <time>2011-04-06T15:59:56Z</time>
      </trkpt>
      <trkpt lat="44.35124" lon="2.55389">
        <ele>535.7</ele>
        <time>2011-04-06T15:59:58Z</time>
      </trkpt>
      <trkpt lat="44.35123" lon="2.5539">
        <ele>535.7</ele>
        <time>2011-04-06T15:59:59Z</time>
      </trkpt>
      <trkpt lat="44.35119" lon="2.55391">
        <ele>536.2</ele>
        <time>2011-04-06T16:00:00Z</time>
      </trkpt>
      <trkpt lat="44.35116" lon="2.55392">
        <ele>536.7</ele>
        <time>2011-04-06T16:00:01Z</time>
      </trkpt>
      <trkpt lat="44.35112" lon="2.55393">
        <ele>537</ele>
        <time>2011-04-06T16:00:02Z</time>
      </trkpt>
      <trkpt lat="44.35109" lon="2.55394">
        <ele>537.4</ele>
        <time>2011-04-06T16:00:03Z</time>
      </trkpt>
      <trkpt lat="44.35105" lon="2.55395">
        <ele>537.9</ele>
        <time>2011-04-06T16:00:04Z</time>
      </trkpt>
      <trkpt lat="44.35101" lon="2.55397">
        <ele>538.2</ele>
        <time>2011-04-06T16:00:05Z</time>
      </trkpt>
      <trkpt lat="44.35097" lon="2.55398">
        <ele>538.7</ele>
        <time>2011-04-06T16:00:06Z</time>
      </trkpt>
      <trkpt lat="44.35093" lon="2.55399">
        <ele>539</ele>
        <time>2011-04-06T16:00:07Z</time>
      </trkpt>
      <trkpt lat="44.35089" lon="2.554">
        <ele>539.2</ele>
        <time>2011-04-06T16:00:08Z</time>
      </trkpt>
      <trkpt lat="44.35085" lon="2.55401">
        <ele>539.5</ele>
        <time>2011-04-06T16:00:09Z</time>
      </trkpt>
      <trkpt lat="44.35081" lon="2.55403">
        <ele>539.5</ele>
        <time>2011-04-06T16:00:10Z</time>
      </trkpt>
      <trkpt lat="44.35077" lon="2.55404">
        <ele>539.7</ele>
        <time>2011-04-06T16:00:11Z</time>
      </trkpt>
      <trkpt lat="44.35072" lon="2.55405">
        <ele>539.9</ele>
        <time>2011-04-06T16:00:12Z</time>
      </trkpt>
      <trkpt lat="44.35069" lon="2.55407">
        <ele>540</ele>
        <time>2011-04-06T16:00:13Z</time>
      </trkpt>
      <trkpt lat="44.35065" lon="2.55408">
        <ele>540</ele>
        <time>2011-04-06T16:00:14Z</time>
      </trkpt>
      <trkpt lat="44.35061" lon="2.5541">
        <ele>540</ele>
        <time>2011-04-06T16:00:15Z</time>
      </trkpt>
      <trkpt lat="44.35057" lon="2.55412">
        <ele>540.2</ele>
        <time>2011-04-06T16:00:16Z</time>
      </trkpt>
      <trkpt lat="44.35054" lon="2.55414">
        <ele>540.4</ele>
        <time>2011-04-06T16:00:17Z</time>
      </trkpt>
      <trkpt lat="44.3505" lon="2.55416">
        <ele>540.5</ele>
        <time>2011-04-06T16:00:18Z</time>
      </trkpt>
      <trkpt lat="44.35047" lon="2.55418">
        <ele>540.5</ele>
        <time>2011-04-06T16:00:19Z</time>
      </trkpt>
      <trkpt lat="44.35044" lon="2.55419">
        <ele>540.7</ele>
        <time>2011-04-06T16:00:20Z</time>
      </trkpt>
      <trkpt lat="44.35041" lon="2.5542">
        <ele>541</ele>
        <time>2011-04-06T16:00:21Z</time>
      </trkpt>
      <trkpt lat="44.35039" lon="2.55422">
        <ele>541.2</ele>
        <time>2011-04-06T16:00:22Z</time>
      </trkpt>
      <trkpt lat="44.35036" lon="2.55423">
        <ele>541.5</ele>
        <time>2011-04-06T16:00:23Z</time>
      </trkpt>
      <trkpt lat="44.35034" lon="2.55425">
        <ele>541.9</ele>
        <time>2011-04-06T16:00:24Z</time>
      </trkpt>
      <trkpt lat="44.35032" lon="2.55426">
        <ele>542.2</ele>
        <time>2011-04-06T16:00:25Z</time>
      </trkpt>
      <trkpt lat="44.3503" lon="2.55427">
        <ele>542.7</ele>
        <time>2011-04-06T16:00:26Z</time>
      </trkpt>
      <trkpt lat="44.35028" lon="2.55429">
        <ele>543</ele>
        <time>2011-04-06T16:00:27Z</time>
      </trkpt>
      <trkpt lat="44.35025" lon="2.55431">
        <ele>543.2</ele>
        <time>2011-04-06T16:00:28Z</time>
      </trkpt>
      <trkpt lat="44.35023" lon="2.55433">
        <ele>543.4</ele>
        <time>2011-04-06T16:00:29Z</time>
      </trkpt>
      <trkpt lat="44.3502" lon="2.55437">
        <ele>543.4</ele>
        <time>2011-04-06T16:00:30Z</time>
      </trkpt>
      <trkpt lat="44.35017" lon="2.5544">
        <ele>543.4</ele>
        <time>2011-04-06T16:00:31Z</time>
      </trkpt>
      <trkpt lat="44.35013" lon="2.55444">
        <ele>543.2</ele>
        <time>2011-04-06T16:00:32Z</time>
      </trkpt>
      <trkpt lat="44.3501" lon="2.55448">
        <ele>543.2</ele>
        <time>2011-04-06T16:00:33Z</time>
      </trkpt>
      <trkpt lat="44.35006" lon="2.55451">
        <ele>543.2</ele>
        <time>2011-04-06T16:00:34Z</time>
      </trkpt>
      <trkpt lat="44.35003" lon="2.55455">
        <ele>543.2</ele>
        <time>2011-04-06T16:00:35Z</time>
      </trkpt>
      <trkpt lat="44.34999" lon="2.55458">
        <ele>543.4</ele>
        <time>2011-04-06T16:00:36Z</time>
      </trkpt>
      <trkpt lat="44.34996" lon="2.55461">
        <ele>543.4</ele>
        <time>2011-04-06T16:00:37Z</time>
      </trkpt>
      <trkpt lat="44.34993" lon="2.55464">
        <ele>543.4</ele>
        <time>2011-04-06T16:00:38Z</time>
      </trkpt>
      <trkpt lat="44.3499" lon="2.55467">
        <ele>543.4</ele>
        <time>2011-04-06T16:00:39Z</time>
      </trkpt>
      <trkpt lat="44.34987" lon="2.5547">
        <ele>543.4</ele>
        <time>2011-04-06T16:00:40Z</time>
      </trkpt>
      <trkpt lat="44.34983" lon="2.55472">
        <ele>543.4</ele>
        <time>2011-04-06T16:00:41Z</time>
      </trkpt>
      <trkpt lat="44.3498" lon="2.55475">
        <ele>543.4</ele>
        <time>2011-04-06T16:00:42Z</time>
      </trkpt>
      <trkpt lat="44.34977" lon="2.55477">
        <ele>543.5</ele>
        <time>2011-04-06T16:00:43Z</time>
      </trkpt>
      <trkpt lat="44.34974" lon="2.55479">
        <ele>543.5</ele>
        <time>2011-04-06T16:00:44Z</time>
      </trkpt>
      <trkpt lat="44.34971" lon="2.55481">
        <ele>543.5</ele>
        <time>2011-04-06T16:00:45Z</time>
      </trkpt>
      <trkpt lat="44.34968" lon="2.55482">
        <ele>543.7</ele>
        <time>2011-04-06T16:00:46Z</time>
      </trkpt>
      <trkpt lat="44.34965" lon="2.55484">
        <ele>543.7</ele>
        <time>2011-04-06T16:00:47Z</time>
      </trkpt>
      <trkpt lat="44.34962" lon="2.55485">
        <ele>543.9</ele>
        <time>2011-04-06T16:00:48Z</time>
      </trkpt>
      <trkpt lat="44.3496" lon="2.55487">
        <ele>544</ele>
        <time>2011-04-06T16:00:49Z</time>
      </trkpt>
      <trkpt lat="44.34957" lon="2.55488">
        <ele>544.5</ele>
        <time>2011-04-06T16:00:50Z</time>
      </trkpt>
      <trkpt lat="44.34953" lon="2.5549">
        <ele>545.7</ele>
        <time>2011-04-06T16:00:52Z</time>
      </trkpt>
      <trkpt lat="44.3495" lon="2.55492">
        <ele>547.4</ele>
        <time>2011-04-06T16:00:54Z</time>
      </trkpt>
      <trkpt lat="44.34947" lon="2.55495">
        <ele>549.7</ele>
        <time>2011-04-06T16:00:56Z</time>
      </trkpt>
      <trkpt lat="44.34944" lon="2.55498">
        <ele>552.2</ele>
        <time>2011-04-06T16:00:58Z</time>
      </trkpt>
      <trkpt lat="44.34941" lon="2.55502">
        <ele>554.4</ele>
        <time>2011-04-06T16:01:00Z</time>
      </trkpt>
      <trkpt lat="44.34938" lon="2.55506">
        <ele>556.7</ele>
        <time>2011-04-06T16:01:02Z</time>
      </trkpt>
      <trkpt lat="44.34936" lon="2.55508">
        <ele>557.9</ele>
        <time>2011-04-06T16:01:03Z</time>
      </trkpt>
      <trkpt lat="44.34935" lon="2.55511">
        <ele>559</ele>
        <time>2011-04-06T16:01:04Z</time>
      </trkpt>
      <trkpt lat="44.34933" lon="2.55513">
        <ele>560.2</ele>
        <time>2011-04-06T16:01:05Z</time>
      </trkpt>
      <trkpt lat="44.34932" lon="2.55516">
        <ele>561.4</ele>
        <time>2011-04-06T16:01:06Z</time>
      </trkpt>
      <trkpt lat="44.3493" lon="2.55518">
        <ele>562.4</ele>
        <time>2011-04-06T16:01:07Z</time>
      </trkpt>
      <trkpt lat="44.34927" lon="2.55521">
        <ele>563.2</ele>
        <time>2011-04-06T16:01:08Z</time>
      </trkpt>
      <trkpt lat="44.34926" lon="2.55523">
        <ele>563.9</ele>
        <time>2011-04-06T16:01:09Z</time>
      </trkpt>
      <trkpt lat="44.34924" lon="2.55525">
        <ele>564.5</ele>
        <time>2011-04-06T16:01:10Z</time>
      </trkpt>
      <trkpt lat="44.34923" lon="2.55528">
        <ele>565</ele>
        <time>2011-04-06T16:01:11Z</time>
      </trkpt>
      <trkpt lat="44.34921" lon="2.55531">
        <ele>565.7</ele>
        <time>2011-04-06T16:01:12Z</time>
      </trkpt>
      <trkpt lat="44.34919" lon="2.55533">
        <ele>566</ele>
        <time>2011-04-06T16:01:13Z</time>
      </trkpt>
      <trkpt lat="44.34918" lon="2.55536">
        <ele>566.4</ele>
        <time>2011-04-06T16:01:14Z</time>
      </trkpt>
      <trkpt lat="44.34915" lon="2.55541">
        <ele>567</ele>
        <time>2011-04-06T16:01:16Z</time>
      </trkpt>
      <trkpt lat="44.34913" lon="2.55543">
        <ele>567.5</ele>
        <time>2011-04-06T16:01:17Z</time>
      </trkpt>
      <trkpt lat="44.34911" lon="2.55546">
        <ele>567.7</ele>
        <time>2011-04-06T16:01:18Z</time>
      </trkpt>
      <trkpt lat="44.34908" lon="2.55548">
        <ele>567.9</ele>
        <time>2011-04-06T16:01:19Z</time>
      </trkpt>
      <trkpt lat="44.34905" lon="2.55551">
        <ele>568</ele>
        <time>2011-04-06T16:01:20Z</time>
      </trkpt>
      <trkpt lat="44.34903" lon="2.55554">
        <ele>568</ele>
        <time>2011-04-06T16:01:21Z</time>
      </trkpt>
      <trkpt lat="44.349" lon="2.55557">
        <ele>568</ele>
        <time>2011-04-06T16:01:22Z</time>
      </trkpt>
      <trkpt lat="44.34898" lon="2.5556">
        <ele>568</ele>
        <time>2011-04-06T16:01:23Z</time>
      </trkpt>
      <trkpt lat="44.34896" lon="2.55564">
        <ele>568.2</ele>
        <time>2011-04-06T16:01:24Z</time>
      </trkpt>
      <trkpt lat="44.34894" lon="2.55567">
        <ele>568.4</ele>
        <time>2011-04-06T16:01:25Z</time>
      </trkpt>
      <trkpt lat="44.34891" lon="2.55571">
        <ele>568.7</ele>
        <time>2011-04-06T16:01:26Z</time>
      </trkpt>
      <trkpt lat="44.34889" lon="2.55575">
        <ele>568.9</ele>
        <time>2011-04-06T16:01:27Z</time>
      </trkpt>
      <trkpt lat="44.34886" lon="2.55578">
        <ele>569.2</ele>
        <time>2011-04-06T16:01:28Z</time>
      </trkpt>
      <trkpt lat="44.34884" lon="2.55582">
        <ele>569.4</ele>
        <time>2011-04-06T16:01:29Z</time>
      </trkpt>
      <trkpt lat="44.34881" lon="2.55586">
        <ele>569.5</ele>
        <time>2011-04-06T16:01:30Z</time>
      </trkpt>
      <trkpt lat="44.34878" lon="2.5559">
        <ele>569.5</ele>
        <time>2011-04-06T16:01:31Z</time>
      </trkpt>
      <trkpt lat="44.34875" lon="2.55593">
        <ele>569.5</ele>
        <time>2011-04-06T16:01:32Z</time>
      </trkpt>
      <trkpt lat="44.34872" lon="2.55597">
        <ele>569.5</ele>
        <time>2011-04-06T16:01:33Z</time>
      </trkpt>
      <trkpt lat="44.34869" lon="2.556">
        <ele>569.2</ele>
        <time>2011-04-06T16:01:34Z</time>
      </trkpt>
      <trkpt lat="44.34867" lon="2.55603">
        <ele>569</ele>
        <time>2011-04-06T16:01:35Z</time>
      </trkpt>
      <trkpt lat="44.34864" lon="2.55606">
        <ele>568.7</ele>
        <time>2011-04-06T16:01:36Z</time>
      </trkpt>
      <trkpt lat="44.34861" lon="2.5561">
        <ele>568.5</ele>
        <time>2011-04-06T16:01:37Z</time>
      </trkpt>
      <trkpt lat="44.34858" lon="2.55613">
        <ele>568.4</ele>
        <time>2011-04-06T16:01:38Z</time>
      </trkpt>
      <trkpt lat="44.34855" lon="2.55617">
        <ele>568.2</ele>
        <time>2011-04-06T16:01:39Z</time>
      </trkpt>
      <trkpt lat="44.34852" lon="2.55621">
        <ele>568.2</ele>
        <time>2011-04-06T16:01:40Z</time>
      </trkpt>
      <trkpt lat="44.34848" lon="2.55625">
        <ele>568.2</ele>
        <time>2011-04-06T16:01:41Z</time>
      </trkpt>
      <trkpt lat="44.34845" lon="2.55628">
        <ele>568.4</ele>
        <time>2011-04-06T16:01:42Z</time>
      </trkpt>
      <trkpt lat="44.34842" lon="2.55632">
        <ele>568.4</ele>
        <time>2011-04-06T16:01:43Z</time>
      </trkpt>
      <trkpt lat="44.34839" lon="2.55635">
        <ele>568.5</ele>
        <time>2011-04-06T16:01:44Z</time>
      </trkpt>
      <trkpt lat="44.34836" lon="2.55639">
        <ele>568.2</ele>
        <time>2011-04-06T16:01:45Z</time>
      </trkpt>
      <trkpt lat="44.34832" lon="2.55643">
        <ele>568</ele>
        <time>2011-04-06T16:01:46Z</time>
      </trkpt>
      <trkpt lat="44.34829" lon="2.55647">
        <ele>567.7</ele>
        <time>2011-04-06T16:01:47Z</time>
      </trkpt>
      <trkpt lat="44.34826" lon="2.5565">
        <ele>567.7</ele>
        <time>2011-04-06T16:01:48Z</time>
      </trkpt>
      <trkpt lat="44.34823" lon="2.55653">
        <ele>567.7</ele>
        <time>2011-04-06T16:01:49Z</time>
      </trkpt>
      <trkpt lat="44.34821" lon="2.55656">
        <ele>567.9</ele>
        <time>2011-04-06T16:01:50Z</time>
      </trkpt>
      <trkpt lat="44.34818" lon="2.55659">
        <ele>568</ele>
        <time>2011-04-06T16:01:51Z</time>
      </trkpt>
      <trkpt lat="44.34816" lon="2.55662">
        <ele>568.2</ele>
        <time>2011-04-06T16:01:52Z</time>
      </trkpt>
      <trkpt lat="44.34813" lon="2.55665">
        <ele>568.5</ele>
        <time>2011-04-06T16:01:53Z</time>
      </trkpt>
      <trkpt lat="44.3481" lon="2.55668">
        <ele>568.7</ele>
        <time>2011-04-06T16:01:54Z</time>
      </trkpt>
      <trkpt lat="44.34807" lon="2.5567">
        <ele>568.7</ele>
        <time>2011-04-06T16:01:55Z</time>
      </trkpt>
      <trkpt lat="44.34804" lon="2.55673">
        <ele>568.7</ele>
        <time>2011-04-06T16:01:56Z</time>
      </trkpt>
      <trkpt lat="44.34802" lon="2.55676">
        <ele>568.7</ele>
        <time>2011-04-06T16:01:57Z</time>
      </trkpt>
      <trkpt lat="44.34799" lon="2.55679">
        <ele>569</ele>
        <time>2011-04-06T16:01:58Z</time>
      </trkpt>
      <trkpt lat="44.34797" lon="2.55682">
        <ele>569.5</ele>
        <time>2011-04-06T16:01:59Z</time>
      </trkpt>
      <trkpt lat="44.34796" lon="2.55684">
        <ele>570.2</ele>
        <time>2011-04-06T16:02:00Z</time>
      </trkpt>
      <trkpt lat="44.34794" lon="2.55687">
        <ele>571</ele>
        <time>2011-04-06T16:02:01Z</time>
      </trkpt>
      <trkpt lat="44.34793" lon="2.55689">
        <ele>571.9</ele>
        <time>2011-04-06T16:02:02Z</time>
      </trkpt>
      <trkpt lat="44.34791" lon="2.55692">
        <ele>572.9</ele>
        <time>2011-04-06T16:02:03Z</time>
      </trkpt>
      <trkpt lat="44.3479" lon="2.55694">
        <ele>573.9</ele>
        <time>2011-04-06T16:02:04Z</time>
      </trkpt>
      <trkpt lat="44.34788" lon="2.55696">
        <ele>574.7</ele>
        <time>2011-04-06T16:02:05Z</time>
      </trkpt>
      <trkpt lat="44.34785" lon="2.55701">
        <ele>576.4</ele>
        <time>2011-04-06T16:02:07Z</time>
      </trkpt>
      <trkpt lat="44.34782" lon="2.55705">
        <ele>577.7</ele>
        <time>2011-04-06T16:02:09Z</time>
      </trkpt>
      <trkpt lat="44.3478" lon="2.5571">
        <ele>579</ele>
        <time>2011-04-06T16:02:11Z</time>
      </trkpt>
      <trkpt lat="44.34778" lon="2.55712">
        <ele>579.5</ele>
        <time>2011-04-06T16:02:12Z</time>
      </trkpt>
      <trkpt lat="44.34777" lon="2.55715">
        <ele>579.7</ele>
        <time>2011-04-06T16:02:13Z</time>
      </trkpt>
      <trkpt lat="44.34775" lon="2.55717">
        <ele>580</ele>
        <time>2011-04-06T16:02:14Z</time>
      </trkpt>
      <trkpt lat="44.34773" lon="2.5572">
        <ele>580.5</ele>
        <time>2011-04-06T16:02:15Z</time>
      </trkpt>
      <trkpt lat="44.34771" lon="2.55724">
        <ele>580.7</ele>
        <time>2011-04-06T16:02:17Z</time>
      </trkpt>
      <trkpt lat="44.34768" lon="2.55729">
        <ele>580.7</ele>
        <time>2011-04-06T16:02:19Z</time>
      </trkpt>
      <trkpt lat="44.34766" lon="2.55731">
        <ele>580.7</ele>
        <time>2011-04-06T16:02:20Z</time>
      </trkpt>
      <trkpt lat="44.34764" lon="2.55734">
        <ele>580.5</ele>
        <time>2011-04-06T16:02:21Z</time>
      </trkpt>
      <trkpt lat="44.34761" lon="2.55738">
        <ele>580.5</ele>
        <time>2011-04-06T16:02:23Z</time>
      </trkpt>
      <trkpt lat="44.34759" lon="2.55743">
        <ele>580.7</ele>
        <time>2011-04-06T16:02:25Z</time>
      </trkpt>
      <trkpt lat="44.34755" lon="2.55747">
        <ele>580.9</ele>
        <time>2011-04-06T16:02:27Z</time>
      </trkpt>
      <trkpt lat="44.34752" lon="2.55751">
        <ele>581</ele>
        <time>2011-04-06T16:02:29Z</time>
      </trkpt>
      <trkpt lat="44.3475" lon="2.55754">
        <ele>581.5</ele>
        <time>2011-04-06T16:02:31Z</time>
      </trkpt>
      <trkpt lat="44.34747" lon="2.55758">
        <ele>582.5</ele>
        <time>2011-04-06T16:02:33Z</time>
      </trkpt>
      <trkpt lat="44.34743" lon="2.5576">
        <ele>583.4</ele>
        <time>2011-04-06T16:02:35Z</time>
      </trkpt>
      <trkpt lat="44.3474" lon="2.55765">
        <ele>583.4</ele>
        <time>2011-04-06T16:02:37Z</time>
      </trkpt>
      <trkpt lat="44.34739" lon="2.55767">
        <ele>583.5</ele>
        <time>2011-04-06T16:02:38Z</time>
      </trkpt>
      <trkpt lat="44.34737" lon="2.55771">
        <ele>583.5</ele>
        <time>2011-04-06T16:02:39Z</time>
      </trkpt>
      <trkpt lat="44.34735" lon="2.55774">
        <ele>583.7</ele>
        <time>2011-04-06T16:02:40Z</time>
      </trkpt>
      <trkpt lat="44.34734" lon="2.55778">
        <ele>583.4</ele>
        <time>2011-04-06T16:02:41Z</time>
      </trkpt>
      <trkpt lat="44.34732" lon="2.55783">
        <ele>582.7</ele>
        <time>2011-04-06T16:02:42Z</time>
      </trkpt>
      <trkpt lat="44.34731" lon="2.55789">
        <ele>581.9</ele>
        <time>2011-04-06T16:02:43Z</time>
      </trkpt>
      <trkpt lat="44.3473" lon="2.55796">
        <ele>581</ele>
        <time>2011-04-06T16:02:44Z</time>
      </trkpt>
      <trkpt lat="44.34729" lon="2.55804">
        <ele>580</ele>
        <time>2011-04-06T16:02:45Z</time>
      </trkpt>
      <trkpt lat="44.34727" lon="2.55813">
        <ele>579</ele>
        <time>2011-04-06T16:02:46Z</time>
      </trkpt>
      <trkpt lat="44.34726" lon="2.55823">
        <ele>577.5</ele>
        <time>2011-04-06T16:02:47Z</time>
      </trkpt>
      <trkpt lat="44.34725" lon="2.55833">
        <ele>575.7</ele>
        <time>2011-04-06T16:02:48Z</time>
      </trkpt>
      <trkpt lat="44.34725" lon="2.55845">
        <ele>575.2</ele>
        <time>2011-04-06T16:02:49Z</time>
      </trkpt>
      <trkpt lat="44.34727" lon="2.55857">
        <ele>578.2</ele>
        <time>2011-04-06T16:02:50Z</time>
      </trkpt>
      <trkpt lat="44.34727" lon="2.5587">
        <ele>582</ele>
        <time>2011-04-06T16:02:51Z</time>
      </trkpt>
      <trkpt lat="44.34725" lon="2.55882">
        <ele>582.9</ele>
        <time>2011-04-06T16:02:52Z</time>
      </trkpt>
      <trkpt lat="44.34723" lon="2.55894">
        <ele>582.5</ele>
        <time>2011-04-06T16:02:53Z</time>
      </trkpt>
      <trkpt lat="44.34721" lon="2.55905">
        <ele>582</ele>
        <time>2011-04-06T16:02:54Z</time>
      </trkpt>
      <trkpt lat="44.3472" lon="2.55916">
        <ele>581.7</ele>
        <time>2011-04-06T16:02:55Z</time>
      </trkpt>
      <trkpt lat="44.34718" lon="2.55926">
        <ele>581.2</ele>
        <time>2011-04-06T16:02:56Z</time>
      </trkpt>
      <trkpt lat="44.34716" lon="2.55934">
        <ele>581</ele>
        <time>2011-04-06T16:02:57Z</time>
      </trkpt>
      <trkpt lat="44.34713" lon="2.5594">
        <ele>580</ele>
        <time>2011-04-06T16:02:58Z</time>
      </trkpt>
      <trkpt lat="44.34709" lon="2.55946">
        <ele>579.2</ele>
        <time>2011-04-06T16:02:59Z</time>
      </trkpt>
      <trkpt lat="44.34707" lon="2.5595">
        <ele>578.9</ele>
        <time>2011-04-06T16:03:00Z</time>
      </trkpt>
      <trkpt lat="44.34705" lon="2.55953">
        <ele>578.5</ele>
        <time>2011-04-06T16:03:01Z</time>
      </trkpt>
      <trkpt lat="44.34703" lon="2.55956">
        <ele>578.5</ele>
        <time>2011-04-06T16:03:02Z</time>
      </trkpt>
      <trkpt lat="44.347" lon="2.5596">
        <ele>578</ele>
        <time>2011-04-06T16:03:04Z</time>
      </trkpt>
      <trkpt lat="44.34698" lon="2.55962">
        <ele>578.2</ele>
        <time>2011-04-06T16:03:05Z</time>
      </trkpt>
      <trkpt lat="44.34695" lon="2.55965">
        <ele>579</ele>
        <time>2011-04-06T16:03:07Z</time>
      </trkpt>
      <trkpt lat="44.34691" lon="2.55969">
        <ele>579.5</ele>
        <time>2011-04-06T16:03:09Z</time>
      </trkpt>
      <trkpt lat="44.34688" lon="2.55972">
        <ele>579.2</ele>
        <time>2011-04-06T16:03:11Z</time>
      </trkpt>
      <trkpt lat="44.34685" lon="2.55976">
        <ele>578.4</ele>
        <time>2011-04-06T16:03:13Z</time>
      </trkpt>
      <trkpt lat="44.34684" lon="2.55978">
        <ele>578</ele>
        <time>2011-04-06T16:03:14Z</time>
      </trkpt>
      <trkpt lat="44.3468" lon="2.55985">
        <ele>575.7</ele>
        <time>2011-04-06T16:03:17Z</time>
      </trkpt>
      <trkpt lat="44.34677" lon="2.55989">
        <ele>574.4</ele>
        <time>2011-04-06T16:03:19Z</time>
      </trkpt>
      <trkpt lat="44.34674" lon="2.55991">
        <ele>573</ele>
        <time>2011-04-06T16:03:21Z</time>
      </trkpt>
      <trkpt lat="44.3467" lon="2.55993">
        <ele>570.9</ele>
        <time>2011-04-06T16:03:24Z</time>
      </trkpt>
      <trkpt lat="44.34667" lon="2.55994">
        <ele>568.4</ele>
        <time>2011-04-06T16:03:27Z</time>
      </trkpt>
      <trkpt lat="44.34664" lon="2.55994">
        <ele>567.4</ele>
        <time>2011-04-06T16:03:29Z</time>
      </trkpt>
      <trkpt lat="44.34659" lon="2.55995">
        <ele>566</ele>
        <time>2011-04-06T16:03:32Z</time>
      </trkpt>
      <trkpt lat="44.34656" lon="2.55996">
        <ele>565.2</ele>
        <time>2011-04-06T16:03:34Z</time>
      </trkpt>
      <trkpt lat="44.34652" lon="2.55997">
        <ele>564</ele>
        <time>2011-04-06T16:03:37Z</time>
      </trkpt>
      <trkpt lat="44.34649" lon="2.55999">
        <ele>563.2</ele>
        <time>2011-04-06T16:03:39Z</time>
      </trkpt>
      <trkpt lat="44.34646" lon="2.56001">
        <ele>562.9</ele>
        <time>2011-04-06T16:03:41Z</time>
      </trkpt>
      <trkpt lat="44.34643" lon="2.56004">
        <ele>563</ele>
        <time>2011-04-06T16:03:43Z</time>
      </trkpt>
      <trkpt lat="44.3464" lon="2.56009">
        <ele>563.4</ele>
        <time>2011-04-06T16:03:46Z</time>
      </trkpt>
      <trkpt lat="44.34638" lon="2.56014">
        <ele>563.5</ele>
        <time>2011-04-06T16:03:49Z</time>
      </trkpt>
      <trkpt lat="44.34635" lon="2.56018">
        <ele>563.7</ele>
        <time>2011-04-06T16:03:51Z</time>
      </trkpt>
      <trkpt lat="44.34632" lon="2.56022">
        <ele>563.7</ele>
        <time>2011-04-06T16:03:53Z</time>
      </trkpt>
      <trkpt lat="44.3463" lon="2.56026">
        <ele>564</ele>
        <time>2011-04-06T16:03:55Z</time>
      </trkpt>
      <trkpt lat="44.34627" lon="2.56031">
        <ele>564.2</ele>
        <time>2011-04-06T16:03:57Z</time>
      </trkpt>
      <trkpt lat="44.34624" lon="2.56035">
        <ele>564.2</ele>
        <time>2011-04-06T16:03:59Z</time>
      </trkpt>
      <trkpt lat="44.34621" lon="2.5604">
        <ele>564</ele>
        <time>2011-04-06T16:04:01Z</time>
      </trkpt>
      <trkpt lat="44.3462" lon="2.56043">
        <ele>564</ele>
        <time>2011-04-06T16:04:02Z</time>
      </trkpt>
      <trkpt lat="44.34617" lon="2.56047">
        <ele>563.7</ele>
        <time>2011-04-06T16:04:04Z</time>
      </trkpt>
      <trkpt lat="44.34615" lon="2.5605">
        <ele>563.5</ele>
        <time>2011-04-06T16:04:05Z</time>
      </trkpt>
      <trkpt lat="44.34614" lon="2.56052">
        <ele>563.4</ele>
        <time>2011-04-06T16:04:06Z</time>
      </trkpt>
      <trkpt lat="44.34612" lon="2.56055">
        <ele>563.2</ele>
        <time>2011-04-06T16:04:07Z</time>
      </trkpt>
      <trkpt lat="44.34609" lon="2.56059">
        <ele>562.7</ele>
        <time>2011-04-06T16:04:09Z</time>
      </trkpt>
      <trkpt lat="44.34607" lon="2.56061">
        <ele>562.4</ele>
        <time>2011-04-06T16:04:10Z</time>
      </trkpt>
      <trkpt lat="44.34606" lon="2.56064">
        <ele>562.2</ele>
        <time>2011-04-06T16:04:11Z</time>
      </trkpt>
      <trkpt lat="44.34604" lon="2.56066">
        <ele>562</ele>
        <time>2011-04-06T16:04:12Z</time>
      </trkpt>
      <trkpt lat="44.34602" lon="2.56069">
        <ele>562</ele>
        <time>2011-04-06T16:04:13Z</time>
      </trkpt>
      <trkpt lat="44.34601" lon="2.56071">
        <ele>561.7</ele>
        <time>2011-04-06T16:04:14Z</time>
      </trkpt>
      <trkpt lat="44.34599" lon="2.56074">
        <ele>561.5</ele>
        <time>2011-04-06T16:04:15Z</time>
      </trkpt>
      <trkpt lat="44.34598" lon="2.56077">
        <ele>561.5</ele>
        <time>2011-04-06T16:04:16Z</time>
      </trkpt>
      <trkpt lat="44.34596" lon="2.56079">
        <ele>561.2</ele>
        <time>2011-04-06T16:04:17Z</time>
      </trkpt>
      <trkpt lat="44.34595" lon="2.56082">
        <ele>561.2</ele>
        <time>2011-04-06T16:04:18Z</time>
      </trkpt>
      <trkpt lat="44.34592" lon="2.56087">
        <ele>560.9</ele>
        <time>2011-04-06T16:04:20Z</time>
      </trkpt>
      <trkpt lat="44.34589" lon="2.56091">
        <ele>560.7</ele>
        <time>2011-04-06T16:04:22Z</time>
      </trkpt>
      <trkpt lat="44.34586" lon="2.56096">
        <ele>560.9</ele>
        <time>2011-04-06T16:04:24Z</time>
      </trkpt>
      <trkpt lat="44.34583" lon="2.56101">
        <ele>560.9</ele>
        <time>2011-04-06T16:04:26Z</time>
      </trkpt>
      <trkpt lat="44.3458" lon="2.56105">
        <ele>561.2</ele>
        <time>2011-04-06T16:04:28Z</time>
      </trkpt>
      <trkpt lat="44.34576" lon="2.56108">
        <ele>561.7</ele>
        <time>2011-04-06T16:04:30Z</time>
      </trkpt>
      <trkpt lat="44.34572" lon="2.56111">
        <ele>562</ele>
        <time>2011-04-06T16:04:32Z</time>
      </trkpt>
      <trkpt lat="44.34569" lon="2.56113">
        <ele>562.2</ele>
        <time>2011-04-06T16:04:34Z</time>
      </trkpt>
      <trkpt lat="44.34565" lon="2.56113">
        <ele>562.4</ele>
        <time>2011-04-06T16:04:36Z</time>
      </trkpt>
      <trkpt lat="44.34562" lon="2.56113">
        <ele>562.5</ele>
        <time>2011-04-06T16:04:38Z</time>
      </trkpt>
      <trkpt lat="44.34558" lon="2.56113">
        <ele>563.4</ele>
        <time>2011-04-06T16:04:41Z</time>
      </trkpt>
      <trkpt lat="44.34554" lon="2.56113">
        <ele>564</ele>
        <time>2011-04-06T16:04:44Z</time>
      </trkpt>
      <trkpt lat="44.34551" lon="2.56112">
        <ele>565.5</ele>
        <time>2011-04-06T16:04:47Z</time>
      </trkpt>
      <trkpt lat="44.34547" lon="2.56111">
        <ele>566.9</ele>
        <time>2011-04-06T16:04:51Z</time>
      </trkpt>
      <trkpt lat="44.34543" lon="2.56108">
        <ele>567.5</ele>
        <time>2011-04-06T16:04:55Z</time>
      </trkpt>
      <trkpt lat="44.3454" lon="2.56105">
        <ele>567.7</ele>
        <time>2011-04-06T16:04:58Z</time>
      </trkpt>
      <trkpt lat="44.34537" lon="2.56102">
        <ele>567.7</ele>
        <time>2011-04-06T16:05:01Z</time>
      </trkpt>
      <trkpt lat="44.34535" lon="2.56099">
        <ele>568.4</ele>
        <time>2011-04-06T16:05:04Z</time>
      </trkpt>
      <trkpt lat="44.34532" lon="2.56094">
        <ele>569</ele>
        <time>2011-04-06T16:05:08Z</time>
      </trkpt>
      <trkpt lat="44.3453" lon="2.5609">
        <ele>570</ele>
        <time>2011-04-06T16:05:11Z</time>
      </trkpt>
      <trkpt lat="44.34527" lon="2.56086">
        <ele>570.7</ele>
        <time>2011-04-06T16:05:14Z</time>
      </trkpt>
      <trkpt lat="44.34525" lon="2.56083">
        <ele>571</ele>
        <time>2011-04-06T16:05:17Z</time>
      </trkpt>
      <trkpt lat="44.34524" lon="2.56081">
        <ele>571</ele>
        <time>2011-04-06T16:05:18Z</time>
      </trkpt>
      <trkpt lat="44.34519" lon="2.56075">
        <ele>571.9</ele>
        <time>2011-04-06T16:05:23Z</time>
      </trkpt>
      <trkpt lat="44.34516" lon="2.56072">
        <ele>571.7</ele>
        <time>2011-04-06T16:05:25Z</time>
      </trkpt>
      <trkpt lat="44.34513" lon="2.56069">
        <ele>571.7</ele>
        <time>2011-04-06T16:05:28Z</time>
      </trkpt>
      <trkpt lat="44.34509" lon="2.56065">
        <ele>572.7</ele>
        <time>2011-04-06T16:05:31Z</time>
      </trkpt>
      <trkpt lat="44.34506" lon="2.56062">
        <ele>574.2</ele>
        <time>2011-04-06T16:05:34Z</time>
      </trkpt>
      <trkpt lat="44.34503" lon="2.5606">
        <ele>575</ele>
        <time>2011-04-06T16:05:36Z</time>
      </trkpt>
      <trkpt lat="44.345" lon="2.56058">
        <ele>576</ele>
        <time>2011-04-06T16:05:38Z</time>
      </trkpt>
      <trkpt lat="44.34497" lon="2.56056">
        <ele>576.7</ele>
        <time>2011-04-06T16:05:40Z</time>
      </trkpt>
      <trkpt lat="44.34493" lon="2.56054">
        <ele>577.5</ele>
        <time>2011-04-06T16:05:42Z</time>
      </trkpt>
      <trkpt lat="44.3449" lon="2.56053">
        <ele>578</ele>
        <time>2011-04-06T16:05:44Z</time>
      </trkpt>
      <trkpt lat="44.34487" lon="2.56051">
        <ele>578.2</ele>
        <time>2011-04-06T16:05:46Z</time>
      </trkpt>
      <trkpt lat="44.34484" lon="2.56051">
        <ele>578</ele>
        <time>2011-04-06T16:05:48Z</time>
      </trkpt>
      <trkpt lat="44.34481" lon="2.5605">
        <ele>577.7</ele>
        <time>2011-04-06T16:05:50Z</time>
      </trkpt>
      <trkpt lat="44.34477" lon="2.56049">
        <ele>577.7</ele>
        <time>2011-04-06T16:05:52Z</time>
      </trkpt>
      <trkpt lat="44.34474" lon="2.56048">
        <ele>577.5</ele>
        <time>2011-04-06T16:05:54Z</time>
      </trkpt>
      <trkpt lat="44.3447" lon="2.56047">
        <ele>577.5</ele>
        <time>2011-04-06T16:05:56Z</time>
      </trkpt>
      <trkpt lat="44.34467" lon="2.56046">
        <ele>577.5</ele>
        <time>2011-04-06T16:05:58Z</time>
      </trkpt>
      <trkpt lat="44.34463" lon="2.56045">
        <ele>577.5</ele>
        <time>2011-04-06T16:06:00Z</time>
      </trkpt>
      <trkpt lat="44.3446" lon="2.56044">
        <ele>577.7</ele>
        <time>2011-04-06T16:06:02Z</time>
      </trkpt>
      <trkpt lat="44.34457" lon="2.56044">
        <ele>578</ele>
        <time>2011-04-06T16:06:04Z</time>
      </trkpt>
      <trkpt lat="44.34454" lon="2.56043">
        <ele>578.4</ele>
        <time>2011-04-06T16:06:06Z</time>
      </trkpt>
      <trkpt lat="44.34451" lon="2.56043">
        <ele>578.7</ele>
        <time>2011-04-06T16:06:08Z</time>
      </trkpt>
      <trkpt lat="44.34446" lon="2.56042">
        <ele>579.2</ele>
        <time>2011-04-06T16:06:11Z</time>
      </trkpt>
      <trkpt lat="44.34443" lon="2.56041">
        <ele>580</ele>
        <time>2011-04-06T16:06:13Z</time>
      </trkpt>
      <trkpt lat="44.3444" lon="2.56041">
        <ele>580.7</ele>
        <time>2011-04-06T16:06:15Z</time>
      </trkpt>
      <trkpt lat="44.34436" lon="2.56041">
        <ele>581</ele>
        <time>2011-04-06T16:06:17Z</time>
      </trkpt>
      <trkpt lat="44.34433" lon="2.56041">
        <ele>581.5</ele>
        <time>2011-04-06T16:06:19Z</time>
      </trkpt>
      <trkpt lat="44.34431" lon="2.56041">
        <ele>581.7</ele>
        <time>2011-04-06T16:06:20Z</time>
      </trkpt>
      <trkpt lat="44.34427" lon="2.5604">
        <ele>582.2</ele>
        <time>2011-04-06T16:06:23Z</time>
      </trkpt>
      <trkpt lat="44.34424" lon="2.5604">
        <ele>582.5</ele>
        <time>2011-04-06T16:06:25Z</time>
      </trkpt>
      <trkpt lat="44.3442" lon="2.5604">
        <ele>582.9</ele>
        <time>2011-04-06T16:06:27Z</time>
      </trkpt>
      <trkpt lat="44.34418" lon="2.5604">
        <ele>583</ele>
        <time>2011-04-06T16:06:29Z</time>
      </trkpt>
      <trkpt lat="44.34413" lon="2.5604">
        <ele>583.4</ele>
        <time>2011-04-06T16:06:32Z</time>
      </trkpt>
      <trkpt lat="44.34409" lon="2.5604">
        <ele>583.7</ele>
        <time>2011-04-06T16:06:35Z</time>
      </trkpt>
      <trkpt lat="44.34404" lon="2.5604">
        <ele>583.9</ele>
        <time>2011-04-06T16:06:38Z</time>
      </trkpt>
      <trkpt lat="44.34401" lon="2.5604">
        <ele>584.2</ele>
        <time>2011-04-06T16:06:40Z</time>
      </trkpt>
      <trkpt lat="44.34397" lon="2.56039">
        <ele>584.9</ele>
        <time>2011-04-06T16:06:43Z</time>
      </trkpt>
      <trkpt lat="44.34393" lon="2.56038">
        <ele>585.4</ele>
        <time>2011-04-06T16:06:46Z</time>
      </trkpt>
      <trkpt lat="44.34388" lon="2.56037">
        <ele>586</ele>
        <time>2011-04-06T16:06:49Z</time>
      </trkpt>
      <trkpt lat="44.34385" lon="2.56036">
        <ele>586.2</ele>
        <time>2011-04-06T16:06:52Z</time>
      </trkpt>
      <trkpt lat="44.34381" lon="2.56035">
        <ele>586.5</ele>
        <time>2011-04-06T16:06:55Z</time>
      </trkpt>
      <trkpt lat="44.34378" lon="2.56032">
        <ele>587</ele>
        <time>2011-04-06T16:06:58Z</time>
      </trkpt>
      <trkpt lat="44.34375" lon="2.56029">
        <ele>587.7</ele>
        <time>2011-04-06T16:07:01Z</time>
      </trkpt>
      <trkpt lat="44.34372" lon="2.56027">
        <ele>588.2</ele>
        <time>2011-04-06T16:07:04Z</time>
      </trkpt>
      <trkpt lat="44.34369" lon="2.56024">
        <ele>588.7</ele>
        <time>2011-04-06T16:07:07Z</time>
      </trkpt>
      <trkpt lat="44.34366" lon="2.56021">
        <ele>589</ele>
        <time>2011-04-06T16:07:10Z</time>
      </trkpt>
      <trkpt lat="44.34363" lon="2.5602">
        <ele>589</ele>
        <time>2011-04-06T16:07:12Z</time>
      </trkpt>
      <trkpt lat="44.34359" lon="2.56021">
        <ele>588.9</ele>
        <time>2011-04-06T16:07:14Z</time>
      </trkpt>
      <trkpt lat="44.34354" lon="2.56023">
        <ele>588.5</ele>
        <time>2011-04-06T16:07:16Z</time>
      </trkpt>
      <trkpt lat="44.34352" lon="2.56024">
        <ele>588.5</ele>
        <time>2011-04-06T16:07:17Z</time>
      </trkpt>
      <trkpt lat="44.3435" lon="2.56025">
        <ele>588.2</ele>
        <time>2011-04-06T16:07:18Z</time>
      </trkpt>
      <trkpt lat="44.34347" lon="2.56027">
        <ele>588</ele>
        <time>2011-04-06T16:07:19Z</time>
      </trkpt>
      <trkpt lat="44.34345" lon="2.56028">
        <ele>588</ele>
        <time>2011-04-06T16:07:20Z</time>
      </trkpt>
      <trkpt lat="44.34342" lon="2.5603">
        <ele>587.9</ele>
        <time>2011-04-06T16:07:21Z</time>
      </trkpt>
      <trkpt lat="44.34339" lon="2.56032">
        <ele>587.7</ele>
        <time>2011-04-06T16:07:22Z</time>
      </trkpt>
      <trkpt lat="44.34336" lon="2.56035">
        <ele>587.5</ele>
        <time>2011-04-06T16:07:23Z</time>
      </trkpt>
      <trkpt lat="44.34332" lon="2.56037">
        <ele>587.4</ele>
        <time>2011-04-06T16:07:24Z</time>
      </trkpt>
      <trkpt lat="44.34328" lon="2.5604">
        <ele>587</ele>
        <time>2011-04-06T16:07:25Z</time>
      </trkpt>
      <trkpt lat="44.34325" lon="2.56043">
        <ele>586.7</ele>
        <time>2011-04-06T16:07:26Z</time>
      </trkpt>
      <trkpt lat="44.34321" lon="2.56046">
        <ele>586.5</ele>
        <time>2011-04-06T16:07:27Z</time>
      </trkpt>
      <trkpt lat="44.34317" lon="2.56049">
        <ele>586.2</ele>
        <time>2011-04-06T16:07:28Z</time>
      </trkpt>
      <trkpt lat="44.34313" lon="2.56052">
        <ele>585.9</ele>
        <time>2011-04-06T16:07:29Z</time>
      </trkpt>
      <trkpt lat="44.34309" lon="2.56056">
        <ele>585.5</ele>
        <time>2011-04-06T16:07:30Z</time>
      </trkpt>
      <trkpt lat="44.34305" lon="2.56059">
        <ele>585.2</ele>
        <time>2011-04-06T16:07:31Z</time>
      </trkpt>
      <trkpt lat="44.34302" lon="2.56063">
        <ele>584.9</ele>
        <time>2011-04-06T16:07:32Z</time>
      </trkpt>
      <trkpt lat="44.34298" lon="2.56067">
        <ele>584.5</ele>
        <time>2011-04-06T16:07:33Z</time>
      </trkpt>
      <trkpt lat="44.34294" lon="2.56072">
        <ele>584.2</ele>
        <time>2011-04-06T16:07:34Z</time>
      </trkpt>
      <trkpt lat="44.3429" lon="2.56076">
        <ele>584</ele>
        <time>2011-04-06T16:07:35Z</time>
      </trkpt>
      <trkpt lat="44.34286" lon="2.56081">
        <ele>583.7</ele>
        <time>2011-04-06T16:07:36Z</time>
      </trkpt>
      <trkpt lat="44.34282" lon="2.56087">
        <ele>583.5</ele>
        <time>2011-04-06T16:07:37Z</time>
      </trkpt>
      <trkpt lat="44.34278" lon="2.56093">
        <ele>583.2</ele>
        <time>2011-04-06T16:07:38Z</time>
      </trkpt>
      <trkpt lat="44.34274" lon="2.561">
        <ele>582.7</ele>
        <time>2011-04-06T16:07:39Z</time>
      </trkpt>
      <trkpt lat="44.34269" lon="2.56106">
        <ele>582.2</ele>
        <time>2011-04-06T16:07:40Z</time>
      </trkpt>
      <trkpt lat="44.34264" lon="2.56112">
        <ele>582</ele>
        <time>2011-04-06T16:07:41Z</time>
      </trkpt>
      <trkpt lat="44.3426" lon="2.56118">
        <ele>581.9</ele>
        <time>2011-04-06T16:07:42Z</time>
      </trkpt>
      <trkpt lat="44.34256" lon="2.56124">
        <ele>581.7</ele>
        <time>2011-04-06T16:07:43Z</time>
      </trkpt>
      <trkpt lat="44.34253" lon="2.56129">
        <ele>581.5</ele>
        <time>2011-04-06T16:07:44Z</time>
      </trkpt>
      <trkpt lat="44.34251" lon="2.56135">
        <ele>581.5</ele>
        <time>2011-04-06T16:07:45Z</time>
      </trkpt>
      <trkpt lat="44.34249" lon="2.56139">
        <ele>581.7</ele>
        <time>2011-04-06T16:07:46Z</time>
      </trkpt>
      <trkpt lat="44.34247" lon="2.56143">
        <ele>582</ele>
        <time>2011-04-06T16:07:47Z</time>
      </trkpt>
      <trkpt lat="44.34245" lon="2.56147">
        <ele>582.2</ele>
        <time>2011-04-06T16:07:48Z</time>
      </trkpt>
      <trkpt lat="44.34243" lon="2.5615">
        <ele>582.5</ele>
        <time>2011-04-06T16:07:49Z</time>
      </trkpt>
      <trkpt lat="44.34241" lon="2.56154">
        <ele>583</ele>
        <time>2011-04-06T16:07:50Z</time>
      </trkpt>
      <trkpt lat="44.34239" lon="2.56156">
        <ele>583.2</ele>
        <time>2011-04-06T16:07:51Z</time>
      </trkpt>
      <trkpt lat="44.34237" lon="2.56159">
        <ele>583.5</ele>
        <time>2011-04-06T16:07:52Z</time>
      </trkpt>
      <trkpt lat="44.34234" lon="2.5616">
        <ele>583.9</ele>
        <time>2011-04-06T16:07:53Z</time>
      </trkpt>
      <trkpt lat="44.3423" lon="2.56161">
        <ele>584.5</ele>
        <time>2011-04-06T16:07:55Z</time>
      </trkpt>
      <trkpt lat="44.34226" lon="2.56159">
        <ele>585.2</ele>
        <time>2011-04-06T16:07:57Z</time>
      </trkpt>
      <trkpt lat="44.34225" lon="2.56154">
        <ele>585.9</ele>
        <time>2011-04-06T16:07:59Z</time>
      </trkpt>
      <trkpt lat="44.34223" lon="2.5615">
        <ele>586.5</ele>
        <time>2011-04-06T16:08:01Z</time>
      </trkpt>
      <trkpt lat="44.34219" lon="2.56147">
        <ele>587.7</ele>
        <time>2011-04-06T16:08:04Z</time>
      </trkpt>
      <trkpt lat="44.34215" lon="2.56147">
        <ele>589.2</ele>
        <time>2011-04-06T16:08:07Z</time>
      </trkpt>
      <trkpt lat="44.34212" lon="2.56151">
        <ele>591</ele>
        <time>2011-04-06T16:08:10Z</time>
      </trkpt>
      <trkpt lat="44.34209" lon="2.56154">
        <ele>592.5</ele>
        <time>2011-04-06T16:08:13Z</time>
      </trkpt>
      <trkpt lat="44.34207" lon="2.56157">
        <ele>593.7</ele>
        <time>2011-04-06T16:08:16Z</time>
      </trkpt>
      <trkpt lat="44.34203" lon="2.56162">
        <ele>594.4</ele>
        <time>2011-04-06T16:08:19Z</time>
      </trkpt>
      <trkpt lat="44.34201" lon="2.56165">
        <ele>595</ele>
        <time>2011-04-06T16:08:22Z</time>
      </trkpt>
      <trkpt lat="44.342" lon="2.56167">
        <ele>595.2</ele>
        <time>2011-04-06T16:08:23Z</time>
      </trkpt>
      <trkpt lat="44.34195" lon="2.56173">
        <ele>596.5</ele>
        <time>2011-04-06T16:08:28Z</time>
      </trkpt>
      <trkpt lat="44.34192" lon="2.56176">
        <ele>596.7</ele>
        <time>2011-04-06T16:08:30Z</time>
      </trkpt>
      <trkpt lat="44.34189" lon="2.56178">
        <ele>596.9</ele>
        <time>2011-04-06T16:08:32Z</time>
      </trkpt>
      <trkpt lat="44.34186" lon="2.5618">
        <ele>597</ele>
        <time>2011-04-06T16:08:34Z</time>
      </trkpt>
      <trkpt lat="44.34182" lon="2.56181">
        <ele>596.9</ele>
        <time>2011-04-06T16:08:36Z</time>
      </trkpt>
      <trkpt lat="44.34179" lon="2.56182">
        <ele>596.7</ele>
        <time>2011-04-06T16:08:38Z</time>
      </trkpt>
      <trkpt lat="44.34176" lon="2.56182">
        <ele>596.7</ele>
        <time>2011-04-06T16:08:40Z</time>
      </trkpt>
      <trkpt lat="44.34172" lon="2.56181">
        <ele>596.7</ele>
        <time>2011-04-06T16:08:43Z</time>
      </trkpt>
      <trkpt lat="44.34167" lon="2.5618">
        <ele>596.7</ele>
        <time>2011-04-06T16:08:46Z</time>
      </trkpt>
      <trkpt lat="44.34163" lon="2.56178">
        <ele>596.2</ele>
        <time>2011-04-06T16:08:53Z</time>
      </trkpt>
      <trkpt lat="44.3416" lon="2.56175">
        <ele>596.9</ele>
        <time>2011-04-06T16:08:59Z</time>
      </trkpt>
      <trkpt lat="44.34157" lon="2.56172">
        <ele>596.7</ele>
        <time>2011-04-06T16:09:05Z</time>
      </trkpt>
      <trkpt lat="44.34153" lon="2.56169">
        <ele>596.7</ele>
        <time>2011-04-06T16:09:08Z</time>
      </trkpt>
      <trkpt lat="44.3415" lon="2.56167">
        <ele>596.9</ele>
        <time>2011-04-06T16:09:11Z</time>
      </trkpt>
      <trkpt lat="44.34147" lon="2.56164">
        <ele>597</ele>
        <time>2011-04-06T16:09:14Z</time>
      </trkpt>
      <trkpt lat="44.34144" lon="2.56161">
        <ele>597.5</ele>
        <time>2011-04-06T16:09:17Z</time>
      </trkpt>
      <trkpt lat="44.34141" lon="2.56158">
        <ele>598</ele>
        <time>2011-04-06T16:09:20Z</time>
      </trkpt>
      <trkpt lat="44.34138" lon="2.56154">
        <ele>599</ele>
        <time>2011-04-06T16:09:23Z</time>
      </trkpt>
      <trkpt lat="44.34136" lon="2.56153">
        <ele>599.7</ele>
        <time>2011-04-06T16:09:24Z</time>
      </trkpt>
      <trkpt lat="44.34131" lon="2.56149">
        <ele>601</ele>
        <time>2011-04-06T16:09:28Z</time>
      </trkpt>
      <trkpt lat="44.34127" lon="2.56149">
        <ele>601</ele>
        <time>2011-04-06T16:09:31Z</time>
      </trkpt>
      <trkpt lat="44.34124" lon="2.56151">
        <ele>601</ele>
        <time>2011-04-06T16:09:33Z</time>
      </trkpt>
      <trkpt lat="44.34121" lon="2.56152">
        <ele>601</ele>
        <time>2011-04-06T16:09:35Z</time>
      </trkpt>
      <trkpt lat="44.34117" lon="2.56154">
        <ele>601</ele>
        <time>2011-04-06T16:09:37Z</time>
      </trkpt>
      <trkpt lat="44.34114" lon="2.56156">
        <ele>601</ele>
        <time>2011-04-06T16:09:39Z</time>
      </trkpt>
      <trkpt lat="44.3411" lon="2.56157">
        <ele>601</ele>
        <time>2011-04-06T16:09:41Z</time>
      </trkpt>
      <trkpt lat="44.34106" lon="2.56159">
        <ele>601.2</ele>
        <time>2011-04-06T16:09:43Z</time>
      </trkpt>
      <trkpt lat="44.34104" lon="2.5616">
        <ele>601.2</ele>
        <time>2011-04-06T16:09:44Z</time>
      </trkpt>
      <trkpt lat="44.34101" lon="2.56162">
        <ele>601.4</ele>
        <time>2011-04-06T16:09:45Z</time>
      </trkpt>
      <trkpt lat="44.34098" lon="2.56164">
        <ele>601.5</ele>
        <time>2011-04-06T16:09:46Z</time>
      </trkpt>
      <trkpt lat="44.34095" lon="2.56165">
        <ele>601.5</ele>
        <time>2011-04-06T16:09:47Z</time>
      </trkpt>
      <trkpt lat="44.34092" lon="2.56167">
        <ele>601.5</ele>
        <time>2011-04-06T16:09:48Z</time>
      </trkpt>
      <trkpt lat="44.34088" lon="2.56168">
        <ele>601.5</ele>
        <time>2011-04-06T16:09:49Z</time>
      </trkpt>
      <trkpt lat="44.34085" lon="2.5617">
        <ele>601.4</ele>
        <time>2011-04-06T16:09:50Z</time>
      </trkpt>
      <trkpt lat="44.34081" lon="2.56171">
        <ele>601.2</ele>
        <time>2011-04-06T16:09:51Z</time>
      </trkpt>
      <trkpt lat="44.34079" lon="2.5617">
        <ele>601.2</ele>
        <time>2011-04-06T16:09:52Z</time>
      </trkpt>
      <trkpt lat="44.34075" lon="2.56166">
        <ele>601.9</ele>
        <time>2011-04-06T16:09:54Z</time>
      </trkpt>
      <trkpt lat="44.34072" lon="2.56165">
        <ele>605.2</ele>
        <time>2011-04-06T16:09:58Z</time>
      </trkpt>
      <trkpt lat="44.34069" lon="2.56162">
        <ele>607.2</ele>
        <time>2011-04-06T16:10:00Z</time>
      </trkpt>
      <trkpt lat="44.34067" lon="2.56159">
        <ele>608.7</ele>
        <time>2011-04-06T16:10:02Z</time>
      </trkpt>
      <trkpt lat="44.34069" lon="2.56155">
        <ele>611.2</ele>
        <time>2011-04-06T16:10:08Z</time>
      </trkpt>
      <trkpt lat="44.34073" lon="2.56153">
        <ele>613</ele>
        <time>2011-04-06T16:10:12Z</time>
      </trkpt>
      <trkpt lat="44.34076" lon="2.5615">
        <ele>613.7</ele>
        <time>2011-04-06T16:10:15Z</time>
      </trkpt>
      <trkpt lat="44.34079" lon="2.56146">
        <ele>614.2</ele>
        <time>2011-04-06T16:10:18Z</time>
      </trkpt>
      <trkpt lat="44.34079" lon="2.5614">
        <ele>611.2</ele>
        <time>2011-04-06T16:10:28Z</time>
      </trkpt>
      <trkpt lat="44.34079" lon="2.5614">
        <ele>611</ele>
        <time>2011-04-06T16:10:29Z</time>
      </trkpt>
      <trkpt lat="44.34075" lon="2.56131">
        <ele>608.2</ele>
        <time>2011-04-06T16:10:43Z</time>
      </trkpt>
      <trkpt lat="44.34072" lon="2.56126">
        <ele>608.4</ele>
        <time>2011-04-06T16:10:47Z</time>
      </trkpt>
      <trkpt lat="44.3407" lon="2.56123">
        <ele>608.2</ele>
        <time>2011-04-06T16:10:50Z</time>
      </trkpt>
      <trkpt lat="44.34067" lon="2.56118">
        <ele>608.2</ele>
        <time>2011-04-06T16:10:53Z</time>
      </trkpt>
      <trkpt lat="44.34065" lon="2.56113">
        <ele>608</ele>
        <time>2011-04-06T16:10:56Z</time>
      </trkpt>
      <trkpt lat="44.34064" lon="2.56109">
        <ele>607.5</ele>
        <time>2011-04-06T16:10:58Z</time>
      </trkpt>
      <trkpt lat="44.34062" lon="2.56105">
        <ele>607.4</ele>
        <time>2011-04-06T16:11:00Z</time>
      </trkpt>
      <trkpt lat="44.34061" lon="2.56101">
        <ele>607.4</ele>
        <time>2011-04-06T16:11:02Z</time>
      </trkpt>
      <trkpt lat="44.34059" lon="2.56097">
        <ele>607.5</ele>
        <time>2011-04-06T16:11:04Z</time>
      </trkpt>
      <trkpt lat="44.34058" lon="2.56093">
        <ele>608</ele>
        <time>2011-04-06T16:11:06Z</time>
      </trkpt>
      <trkpt lat="44.34055" lon="2.56088">
        <ele>608.5</ele>
        <time>2011-04-06T16:11:09Z</time>
      </trkpt>
      <trkpt lat="44.34053" lon="2.56083">
        <ele>609.2</ele>
        <time>2011-04-06T16:11:12Z</time>
      </trkpt>
      <trkpt lat="44.34052" lon="2.56077">
        <ele>609.5</ele>
        <time>2011-04-06T16:11:15Z</time>
      </trkpt>
      <trkpt lat="44.34051" lon="2.56072">
        <ele>610.2</ele>
        <time>2011-04-06T16:11:18Z</time>
      </trkpt>
      <trkpt lat="44.3405" lon="2.56066">
        <ele>611.2</ele>
        <time>2011-04-06T16:11:21Z</time>
      </trkpt>
      <trkpt lat="44.34049" lon="2.56062">
        <ele>611.7</ele>
        <time>2011-04-06T16:11:23Z</time>
      </trkpt>
      <trkpt lat="44.34047" lon="2.56058">
        <ele>612.4</ele>
        <time>2011-04-06T16:11:25Z</time>
      </trkpt>
      <trkpt lat="44.34045" lon="2.56053">
        <ele>613.4</ele>
        <time>2011-04-06T16:11:28Z</time>
      </trkpt>
      <trkpt lat="44.34043" lon="2.56049">
        <ele>613.9</ele>
        <time>2011-04-06T16:11:30Z</time>
      </trkpt>
      <trkpt lat="44.34043" lon="2.56047">
        <ele>614</ele>
        <time>2011-04-06T16:11:31Z</time>
      </trkpt>
      <trkpt lat="44.3404" lon="2.56042">
        <ele>614.4</ele>
        <time>2011-04-06T16:11:34Z</time>
      </trkpt>
      <trkpt lat="44.34039" lon="2.56038">
        <ele>614.7</ele>
        <time>2011-04-06T16:11:36Z</time>
      </trkpt>
      <trkpt lat="44.34037" lon="2.56034">
        <ele>615</ele>
        <time>2011-04-06T16:11:38Z</time>
      </trkpt>
      <trkpt lat="44.34035" lon="2.56029">
        <ele>615.7</ele>
        <time>2011-04-06T16:11:41Z</time>
      </trkpt>
      <trkpt lat="44.34032" lon="2.56024">
        <ele>617</ele>
        <time>2011-04-06T16:11:44Z</time>
      </trkpt>
      <trkpt lat="44.3403" lon="2.56019">
        <ele>618.2</ele>
        <time>2011-04-06T16:11:47Z</time>
      </trkpt>
      <trkpt lat="44.34028" lon="2.56014">
        <ele>619.9</ele>
        <time>2011-04-06T16:11:50Z</time>
      </trkpt>
      <trkpt lat="44.34026" lon="2.5601">
        <ele>621.5</ele>
        <time>2011-04-06T16:11:53Z</time>
      </trkpt>
      <trkpt lat="44.34023" lon="2.56005">
        <ele>623</ele>
        <time>2011-04-06T16:11:56Z</time>
      </trkpt>
      <trkpt lat="44.34022" lon="2.56001">
        <ele>623.9</ele>
        <time>2011-04-06T16:11:58Z</time>
      </trkpt>
      <trkpt lat="44.34021" lon="2.55998">
        <ele>624.2</ele>
        <time>2011-04-06T16:12:00Z</time>
      </trkpt>
      <trkpt lat="44.34019" lon="2.55994">
        <ele>624.5</ele>
        <time>2011-04-06T16:12:02Z</time>
      </trkpt>
      <trkpt lat="44.34018" lon="2.55989">
        <ele>624.7</ele>
        <time>2011-04-06T16:12:04Z</time>
      </trkpt>
      <trkpt lat="44.34016" lon="2.55984">
        <ele>624.7</ele>
        <time>2011-04-06T16:12:06Z</time>
      </trkpt>
      <trkpt lat="44.34015" lon="2.5598">
        <ele>624.5</ele>
        <time>2011-04-06T16:12:08Z</time>
      </trkpt>
      <trkpt lat="44.34014" lon="2.55975">
        <ele>624.5</ele>
        <time>2011-04-06T16:12:10Z</time>
      </trkpt>
      <trkpt lat="44.34013" lon="2.55971">
        <ele>624.5</ele>
        <time>2011-04-06T16:12:12Z</time>
      </trkpt>
      <trkpt lat="44.34012" lon="2.55966">
        <ele>624.2</ele>
        <time>2011-04-06T16:12:14Z</time>
      </trkpt>
      <trkpt lat="44.3401" lon="2.55961">
        <ele>624.2</ele>
        <time>2011-04-06T16:12:16Z</time>
      </trkpt>
      <trkpt lat="44.34009" lon="2.55956">
        <ele>624.2</ele>
        <time>2011-04-06T16:12:18Z</time>
      </trkpt>
      <trkpt lat="44.34007" lon="2.55951">
        <ele>624.2</ele>
        <time>2011-04-06T16:12:20Z</time>
      </trkpt>
      <trkpt lat="44.34006" lon="2.55946">
        <ele>624</ele>
        <time>2011-04-06T16:12:22Z</time>
      </trkpt>
      <trkpt lat="44.34004" lon="2.55941">
        <ele>623.7</ele>
        <time>2011-04-06T16:12:24Z</time>
      </trkpt>
      <trkpt lat="44.34003" lon="2.55937">
        <ele>623.5</ele>
        <time>2011-04-06T16:12:26Z</time>
      </trkpt>
      <trkpt lat="44.34001" lon="2.55932">
        <ele>623.2</ele>
        <time>2011-04-06T16:12:28Z</time>
      </trkpt>
      <trkpt lat="44.33999" lon="2.55927">
        <ele>623</ele>
        <time>2011-04-06T16:12:30Z</time>
      </trkpt>
      <trkpt lat="44.33997" lon="2.55923">
        <ele>622.7</ele>
        <time>2011-04-06T16:12:32Z</time>
      </trkpt>
      <trkpt lat="44.33997" lon="2.55921">
        <ele>622.7</ele>
        <time>2011-04-06T16:12:33Z</time>
      </trkpt>
      <trkpt lat="44.33994" lon="2.55914">
        <ele>622.5</ele>
        <time>2011-04-06T16:12:36Z</time>
      </trkpt>
      <trkpt lat="44.33992" lon="2.5591">
        <ele>622.2</ele>
        <time>2011-04-06T16:12:38Z</time>
      </trkpt>
      <trkpt lat="44.3399" lon="2.55905">
        <ele>622.2</ele>
        <time>2011-04-06T16:12:40Z</time>
      </trkpt>
      <trkpt lat="44.33988" lon="2.559">
        <ele>622</ele>
        <time>2011-04-06T16:12:42Z</time>
      </trkpt>
      <trkpt lat="44.33986" lon="2.55895">
        <ele>622.2</ele>
        <time>2011-04-06T16:12:44Z</time>
      </trkpt>
      <trkpt lat="44.33984" lon="2.5589">
        <ele>622.4</ele>
        <time>2011-04-06T16:12:46Z</time>
      </trkpt>
      <trkpt lat="44.33982" lon="2.55885">
        <ele>622.5</ele>
        <time>2011-04-06T16:12:48Z</time>
      </trkpt>
      <trkpt lat="44.3398" lon="2.5588">
        <ele>622.9</ele>
        <time>2011-04-06T16:12:50Z</time>
      </trkpt>
      <trkpt lat="44.33978" lon="2.55875">
        <ele>623</ele>
        <time>2011-04-06T16:12:52Z</time>
      </trkpt>
      <trkpt lat="44.33975" lon="2.5587">
        <ele>623.2</ele>
        <time>2011-04-06T16:12:54Z</time>
      </trkpt>
      <trkpt lat="44.33973" lon="2.55866">
        <ele>623.5</ele>
        <time>2011-04-06T16:12:56Z</time>
      </trkpt>
      <trkpt lat="44.33971" lon="2.55862">
        <ele>623.9</ele>
        <time>2011-04-06T16:12:58Z</time>
      </trkpt>
      <trkpt lat="44.33968" lon="2.55858">
        <ele>624.2</ele>
        <time>2011-04-06T16:13:00Z</time>
      </trkpt>
      <trkpt lat="44.33966" lon="2.55853">
        <ele>624.5</ele>
        <time>2011-04-06T16:13:02Z</time>
      </trkpt>
      <trkpt lat="44.33963" lon="2.55849">
        <ele>624.4</ele>
        <time>2011-04-06T16:13:04Z</time>
      </trkpt>
      <trkpt lat="44.3396" lon="2.55845">
        <ele>624.4</ele>
        <time>2011-04-06T16:13:06Z</time>
      </trkpt>
      <trkpt lat="44.33958" lon="2.55842">
        <ele>624.4</ele>
        <time>2011-04-06T16:13:07Z</time>
      </trkpt>
      <trkpt lat="44.33957" lon="2.55839">
        <ele>624.2</ele>
        <time>2011-04-06T16:13:08Z</time>
      </trkpt>
      <trkpt lat="44.33955" lon="2.55837">
        <ele>624.2</ele>
        <time>2011-04-06T16:13:09Z</time>
      </trkpt>
      <trkpt lat="44.33953" lon="2.55835">
        <ele>624.2</ele>
        <time>2011-04-06T16:13:10Z</time>
      </trkpt>
      <trkpt lat="44.33952" lon="2.55832">
        <ele>624</ele>
        <time>2011-04-06T16:13:11Z</time>
      </trkpt>
      <trkpt lat="44.3395" lon="2.5583">
        <ele>624</ele>
        <time>2011-04-06T16:13:12Z</time>
      </trkpt>
      <trkpt lat="44.33948" lon="2.55828">
        <ele>624</ele>
        <time>2011-04-06T16:13:13Z</time>
      </trkpt>
      <trkpt lat="44.33947" lon="2.55825">
        <ele>623.9</ele>
        <time>2011-04-06T16:13:14Z</time>
      </trkpt>
      <trkpt lat="44.33945" lon="2.55823">
        <ele>623.7</ele>
        <time>2011-04-06T16:13:15Z</time>
      </trkpt>
      <trkpt lat="44.33943" lon="2.5582">
        <ele>623.7</ele>
        <time>2011-04-06T16:13:16Z</time>
      </trkpt>
      <trkpt lat="44.33942" lon="2.55818">
        <ele>623.5</ele>
        <time>2011-04-06T16:13:17Z</time>
      </trkpt>
      <trkpt lat="44.3394" lon="2.55816">
        <ele>623.5</ele>
        <time>2011-04-06T16:13:18Z</time>
      </trkpt>
      <trkpt lat="44.33939" lon="2.55813">
        <ele>623.5</ele>
        <time>2011-04-06T16:13:19Z</time>
      </trkpt>
      <trkpt lat="44.33937" lon="2.55811">
        <ele>623.2</ele>
        <time>2011-04-06T16:13:20Z</time>
      </trkpt>
      <trkpt lat="44.33935" lon="2.55808">
        <ele>623.2</ele>
        <time>2011-04-06T16:13:21Z</time>
      </trkpt>
      <trkpt lat="44.33933" lon="2.55805">
        <ele>623.2</ele>
        <time>2011-04-06T16:13:22Z</time>
      </trkpt>
      <trkpt lat="44.33932" lon="2.55802">
        <ele>623</ele>
        <time>2011-04-06T16:13:23Z</time>
      </trkpt>
      <trkpt lat="44.3393" lon="2.55799">
        <ele>623</ele>
        <time>2011-04-06T16:13:24Z</time>
      </trkpt>
      <trkpt lat="44.33927" lon="2.55796">
        <ele>623</ele>
        <time>2011-04-06T16:13:25Z</time>
      </trkpt>
      <trkpt lat="44.33926" lon="2.55792">
        <ele>622.7</ele>
        <time>2011-04-06T16:13:26Z</time>
      </trkpt>
      <trkpt lat="44.33924" lon="2.55789">
        <ele>622.5</ele>
        <time>2011-04-06T16:13:27Z</time>
      </trkpt>
      <trkpt lat="44.33922" lon="2.55785">
        <ele>622.4</ele>
        <time>2011-04-06T16:13:28Z</time>
      </trkpt>
      <trkpt lat="44.33921" lon="2.55782">
        <ele>622.2</ele>
        <time>2011-04-06T16:13:29Z</time>
      </trkpt>
      <trkpt lat="44.33919" lon="2.55778">
        <ele>622</ele>
        <time>2011-04-06T16:13:30Z</time>
      </trkpt>
      <trkpt lat="44.33918" lon="2.55774">
        <ele>621.7</ele>
        <time>2011-04-06T16:13:31Z</time>
      </trkpt>
      <trkpt lat="44.33917" lon="2.55769">
        <ele>621.4</ele>
        <time>2011-04-06T16:13:32Z</time>
      </trkpt>
      <trkpt lat="44.33915" lon="2.55765">
        <ele>621.2</ele>
        <time>2011-04-06T16:13:33Z</time>
      </trkpt>
      <trkpt lat="44.33914" lon="2.5576">
        <ele>621</ele>
        <time>2011-04-06T16:13:34Z</time>
      </trkpt>
      <trkpt lat="44.33912" lon="2.55755">
        <ele>620.7</ele>
        <time>2011-04-06T16:13:35Z</time>
      </trkpt>
      <trkpt lat="44.33911" lon="2.5575">
        <ele>620.5</ele>
        <time>2011-04-06T16:13:36Z</time>
      </trkpt>
      <trkpt lat="44.33909" lon="2.55745">
        <ele>620.2</ele>
        <time>2011-04-06T16:13:37Z</time>
      </trkpt>
      <trkpt lat="44.33908" lon="2.5574">
        <ele>620</ele>
        <time>2011-04-06T16:13:38Z</time>
      </trkpt>
      <trkpt lat="44.33907" lon="2.55735">
        <ele>619.7</ele>
        <time>2011-04-06T16:13:39Z</time>
      </trkpt>
      <trkpt lat="44.33905" lon="2.5573">
        <ele>619.4</ele>
        <time>2011-04-06T16:13:40Z</time>
      </trkpt>
      <trkpt lat="44.33903" lon="2.55725">
        <ele>619.2</ele>
        <time>2011-04-06T16:13:41Z</time>
      </trkpt>
      <trkpt lat="44.33901" lon="2.55719">
        <ele>618.9</ele>
        <time>2011-04-06T16:13:42Z</time>
      </trkpt>
      <trkpt lat="44.33899" lon="2.55714">
        <ele>618.5</ele>
        <time>2011-04-06T16:13:43Z</time>
      </trkpt>
      <trkpt lat="44.33897" lon="2.55709">
        <ele>618.2</ele>
        <time>2011-04-06T16:13:44Z</time>
      </trkpt>
      <trkpt lat="44.33895" lon="2.55703">
        <ele>617.9</ele>
        <time>2011-04-06T16:13:45Z</time>
      </trkpt>
      <trkpt lat="44.33893" lon="2.55698">
        <ele>617.5</ele>
        <time>2011-04-06T16:13:46Z</time>
      </trkpt>
      <trkpt lat="44.33892" lon="2.55692">
        <ele>617</ele>
        <time>2011-04-06T16:13:47Z</time>
      </trkpt>
      <trkpt lat="44.3389" lon="2.55686">
        <ele>616.7</ele>
        <time>2011-04-06T16:13:48Z</time>
      </trkpt>
      <trkpt lat="44.33888" lon="2.5568">
        <ele>616.2</ele>
        <time>2011-04-06T16:13:49Z</time>
      </trkpt>
      <trkpt lat="44.33886" lon="2.55674">
        <ele>616</ele>
        <time>2011-04-06T16:13:50Z</time>
      </trkpt>
      <trkpt lat="44.33884" lon="2.55667">
        <ele>615.7</ele>
        <time>2011-04-06T16:13:51Z</time>
      </trkpt>
      <trkpt lat="44.33881" lon="2.5566">
        <ele>615.2</ele>
        <time>2011-04-06T16:13:52Z</time>
      </trkpt>
      <trkpt lat="44.33879" lon="2.55653">
        <ele>615</ele>
        <time>2011-04-06T16:13:53Z</time>
      </trkpt>
      <trkpt lat="44.33877" lon="2.55646">
        <ele>614.5</ele>
        <time>2011-04-06T16:13:54Z</time>
      </trkpt>
      <trkpt lat="44.33874" lon="2.55639">
        <ele>614.2</ele>
        <time>2011-04-06T16:13:55Z</time>
      </trkpt>
      <trkpt lat="44.33872" lon="2.55632">
        <ele>613.9</ele>
        <time>2011-04-06T16:13:56Z</time>
      </trkpt>
      <trkpt lat="44.33869" lon="2.55624">
        <ele>613.5</ele>
        <time>2011-04-06T16:13:57Z</time>
      </trkpt>
      <trkpt lat="44.33866" lon="2.55616">
        <ele>613.2</ele>
        <time>2011-04-06T16:13:58Z</time>
      </trkpt>
      <trkpt lat="44.33864" lon="2.55608">
        <ele>612.7</ele>
        <time>2011-04-06T16:13:59Z</time>
      </trkpt>
      <trkpt lat="44.33861" lon="2.55601">
        <ele>612.5</ele>
        <time>2011-04-06T16:14:00Z</time>
      </trkpt>
      <trkpt lat="44.33858" lon="2.55593">
        <ele>612</ele>
        <time>2011-04-06T16:14:01Z</time>
      </trkpt>
      <trkpt lat="44.33856" lon="2.55585">
        <ele>611.7</ele>
        <time>2011-04-06T16:14:02Z</time>
      </trkpt>
      <trkpt lat="44.33853" lon="2.55577">
        <ele>611.4</ele>
        <time>2011-04-06T16:14:03Z</time>
      </trkpt>
      <trkpt lat="44.3385" lon="2.55568">
        <ele>611</ele>
        <time>2011-04-06T16:14:04Z</time>
      </trkpt>
      <trkpt lat="44.33847" lon="2.5556">
        <ele>610.5</ele>
        <time>2011-04-06T16:14:05Z</time>
      </trkpt>
      <trkpt lat="44.33845" lon="2.55552">
        <ele>610.2</ele>
        <time>2011-04-06T16:14:06Z</time>
      </trkpt>
      <trkpt lat="44.33842" lon="2.55543">
        <ele>609.9</ele>
        <time>2011-04-06T16:14:07Z</time>
      </trkpt>
      <trkpt lat="44.33839" lon="2.55535">
        <ele>609.5</ele>
        <time>2011-04-06T16:14:08Z</time>
      </trkpt>
      <trkpt lat="44.33837" lon="2.55526">
        <ele>609.2</ele>
        <time>2011-04-06T16:14:09Z</time>
      </trkpt>
      <trkpt lat="44.33835" lon="2.55518">
        <ele>609</ele>
        <time>2011-04-06T16:14:10Z</time>
      </trkpt>
      <trkpt lat="44.33833" lon="2.55511">
        <ele>608.9</ele>
        <time>2011-04-06T16:14:11Z</time>
      </trkpt>
      <trkpt lat="44.33833" lon="2.55504">
        <ele>608.7</ele>
        <time>2011-04-06T16:14:12Z</time>
      </trkpt>
      <trkpt lat="44.33833" lon="2.55497">
        <ele>608.7</ele>
        <time>2011-04-06T16:14:13Z</time>
      </trkpt>
      <trkpt lat="44.33834" lon="2.55491">
        <ele>608.9</ele>
        <time>2011-04-06T16:14:14Z</time>
      </trkpt>
      <trkpt lat="44.33834" lon="2.55484">
        <ele>608.9</ele>
        <time>2011-04-06T16:14:15Z</time>
      </trkpt>
      <trkpt lat="44.33835" lon="2.55478">
        <ele>608.9</ele>
        <time>2011-04-06T16:14:16Z</time>
      </trkpt>
      <trkpt lat="44.33833" lon="2.55472">
        <ele>609</ele>
        <time>2011-04-06T16:14:17Z</time>
      </trkpt>
      <trkpt lat="44.33831" lon="2.55467">
        <ele>609</ele>
        <time>2011-04-06T16:14:18Z</time>
      </trkpt>
      <trkpt lat="44.33827" lon="2.55464">
        <ele>608.9</ele>
        <time>2011-04-06T16:14:19Z</time>
      </trkpt>
      <trkpt lat="44.33824" lon="2.55461">
        <ele>608.9</ele>
        <time>2011-04-06T16:14:20Z</time>
      </trkpt>
      <trkpt lat="44.3382" lon="2.55458">
        <ele>608.7</ele>
        <time>2011-04-06T16:14:21Z</time>
      </trkpt>
      <trkpt lat="44.33817" lon="2.55454">
        <ele>608.5</ele>
        <time>2011-04-06T16:14:22Z</time>
      </trkpt>
      <trkpt lat="44.33814" lon="2.5545">
        <ele>608.5</ele>
        <time>2011-04-06T16:14:23Z</time>
      </trkpt>
      <trkpt lat="44.33811" lon="2.55444">
        <ele>608.5</ele>
        <time>2011-04-06T16:14:24Z</time>
      </trkpt>
      <trkpt lat="44.33809" lon="2.55439">
        <ele>608.5</ele>
        <time>2011-04-06T16:14:25Z</time>
      </trkpt>
      <trkpt lat="44.33808" lon="2.55433">
        <ele>608.5</ele>
        <time>2011-04-06T16:14:26Z</time>
      </trkpt>
      <trkpt lat="44.33807" lon="2.55428">
        <ele>608.5</ele>
        <time>2011-04-06T16:14:27Z</time>
      </trkpt>
      <trkpt lat="44.33807" lon="2.55423">
        <ele>608.5</ele>
        <time>2011-04-06T16:14:28Z</time>
      </trkpt>
      <trkpt lat="44.33807" lon="2.55418">
        <ele>608.7</ele>
        <time>2011-04-06T16:14:29Z</time>
      </trkpt>
      <trkpt lat="44.33806" lon="2.55413">
        <ele>608.7</ele>
        <time>2011-04-06T16:14:30Z</time>
      </trkpt>
      <trkpt lat="44.33807" lon="2.55408">
        <ele>608.9</ele>
        <time>2011-04-06T16:14:31Z</time>
      </trkpt>
      <trkpt lat="44.33807" lon="2.55403">
        <ele>609</ele>
        <time>2011-04-06T16:14:32Z</time>
      </trkpt>
      <trkpt lat="44.33806" lon="2.55398">
        <ele>609.2</ele>
        <time>2011-04-06T16:14:33Z</time>
      </trkpt>
      <trkpt lat="44.33805" lon="2.55394">
        <ele>609.4</ele>
        <time>2011-04-06T16:14:34Z</time>
      </trkpt>
      <trkpt lat="44.33803" lon="2.5539">
        <ele>609.5</ele>
        <time>2011-04-06T16:14:35Z</time>
      </trkpt>
      <trkpt lat="44.33801" lon="2.55387">
        <ele>609.7</ele>
        <time>2011-04-06T16:14:36Z</time>
      </trkpt>
      <trkpt lat="44.33798" lon="2.55385">
        <ele>610</ele>
        <time>2011-04-06T16:14:37Z</time>
      </trkpt>
      <trkpt lat="44.33795" lon="2.55383">
        <ele>610.5</ele>
        <time>2011-04-06T16:14:38Z</time>
      </trkpt>
      <trkpt lat="44.33792" lon="2.5538">
        <ele>610.9</ele>
        <time>2011-04-06T16:14:39Z</time>
      </trkpt>
      <trkpt lat="44.3379" lon="2.55378">
        <ele>611.4</ele>
        <time>2011-04-06T16:14:40Z</time>
      </trkpt>
      <trkpt lat="44.33787" lon="2.55375">
        <ele>611.7</ele>
        <time>2011-04-06T16:14:41Z</time>
      </trkpt>
      <trkpt lat="44.33784" lon="2.55373">
        <ele>612.2</ele>
        <time>2011-04-06T16:14:42Z</time>
      </trkpt>
      <trkpt lat="44.33781" lon="2.5537">
        <ele>613</ele>
        <time>2011-04-06T16:14:43Z</time>
      </trkpt>
      <trkpt lat="44.33779" lon="2.55368">
        <ele>613.9</ele>
        <time>2011-04-06T16:14:44Z</time>
      </trkpt>
      <trkpt lat="44.33775" lon="2.55365">
        <ele>614.2</ele>
        <time>2011-04-06T16:14:45Z</time>
      </trkpt>
      <trkpt lat="44.33772" lon="2.55362">
        <ele>614.2</ele>
        <time>2011-04-06T16:14:46Z</time>
      </trkpt>
      <trkpt lat="44.33769" lon="2.5536">
        <ele>614.2</ele>
        <time>2011-04-06T16:14:47Z</time>
      </trkpt>
      <trkpt lat="44.33765" lon="2.55357">
        <ele>614.5</ele>
        <time>2011-04-06T16:14:48Z</time>
      </trkpt>
      <trkpt lat="44.33762" lon="2.55355">
        <ele>614.7</ele>
        <time>2011-04-06T16:14:49Z</time>
      </trkpt>
      <trkpt lat="44.33759" lon="2.55353">
        <ele>614.7</ele>
        <time>2011-04-06T16:14:50Z</time>
      </trkpt>
      <trkpt lat="44.33756" lon="2.55351">
        <ele>615.2</ele>
        <time>2011-04-06T16:14:51Z</time>
      </trkpt>
      <trkpt lat="44.33753" lon="2.55348">
        <ele>615.5</ele>
        <time>2011-04-06T16:14:52Z</time>
      </trkpt>
      <trkpt lat="44.3375" lon="2.55346">
        <ele>616</ele>
        <time>2011-04-06T16:14:53Z</time>
      </trkpt>
      <trkpt lat="44.33747" lon="2.55343">
        <ele>616.4</ele>
        <time>2011-04-06T16:14:54Z</time>
      </trkpt>
      <trkpt lat="44.33744" lon="2.55341">
        <ele>616.7</ele>
        <time>2011-04-06T16:14:55Z</time>
      </trkpt>
      <trkpt lat="44.33741" lon="2.55338">
        <ele>617.2</ele>
        <time>2011-04-06T16:14:56Z</time>
      </trkpt>
      <trkpt lat="44.33739" lon="2.55336">
        <ele>617.5</ele>
        <time>2011-04-06T16:14:57Z</time>
      </trkpt>
      <trkpt lat="44.33736" lon="2.55333">
        <ele>617.7</ele>
        <time>2011-04-06T16:14:58Z</time>
      </trkpt>
      <trkpt lat="44.33734" lon="2.5533">
        <ele>618</ele>
        <time>2011-04-06T16:14:59Z</time>
      </trkpt>
      <trkpt lat="44.33731" lon="2.55326">
        <ele>618.2</ele>
        <time>2011-04-06T16:15:00Z</time>
      </trkpt>
      <trkpt lat="44.3373" lon="2.55322">
        <ele>618.5</ele>
        <time>2011-04-06T16:15:01Z</time>
      </trkpt>
      <trkpt lat="44.3373" lon="2.55318">
        <ele>618.9</ele>
        <time>2011-04-06T16:15:02Z</time>
      </trkpt>
      <trkpt lat="44.3373" lon="2.55314">
        <ele>619.2</ele>
        <time>2011-04-06T16:15:03Z</time>
      </trkpt>
      <trkpt lat="44.33732" lon="2.55311">
        <ele>619.4</ele>
        <time>2011-04-06T16:15:04Z</time>
      </trkpt>
      <trkpt lat="44.33733" lon="2.55308">
        <ele>619.7</ele>
        <time>2011-04-06T16:15:05Z</time>
      </trkpt>
      <trkpt lat="44.33734" lon="2.55305">
        <ele>620.2</ele>
        <time>2011-04-06T16:15:06Z</time>
      </trkpt>
      <trkpt lat="44.33735" lon="2.55301">
        <ele>620.4</ele>
        <time>2011-04-06T16:15:07Z</time>
      </trkpt>
      <trkpt lat="44.33734" lon="2.55297">
        <ele>620.7</ele>
        <time>2011-04-06T16:15:08Z</time>
      </trkpt>
      <trkpt lat="44.33733" lon="2.55293">
        <ele>620.9</ele>
        <time>2011-04-06T16:15:09Z</time>
      </trkpt>
      <trkpt lat="44.33731" lon="2.5529">
        <ele>621</ele>
        <time>2011-04-06T16:15:10Z</time>
      </trkpt>
      <trkpt lat="44.33729" lon="2.55288">
        <ele>621.2</ele>
        <time>2011-04-06T16:15:11Z</time>
      </trkpt>
      <trkpt lat="44.33727" lon="2.55285">
        <ele>621.5</ele>
        <time>2011-04-06T16:15:12Z</time>
      </trkpt>
      <trkpt lat="44.33725" lon="2.55283">
        <ele>621.7</ele>
        <time>2011-04-06T16:15:13Z</time>
      </trkpt>
      <trkpt lat="44.33723" lon="2.55281">
        <ele>622</ele>
        <time>2011-04-06T16:15:14Z</time>
      </trkpt>
      <trkpt lat="44.33721" lon="2.55278">
        <ele>622.5</ele>
        <time>2011-04-06T16:15:15Z</time>
      </trkpt>
      <trkpt lat="44.33719" lon="2.55276">
        <ele>622.9</ele>
        <time>2011-04-06T16:15:16Z</time>
      </trkpt>
      <trkpt lat="44.33717" lon="2.55274">
        <ele>623</ele>
        <time>2011-04-06T16:15:17Z</time>
      </trkpt>
      <trkpt lat="44.33715" lon="2.55271">
        <ele>623.4</ele>
        <time>2011-04-06T16:15:18Z</time>
      </trkpt>
      <trkpt lat="44.33713" lon="2.55268">
        <ele>623.5</ele>
        <time>2011-04-06T16:15:19Z</time>
      </trkpt>
      <trkpt lat="44.33711" lon="2.55266">
        <ele>623.7</ele>
        <time>2011-04-06T16:15:20Z</time>
      </trkpt>
      <trkpt lat="44.3371" lon="2.55263">
        <ele>623.9</ele>
        <time>2011-04-06T16:15:21Z</time>
      </trkpt>
      <trkpt lat="44.33708" lon="2.55257">
        <ele>623.7</ele>
        <time>2011-04-06T16:15:23Z</time>
      </trkpt>
      <trkpt lat="44.33706" lon="2.55252">
        <ele>623.5</ele>
        <time>2011-04-06T16:15:25Z</time>
      </trkpt>
      <trkpt lat="44.33705" lon="2.5525">
        <ele>623.7</ele>
        <time>2011-04-06T16:15:26Z</time>
      </trkpt>
      <trkpt lat="44.33703" lon="2.55248">
        <ele>623.9</ele>
        <time>2011-04-06T16:15:27Z</time>
      </trkpt>
      <trkpt lat="44.33701" lon="2.55245">
        <ele>624.2</ele>
        <time>2011-04-06T16:15:28Z</time>
      </trkpt>
      <trkpt lat="44.337" lon="2.55243">
        <ele>624.5</ele>
        <time>2011-04-06T16:15:29Z</time>
      </trkpt>
      <trkpt lat="44.33699" lon="2.5524">
        <ele>625</ele>
        <time>2011-04-06T16:15:30Z</time>
      </trkpt>
      <trkpt lat="44.33697" lon="2.55238">
        <ele>625.2</ele>
        <time>2011-04-06T16:15:31Z</time>
      </trkpt>
      <trkpt lat="44.33695" lon="2.55236">
        <ele>625.4</ele>
        <time>2011-04-06T16:15:32Z</time>
      </trkpt>
      <trkpt lat="44.33694" lon="2.55233">
        <ele>625.7</ele>
        <time>2011-04-06T16:15:33Z</time>
      </trkpt>
      <trkpt lat="44.33693" lon="2.5523">
        <ele>626</ele>
        <time>2011-04-06T16:15:34Z</time>
      </trkpt>
      <trkpt lat="44.33691" lon="2.55228">
        <ele>626.4</ele>
        <time>2011-04-06T16:15:35Z</time>
      </trkpt>
      <trkpt lat="44.3369" lon="2.55225">
        <ele>626.7</ele>
        <time>2011-04-06T16:15:36Z</time>
      </trkpt>
      <trkpt lat="44.33686" lon="2.55219">
        <ele>628</ele>
        <time>2011-04-06T16:15:39Z</time>
      </trkpt>
      <trkpt lat="44.33683" lon="2.55214">
        <ele>628.7</ele>
        <time>2011-04-06T16:15:41Z</time>
      </trkpt>
      <trkpt lat="44.33681" lon="2.55209">
        <ele>629</ele>
        <time>2011-04-06T16:15:43Z</time>
      </trkpt>
      <trkpt lat="44.33679" lon="2.55204">
        <ele>629.2</ele>
        <time>2011-04-06T16:15:45Z</time>
      </trkpt>
      <trkpt lat="44.33677" lon="2.55199">
        <ele>629.2</ele>
        <time>2011-04-06T16:15:47Z</time>
      </trkpt>
      <trkpt lat="44.33676" lon="2.55195">
        <ele>629.5</ele>
        <time>2011-04-06T16:15:48Z</time>
      </trkpt>
      <trkpt lat="44.33676" lon="2.55192">
        <ele>630.2</ele>
        <time>2011-04-06T16:15:49Z</time>
      </trkpt>
      <trkpt lat="44.33674" lon="2.55186">
        <ele>630.2</ele>
        <time>2011-04-06T16:15:51Z</time>
      </trkpt>
      <trkpt lat="44.33672" lon="2.55184">
        <ele>630</ele>
        <time>2011-04-06T16:15:52Z</time>
      </trkpt>
      <trkpt lat="44.3367" lon="2.5518">
        <ele>630</ele>
        <time>2011-04-06T16:15:53Z</time>
      </trkpt>
      <trkpt lat="44.33669" lon="2.55177">
        <ele>630</ele>
        <time>2011-04-06T16:15:54Z</time>
      </trkpt>
      <trkpt lat="44.33667" lon="2.55173">
        <ele>630</ele>
        <time>2011-04-06T16:15:56Z</time>
      </trkpt>
      <trkpt lat="44.33666" lon="2.55168">
        <ele>630.5</ele>
        <time>2011-04-06T16:15:58Z</time>
      </trkpt>
      <trkpt lat="44.33664" lon="2.55164">
        <ele>630.9</ele>
        <time>2011-04-06T16:16:00Z</time>
      </trkpt>
      <trkpt lat="44.33663" lon="2.5516">
        <ele>631.2</ele>
        <time>2011-04-06T16:16:02Z</time>
      </trkpt>
      <trkpt lat="44.33662" lon="2.55154">
        <ele>632</ele>
        <time>2011-04-06T16:16:05Z</time>
      </trkpt>
      <trkpt lat="44.3366" lon="2.55148">
        <ele>632.5</ele>
        <time>2011-04-06T16:16:07Z</time>
      </trkpt>
      <trkpt lat="44.33659" lon="2.55145">
        <ele>633.4</ele>
        <time>2011-04-06T16:16:09Z</time>
      </trkpt>
      <trkpt lat="44.33657" lon="2.55141">
        <ele>634</ele>
        <time>2011-04-06T16:16:11Z</time>
      </trkpt>
      <trkpt lat="44.33656" lon="2.55137">
        <ele>634.5</ele>
        <time>2011-04-06T16:16:13Z</time>
      </trkpt>
      <trkpt lat="44.33654" lon="2.55132">
        <ele>634.5</ele>
        <time>2011-04-06T16:16:15Z</time>
      </trkpt>
      <trkpt lat="44.33651" lon="2.55127">
        <ele>634.9</ele>
        <time>2011-04-06T16:16:17Z</time>
      </trkpt>
      <trkpt lat="44.33649" lon="2.55124">
        <ele>635.5</ele>
        <time>2011-04-06T16:16:19Z</time>
      </trkpt>
      <trkpt lat="44.33646" lon="2.55119">
        <ele>636</ele>
        <time>2011-04-06T16:16:21Z</time>
      </trkpt>
      <trkpt lat="44.33644" lon="2.55114">
        <ele>636</ele>
        <time>2011-04-06T16:16:23Z</time>
      </trkpt>
      <trkpt lat="44.33642" lon="2.55112">
        <ele>636.2</ele>
        <time>2011-04-06T16:16:24Z</time>
      </trkpt>
      <trkpt lat="44.33641" lon="2.55109">
        <ele>636.5</ele>
        <time>2011-04-06T16:16:25Z</time>
      </trkpt>
      <trkpt lat="44.33639" lon="2.55107">
        <ele>636.5</ele>
        <time>2011-04-06T16:16:26Z</time>
      </trkpt>
      <trkpt lat="44.33638" lon="2.55104">
        <ele>636.7</ele>
        <time>2011-04-06T16:16:27Z</time>
      </trkpt>
      <trkpt lat="44.33636" lon="2.55101">
        <ele>636.7</ele>
        <time>2011-04-06T16:16:28Z</time>
      </trkpt>
      <trkpt lat="44.33635" lon="2.55098">
        <ele>636.7</ele>
        <time>2011-04-06T16:16:29Z</time>
      </trkpt>
      <trkpt lat="44.33633" lon="2.55093">
        <ele>636.5</ele>
        <time>2011-04-06T16:16:31Z</time>
      </trkpt>
      <trkpt lat="44.33631" lon="2.55088">
        <ele>636.2</ele>
        <time>2011-04-06T16:16:33Z</time>
      </trkpt>
      <trkpt lat="44.33629" lon="2.55084">
        <ele>635.9</ele>
        <time>2011-04-06T16:16:35Z</time>
      </trkpt>
      <trkpt lat="44.33626" lon="2.55079">
        <ele>635.7</ele>
        <time>2011-04-06T16:16:37Z</time>
      </trkpt>
      <trkpt lat="44.33625" lon="2.55077">
        <ele>635.9</ele>
        <time>2011-04-06T16:16:38Z</time>
      </trkpt>
      <trkpt lat="44.33621" lon="2.55069">
        <ele>635.7</ele>
        <time>2011-04-06T16:16:41Z</time>
      </trkpt>
      <trkpt lat="44.33619" lon="2.55064">
        <ele>635.7</ele>
        <time>2011-04-06T16:16:43Z</time>
      </trkpt>
      <trkpt lat="44.33617" lon="2.5506">
        <ele>635.5</ele>
        <time>2011-04-06T16:16:46Z</time>
      </trkpt>
      <trkpt lat="44.33615" lon="2.55055">
        <ele>635.7</ele>
        <time>2011-04-06T16:16:48Z</time>
      </trkpt>
      <trkpt lat="44.33614" lon="2.55052">
        <ele>635.9</ele>
        <time>2011-04-06T16:16:49Z</time>
      </trkpt>
      <trkpt lat="44.33611" lon="2.55047">
        <ele>636.2</ele>
        <time>2011-04-06T16:16:51Z</time>
      </trkpt>
      <trkpt lat="44.33611" lon="2.55044">
        <ele>636.2</ele>
        <time>2011-04-06T16:16:52Z</time>
      </trkpt>
      <trkpt lat="44.3361" lon="2.55041">
        <ele>636.2</ele>
        <time>2011-04-06T16:16:53Z</time>
      </trkpt>
      <trkpt lat="44.33608" lon="2.55038">
        <ele>636.4</ele>
        <time>2011-04-06T16:16:54Z</time>
      </trkpt>
      <trkpt lat="44.33607" lon="2.55035">
        <ele>636.5</ele>
        <time>2011-04-06T16:16:55Z</time>
      </trkpt>
      <trkpt lat="44.33605" lon="2.55032">
        <ele>636.5</ele>
        <time>2011-04-06T16:16:56Z</time>
      </trkpt>
      <trkpt lat="44.33603" lon="2.55029">
        <ele>636.5</ele>
        <time>2011-04-06T16:16:57Z</time>
      </trkpt>
      <trkpt lat="44.336" lon="2.55026">
        <ele>636.5</ele>
        <time>2011-04-06T16:16:58Z</time>
      </trkpt>
      <trkpt lat="44.33597" lon="2.55023">
        <ele>636.5</ele>
        <time>2011-04-06T16:16:59Z</time>
      </trkpt>
      <trkpt lat="44.33594" lon="2.5502">
        <ele>636.2</ele>
        <time>2011-04-06T16:17:00Z</time>
      </trkpt>
      <trkpt lat="44.33591" lon="2.55017">
        <ele>636</ele>
        <time>2011-04-06T16:17:01Z</time>
      </trkpt>
      <trkpt lat="44.33588" lon="2.55015">
        <ele>635.9</ele>
        <time>2011-04-06T16:17:02Z</time>
      </trkpt>
      <trkpt lat="44.33585" lon="2.55012">
        <ele>635.7</ele>
        <time>2011-04-06T16:17:03Z</time>
      </trkpt>
      <trkpt lat="44.33583" lon="2.55009">
        <ele>635.9</ele>
        <time>2011-04-06T16:17:04Z</time>
      </trkpt>
      <trkpt lat="44.3358" lon="2.55006">
        <ele>636</ele>
        <time>2011-04-06T16:17:05Z</time>
      </trkpt>
      <trkpt lat="44.33578" lon="2.55002">
        <ele>635.7</ele>
        <time>2011-04-06T16:17:06Z</time>
      </trkpt>
      <trkpt lat="44.33575" lon="2.54998">
        <ele>635.5</ele>
        <time>2011-04-06T16:17:07Z</time>
      </trkpt>
      <trkpt lat="44.33573" lon="2.54993">
        <ele>635</ele>
        <time>2011-04-06T16:17:08Z</time>
      </trkpt>
      <trkpt lat="44.3357" lon="2.54989">
        <ele>634.7</ele>
        <time>2011-04-06T16:17:09Z</time>
      </trkpt>
      <trkpt lat="44.33567" lon="2.54984">
        <ele>634.2</ele>
        <time>2011-04-06T16:17:10Z</time>
      </trkpt>
      <trkpt lat="44.33565" lon="2.54979">
        <ele>633.9</ele>
        <time>2011-04-06T16:17:11Z</time>
      </trkpt>
      <trkpt lat="44.33563" lon="2.54974">
        <ele>633.7</ele>
        <time>2011-04-06T16:17:12Z</time>
      </trkpt>
      <trkpt lat="44.3356" lon="2.5497">
        <ele>633.9</ele>
        <time>2011-04-06T16:17:13Z</time>
      </trkpt>
      <trkpt lat="44.33558" lon="2.54965">
        <ele>634.2</ele>
        <time>2011-04-06T16:17:14Z</time>
      </trkpt>
      <trkpt lat="44.33556" lon="2.5496">
        <ele>634.2</ele>
        <time>2011-04-06T16:17:15Z</time>
      </trkpt>
      <trkpt lat="44.33554" lon="2.54955">
        <ele>634.4</ele>
        <time>2011-04-06T16:17:16Z</time>
      </trkpt>
      <trkpt lat="44.33552" lon="2.5495">
        <ele>634.5</ele>
        <time>2011-04-06T16:17:17Z</time>
      </trkpt>
      <trkpt lat="44.33549" lon="2.54945">
        <ele>634.2</ele>
        <time>2011-04-06T16:17:18Z</time>
      </trkpt>
      <trkpt lat="44.33546" lon="2.5494">
        <ele>634.2</ele>
        <time>2011-04-06T16:17:19Z</time>
      </trkpt>
      <trkpt lat="44.33544" lon="2.54935">
        <ele>634</ele>
        <time>2011-04-06T16:17:20Z</time>
      </trkpt>
      <trkpt lat="44.33541" lon="2.5493">
        <ele>633.7</ele>
        <time>2011-04-06T16:17:21Z</time>
      </trkpt>
      <trkpt lat="44.33538" lon="2.54925">
        <ele>633.7</ele>
        <time>2011-04-06T16:17:22Z</time>
      </trkpt>
      <trkpt lat="44.33536" lon="2.5492">
        <ele>634.2</ele>
        <time>2011-04-06T16:17:23Z</time>
      </trkpt>
      <trkpt lat="44.33533" lon="2.54916">
        <ele>634.7</ele>
        <time>2011-04-06T16:17:24Z</time>
      </trkpt>
      <trkpt lat="44.3353" lon="2.54911">
        <ele>634.9</ele>
        <time>2011-04-06T16:17:25Z</time>
      </trkpt>
      <trkpt lat="44.33527" lon="2.54906">
        <ele>635</ele>
        <time>2011-04-06T16:17:26Z</time>
      </trkpt>
      <trkpt lat="44.33525" lon="2.54902">
        <ele>635</ele>
        <time>2011-04-06T16:17:27Z</time>
      </trkpt>
      <trkpt lat="44.33522" lon="2.54898">
        <ele>635</ele>
        <time>2011-04-06T16:17:28Z</time>
      </trkpt>
      <trkpt lat="44.3352" lon="2.54893">
        <ele>635.2</ele>
        <time>2011-04-06T16:17:29Z</time>
      </trkpt>
      <trkpt lat="44.33518" lon="2.54889">
        <ele>635.5</ele>
        <time>2011-04-06T16:17:30Z</time>
      </trkpt>
      <trkpt lat="44.33516" lon="2.54885">
        <ele>635.9</ele>
        <time>2011-04-06T16:17:31Z</time>
      </trkpt>
      <trkpt lat="44.33513" lon="2.54881">
        <ele>636.2</ele>
        <time>2011-04-06T16:17:32Z</time>
      </trkpt>
      <trkpt lat="44.33511" lon="2.54877">
        <ele>636.2</ele>
        <time>2011-04-06T16:17:33Z</time>
      </trkpt>
      <trkpt lat="44.33509" lon="2.54873">
        <ele>636.4</ele>
        <time>2011-04-06T16:17:34Z</time>
      </trkpt>
      <trkpt lat="44.33507" lon="2.54868">
        <ele>636.4</ele>
        <time>2011-04-06T16:17:35Z</time>
      </trkpt>
      <trkpt lat="44.33505" lon="2.54864">
        <ele>636.7</ele>
        <time>2011-04-06T16:17:36Z</time>
      </trkpt>
      <trkpt lat="44.33503" lon="2.5486">
        <ele>636.7</ele>
        <time>2011-04-06T16:17:37Z</time>
      </trkpt>
      <trkpt lat="44.335" lon="2.54855">
        <ele>637</ele>
        <time>2011-04-06T16:17:38Z</time>
      </trkpt>
      <trkpt lat="44.33499" lon="2.54852">
        <ele>637.2</ele>
        <time>2011-04-06T16:17:39Z</time>
      </trkpt>
      <trkpt lat="44.33497" lon="2.54848">
        <ele>637.2</ele>
        <time>2011-04-06T16:17:40Z</time>
      </trkpt>
      <trkpt lat="44.33495" lon="2.54845">
        <ele>636.7</ele>
        <time>2011-04-06T16:17:41Z</time>
      </trkpt>
      <trkpt lat="44.33493" lon="2.54842">
        <ele>636</ele>
        <time>2011-04-06T16:17:42Z</time>
      </trkpt>
      <trkpt lat="44.33492" lon="2.54837">
        <ele>635.5</ele>
        <time>2011-04-06T16:17:43Z</time>
      </trkpt>
      <trkpt lat="44.33491" lon="2.54832">
        <ele>635</ele>
        <time>2011-04-06T16:17:44Z</time>
      </trkpt>
      <trkpt lat="44.33489" lon="2.54827">
        <ele>634.2</ele>
        <time>2011-04-06T16:17:45Z</time>
      </trkpt>
      <trkpt lat="44.33488" lon="2.54823">
        <ele>633.7</ele>
        <time>2011-04-06T16:17:46Z</time>
      </trkpt>
      <trkpt lat="44.33486" lon="2.54818">
        <ele>633.2</ele>
        <time>2011-04-06T16:17:47Z</time>
      </trkpt>
      <trkpt lat="44.33484" lon="2.54814">
        <ele>633</ele>
        <time>2011-04-06T16:17:48Z</time>
      </trkpt>
      <trkpt lat="44.33482" lon="2.54809">
        <ele>632.7</ele>
        <time>2011-04-06T16:17:49Z</time>
      </trkpt>
      <trkpt lat="44.3348" lon="2.54805">
        <ele>632.7</ele>
        <time>2011-04-06T16:17:50Z</time>
      </trkpt>
      <trkpt lat="44.33478" lon="2.54801">
        <ele>633</ele>
        <time>2011-04-06T16:17:51Z</time>
      </trkpt>
      <trkpt lat="44.33476" lon="2.54798">
        <ele>633.2</ele>
        <time>2011-04-06T16:17:52Z</time>
      </trkpt>
      <trkpt lat="44.33474" lon="2.54794">
        <ele>633.7</ele>
        <time>2011-04-06T16:17:53Z</time>
      </trkpt>
      <trkpt lat="44.33473" lon="2.54789">
        <ele>633.9</ele>
        <time>2011-04-06T16:17:54Z</time>
      </trkpt>
      <trkpt lat="44.33471" lon="2.54785">
        <ele>633.9</ele>
        <time>2011-04-06T16:17:55Z</time>
      </trkpt>
      <trkpt lat="44.33469" lon="2.54781">
        <ele>633.7</ele>
        <time>2011-04-06T16:17:56Z</time>
      </trkpt>
      <trkpt lat="44.33468" lon="2.54776">
        <ele>633.9</ele>
        <time>2011-04-06T16:17:57Z</time>
      </trkpt>
      <trkpt lat="44.33466" lon="2.54772">
        <ele>634</ele>
        <time>2011-04-06T16:17:58Z</time>
      </trkpt>
      <trkpt lat="44.33464" lon="2.54768">
        <ele>634.2</ele>
        <time>2011-04-06T16:17:59Z</time>
      </trkpt>
      <trkpt lat="44.33463" lon="2.54763">
        <ele>634.2</ele>
        <time>2011-04-06T16:18:00Z</time>
      </trkpt>
      <trkpt lat="44.33462" lon="2.54759">
        <ele>634.2</ele>
        <time>2011-04-06T16:18:01Z</time>
      </trkpt>
      <trkpt lat="44.3346" lon="2.54755">
        <ele>634.2</ele>
        <time>2011-04-06T16:18:02Z</time>
      </trkpt>
      <trkpt lat="44.33459" lon="2.54751">
        <ele>634.2</ele>
        <time>2011-04-06T16:18:03Z</time>
      </trkpt>
      <trkpt lat="44.33458" lon="2.54747">
        <ele>634.4</ele>
        <time>2011-04-06T16:18:04Z</time>
      </trkpt>
      <trkpt lat="44.33457" lon="2.54743">
        <ele>634.5</ele>
        <time>2011-04-06T16:18:05Z</time>
      </trkpt>
      <trkpt lat="44.33457" lon="2.5474">
        <ele>634.7</ele>
        <time>2011-04-06T16:18:06Z</time>
      </trkpt>
      <trkpt lat="44.33456" lon="2.54737">
        <ele>635</ele>
        <time>2011-04-06T16:18:07Z</time>
      </trkpt>
      <trkpt lat="44.33454" lon="2.54734">
        <ele>635.4</ele>
        <time>2011-04-06T16:18:08Z</time>
      </trkpt>
      <trkpt lat="44.33453" lon="2.5473">
        <ele>635.7</ele>
        <time>2011-04-06T16:18:09Z</time>
      </trkpt>
      <trkpt lat="44.33452" lon="2.54726">
        <ele>635.7</ele>
        <time>2011-04-06T16:18:10Z</time>
      </trkpt>
      <trkpt lat="44.33451" lon="2.54721">
        <ele>635.5</ele>
        <time>2011-04-06T16:18:11Z</time>
      </trkpt>
      <trkpt lat="44.3345" lon="2.54716">
        <ele>634.7</ele>
        <time>2011-04-06T16:18:12Z</time>
      </trkpt>
      <trkpt lat="44.3345" lon="2.5471">
        <ele>634</ele>
        <time>2011-04-06T16:18:13Z</time>
      </trkpt>
      <trkpt lat="44.33449" lon="2.54704">
        <ele>633.2</ele>
        <time>2011-04-06T16:18:14Z</time>
      </trkpt>
      <trkpt lat="44.33449" lon="2.54698">
        <ele>632.5</ele>
        <time>2011-04-06T16:18:15Z</time>
      </trkpt>
      <trkpt lat="44.3345" lon="2.54691">
        <ele>632</ele>
        <time>2011-04-06T16:18:16Z</time>
      </trkpt>
      <trkpt lat="44.3345" lon="2.54684">
        <ele>631.5</ele>
        <time>2011-04-06T16:18:17Z</time>
      </trkpt>
      <trkpt lat="44.3345" lon="2.54677">
        <ele>631</ele>
        <time>2011-04-06T16:18:18Z</time>
      </trkpt>
      <trkpt lat="44.33451" lon="2.5467">
        <ele>630.7</ele>
        <time>2011-04-06T16:18:19Z</time>
      </trkpt>
      <trkpt lat="44.33451" lon="2.54663">
        <ele>630.5</ele>
        <time>2011-04-06T16:18:20Z</time>
      </trkpt>
      <trkpt lat="44.33452" lon="2.54656">
        <ele>630.5</ele>
        <time>2011-04-06T16:18:21Z</time>
      </trkpt>
      <trkpt lat="44.33453" lon="2.54649">
        <ele>630.2</ele>
        <time>2011-04-06T16:18:22Z</time>
      </trkpt>
      <trkpt lat="44.33454" lon="2.54642">
        <ele>630.2</ele>
        <time>2011-04-06T16:18:23Z</time>
      </trkpt>
      <trkpt lat="44.33455" lon="2.54635">
        <ele>630</ele>
        <time>2011-04-06T16:18:24Z</time>
      </trkpt>
      <trkpt lat="44.33456" lon="2.54628">
        <ele>630</ele>
        <time>2011-04-06T16:18:25Z</time>
      </trkpt>
      <trkpt lat="44.33456" lon="2.54622">
        <ele>630</ele>
        <time>2011-04-06T16:18:26Z</time>
      </trkpt>
      <trkpt lat="44.33457" lon="2.54616">
        <ele>630</ele>
        <time>2011-04-06T16:18:27Z</time>
      </trkpt>
      <trkpt lat="44.33458" lon="2.54609">
        <ele>630</ele>
        <time>2011-04-06T16:18:28Z</time>
      </trkpt>
      <trkpt lat="44.33458" lon="2.54603">
        <ele>630</ele>
        <time>2011-04-06T16:18:29Z</time>
      </trkpt>
      <trkpt lat="44.33458" lon="2.54596">
        <ele>630.2</ele>
        <time>2011-04-06T16:18:30Z</time>
      </trkpt>
      <trkpt lat="44.33459" lon="2.5459">
        <ele>630.5</ele>
        <time>2011-04-06T16:18:31Z</time>
      </trkpt>
      <trkpt lat="44.33459" lon="2.54583">
        <ele>630.4</ele>
        <time>2011-04-06T16:18:32Z</time>
      </trkpt>
      <trkpt lat="44.33459" lon="2.54577">
        <ele>630.2</ele>
        <time>2011-04-06T16:18:33Z</time>
      </trkpt>
      <trkpt lat="44.33459" lon="2.5457">
        <ele>630.2</ele>
        <time>2011-04-06T16:18:34Z</time>
      </trkpt>
      <trkpt lat="44.33459" lon="2.54563">
        <ele>630</ele>
        <time>2011-04-06T16:18:35Z</time>
      </trkpt>
      <trkpt lat="44.33458" lon="2.54557">
        <ele>630</ele>
        <time>2011-04-06T16:18:36Z</time>
      </trkpt>
      <trkpt lat="44.33456" lon="2.54551">
        <ele>630</ele>
        <time>2011-04-06T16:18:37Z</time>
      </trkpt>
      <trkpt lat="44.33455" lon="2.54546">
        <ele>630</ele>
        <time>2011-04-06T16:18:38Z</time>
      </trkpt>
      <trkpt lat="44.33455" lon="2.54542">
        <ele>629.7</ele>
        <time>2011-04-06T16:18:39Z</time>
      </trkpt>
      <trkpt lat="44.33454" lon="2.54537">
        <ele>629.5</ele>
        <time>2011-04-06T16:18:40Z</time>
      </trkpt>
      <trkpt lat="44.33454" lon="2.54532">
        <ele>629.2</ele>
        <time>2011-04-06T16:18:41Z</time>
      </trkpt>
      <trkpt lat="44.33452" lon="2.54527">
        <ele>629</ele>
        <time>2011-04-06T16:18:42Z</time>
      </trkpt>
      <trkpt lat="44.33451" lon="2.54522">
        <ele>629</ele>
        <time>2011-04-06T16:18:43Z</time>
      </trkpt>
      <trkpt lat="44.3345" lon="2.54518">
        <ele>628.9</ele>
        <time>2011-04-06T16:18:44Z</time>
      </trkpt>
      <trkpt lat="44.33448" lon="2.54513">
        <ele>628.7</ele>
        <time>2011-04-06T16:18:45Z</time>
      </trkpt>
      <trkpt lat="44.33448" lon="2.54508">
        <ele>628.4</ele>
        <time>2011-04-06T16:18:46Z</time>
      </trkpt>
      <trkpt lat="44.33447" lon="2.54503">
        <ele>628.2</ele>
        <time>2011-04-06T16:18:47Z</time>
      </trkpt>
      <trkpt lat="44.33446" lon="2.54497">
        <ele>628</ele>
        <time>2011-04-06T16:18:48Z</time>
      </trkpt>
      <trkpt lat="44.33444" lon="2.5449">
        <ele>627.7</ele>
        <time>2011-04-06T16:18:49Z</time>
      </trkpt>
      <trkpt lat="44.33443" lon="2.54484">
        <ele>627.2</ele>
        <time>2011-04-06T16:18:50Z</time>
      </trkpt>
      <trkpt lat="44.33441" lon="2.54477">
        <ele>626.9</ele>
        <time>2011-04-06T16:18:51Z</time>
      </trkpt>
      <trkpt lat="44.33439" lon="2.5447">
        <ele>626.5</ele>
        <time>2011-04-06T16:18:52Z</time>
      </trkpt>
      <trkpt lat="44.33436" lon="2.54463">
        <ele>626</ele>
        <time>2011-04-06T16:18:53Z</time>
      </trkpt>
      <trkpt lat="44.33433" lon="2.54456">
        <ele>625.5</ele>
        <time>2011-04-06T16:18:54Z</time>
      </trkpt>
      <trkpt lat="44.33429" lon="2.54449">
        <ele>624.7</ele>
        <time>2011-04-06T16:18:55Z</time>
      </trkpt>
      <trkpt lat="44.33426" lon="2.54441">
        <ele>624</ele>
        <time>2011-04-06T16:18:56Z</time>
      </trkpt>
      <trkpt lat="44.33422" lon="2.54433">
        <ele>623.2</ele>
        <time>2011-04-06T16:18:57Z</time>
      </trkpt>
      <trkpt lat="44.33418" lon="2.54425">
        <ele>622.7</ele>
        <time>2011-04-06T16:18:58Z</time>
      </trkpt>
      <trkpt lat="44.33414" lon="2.54417">
        <ele>622.2</ele>
        <time>2011-04-06T16:18:59Z</time>
      </trkpt>
      <trkpt lat="44.3341" lon="2.54408">
        <ele>622.2</ele>
        <time>2011-04-06T16:19:00Z</time>
      </trkpt>
      <trkpt lat="44.33406" lon="2.544">
        <ele>621.9</ele>
        <time>2011-04-06T16:19:01Z</time>
      </trkpt>
      <trkpt lat="44.33403" lon="2.54392">
        <ele>621.7</ele>
        <time>2011-04-06T16:19:02Z</time>
      </trkpt>
      <trkpt lat="44.334" lon="2.54383">
        <ele>621.5</ele>
        <time>2011-04-06T16:19:03Z</time>
      </trkpt>
      <trkpt lat="44.33397" lon="2.54374">
        <ele>621.5</ele>
        <time>2011-04-06T16:19:04Z</time>
      </trkpt>
      <trkpt lat="44.33396" lon="2.54367">
        <ele>621.4</ele>
        <time>2011-04-06T16:19:05Z</time>
      </trkpt>
      <trkpt lat="44.33395" lon="2.54358">
        <ele>621.2</ele>
        <time>2011-04-06T16:19:06Z</time>
      </trkpt>
      <trkpt lat="44.33395" lon="2.5435">
        <ele>620.7</ele>
        <time>2011-04-06T16:19:07Z</time>
      </trkpt>
      <trkpt lat="44.33395" lon="2.54342">
        <ele>620.2</ele>
        <time>2011-04-06T16:19:08Z</time>
      </trkpt>
      <trkpt lat="44.33396" lon="2.54335">
        <ele>619.5</ele>
        <time>2011-04-06T16:19:09Z</time>
      </trkpt>
      <trkpt lat="44.33396" lon="2.54327">
        <ele>618.7</ele>
        <time>2011-04-06T16:19:10Z</time>
      </trkpt>
      <trkpt lat="44.33396" lon="2.54321">
        <ele>618.4</ele>
        <time>2011-04-06T16:19:11Z</time>
      </trkpt>
      <trkpt lat="44.33396" lon="2.54314">
        <ele>618.2</ele>
        <time>2011-04-06T16:19:12Z</time>
      </trkpt>
      <trkpt lat="44.33396" lon="2.54306">
        <ele>618.5</ele>
        <time>2011-04-06T16:19:13Z</time>
      </trkpt>
      <trkpt lat="44.33396" lon="2.543">
        <ele>618.7</ele>
        <time>2011-04-06T16:19:14Z</time>
      </trkpt>
      <trkpt lat="44.33396" lon="2.54293">
        <ele>618.7</ele>
        <time>2011-04-06T16:19:15Z</time>
      </trkpt>
      <trkpt lat="44.33395" lon="2.54286">
        <ele>618.7</ele>
        <time>2011-04-06T16:19:16Z</time>
      </trkpt>
      <trkpt lat="44.33395" lon="2.54279">
        <ele>618.7</ele>
        <time>2011-04-06T16:19:17Z</time>
      </trkpt>
      <trkpt lat="44.33395" lon="2.54273">
        <ele>618.5</ele>
        <time>2011-04-06T16:19:18Z</time>
      </trkpt>
      <trkpt lat="44.33395" lon="2.54266">
        <ele>618</ele>
        <time>2011-04-06T16:19:19Z</time>
      </trkpt>
      <trkpt lat="44.33395" lon="2.54259">
        <ele>617.5</ele>
        <time>2011-04-06T16:19:20Z</time>
      </trkpt>
      <trkpt lat="44.33395" lon="2.54253">
        <ele>617.5</ele>
        <time>2011-04-06T16:19:21Z</time>
      </trkpt>
      <trkpt lat="44.33396" lon="2.54247">
        <ele>617.7</ele>
        <time>2011-04-06T16:19:22Z</time>
      </trkpt>
      <trkpt lat="44.33396" lon="2.54241">
        <ele>617.9</ele>
        <time>2011-04-06T16:19:23Z</time>
      </trkpt>
      <trkpt lat="44.33397" lon="2.54235">
        <ele>618</ele>
        <time>2011-04-06T16:19:24Z</time>
      </trkpt>
      <trkpt lat="44.33397" lon="2.54228">
        <ele>618.2</ele>
        <time>2011-04-06T16:19:25Z</time>
      </trkpt>
      <trkpt lat="44.33398" lon="2.54222">
        <ele>618.2</ele>
        <time>2011-04-06T16:19:26Z</time>
      </trkpt>
      <trkpt lat="44.33399" lon="2.54216">
        <ele>618.2</ele>
        <time>2011-04-06T16:19:27Z</time>
      </trkpt>
      <trkpt lat="44.33399" lon="2.54209">
        <ele>618.2</ele>
        <time>2011-04-06T16:19:28Z</time>
      </trkpt>
      <trkpt lat="44.334" lon="2.54203">
        <ele>618</ele>
        <time>2011-04-06T16:19:29Z</time>
      </trkpt>
      <trkpt lat="44.334" lon="2.54197">
        <ele>617.7</ele>
        <time>2011-04-06T16:19:30Z</time>
      </trkpt>
      <trkpt lat="44.334" lon="2.54192">
        <ele>617.7</ele>
        <time>2011-04-06T16:19:31Z</time>
      </trkpt>
      <trkpt lat="44.334" lon="2.54187">
        <ele>617.7</ele>
        <time>2011-04-06T16:19:32Z</time>
      </trkpt>
      <trkpt lat="44.334" lon="2.54181">
        <ele>617.7</ele>
        <time>2011-04-06T16:19:33Z</time>
      </trkpt>
      <trkpt lat="44.334" lon="2.54175">
        <ele>617.7</ele>
        <time>2011-04-06T16:19:34Z</time>
      </trkpt>
      <trkpt lat="44.334" lon="2.5417">
        <ele>617.5</ele>
        <time>2011-04-06T16:19:35Z</time>
      </trkpt>
      <trkpt lat="44.334" lon="2.54164">
        <ele>617.5</ele>
        <time>2011-04-06T16:19:36Z</time>
      </trkpt>
      <trkpt lat="44.334" lon="2.54159">
        <ele>617.7</ele>
        <time>2011-04-06T16:19:37Z</time>
      </trkpt>
      <trkpt lat="44.334" lon="2.54154">
        <ele>618</ele>
        <time>2011-04-06T16:19:38Z</time>
      </trkpt>
      <trkpt lat="44.334" lon="2.54149">
        <ele>618.2</ele>
        <time>2011-04-06T16:19:39Z</time>
      </trkpt>
      <trkpt lat="44.33401" lon="2.54145">
        <ele>618.2</ele>
        <time>2011-04-06T16:19:40Z</time>
      </trkpt>
      <trkpt lat="44.33401" lon="2.5414">
        <ele>618.5</ele>
        <time>2011-04-06T16:19:41Z</time>
      </trkpt>
      <trkpt lat="44.33401" lon="2.54136">
        <ele>618.5</ele>
        <time>2011-04-06T16:19:42Z</time>
      </trkpt>
      <trkpt lat="44.33401" lon="2.54132">
        <ele>618.7</ele>
        <time>2011-04-06T16:19:43Z</time>
      </trkpt>
      <trkpt lat="44.33401" lon="2.54129">
        <ele>619</ele>
        <time>2011-04-06T16:19:44Z</time>
      </trkpt>
      <trkpt lat="44.33402" lon="2.54125">
        <ele>619.4</ele>
        <time>2011-04-06T16:19:45Z</time>
      </trkpt>
      <trkpt lat="44.33402" lon="2.54121">
        <ele>619.7</ele>
        <time>2011-04-06T16:19:46Z</time>
      </trkpt>
      <trkpt lat="44.33403" lon="2.54117">
        <ele>620.2</ele>
        <time>2011-04-06T16:19:47Z</time>
      </trkpt>
      <trkpt lat="44.33403" lon="2.54113">
        <ele>620.9</ele>
        <time>2011-04-06T16:19:48Z</time>
      </trkpt>
      <trkpt lat="44.33404" lon="2.5411">
        <ele>621.5</ele>
        <time>2011-04-06T16:19:49Z</time>
      </trkpt>
      <trkpt lat="44.33405" lon="2.54106">
        <ele>622</ele>
        <time>2011-04-06T16:19:50Z</time>
      </trkpt>
      <trkpt lat="44.33406" lon="2.54102">
        <ele>622.2</ele>
        <time>2011-04-06T16:19:51Z</time>
      </trkpt>
      <trkpt lat="44.33407" lon="2.54098">
        <ele>622.5</ele>
        <time>2011-04-06T16:19:52Z</time>
      </trkpt>
      <trkpt lat="44.33408" lon="2.54094">
        <ele>622.5</ele>
        <time>2011-04-06T16:19:53Z</time>
      </trkpt>
      <trkpt lat="44.33409" lon="2.5409">
        <ele>622.7</ele>
        <time>2011-04-06T16:19:54Z</time>
      </trkpt>
      <trkpt lat="44.3341" lon="2.54086">
        <ele>622.7</ele>
        <time>2011-04-06T16:19:55Z</time>
      </trkpt>
      <trkpt lat="44.33411" lon="2.54082">
        <ele>622.7</ele>
        <time>2011-04-06T16:19:56Z</time>
      </trkpt>
      <trkpt lat="44.33412" lon="2.54077">
        <ele>622.5</ele>
        <time>2011-04-06T16:19:57Z</time>
      </trkpt>
      <trkpt lat="44.33412" lon="2.54073">
        <ele>622.5</ele>
        <time>2011-04-06T16:19:58Z</time>
      </trkpt>
      <trkpt lat="44.33413" lon="2.54068">
        <ele>622.5</ele>
        <time>2011-04-06T16:19:59Z</time>
      </trkpt>
      <trkpt lat="44.33414" lon="2.54063">
        <ele>622.5</ele>
        <time>2011-04-06T16:20:00Z</time>
      </trkpt>
      <trkpt lat="44.33414" lon="2.54058">
        <ele>622.7</ele>
        <time>2011-04-06T16:20:01Z</time>
      </trkpt>
      <trkpt lat="44.33415" lon="2.54054">
        <ele>623</ele>
        <time>2011-04-06T16:20:02Z</time>
      </trkpt>
      <trkpt lat="44.33415" lon="2.54049">
        <ele>623.2</ele>
        <time>2011-04-06T16:20:03Z</time>
      </trkpt>
      <trkpt lat="44.33415" lon="2.54044">
        <ele>623.5</ele>
        <time>2011-04-06T16:20:04Z</time>
      </trkpt>
      <trkpt lat="44.33415" lon="2.5404">
        <ele>623.7</ele>
        <time>2011-04-06T16:20:05Z</time>
      </trkpt>
      <trkpt lat="44.33415" lon="2.54035">
        <ele>624</ele>
        <time>2011-04-06T16:20:06Z</time>
      </trkpt>
      <trkpt lat="44.33414" lon="2.54031">
        <ele>624.2</ele>
        <time>2011-04-06T16:20:07Z</time>
      </trkpt>
      <trkpt lat="44.33414" lon="2.54026">
        <ele>624.5</ele>
        <time>2011-04-06T16:20:08Z</time>
      </trkpt>
      <trkpt lat="44.33413" lon="2.54022">
        <ele>624.7</ele>
        <time>2011-04-06T16:20:09Z</time>
      </trkpt>
      <trkpt lat="44.33413" lon="2.54018">
        <ele>624.9</ele>
        <time>2011-04-06T16:20:10Z</time>
      </trkpt>
      <trkpt lat="44.33412" lon="2.54013">
        <ele>625</ele>
        <time>2011-04-06T16:20:11Z</time>
      </trkpt>
      <trkpt lat="44.33412" lon="2.54009">
        <ele>625</ele>
        <time>2011-04-06T16:20:12Z</time>
      </trkpt>
      <trkpt lat="44.33411" lon="2.54004">
        <ele>625.2</ele>
        <time>2011-04-06T16:20:13Z</time>
      </trkpt>
      <trkpt lat="44.3341" lon="2.54">
        <ele>625.4</ele>
        <time>2011-04-06T16:20:14Z</time>
      </trkpt>
      <trkpt lat="44.33409" lon="2.53996">
        <ele>625.7</ele>
        <time>2011-04-06T16:20:15Z</time>
      </trkpt>
      <trkpt lat="44.33408" lon="2.53992">
        <ele>625.9</ele>
        <time>2011-04-06T16:20:16Z</time>
      </trkpt>
      <trkpt lat="44.33408" lon="2.53988">
        <ele>626</ele>
        <time>2011-04-06T16:20:17Z</time>
      </trkpt>
      <trkpt lat="44.33407" lon="2.53983">
        <ele>626.2</ele>
        <time>2011-04-06T16:20:18Z</time>
      </trkpt>
      <trkpt lat="44.33407" lon="2.53979">
        <ele>626.2</ele>
        <time>2011-04-06T16:20:19Z</time>
      </trkpt>
      <trkpt lat="44.33407" lon="2.53975">
        <ele>626.5</ele>
        <time>2011-04-06T16:20:20Z</time>
      </trkpt>
      <trkpt lat="44.33407" lon="2.53971">
        <ele>626.7</ele>
        <time>2011-04-06T16:20:21Z</time>
      </trkpt>
      <trkpt lat="44.33406" lon="2.53967">
        <ele>626.9</ele>
        <time>2011-04-06T16:20:22Z</time>
      </trkpt>
      <trkpt lat="44.33406" lon="2.53963">
        <ele>627.2</ele>
        <time>2011-04-06T16:20:23Z</time>
      </trkpt>
      <trkpt lat="44.33405" lon="2.5396">
        <ele>627.5</ele>
        <time>2011-04-06T16:20:24Z</time>
      </trkpt>
      <trkpt lat="44.33404" lon="2.53957">
        <ele>627.7</ele>
        <time>2011-04-06T16:20:25Z</time>
      </trkpt>
      <trkpt lat="44.33403" lon="2.53953">
        <ele>628</ele>
        <time>2011-04-06T16:20:26Z</time>
      </trkpt>
      <trkpt lat="44.33402" lon="2.5395">
        <ele>628.2</ele>
        <time>2011-04-06T16:20:27Z</time>
      </trkpt>
      <trkpt lat="44.33401" lon="2.53947">
        <ele>628.5</ele>
        <time>2011-04-06T16:20:28Z</time>
      </trkpt>
      <trkpt lat="44.334" lon="2.53944">
        <ele>628.7</ele>
        <time>2011-04-06T16:20:29Z</time>
      </trkpt>
      <trkpt lat="44.33399" lon="2.5394">
        <ele>629</ele>
        <time>2011-04-06T16:20:30Z</time>
      </trkpt>
      <trkpt lat="44.33398" lon="2.53937">
        <ele>629.5</ele>
        <time>2011-04-06T16:20:31Z</time>
      </trkpt>
      <trkpt lat="44.33397" lon="2.53934">
        <ele>630.2</ele>
        <time>2011-04-06T16:20:32Z</time>
      </trkpt>
      <trkpt lat="44.33396" lon="2.53931">
        <ele>630.7</ele>
        <time>2011-04-06T16:20:33Z</time>
      </trkpt>
      <trkpt lat="44.33395" lon="2.53927">
        <ele>631</ele>
        <time>2011-04-06T16:20:34Z</time>
      </trkpt>
      <trkpt lat="44.33393" lon="2.53924">
        <ele>631.5</ele>
        <time>2011-04-06T16:20:35Z</time>
      </trkpt>
      <trkpt lat="44.33393" lon="2.5392">
        <ele>631.7</ele>
        <time>2011-04-06T16:20:36Z</time>
      </trkpt>
      <trkpt lat="44.33392" lon="2.53916">
        <ele>632</ele>
        <time>2011-04-06T16:20:37Z</time>
      </trkpt>
      <trkpt lat="44.33391" lon="2.53912">
        <ele>632.2</ele>
        <time>2011-04-06T16:20:38Z</time>
      </trkpt>
      <trkpt lat="44.33389" lon="2.53907">
        <ele>632.5</ele>
        <time>2011-04-06T16:20:39Z</time>
      </trkpt>
      <trkpt lat="44.33388" lon="2.53903">
        <ele>632.7</ele>
        <time>2011-04-06T16:20:40Z</time>
      </trkpt>
      <trkpt lat="44.33386" lon="2.53899">
        <ele>632.7</ele>
        <time>2011-04-06T16:20:41Z</time>
      </trkpt>
      <trkpt lat="44.33385" lon="2.53895">
        <ele>632.9</ele>
        <time>2011-04-06T16:20:42Z</time>
      </trkpt>
      <trkpt lat="44.33383" lon="2.53891">
        <ele>632.9</ele>
        <time>2011-04-06T16:20:43Z</time>
      </trkpt>
      <trkpt lat="44.33382" lon="2.53886">
        <ele>632.9</ele>
        <time>2011-04-06T16:20:44Z</time>
      </trkpt>
      <trkpt lat="44.3338" lon="2.53882">
        <ele>632.9</ele>
        <time>2011-04-06T16:20:45Z</time>
      </trkpt>
      <trkpt lat="44.33379" lon="2.53878">
        <ele>633</ele>
        <time>2011-04-06T16:20:46Z</time>
      </trkpt>
      <trkpt lat="44.33377" lon="2.53874">
        <ele>633</ele>
        <time>2011-04-06T16:20:47Z</time>
      </trkpt>
      <trkpt lat="44.33376" lon="2.5387">
        <ele>633</ele>
        <time>2011-04-06T16:20:48Z</time>
      </trkpt>
      <trkpt lat="44.33374" lon="2.53867">
        <ele>633.2</ele>
        <time>2011-04-06T16:20:49Z</time>
      </trkpt>
      <trkpt lat="44.33372" lon="2.53863">
        <ele>633.2</ele>
        <time>2011-04-06T16:20:50Z</time>
      </trkpt>
      <trkpt lat="44.33371" lon="2.53859">
        <ele>633.4</ele>
        <time>2011-04-06T16:20:51Z</time>
      </trkpt>
      <trkpt lat="44.33369" lon="2.53855">
        <ele>633.4</ele>
        <time>2011-04-06T16:20:52Z</time>
      </trkpt>
      <trkpt lat="44.33368" lon="2.53851">
        <ele>633.4</ele>
        <time>2011-04-06T16:20:53Z</time>
      </trkpt>
      <trkpt lat="44.33366" lon="2.53848">
        <ele>633.2</ele>
        <time>2011-04-06T16:20:54Z</time>
      </trkpt>
      <trkpt lat="44.33364" lon="2.53844">
        <ele>633.2</ele>
        <time>2011-04-06T16:20:55Z</time>
      </trkpt>
      <trkpt lat="44.33363" lon="2.5384">
        <ele>633.2</ele>
        <time>2011-04-06T16:20:56Z</time>
      </trkpt>
      <trkpt lat="44.33361" lon="2.53836">
        <ele>633.2</ele>
        <time>2011-04-06T16:20:57Z</time>
      </trkpt>
      <trkpt lat="44.33359" lon="2.53832">
        <ele>633</ele>
        <time>2011-04-06T16:20:58Z</time>
      </trkpt>
      <trkpt lat="44.33358" lon="2.53828">
        <ele>633</ele>
        <time>2011-04-06T16:20:59Z</time>
      </trkpt>
      <trkpt lat="44.33356" lon="2.53824">
        <ele>633</ele>
        <time>2011-04-06T16:21:00Z</time>
      </trkpt>
      <trkpt lat="44.33355" lon="2.5382">
        <ele>633</ele>
        <time>2011-04-06T16:21:01Z</time>
      </trkpt>
      <trkpt lat="44.33353" lon="2.53816">
        <ele>633</ele>
        <time>2011-04-06T16:21:02Z</time>
      </trkpt>
      <trkpt lat="44.33351" lon="2.53812">
        <ele>633</ele>
        <time>2011-04-06T16:21:03Z</time>
      </trkpt>
      <trkpt lat="44.3335" lon="2.53808">
        <ele>633</ele>
        <time>2011-04-06T16:21:04Z</time>
      </trkpt>
      <trkpt lat="44.33348" lon="2.53804">
        <ele>632.9</ele>
        <time>2011-04-06T16:21:05Z</time>
      </trkpt>
      <trkpt lat="44.33346" lon="2.538">
        <ele>632.9</ele>
        <time>2011-04-06T16:21:06Z</time>
      </trkpt>
      <trkpt lat="44.33345" lon="2.53796">
        <ele>632.9</ele>
        <time>2011-04-06T16:21:07Z</time>
      </trkpt>
      <trkpt lat="44.33343" lon="2.53792">
        <ele>632.9</ele>
        <time>2011-04-06T16:21:08Z</time>
      </trkpt>
      <trkpt lat="44.33342" lon="2.53789">
        <ele>632.9</ele>
        <time>2011-04-06T16:21:09Z</time>
      </trkpt>
      <trkpt lat="44.3334" lon="2.53785">
        <ele>632.9</ele>
        <time>2011-04-06T16:21:10Z</time>
      </trkpt>
      <trkpt lat="44.33338" lon="2.53781">
        <ele>633</ele>
        <time>2011-04-06T16:21:11Z</time>
      </trkpt>
      <trkpt lat="44.33337" lon="2.53777">
        <ele>633</ele>
        <time>2011-04-06T16:21:12Z</time>
      </trkpt>
      <trkpt lat="44.33336" lon="2.53773">
        <ele>633</ele>
        <time>2011-04-06T16:21:13Z</time>
      </trkpt>
      <trkpt lat="44.33334" lon="2.53769">
        <ele>633</ele>
        <time>2011-04-06T16:21:14Z</time>
      </trkpt>
      <trkpt lat="44.33333" lon="2.53764">
        <ele>633</ele>
        <time>2011-04-06T16:21:15Z</time>
      </trkpt>
      <trkpt lat="44.33332" lon="2.5376">
        <ele>633.2</ele>
        <time>2011-04-06T16:21:16Z</time>
      </trkpt>
      <trkpt lat="44.33332" lon="2.53756">
        <ele>633.2</ele>
        <time>2011-04-06T16:21:17Z</time>
      </trkpt>
      <trkpt lat="44.33331" lon="2.53751">
        <ele>633.2</ele>
        <time>2011-04-06T16:21:18Z</time>
      </trkpt>
      <trkpt lat="44.3333" lon="2.53747">
        <ele>633.2</ele>
        <time>2011-04-06T16:21:19Z</time>
      </trkpt>
      <trkpt lat="44.33329" lon="2.53743">
        <ele>633.2</ele>
        <time>2011-04-06T16:21:20Z</time>
      </trkpt>
      <trkpt lat="44.33329" lon="2.53738">
        <ele>633.2</ele>
        <time>2011-04-06T16:21:21Z</time>
      </trkpt>
      <trkpt lat="44.33327" lon="2.53734">
        <ele>633.2</ele>
        <time>2011-04-06T16:21:22Z</time>
      </trkpt>
      <trkpt lat="44.33326" lon="2.5373">
        <ele>633.2</ele>
        <time>2011-04-06T16:21:23Z</time>
      </trkpt>
      <trkpt lat="44.33325" lon="2.53726">
        <ele>633.2</ele>
        <time>2011-04-06T16:21:24Z</time>
      </trkpt>
      <trkpt lat="44.33324" lon="2.53722">
        <ele>633.2</ele>
        <time>2011-04-06T16:21:25Z</time>
      </trkpt>
      <trkpt lat="44.33322" lon="2.53718">
        <ele>633.2</ele>
        <time>2011-04-06T16:21:26Z</time>
      </trkpt>
      <trkpt lat="44.33321" lon="2.53714">
        <ele>633.4</ele>
        <time>2011-04-06T16:21:27Z</time>
      </trkpt>
      <trkpt lat="44.33319" lon="2.5371">
        <ele>633.4</ele>
        <time>2011-04-06T16:21:28Z</time>
      </trkpt>
      <trkpt lat="44.33317" lon="2.53707">
        <ele>633.5</ele>
        <time>2011-04-06T16:21:29Z</time>
      </trkpt>
      <trkpt lat="44.33316" lon="2.53703">
        <ele>633.5</ele>
        <time>2011-04-06T16:21:30Z</time>
      </trkpt>
      <trkpt lat="44.33314" lon="2.537">
        <ele>633.5</ele>
        <time>2011-04-06T16:21:31Z</time>
      </trkpt>
      <trkpt lat="44.33312" lon="2.53696">
        <ele>633.7</ele>
        <time>2011-04-06T16:21:32Z</time>
      </trkpt>
      <trkpt lat="44.33311" lon="2.53693">
        <ele>633.7</ele>
        <time>2011-04-06T16:21:33Z</time>
      </trkpt>
      <trkpt lat="44.33309" lon="2.53689">
        <ele>633.9</ele>
        <time>2011-04-06T16:21:34Z</time>
      </trkpt>
      <trkpt lat="44.33307" lon="2.53686">
        <ele>633.9</ele>
        <time>2011-04-06T16:21:35Z</time>
      </trkpt>
      <trkpt lat="44.33305" lon="2.53682">
        <ele>634</ele>
        <time>2011-04-06T16:21:36Z</time>
      </trkpt>
      <trkpt lat="44.33304" lon="2.53678">
        <ele>634</ele>
        <time>2011-04-06T16:21:37Z</time>
      </trkpt>
      <trkpt lat="44.33302" lon="2.53675">
        <ele>634.2</ele>
        <time>2011-04-06T16:21:38Z</time>
      </trkpt>
      <trkpt lat="44.333" lon="2.53671">
        <ele>634.4</ele>
        <time>2011-04-06T16:21:39Z</time>
      </trkpt>
      <trkpt lat="44.33299" lon="2.53668">
        <ele>634.5</ele>
        <time>2011-04-06T16:21:40Z</time>
      </trkpt>
      <trkpt lat="44.33297" lon="2.53664">
        <ele>634.5</ele>
        <time>2011-04-06T16:21:41Z</time>
      </trkpt>
      <trkpt lat="44.33296" lon="2.53661">
        <ele>634.7</ele>
        <time>2011-04-06T16:21:42Z</time>
      </trkpt>
      <trkpt lat="44.33295" lon="2.53657">
        <ele>634.7</ele>
        <time>2011-04-06T16:21:43Z</time>
      </trkpt>
      <trkpt lat="44.33293" lon="2.53653">
        <ele>634.7</ele>
        <time>2011-04-06T16:21:44Z</time>
      </trkpt>
      <trkpt lat="44.33292" lon="2.53649">
        <ele>634.9</ele>
        <time>2011-04-06T16:21:45Z</time>
      </trkpt>
      <trkpt lat="44.33291" lon="2.53646">
        <ele>635</ele>
        <time>2011-04-06T16:21:46Z</time>
      </trkpt>
      <trkpt lat="44.33289" lon="2.53642">
        <ele>635</ele>
        <time>2011-04-06T16:21:47Z</time>
      </trkpt>
      <trkpt lat="44.33288" lon="2.53638">
        <ele>635</ele>
        <time>2011-04-06T16:21:48Z</time>
      </trkpt>
      <trkpt lat="44.33286" lon="2.53634">
        <ele>635</ele>
        <time>2011-04-06T16:21:49Z</time>
      </trkpt>
      <trkpt lat="44.33285" lon="2.5363">
        <ele>635</ele>
        <time>2011-04-06T16:21:50Z</time>
      </trkpt>
      <trkpt lat="44.33283" lon="2.53626">
        <ele>635</ele>
        <time>2011-04-06T16:21:51Z</time>
      </trkpt>
      <trkpt lat="44.33282" lon="2.53623">
        <ele>635</ele>
        <time>2011-04-06T16:21:52Z</time>
      </trkpt>
      <trkpt lat="44.3328" lon="2.53619">
        <ele>635</ele>
        <time>2011-04-06T16:21:53Z</time>
      </trkpt>
      <trkpt lat="44.33279" lon="2.53615">
        <ele>635.2</ele>
        <time>2011-04-06T16:21:54Z</time>
      </trkpt>
      <trkpt lat="44.33277" lon="2.53611">
        <ele>635.2</ele>
        <time>2011-04-06T16:21:55Z</time>
      </trkpt>
      <trkpt lat="44.33276" lon="2.53607">
        <ele>635.2</ele>
        <time>2011-04-06T16:21:56Z</time>
      </trkpt>
      <trkpt lat="44.33274" lon="2.53604">
        <ele>635.4</ele>
        <time>2011-04-06T16:21:57Z</time>
      </trkpt>
      <trkpt lat="44.33273" lon="2.536">
        <ele>635.5</ele>
        <time>2011-04-06T16:21:58Z</time>
      </trkpt>
      <trkpt lat="44.33271" lon="2.53596">
        <ele>635.5</ele>
        <time>2011-04-06T16:21:59Z</time>
      </trkpt>
      <trkpt lat="44.33269" lon="2.53593">
        <ele>635.7</ele>
        <time>2011-04-06T16:22:00Z</time>
      </trkpt>
      <trkpt lat="44.33267" lon="2.53589">
        <ele>635.7</ele>
        <time>2011-04-06T16:22:01Z</time>
      </trkpt>
      <trkpt lat="44.33266" lon="2.53586">
        <ele>635.9</ele>
        <time>2011-04-06T16:22:02Z</time>
      </trkpt>
      <trkpt lat="44.33264" lon="2.53582">
        <ele>636</ele>
        <time>2011-04-06T16:22:03Z</time>
      </trkpt>
      <trkpt lat="44.33262" lon="2.53579">
        <ele>636</ele>
        <time>2011-04-06T16:22:04Z</time>
      </trkpt>
      <trkpt lat="44.3326" lon="2.53575">
        <ele>636.2</ele>
        <time>2011-04-06T16:22:05Z</time>
      </trkpt>
      <trkpt lat="44.33259" lon="2.53572">
        <ele>636.4</ele>
        <time>2011-04-06T16:22:06Z</time>
      </trkpt>
      <trkpt lat="44.33257" lon="2.53568">
        <ele>636.5</ele>
        <time>2011-04-06T16:22:07Z</time>
      </trkpt>
      <trkpt lat="44.33255" lon="2.53565">
        <ele>636.7</ele>
        <time>2011-04-06T16:22:08Z</time>
      </trkpt>
      <trkpt lat="44.33253" lon="2.53562">
        <ele>636.9</ele>
        <time>2011-04-06T16:22:09Z</time>
      </trkpt>
      <trkpt lat="44.33252" lon="2.53559">
        <ele>637</ele>
        <time>2011-04-06T16:22:10Z</time>
      </trkpt>
      <trkpt lat="44.3325" lon="2.53556">
        <ele>637.2</ele>
        <time>2011-04-06T16:22:11Z</time>
      </trkpt>
      <trkpt lat="44.33248" lon="2.53552">
        <ele>637.4</ele>
        <time>2011-04-06T16:22:12Z</time>
      </trkpt>
      <trkpt lat="44.33246" lon="2.53549">
        <ele>637.5</ele>
        <time>2011-04-06T16:22:13Z</time>
      </trkpt>
      <trkpt lat="44.33244" lon="2.53546">
        <ele>637.7</ele>
        <time>2011-04-06T16:22:14Z</time>
      </trkpt>
      <trkpt lat="44.33243" lon="2.53543">
        <ele>637.7</ele>
        <time>2011-04-06T16:22:15Z</time>
      </trkpt>
      <trkpt lat="44.33241" lon="2.5354">
        <ele>637.9</ele>
        <time>2011-04-06T16:22:16Z</time>
      </trkpt>
      <trkpt lat="44.33239" lon="2.53536">
        <ele>638</ele>
        <time>2011-04-06T16:22:17Z</time>
      </trkpt>
      <trkpt lat="44.33237" lon="2.53533">
        <ele>638</ele>
        <time>2011-04-06T16:22:18Z</time>
      </trkpt>
      <trkpt lat="44.33235" lon="2.5353">
        <ele>638.2</ele>
        <time>2011-04-06T16:22:19Z</time>
      </trkpt>
      <trkpt lat="44.33233" lon="2.53527">
        <ele>638.2</ele>
        <time>2011-04-06T16:22:20Z</time>
      </trkpt>
      <trkpt lat="44.33231" lon="2.53524">
        <ele>638.5</ele>
        <time>2011-04-06T16:22:21Z</time>
      </trkpt>
      <trkpt lat="44.33229" lon="2.53521">
        <ele>638.5</ele>
        <time>2011-04-06T16:22:22Z</time>
      </trkpt>
      <trkpt lat="44.33227" lon="2.53518">
        <ele>638.5</ele>
        <time>2011-04-06T16:22:23Z</time>
      </trkpt>
      <trkpt lat="44.33225" lon="2.53515">
        <ele>638.7</ele>
        <time>2011-04-06T16:22:24Z</time>
      </trkpt>
      <trkpt lat="44.33223" lon="2.53512">
        <ele>638.7</ele>
        <time>2011-04-06T16:22:25Z</time>
      </trkpt>
      <trkpt lat="44.3322" lon="2.53509">
        <ele>638.9</ele>
        <time>2011-04-06T16:22:26Z</time>
      </trkpt>
      <trkpt lat="44.33218" lon="2.53506">
        <ele>638.9</ele>
        <time>2011-04-06T16:22:27Z</time>
      </trkpt>
      <trkpt lat="44.33216" lon="2.53503">
        <ele>639</ele>
        <time>2011-04-06T16:22:28Z</time>
      </trkpt>
      <trkpt lat="44.33214" lon="2.535">
        <ele>639</ele>
        <time>2011-04-06T16:22:29Z</time>
      </trkpt>
      <trkpt lat="44.33212" lon="2.53497">
        <ele>639</ele>
        <time>2011-04-06T16:22:30Z</time>
      </trkpt>
      <trkpt lat="44.3321" lon="2.53494">
        <ele>639</ele>
        <time>2011-04-06T16:22:31Z</time>
      </trkpt>
      <trkpt lat="44.33208" lon="2.53491">
        <ele>639.2</ele>
        <time>2011-04-06T16:22:32Z</time>
      </trkpt>
      <trkpt lat="44.33206" lon="2.53488">
        <ele>639.2</ele>
        <time>2011-04-06T16:22:33Z</time>
      </trkpt>
      <trkpt lat="44.33204" lon="2.53485">
        <ele>639.2</ele>
        <time>2011-04-06T16:22:34Z</time>
      </trkpt>
      <trkpt lat="44.33202" lon="2.53483">
        <ele>639.2</ele>
        <time>2011-04-06T16:22:35Z</time>
      </trkpt>
      <trkpt lat="44.332" lon="2.5348">
        <ele>639.2</ele>
        <time>2011-04-06T16:22:36Z</time>
      </trkpt>
      <trkpt lat="44.33198" lon="2.53477">
        <ele>639.2</ele>
        <time>2011-04-06T16:22:37Z</time>
      </trkpt>
      <trkpt lat="44.33195" lon="2.53475">
        <ele>639.2</ele>
        <time>2011-04-06T16:22:38Z</time>
      </trkpt>
      <trkpt lat="44.33193" lon="2.53472">
        <ele>639</ele>
        <time>2011-04-06T16:22:39Z</time>
      </trkpt>
      <trkpt lat="44.33191" lon="2.53469">
        <ele>639</ele>
        <time>2011-04-06T16:22:40Z</time>
      </trkpt>
      <trkpt lat="44.33188" lon="2.53467">
        <ele>639</ele>
        <time>2011-04-06T16:22:41Z</time>
      </trkpt>
      <trkpt lat="44.33186" lon="2.53464">
        <ele>639</ele>
        <time>2011-04-06T16:22:42Z</time>
      </trkpt>
      <trkpt lat="44.33184" lon="2.53461">
        <ele>638.7</ele>
        <time>2011-04-06T16:22:43Z</time>
      </trkpt>
      <trkpt lat="44.33181" lon="2.53457">
        <ele>638.5</ele>
        <time>2011-04-06T16:22:44Z</time>
      </trkpt>
      <trkpt lat="44.33179" lon="2.53452">
        <ele>638</ele>
        <time>2011-04-06T16:22:45Z</time>
      </trkpt>
      <trkpt lat="44.33176" lon="2.53446">
        <ele>637.5</ele>
        <time>2011-04-06T16:22:46Z</time>
      </trkpt>
      <trkpt lat="44.33174" lon="2.53439">
        <ele>637</ele>
        <time>2011-04-06T16:22:47Z</time>
      </trkpt>
      <trkpt lat="44.33172" lon="2.53431">
        <ele>636.5</ele>
        <time>2011-04-06T16:22:48Z</time>
      </trkpt>
      <trkpt lat="44.3317" lon="2.53422">
        <ele>635.9</ele>
        <time>2011-04-06T16:22:49Z</time>
      </trkpt>
      <trkpt lat="44.33168" lon="2.53413">
        <ele>635</ele>
        <time>2011-04-06T16:22:50Z</time>
      </trkpt>
      <trkpt lat="44.33166" lon="2.53403">
        <ele>634.2</ele>
        <time>2011-04-06T16:22:51Z</time>
      </trkpt>
      <trkpt lat="44.33164" lon="2.53391">
        <ele>633.2</ele>
        <time>2011-04-06T16:22:52Z</time>
      </trkpt>
      <trkpt lat="44.33163" lon="2.53379">
        <ele>632</ele>
        <time>2011-04-06T16:22:53Z</time>
      </trkpt>
      <trkpt lat="44.33163" lon="2.53366">
        <ele>630.9</ele>
        <time>2011-04-06T16:22:54Z</time>
      </trkpt>
      <trkpt lat="44.33163" lon="2.53353">
        <ele>629.7</ele>
        <time>2011-04-06T16:22:55Z</time>
      </trkpt>
      <trkpt lat="44.33164" lon="2.53338">
        <ele>628</ele>
        <time>2011-04-06T16:22:56Z</time>
      </trkpt>
      <trkpt lat="44.33166" lon="2.53324">
        <ele>626.7</ele>
        <time>2011-04-06T16:22:57Z</time>
      </trkpt>
      <trkpt lat="44.33168" lon="2.53308">
        <ele>625.2</ele>
        <time>2011-04-06T16:22:58Z</time>
      </trkpt>
      <trkpt lat="44.3317" lon="2.53292">
        <ele>623.5</ele>
        <time>2011-04-06T16:22:59Z</time>
      </trkpt>
      <trkpt lat="44.33172" lon="2.53275">
        <ele>621.7</ele>
        <time>2011-04-06T16:23:00Z</time>
      </trkpt>
      <trkpt lat="44.33176" lon="2.53258">
        <ele>619.9</ele>
        <time>2011-04-06T16:23:01Z</time>
      </trkpt>
      <trkpt lat="44.33179" lon="2.53241">
        <ele>618.2</ele>
        <time>2011-04-06T16:23:02Z</time>
      </trkpt>
      <trkpt lat="44.33183" lon="2.53223">
        <ele>616.5</ele>
        <time>2011-04-06T16:23:03Z</time>
      </trkpt>
      <trkpt lat="44.33187" lon="2.53206">
        <ele>615.2</ele>
        <time>2011-04-06T16:23:04Z</time>
      </trkpt>
      <trkpt lat="44.33192" lon="2.5319">
        <ele>613.7</ele>
        <time>2011-04-06T16:23:05Z</time>
      </trkpt>
      <trkpt lat="44.33198" lon="2.53174">
        <ele>612.5</ele>
        <time>2011-04-06T16:23:06Z</time>
      </trkpt>
      <trkpt lat="44.33204" lon="2.53158">
        <ele>611.5</ele>
        <time>2011-04-06T16:23:07Z</time>
      </trkpt>
      <trkpt lat="44.33211" lon="2.53143">
        <ele>610.5</ele>
        <time>2011-04-06T16:23:08Z</time>
      </trkpt>
      <trkpt lat="44.33219" lon="2.53128">
        <ele>609.5</ele>
        <time>2011-04-06T16:23:09Z</time>
      </trkpt>
      <trkpt lat="44.33225" lon="2.53113">
        <ele>608.4</ele>
        <time>2011-04-06T16:23:10Z</time>
      </trkpt>
      <trkpt lat="44.33232" lon="2.53098">
        <ele>607.2</ele>
        <time>2011-04-06T16:23:11Z</time>
      </trkpt>
      <trkpt lat="44.33239" lon="2.53082">
        <ele>605.7</ele>
        <time>2011-04-06T16:23:12Z</time>
      </trkpt>
      <trkpt lat="44.33247" lon="2.53068">
        <ele>604.5</ele>
        <time>2011-04-06T16:23:13Z</time>
      </trkpt>
      <trkpt lat="44.33256" lon="2.53054">
        <ele>603.2</ele>
        <time>2011-04-06T16:23:14Z</time>
      </trkpt>
      <trkpt lat="44.33265" lon="2.53041">
        <ele>602</ele>
        <time>2011-04-06T16:23:15Z</time>
      </trkpt>
      <trkpt lat="44.33274" lon="2.53029">
        <ele>600.9</ele>
        <time>2011-04-06T16:23:16Z</time>
      </trkpt>
      <trkpt lat="44.33284" lon="2.53019">
        <ele>599.9</ele>
        <time>2011-04-06T16:23:17Z</time>
      </trkpt>
      <trkpt lat="44.33294" lon="2.53009">
        <ele>599</ele>
        <time>2011-04-06T16:23:18Z</time>
      </trkpt>
      <trkpt lat="44.33304" lon="2.53">
        <ele>598.2</ele>
        <time>2011-04-06T16:23:19Z</time>
      </trkpt>
      <trkpt lat="44.33314" lon="2.52992">
        <ele>597</ele>
        <time>2011-04-06T16:23:20Z</time>
      </trkpt>
      <trkpt lat="44.33324" lon="2.52984">
        <ele>596</ele>
        <time>2011-04-06T16:23:21Z</time>
      </trkpt>
      <trkpt lat="44.33334" lon="2.52975">
        <ele>594.7</ele>
        <time>2011-04-06T16:23:22Z</time>
      </trkpt>
      <trkpt lat="44.33343" lon="2.52966">
        <ele>593.5</ele>
        <time>2011-04-06T16:23:23Z</time>
      </trkpt>
      <trkpt lat="44.33352" lon="2.52957">
        <ele>592.4</ele>
        <time>2011-04-06T16:23:24Z</time>
      </trkpt>
      <trkpt lat="44.33362" lon="2.52948">
        <ele>591.2</ele>
        <time>2011-04-06T16:23:25Z</time>
      </trkpt>
      <trkpt lat="44.33371" lon="2.5294">
        <ele>590</ele>
        <time>2011-04-06T16:23:26Z</time>
      </trkpt>
      <trkpt lat="44.33379" lon="2.52934">
        <ele>589</ele>
        <time>2011-04-06T16:23:27Z</time>
      </trkpt>
      <trkpt lat="44.33387" lon="2.52928">
        <ele>588</ele>
        <time>2011-04-06T16:23:28Z</time>
      </trkpt>
      <trkpt lat="44.33393" lon="2.52922">
        <ele>587.2</ele>
        <time>2011-04-06T16:23:29Z</time>
      </trkpt>
      <trkpt lat="44.33398" lon="2.52918">
        <ele>586.5</ele>
        <time>2011-04-06T16:23:30Z</time>
      </trkpt>
      <trkpt lat="44.33401" lon="2.52914">
        <ele>585.9</ele>
        <time>2011-04-06T16:23:31Z</time>
      </trkpt>
      <trkpt lat="44.33404" lon="2.52911">
        <ele>585.5</ele>
        <time>2011-04-06T16:23:32Z</time>
      </trkpt>
      <trkpt lat="44.33407" lon="2.52907">
        <ele>586.9</ele>
        <time>2011-04-06T16:23:51Z</time>
      </trkpt>
      <trkpt lat="44.33407" lon="2.52906">
        <ele>587</ele>
        <time>2011-04-06T16:23:52Z</time>
      </trkpt>
      <trkpt lat="44.3341" lon="2.52899">
        <ele>587.2</ele>
        <time>2011-04-06T16:23:55Z</time>
      </trkpt>
      <trkpt lat="44.33411" lon="2.52895">
        <ele>587.2</ele>
        <time>2011-04-06T16:23:56Z</time>
      </trkpt>
      <trkpt lat="44.33411" lon="2.52892">
        <ele>587</ele>
        <time>2011-04-06T16:23:57Z</time>
      </trkpt>
      <trkpt lat="44.3341" lon="2.52888">
        <ele>586.9</ele>
        <time>2011-04-06T16:23:58Z</time>
      </trkpt>
      <trkpt lat="44.3341" lon="2.52884">
        <ele>586.7</ele>
        <time>2011-04-06T16:23:59Z</time>
      </trkpt>
      <trkpt lat="44.3341" lon="2.5288">
        <ele>586.4</ele>
        <time>2011-04-06T16:24:00Z</time>
      </trkpt>
      <trkpt lat="44.3341" lon="2.52874">
        <ele>585.9</ele>
        <time>2011-04-06T16:24:01Z</time>
      </trkpt>
      <trkpt lat="44.33411" lon="2.52867">
        <ele>584.9</ele>
        <time>2011-04-06T16:24:02Z</time>
      </trkpt>
      <trkpt lat="44.33412" lon="2.5286">
        <ele>583.9</ele>
        <time>2011-04-06T16:24:03Z</time>
      </trkpt>
      <trkpt lat="44.33412" lon="2.52854">
        <ele>582.5</ele>
        <time>2011-04-06T16:24:04Z</time>
      </trkpt>
      <trkpt lat="44.33412" lon="2.52848">
        <ele>581</ele>
        <time>2011-04-06T16:24:05Z</time>
      </trkpt>
      <trkpt lat="44.33412" lon="2.52841">
        <ele>579.7</ele>
        <time>2011-04-06T16:24:06Z</time>
      </trkpt>
      <trkpt lat="44.33412" lon="2.52836">
        <ele>578.4</ele>
        <time>2011-04-06T16:24:07Z</time>
      </trkpt>
      <trkpt lat="44.33412" lon="2.5283">
        <ele>577</ele>
        <time>2011-04-06T16:24:08Z</time>
      </trkpt>
      <trkpt lat="44.33412" lon="2.52826">
        <ele>576</ele>
        <time>2011-04-06T16:24:09Z</time>
      </trkpt>
      <trkpt lat="44.33412" lon="2.52821">
        <ele>575</ele>
        <time>2011-04-06T16:24:10Z</time>
      </trkpt>
      <trkpt lat="44.33412" lon="2.52817">
        <ele>574.2</ele>
        <time>2011-04-06T16:24:11Z</time>
      </trkpt>
      <trkpt lat="44.33412" lon="2.52813">
        <ele>573.7</ele>
        <time>2011-04-06T16:24:12Z</time>
      </trkpt>
      <trkpt lat="44.33412" lon="2.52809">
        <ele>573</ele>
        <time>2011-04-06T16:24:13Z</time>
      </trkpt>
      <trkpt lat="44.33412" lon="2.52805">
        <ele>572.5</ele>
        <time>2011-04-06T16:24:14Z</time>
      </trkpt>
      <trkpt lat="44.33412" lon="2.528">
        <ele>572.2</ele>
        <time>2011-04-06T16:24:15Z</time>
      </trkpt>
      <trkpt lat="44.33413" lon="2.52794">
        <ele>571.5</ele>
        <time>2011-04-06T16:24:16Z</time>
      </trkpt>
      <trkpt lat="44.33413" lon="2.52789">
        <ele>571</ele>
        <time>2011-04-06T16:24:17Z</time>
      </trkpt>
      <trkpt lat="44.33413" lon="2.52783">
        <ele>570.4</ele>
        <time>2011-04-06T16:24:18Z</time>
      </trkpt>
      <trkpt lat="44.33413" lon="2.52777">
        <ele>569.7</ele>
        <time>2011-04-06T16:24:19Z</time>
      </trkpt>
      <trkpt lat="44.33413" lon="2.52771">
        <ele>569.2</ele>
        <time>2011-04-06T16:24:20Z</time>
      </trkpt>
      <trkpt lat="44.33414" lon="2.52766">
        <ele>568.5</ele>
        <time>2011-04-06T16:24:21Z</time>
      </trkpt>
      <trkpt lat="44.33413" lon="2.52762">
        <ele>568</ele>
        <time>2011-04-06T16:24:22Z</time>
      </trkpt>
      <trkpt lat="44.33413" lon="2.52756">
        <ele>566.2</ele>
        <time>2011-04-06T16:24:25Z</time>
      </trkpt>
      <trkpt lat="44.3341" lon="2.52752">
        <ele>563.2</ele>
        <time>2011-04-06T16:24:29Z</time>
      </trkpt>
      <trkpt lat="44.33409" lon="2.52748">
        <ele>561.9</ele>
        <time>2011-04-06T16:24:31Z</time>
      </trkpt>
      <trkpt lat="44.33409" lon="2.52743">
        <ele>560.2</ele>
        <time>2011-04-06T16:24:33Z</time>
      </trkpt>
      <trkpt lat="44.33408" lon="2.52741">
        <ele>559.4</ele>
        <time>2011-04-06T16:24:34Z</time>
      </trkpt>
      <trkpt lat="44.33406" lon="2.52738">
        <ele>558</ele>
        <time>2011-04-06T16:24:35Z</time>
      </trkpt>
      <trkpt lat="44.33404" lon="2.52735">
        <ele>556.7</ele>
        <time>2011-04-06T16:24:36Z</time>
      </trkpt>
      <trkpt lat="44.33402" lon="2.52731">
        <ele>555.2</ele>
        <time>2011-04-06T16:24:37Z</time>
      </trkpt>
      <trkpt lat="44.334" lon="2.52728">
        <ele>553.7</ele>
        <time>2011-04-06T16:24:38Z</time>
      </trkpt>
      <trkpt lat="44.33399" lon="2.52724">
        <ele>552.4</ele>
        <time>2011-04-06T16:24:39Z</time>
      </trkpt>
      <trkpt lat="44.33398" lon="2.5272">
        <ele>551.4</ele>
        <time>2011-04-06T16:24:40Z</time>
      </trkpt>
      <trkpt lat="44.33398" lon="2.52713">
        <ele>551</ele>
        <time>2011-04-06T16:24:46Z</time>
      </trkpt>
      <trkpt lat="44.33395" lon="2.52708">
        <ele>556</ele>
        <time>2011-04-06T16:25:09Z</time>
      </trkpt>
      <trkpt lat="44.33395" lon="2.52708">
        <ele>556</ele>
        <time>2011-04-06T16:25:10Z</time>
      </trkpt>
      <trkpt lat="44.33389" lon="2.52705">
        <ele>556.2</ele>
        <time>2011-04-06T16:25:23Z</time>
      </trkpt>
      <trkpt lat="44.33386" lon="2.52706">
        <ele>556.2</ele>
        <time>2011-04-06T16:25:24Z</time>
      </trkpt>
      <trkpt lat="44.33384" lon="2.52706">
        <ele>556</ele>
        <time>2011-04-06T16:25:25Z</time>
      </trkpt>
      <trkpt lat="44.3338" lon="2.52706">
        <ele>555.7</ele>
        <time>2011-04-06T16:25:26Z</time>
      </trkpt>
      <trkpt lat="44.33376" lon="2.52706">
        <ele>555</ele>
        <time>2011-04-06T16:25:27Z</time>
      </trkpt>
      <trkpt lat="44.33371" lon="2.52708">
        <ele>554.4</ele>
        <time>2011-04-06T16:25:28Z</time>
      </trkpt>
      <trkpt lat="44.33365" lon="2.5271">
        <ele>553.7</ele>
        <time>2011-04-06T16:25:29Z</time>
      </trkpt>
      <trkpt lat="44.33358" lon="2.52712">
        <ele>553</ele>
        <time>2011-04-06T16:25:30Z</time>
      </trkpt>
      <trkpt lat="44.33351" lon="2.52715">
        <ele>552.2</ele>
        <time>2011-04-06T16:25:31Z</time>
      </trkpt>
      <trkpt lat="44.33344" lon="2.52719">
        <ele>551.4</ele>
        <time>2011-04-06T16:25:32Z</time>
      </trkpt>
      <trkpt lat="44.33336" lon="2.52723">
        <ele>550.4</ele>
        <time>2011-04-06T16:25:33Z</time>
      </trkpt>
      <trkpt lat="44.33329" lon="2.52728">
        <ele>549.4</ele>
        <time>2011-04-06T16:25:34Z</time>
      </trkpt>
      <trkpt lat="44.33321" lon="2.52735">
        <ele>548.2</ele>
        <time>2011-04-06T16:25:35Z</time>
      </trkpt>
      <trkpt lat="44.33315" lon="2.52742">
        <ele>547</ele>
        <time>2011-04-06T16:25:36Z</time>
      </trkpt>
      <trkpt lat="44.33309" lon="2.52748">
        <ele>545.9</ele>
        <time>2011-04-06T16:25:37Z</time>
      </trkpt>
      <trkpt lat="44.33302" lon="2.52753">
        <ele>544.7</ele>
        <time>2011-04-06T16:25:38Z</time>
      </trkpt>
      <trkpt lat="44.33295" lon="2.52758">
        <ele>543.7</ele>
        <time>2011-04-06T16:25:39Z</time>
      </trkpt>
      <trkpt lat="44.33289" lon="2.52762">
        <ele>542.7</ele>
        <time>2011-04-06T16:25:40Z</time>
      </trkpt>
      <trkpt lat="44.33284" lon="2.52767">
        <ele>541.7</ele>
        <time>2011-04-06T16:25:41Z</time>
      </trkpt>
      <trkpt lat="44.33278" lon="2.52773">
        <ele>540.5</ele>
        <time>2011-04-06T16:25:42Z</time>
      </trkpt>
      <trkpt lat="44.33272" lon="2.52779">
        <ele>539.5</ele>
        <time>2011-04-06T16:25:43Z</time>
      </trkpt>
      <trkpt lat="44.33265" lon="2.52784">
        <ele>538.5</ele>
        <time>2011-04-06T16:25:44Z</time>
      </trkpt>
      <trkpt lat="44.33258" lon="2.52789">
        <ele>537.5</ele>
        <time>2011-04-06T16:25:45Z</time>
      </trkpt>
      <trkpt lat="44.33252" lon="2.52794">
        <ele>536.5</ele>
        <time>2011-04-06T16:25:46Z</time>
      </trkpt>
      <trkpt lat="44.33245" lon="2.528">
        <ele>535.4</ele>
        <time>2011-04-06T16:25:47Z</time>
      </trkpt>
      <trkpt lat="44.33238" lon="2.52806">
        <ele>534</ele>
        <time>2011-04-06T16:25:48Z</time>
      </trkpt>
      <trkpt lat="44.33231" lon="2.52812">
        <ele>532.7</ele>
        <time>2011-04-06T16:25:49Z</time>
      </trkpt>
      <trkpt lat="44.33224" lon="2.52818">
        <ele>531.5</ele>
        <time>2011-04-06T16:25:50Z</time>
      </trkpt>
      <trkpt lat="44.33218" lon="2.52823">
        <ele>530.2</ele>
        <time>2011-04-06T16:25:51Z</time>
      </trkpt>
      <trkpt lat="44.33213" lon="2.52827">
        <ele>529.2</ele>
        <time>2011-04-06T16:25:52Z</time>
      </trkpt>
      <trkpt lat="44.33208" lon="2.5283">
        <ele>528</ele>
        <time>2011-04-06T16:25:53Z</time>
      </trkpt>
      <trkpt lat="44.33204" lon="2.52828">
        <ele>525.5</ele>
        <time>2011-04-06T16:25:55Z</time>
      </trkpt>
      <trkpt lat="44.33204" lon="2.52825">
        <ele>524.4</ele>
        <time>2011-04-06T16:25:56Z</time>
      </trkpt>
      <trkpt lat="44.33204" lon="2.52821">
        <ele>523</ele>
        <time>2011-04-06T16:25:57Z</time>
      </trkpt>
      <trkpt lat="44.33205" lon="2.52816">
        <ele>521.9</ele>
        <time>2011-04-06T16:25:58Z</time>
      </trkpt>
      <trkpt lat="44.33206" lon="2.52811">
        <ele>521</ele>
        <time>2011-04-06T16:25:59Z</time>
      </trkpt>
      <trkpt lat="44.33207" lon="2.52807">
        <ele>520.5</ele>
        <time>2011-04-06T16:26:00Z</time>
      </trkpt>
      <trkpt lat="44.33208" lon="2.52803">
        <ele>520.2</ele>
        <time>2011-04-06T16:26:01Z</time>
      </trkpt>
      <trkpt lat="44.33208" lon="2.52798">
        <ele>520.2</ele>
        <time>2011-04-06T16:26:03Z</time>
      </trkpt>
      <trkpt lat="44.33209" lon="2.52794">
        <ele>520</ele>
        <time>2011-04-06T16:26:05Z</time>
      </trkpt>
      <trkpt lat="44.33209" lon="2.52787">
        <ele>519.7</ele>
        <time>2011-04-06T16:26:08Z</time>
      </trkpt>
      <trkpt lat="44.33208" lon="2.52782">
        <ele>519.5</ele>
        <time>2011-04-06T16:26:11Z</time>
      </trkpt>
      <trkpt lat="44.33207" lon="2.5278">
        <ele>519.4</ele>
        <time>2011-04-06T16:26:12Z</time>
      </trkpt>
      <trkpt lat="44.33205" lon="2.52771">
        <ele>519.2</ele>
        <time>2011-04-06T16:26:18Z</time>
      </trkpt>
      <trkpt lat="44.33204" lon="2.52766">
        <ele>519.9</ele>
        <time>2011-04-06T16:26:21Z</time>
      </trkpt>
      <trkpt lat="44.33202" lon="2.52762">
        <ele>520.9</ele>
        <time>2011-04-06T16:26:24Z</time>
      </trkpt>
      <trkpt lat="44.33198" lon="2.52758">
        <ele>522</ele>
        <time>2011-04-06T16:26:28Z</time>
      </trkpt>
      <trkpt lat="44.33195" lon="2.52756">
        <ele>523.7</ele>
        <time>2011-04-06T16:26:31Z</time>
      </trkpt>
      <trkpt lat="44.33192" lon="2.52754">
        <ele>524.7</ele>
        <time>2011-04-06T16:26:33Z</time>
      </trkpt>
      <trkpt lat="44.3319" lon="2.52752">
        <ele>525.7</ele>
        <time>2011-04-06T16:26:35Z</time>
      </trkpt>
      <trkpt lat="44.33187" lon="2.52749">
        <ele>526.5</ele>
        <time>2011-04-06T16:26:37Z</time>
      </trkpt>
      <trkpt lat="44.33185" lon="2.52747">
        <ele>527</ele>
        <time>2011-04-06T16:26:39Z</time>
      </trkpt>
      <trkpt lat="44.33181" lon="2.52744">
        <ele>527.9</ele>
        <time>2011-04-06T16:26:42Z</time>
      </trkpt>
      <trkpt lat="44.33177" lon="2.52742">
        <ele>528.5</ele>
        <time>2011-04-06T16:26:45Z</time>
      </trkpt>
      <trkpt lat="44.33174" lon="2.52741">
        <ele>529.9</ele>
        <time>2011-04-06T16:26:48Z</time>
      </trkpt>
      <trkpt lat="44.3317" lon="2.52741">
        <ele>531</ele>
        <time>2011-04-06T16:26:51Z</time>
      </trkpt>
      <trkpt lat="44.33166" lon="2.5274">
        <ele>533.7</ele>
        <time>2011-04-06T16:26:55Z</time>
      </trkpt>
      <trkpt lat="44.33163" lon="2.52741">
        <ele>538.5</ele>
        <time>2011-04-06T16:26:59Z</time>
      </trkpt>
      <trkpt lat="44.33159" lon="2.52743">
        <ele>542.4</ele>
        <time>2011-04-06T16:27:03Z</time>
      </trkpt>
      <trkpt lat="44.33155" lon="2.52743">
        <ele>546.2</ele>
        <time>2011-04-06T16:27:08Z</time>
      </trkpt>
      <trkpt lat="44.33151" lon="2.52745">
        <ele>548</ele>
        <time>2011-04-06T16:27:11Z</time>
      </trkpt>
      <trkpt lat="44.33147" lon="2.52746">
        <ele>549.7</ele>
        <time>2011-04-06T16:27:14Z</time>
      </trkpt>
      <trkpt lat="44.33146" lon="2.52747">
        <ele>550.2</ele>
        <time>2011-04-06T16:27:15Z</time>
      </trkpt>
      <trkpt lat="44.3314" lon="2.52749">
        <ele>553</ele>
        <time>2011-04-06T16:27:21Z</time>
      </trkpt>
      <trkpt lat="44.33136" lon="2.52751">
        <ele>554.2</ele>
        <time>2011-04-06T16:27:24Z</time>
      </trkpt>
      <trkpt lat="44.33132" lon="2.52752">
        <ele>555.7</ele>
        <time>2011-04-06T16:27:27Z</time>
      </trkpt>
      <trkpt lat="44.33128" lon="2.52755">
        <ele>557.7</ele>
        <time>2011-04-06T16:27:31Z</time>
      </trkpt>
      <trkpt lat="44.33124" lon="2.52757">
        <ele>558.5</ele>
        <time>2011-04-06T16:27:35Z</time>
      </trkpt>
      <trkpt lat="44.33121" lon="2.52758">
        <ele>558.7</ele>
        <time>2011-04-06T16:27:38Z</time>
      </trkpt>
      <trkpt lat="44.33116" lon="2.52759">
        <ele>559.2</ele>
        <time>2011-04-06T16:27:42Z</time>
      </trkpt>
      <trkpt lat="44.33113" lon="2.52755">
        <ele>558.7</ele>
        <time>2011-04-06T16:27:47Z</time>
      </trkpt>
      <trkpt lat="44.33113" lon="2.52749">
        <ele>558.5</ele>
        <time>2011-04-06T16:27:55Z</time>
      </trkpt>
      <trkpt lat="44.33111" lon="2.52745">
        <ele>557.7</ele>
        <time>2011-04-06T16:28:00Z</time>
      </trkpt>
      <trkpt lat="44.33109" lon="2.5274">
        <ele>557.4</ele>
        <time>2011-04-06T16:28:05Z</time>
      </trkpt>
      <trkpt lat="44.33109" lon="2.52735">
        <ele>557.2</ele>
        <time>2011-04-06T16:28:09Z</time>
      </trkpt>
      <trkpt lat="44.33109" lon="2.52729">
        <ele>556.7</ele>
        <time>2011-04-06T16:28:13Z</time>
      </trkpt>
      <trkpt lat="44.33108" lon="2.52724">
        <ele>556.5</ele>
        <time>2011-04-06T16:28:18Z</time>
      </trkpt>
      <trkpt lat="44.33108" lon="2.52722">
        <ele>556.4</ele>
        <time>2011-04-06T16:28:19Z</time>
      </trkpt>
      <trkpt lat="44.33107" lon="2.52712">
        <ele>554.5</ele>
        <time>2011-04-06T16:28:37Z</time>
      </trkpt>
      <trkpt lat="44.33107" lon="2.52706">
        <ele>549</ele>
        <time>2011-04-06T16:28:52Z</time>
      </trkpt>
      <trkpt lat="44.33106" lon="2.52699">
        <ele>551.4</ele>
        <time>2011-04-06T16:29:05Z</time>
      </trkpt>
      <trkpt lat="44.33108" lon="2.52694">
        <ele>555</ele>
        <time>2011-04-06T16:29:14Z</time>
      </trkpt>
      <trkpt lat="44.33108" lon="2.52688">
        <ele>556.7</ele>
        <time>2011-04-06T16:29:21Z</time>
      </trkpt>
      <trkpt lat="44.33108" lon="2.52687">
        <ele>556.9</ele>
        <time>2011-04-06T16:29:22Z</time>
      </trkpt>
      <trkpt lat="44.3311" lon="2.52677">
        <ele>557.5</ele>
        <time>2011-04-06T16:29:34Z</time>
      </trkpt>
      <trkpt lat="44.33112" lon="2.52672">
        <ele>557.7</ele>
        <time>2011-04-06T16:29:42Z</time>
      </trkpt>
      <trkpt lat="44.33113" lon="2.52666">
        <ele>557.9</ele>
        <time>2011-04-06T16:29:46Z</time>
      </trkpt>
      <trkpt lat="44.33115" lon="2.52661">
        <ele>559</ele>
        <time>2011-04-06T16:29:49Z</time>
      </trkpt>
      <trkpt lat="44.33116" lon="2.52656">
        <ele>559.7</ele>
        <time>2011-04-06T16:29:52Z</time>
      </trkpt>
      <trkpt lat="44.33117" lon="2.52651">
        <ele>561.2</ele>
        <time>2011-04-06T16:29:55Z</time>
      </trkpt>
      <trkpt lat="44.33118" lon="2.52646">
        <ele>563.2</ele>
        <time>2011-04-06T16:29:59Z</time>
      </trkpt>
      <trkpt lat="44.33118" lon="2.5264">
        <ele>565.2</ele>
        <time>2011-04-06T16:30:03Z</time>
      </trkpt>
      <trkpt lat="44.33119" lon="2.52635">
        <ele>566.9</ele>
        <time>2011-04-06T16:30:06Z</time>
      </trkpt>
      <trkpt lat="44.33119" lon="2.52629">
        <ele>567.7</ele>
        <time>2011-04-06T16:30:09Z</time>
      </trkpt>
      <trkpt lat="44.33119" lon="2.52624">
        <ele>568.4</ele>
        <time>2011-04-06T16:30:12Z</time>
      </trkpt>
      <trkpt lat="44.33119" lon="2.52618">
        <ele>569.2</ele>
        <time>2011-04-06T16:30:17Z</time>
      </trkpt>
      <trkpt lat="44.3312" lon="2.52614">
        <ele>569</ele>
        <time>2011-04-06T16:30:21Z</time>
      </trkpt>
      <trkpt lat="44.3312" lon="2.52608">
        <ele>569.7</ele>
        <time>2011-04-06T16:30:27Z</time>
      </trkpt>
      <trkpt lat="44.3312" lon="2.52607">
        <ele>569.9</ele>
        <time>2011-04-06T16:30:28Z</time>
      </trkpt>
      <trkpt lat="44.33118" lon="2.52597">
        <ele>572.5</ele>
        <time>2011-04-06T16:30:40Z</time>
      </trkpt>
      <trkpt lat="44.33117" lon="2.52592">
        <ele>575</ele>
        <time>2011-04-06T16:30:47Z</time>
      </trkpt>
      <trkpt lat="44.33115" lon="2.52586">
        <ele>575.2</ele>
        <time>2011-04-06T16:30:53Z</time>
      </trkpt>
      <trkpt lat="44.33112" lon="2.52582">
        <ele>577.2</ele>
        <time>2011-04-06T16:31:00Z</time>
      </trkpt>
      <trkpt lat="44.33109" lon="2.52579">
        <ele>577.7</ele>
        <time>2011-04-06T16:31:05Z</time>
      </trkpt>
      <trkpt lat="44.33106" lon="2.52575">
        <ele>578</ele>
        <time>2011-04-06T16:31:10Z</time>
      </trkpt>
      <trkpt lat="44.33102" lon="2.52571">
        <ele>578.5</ele>
        <time>2011-04-06T16:31:15Z</time>
      </trkpt>
      <trkpt lat="44.33099" lon="2.52567">
        <ele>579.5</ele>
        <time>2011-04-06T16:31:22Z</time>
      </trkpt>
      <trkpt lat="44.33096" lon="2.52563">
        <ele>580.4</ele>
        <time>2011-04-06T16:31:27Z</time>
      </trkpt>
      <trkpt lat="44.33095" lon="2.52562">
        <ele>580.5</ele>
        <time>2011-04-06T16:31:28Z</time>
      </trkpt>
      <trkpt lat="44.33088" lon="2.52557">
        <ele>582.5</ele>
        <time>2011-04-06T16:31:37Z</time>
      </trkpt>
      <trkpt lat="44.33084" lon="2.52555">
        <ele>583.9</ele>
        <time>2011-04-06T16:31:42Z</time>
      </trkpt>
      <trkpt lat="44.33081" lon="2.52551">
        <ele>585.5</ele>
        <time>2011-04-06T16:31:49Z</time>
      </trkpt>
      <trkpt lat="44.33078" lon="2.52548">
        <ele>587</ele>
        <time>2011-04-06T16:31:54Z</time>
      </trkpt>
      <trkpt lat="44.33074" lon="2.52546">
        <ele>587.5</ele>
        <time>2011-04-06T16:31:58Z</time>
      </trkpt>
      <trkpt lat="44.33071" lon="2.52544">
        <ele>587.9</ele>
        <time>2011-04-06T16:32:02Z</time>
      </trkpt>
      <trkpt lat="44.33067" lon="2.52542">
        <ele>587.7</ele>
        <time>2011-04-06T16:32:06Z</time>
      </trkpt>
      <trkpt lat="44.33063" lon="2.52539">
        <ele>587.5</ele>
        <time>2011-04-06T16:32:12Z</time>
      </trkpt>
      <trkpt lat="44.33059" lon="2.52537">
        <ele>587.2</ele>
        <time>2011-04-06T16:32:20Z</time>
      </trkpt>
      <trkpt lat="44.33055" lon="2.52534">
        <ele>587.7</ele>
        <time>2011-04-06T16:32:24Z</time>
      </trkpt>
      <trkpt lat="44.33051" lon="2.52533">
        <ele>587.7</ele>
        <time>2011-04-06T16:32:27Z</time>
      </trkpt>
      <trkpt lat="44.33047" lon="2.52532">
        <ele>587.4</ele>
        <time>2011-04-06T16:32:31Z</time>
      </trkpt>
      <trkpt lat="44.33046" lon="2.52531">
        <ele>587.2</ele>
        <time>2011-04-06T16:32:32Z</time>
      </trkpt>
      <trkpt lat="44.3304" lon="2.52527">
        <ele>586.5</ele>
        <time>2011-04-06T16:32:37Z</time>
      </trkpt>
      <trkpt lat="44.33036" lon="2.52524">
        <ele>586.2</ele>
        <time>2011-04-06T16:32:40Z</time>
      </trkpt>
      <trkpt lat="44.33033" lon="2.5252">
        <ele>586</ele>
        <time>2011-04-06T16:32:43Z</time>
      </trkpt>
      <trkpt lat="44.3303" lon="2.52517">
        <ele>586</ele>
        <time>2011-04-06T16:32:46Z</time>
      </trkpt>
      <trkpt lat="44.33027" lon="2.52514">
        <ele>586</ele>
        <time>2011-04-06T16:32:48Z</time>
      </trkpt>
      <trkpt lat="44.33024" lon="2.52511">
        <ele>585.9</ele>
        <time>2011-04-06T16:32:51Z</time>
      </trkpt>
      <trkpt lat="44.33022" lon="2.52507">
        <ele>585.7</ele>
        <time>2011-04-06T16:32:53Z</time>
      </trkpt>
      <trkpt lat="44.3302" lon="2.52504">
        <ele>585.7</ele>
        <time>2011-04-06T16:32:55Z</time>
      </trkpt>
      <trkpt lat="44.33018" lon="2.525">
        <ele>586</ele>
        <time>2011-04-06T16:32:57Z</time>
      </trkpt>
      <trkpt lat="44.33015" lon="2.52495">
        <ele>586.7</ele>
        <time>2011-04-06T16:33:00Z</time>
      </trkpt>
      <trkpt lat="44.33013" lon="2.5249">
        <ele>587.2</ele>
        <time>2011-04-06T16:33:03Z</time>
      </trkpt>
      <trkpt lat="44.33011" lon="2.52485">
        <ele>588</ele>
        <time>2011-04-06T16:33:06Z</time>
      </trkpt>
      <trkpt lat="44.33009" lon="2.5248">
        <ele>588.7</ele>
        <time>2011-04-06T16:33:09Z</time>
      </trkpt>
      <trkpt lat="44.33008" lon="2.52474">
        <ele>589.5</ele>
        <time>2011-04-06T16:33:12Z</time>
      </trkpt>
      <trkpt lat="44.33006" lon="2.52469">
        <ele>590.4</ele>
        <time>2011-04-06T16:33:15Z</time>
      </trkpt>
      <trkpt lat="44.33005" lon="2.52464">
        <ele>591.2</ele>
        <time>2011-04-06T16:33:18Z</time>
      </trkpt>
      <trkpt lat="44.33004" lon="2.5246">
        <ele>592</ele>
        <time>2011-04-06T16:33:21Z</time>
      </trkpt>
      <trkpt lat="44.33003" lon="2.52455">
        <ele>592.5</ele>
        <time>2011-04-06T16:33:24Z</time>
      </trkpt>
      <trkpt lat="44.33002" lon="2.5245">
        <ele>593.2</ele>
        <time>2011-04-06T16:33:27Z</time>
      </trkpt>
      <trkpt lat="44.33001" lon="2.52445">
        <ele>593.7</ele>
        <time>2011-04-06T16:33:30Z</time>
      </trkpt>
      <trkpt lat="44.32999" lon="2.52439">
        <ele>594</ele>
        <time>2011-04-06T16:33:33Z</time>
      </trkpt>
      <trkpt lat="44.32999" lon="2.52437">
        <ele>594.2</ele>
        <time>2011-04-06T16:33:34Z</time>
      </trkpt>
      <trkpt lat="44.32997" lon="2.52428">
        <ele>594.7</ele>
        <time>2011-04-06T16:33:39Z</time>
      </trkpt>
      <trkpt lat="44.32996" lon="2.52423">
        <ele>595</ele>
        <time>2011-04-06T16:33:42Z</time>
      </trkpt>
      <trkpt lat="44.32995" lon="2.52417">
        <ele>595.4</ele>
        <time>2011-04-06T16:33:45Z</time>
      </trkpt>
      <trkpt lat="44.32995" lon="2.52411">
        <ele>595.5</ele>
        <time>2011-04-06T16:33:48Z</time>
      </trkpt>
      <trkpt lat="44.32994" lon="2.52406">
        <ele>595.7</ele>
        <time>2011-04-06T16:33:51Z</time>
      </trkpt>
      <trkpt lat="44.32993" lon="2.524">
        <ele>595.7</ele>
        <time>2011-04-06T16:33:54Z</time>
      </trkpt>
      <trkpt lat="44.32992" lon="2.52395">
        <ele>596</ele>
        <time>2011-04-06T16:33:57Z</time>
      </trkpt>
      <trkpt lat="44.32991" lon="2.52389">
        <ele>596.2</ele>
        <time>2011-04-06T16:34:00Z</time>
      </trkpt>
      <trkpt lat="44.32991" lon="2.52384">
        <ele>596.5</ele>
        <time>2011-04-06T16:34:03Z</time>
      </trkpt>
      <trkpt lat="44.32992" lon="2.52379">
        <ele>596.5</ele>
        <time>2011-04-06T16:34:05Z</time>
      </trkpt>
      <trkpt lat="44.32992" lon="2.52373">
        <ele>596.5</ele>
        <time>2011-04-06T16:34:08Z</time>
      </trkpt>
      <trkpt lat="44.32994" lon="2.52368">
        <ele>596.4</ele>
        <time>2011-04-06T16:34:11Z</time>
      </trkpt>
      <trkpt lat="44.32996" lon="2.52363">
        <ele>596.2</ele>
        <time>2011-04-06T16:34:14Z</time>
      </trkpt>
      <trkpt lat="44.32998" lon="2.52358">
        <ele>596.2</ele>
        <time>2011-04-06T16:34:17Z</time>
      </trkpt>
      <trkpt lat="44.33" lon="2.52353">
        <ele>596</ele>
        <time>2011-04-06T16:34:20Z</time>
      </trkpt>
      <trkpt lat="44.33002" lon="2.52348">
        <ele>596</ele>
        <time>2011-04-06T16:34:23Z</time>
      </trkpt>
      <trkpt lat="44.33003" lon="2.52342">
        <ele>596.2</ele>
        <time>2011-04-06T16:34:26Z</time>
      </trkpt>
      <trkpt lat="44.33002" lon="2.52337">
        <ele>596.5</ele>
        <time>2011-04-06T16:34:29Z</time>
      </trkpt>
      <trkpt lat="44.33001" lon="2.52331">
        <ele>596.7</ele>
        <time>2011-04-06T16:34:33Z</time>
      </trkpt>
      <trkpt lat="44.32999" lon="2.52327">
        <ele>596.9</ele>
        <time>2011-04-06T16:34:36Z</time>
      </trkpt>
      <trkpt lat="44.32998" lon="2.52326">
        <ele>597</ele>
        <time>2011-04-06T16:34:37Z</time>
      </trkpt>
      <trkpt lat="44.32994" lon="2.52319">
        <ele>597.2</ele>
        <time>2011-04-06T16:34:42Z</time>
      </trkpt>
      <trkpt lat="44.32992" lon="2.52315">
        <ele>597.7</ele>
        <time>2011-04-06T16:34:45Z</time>
      </trkpt>
      <trkpt lat="44.3299" lon="2.52311">
        <ele>598</ele>
        <time>2011-04-06T16:34:48Z</time>
      </trkpt>
      <trkpt lat="44.32989" lon="2.52306">
        <ele>598.4</ele>
        <time>2011-04-06T16:34:51Z</time>
      </trkpt>
      <trkpt lat="44.32989" lon="2.52301">
        <ele>598.7</ele>
        <time>2011-04-06T16:34:54Z</time>
      </trkpt>
      <trkpt lat="44.32989" lon="2.52295">
        <ele>599.5</ele>
        <time>2011-04-06T16:34:58Z</time>
      </trkpt>
      <trkpt lat="44.3299" lon="2.52291">
        <ele>600</ele>
        <time>2011-04-06T16:35:01Z</time>
      </trkpt>
      <trkpt lat="44.32991" lon="2.52285">
        <ele>600.2</ele>
        <time>2011-04-06T16:35:05Z</time>
      </trkpt>
      <trkpt lat="44.32993" lon="2.52281">
        <ele>601</ele>
        <time>2011-04-06T16:35:08Z</time>
      </trkpt>
      <trkpt lat="44.32994" lon="2.52276">
        <ele>601.7</ele>
        <time>2011-04-06T16:35:11Z</time>
      </trkpt>
      <trkpt lat="44.32996" lon="2.52273">
        <ele>602.4</ele>
        <time>2011-04-06T16:35:13Z</time>
      </trkpt>
      <trkpt lat="44.32997" lon="2.52268">
        <ele>602.9</ele>
        <time>2011-04-06T16:35:15Z</time>
      </trkpt>
      <trkpt lat="44.32998" lon="2.52263">
        <ele>603.2</ele>
        <time>2011-04-06T16:35:17Z</time>
      </trkpt>
      <trkpt lat="44.33" lon="2.52258">
        <ele>603.4</ele>
        <time>2011-04-06T16:35:19Z</time>
      </trkpt>
      <trkpt lat="44.33001" lon="2.52253">
        <ele>603.2</ele>
        <time>2011-04-06T16:35:21Z</time>
      </trkpt>
      <trkpt lat="44.33002" lon="2.5225">
        <ele>603</ele>
        <time>2011-04-06T16:35:22Z</time>
      </trkpt>
      <trkpt lat="44.33003" lon="2.52247">
        <ele>603</ele>
        <time>2011-04-06T16:35:23Z</time>
      </trkpt>
      <trkpt lat="44.33004" lon="2.52244">
        <ele>602.9</ele>
        <time>2011-04-06T16:35:24Z</time>
      </trkpt>
      <trkpt lat="44.33006" lon="2.52238">
        <ele>602.5</ele>
        <time>2011-04-06T16:35:26Z</time>
      </trkpt>
      <trkpt lat="44.33008" lon="2.52233">
        <ele>602.4</ele>
        <time>2011-04-06T16:35:28Z</time>
      </trkpt>
      <trkpt lat="44.33009" lon="2.5223">
        <ele>602.4</ele>
        <time>2011-04-06T16:35:29Z</time>
      </trkpt>
      <trkpt lat="44.33011" lon="2.52224">
        <ele>602.5</ele>
        <time>2011-04-06T16:35:31Z</time>
      </trkpt>
      <trkpt lat="44.33013" lon="2.52221">
        <ele>603.2</ele>
        <time>2011-04-06T16:35:33Z</time>
      </trkpt>
      <trkpt lat="44.33016" lon="2.52217">
        <ele>604.2</ele>
        <time>2011-04-06T16:35:35Z</time>
      </trkpt>
      <trkpt lat="44.33018" lon="2.52213">
        <ele>605</ele>
        <time>2011-04-06T16:35:37Z</time>
      </trkpt>
      <trkpt lat="44.33019" lon="2.5221">
        <ele>605.2</ele>
        <time>2011-04-06T16:35:38Z</time>
      </trkpt>
      <trkpt lat="44.33022" lon="2.52205">
        <ele>605</ele>
        <time>2011-04-06T16:35:40Z</time>
      </trkpt>
      <trkpt lat="44.33023" lon="2.52202">
        <ele>605</ele>
        <time>2011-04-06T16:35:41Z</time>
      </trkpt>
      <trkpt lat="44.33024" lon="2.522">
        <ele>604.9</ele>
        <time>2011-04-06T16:35:42Z</time>
      </trkpt>
      <trkpt lat="44.33026" lon="2.52197">
        <ele>604.7</ele>
        <time>2011-04-06T16:35:43Z</time>
      </trkpt>
      <trkpt lat="44.33027" lon="2.52194">
        <ele>604.7</ele>
        <time>2011-04-06T16:35:44Z</time>
      </trkpt>
      <trkpt lat="44.33029" lon="2.52191">
        <ele>604.5</ele>
        <time>2011-04-06T16:35:45Z</time>
      </trkpt>
      <trkpt lat="44.3303" lon="2.52187">
        <ele>604.4</ele>
        <time>2011-04-06T16:35:46Z</time>
      </trkpt>
      <trkpt lat="44.33031" lon="2.52184">
        <ele>604.2</ele>
        <time>2011-04-06T16:35:47Z</time>
      </trkpt>
      <trkpt lat="44.33033" lon="2.52181">
        <ele>604</ele>
        <time>2011-04-06T16:35:48Z</time>
      </trkpt>
      <trkpt lat="44.33034" lon="2.52177">
        <ele>603.9</ele>
        <time>2011-04-06T16:35:49Z</time>
      </trkpt>
      <trkpt lat="44.33035" lon="2.52174">
        <ele>603.7</ele>
        <time>2011-04-06T16:35:50Z</time>
      </trkpt>
      <trkpt lat="44.33036" lon="2.52171">
        <ele>603.5</ele>
        <time>2011-04-06T16:35:51Z</time>
      </trkpt>
      <trkpt lat="44.33037" lon="2.52167">
        <ele>603.2</ele>
        <time>2011-04-06T16:35:52Z</time>
      </trkpt>
      <trkpt lat="44.33038" lon="2.52164">
        <ele>603.2</ele>
        <time>2011-04-06T16:35:53Z</time>
      </trkpt>
      <trkpt lat="44.33039" lon="2.52161">
        <ele>603.2</ele>
        <time>2011-04-06T16:35:54Z</time>
      </trkpt>
      <trkpt lat="44.3304" lon="2.52158">
        <ele>603.2</ele>
        <time>2011-04-06T16:35:55Z</time>
      </trkpt>
      <trkpt lat="44.33041" lon="2.52155">
        <ele>603</ele>
        <time>2011-04-06T16:35:56Z</time>
      </trkpt>
      <trkpt lat="44.33042" lon="2.52152">
        <ele>603.2</ele>
        <time>2011-04-06T16:35:57Z</time>
      </trkpt>
      <trkpt lat="44.33043" lon="2.52149">
        <ele>603.2</ele>
        <time>2011-04-06T16:35:58Z</time>
      </trkpt>
      <trkpt lat="44.33044" lon="2.52146">
        <ele>603.2</ele>
        <time>2011-04-06T16:35:59Z</time>
      </trkpt>
      <trkpt lat="44.33045" lon="2.52143">
        <ele>603.2</ele>
        <time>2011-04-06T16:36:00Z</time>
      </trkpt>
      <trkpt lat="44.33046" lon="2.5214">
        <ele>603.4</ele>
        <time>2011-04-06T16:36:01Z</time>
      </trkpt>
      <trkpt lat="44.33048" lon="2.52135">
        <ele>603.7</ele>
        <time>2011-04-06T16:36:03Z</time>
      </trkpt>
      <trkpt lat="44.3305" lon="2.5213">
        <ele>604.2</ele>
        <time>2011-04-06T16:36:05Z</time>
      </trkpt>
      <trkpt lat="44.33051" lon="2.52125">
        <ele>604.7</ele>
        <time>2011-04-06T16:36:07Z</time>
      </trkpt>
      <trkpt lat="44.33053" lon="2.52121">
        <ele>605.2</ele>
        <time>2011-04-06T16:36:09Z</time>
      </trkpt>
      <trkpt lat="44.33055" lon="2.52117">
        <ele>605.7</ele>
        <time>2011-04-06T16:36:11Z</time>
      </trkpt>
      <trkpt lat="44.33057" lon="2.52113">
        <ele>605.9</ele>
        <time>2011-04-06T16:36:13Z</time>
      </trkpt>
      <trkpt lat="44.33059" lon="2.5211">
        <ele>606</ele>
        <time>2011-04-06T16:36:15Z</time>
      </trkpt>
      <trkpt lat="44.33063" lon="2.52107">
        <ele>605.7</ele>
        <time>2011-04-06T16:36:18Z</time>
      </trkpt>
      <trkpt lat="44.33066" lon="2.52103">
        <ele>605.5</ele>
        <time>2011-04-06T16:36:21Z</time>
      </trkpt>
      <trkpt lat="44.33069" lon="2.52101">
        <ele>605.5</ele>
        <time>2011-04-06T16:36:23Z</time>
      </trkpt>
      <trkpt lat="44.33072" lon="2.52098">
        <ele>605.9</ele>
        <time>2011-04-06T16:36:26Z</time>
      </trkpt>
      <trkpt lat="44.33076" lon="2.52095">
        <ele>606.9</ele>
        <time>2011-04-06T16:36:29Z</time>
      </trkpt>
      <trkpt lat="44.33079" lon="2.52092">
        <ele>608</ele>
        <time>2011-04-06T16:36:32Z</time>
      </trkpt>
      <trkpt lat="44.33082" lon="2.5209">
        <ele>609</ele>
        <time>2011-04-06T16:36:35Z</time>
      </trkpt>
      <trkpt lat="44.33085" lon="2.52087">
        <ele>609.5</ele>
        <time>2011-04-06T16:36:38Z</time>
      </trkpt>
      <trkpt lat="44.33089" lon="2.52084">
        <ele>610</ele>
        <time>2011-04-06T16:36:41Z</time>
      </trkpt>
      <trkpt lat="44.33091" lon="2.52083">
        <ele>610.2</ele>
        <time>2011-04-06T16:36:42Z</time>
      </trkpt>
      <trkpt lat="44.33096" lon="2.52081">
        <ele>611</ele>
        <time>2011-04-06T16:36:46Z</time>
      </trkpt>
      <trkpt lat="44.33099" lon="2.5208">
        <ele>611.7</ele>
        <time>2011-04-06T16:36:48Z</time>
      </trkpt>
      <trkpt lat="44.33102" lon="2.52078">
        <ele>612.2</ele>
        <time>2011-04-06T16:36:50Z</time>
      </trkpt>
      <trkpt lat="44.33105" lon="2.52074">
        <ele>613.2</ele>
        <time>2011-04-06T16:36:53Z</time>
      </trkpt>
      <trkpt lat="44.33105" lon="2.5207">
        <ele>614.2</ele>
        <time>2011-04-06T16:36:55Z</time>
      </trkpt>
      <trkpt lat="44.33105" lon="2.52064">
        <ele>616.5</ele>
        <time>2011-04-06T16:36:59Z</time>
      </trkpt>
      <trkpt lat="44.33102" lon="2.52059">
        <ele>619.2</ele>
        <time>2011-04-06T16:37:04Z</time>
      </trkpt>
      <trkpt lat="44.33102" lon="2.52054">
        <ele>620.7</ele>
        <time>2011-04-06T16:37:08Z</time>
      </trkpt>
      <trkpt lat="44.33101" lon="2.52048">
        <ele>621.7</ele>
        <time>2011-04-06T16:37:12Z</time>
      </trkpt>
      <trkpt lat="44.33101" lon="2.52043">
        <ele>623.5</ele>
        <time>2011-04-06T16:37:16Z</time>
      </trkpt>
      <trkpt lat="44.33101" lon="2.52038">
        <ele>624.5</ele>
        <time>2011-04-06T16:37:20Z</time>
      </trkpt>
      <trkpt lat="44.33102" lon="2.52033">
        <ele>625.4</ele>
        <time>2011-04-06T16:37:24Z</time>
      </trkpt>
      <trkpt lat="44.33104" lon="2.52029">
        <ele>626</ele>
        <time>2011-04-06T16:37:27Z</time>
      </trkpt>
      <trkpt lat="44.33106" lon="2.52024">
        <ele>626.4</ele>
        <time>2011-04-06T16:37:31Z</time>
      </trkpt>
      <trkpt lat="44.33108" lon="2.52019">
        <ele>626.5</ele>
        <time>2011-04-06T16:37:35Z</time>
      </trkpt>
      <trkpt lat="44.3311" lon="2.52014">
        <ele>627</ele>
        <time>2011-04-06T16:37:39Z</time>
      </trkpt>
      <trkpt lat="44.33112" lon="2.5201">
        <ele>627.9</ele>
        <time>2011-04-06T16:37:43Z</time>
      </trkpt>
      <trkpt lat="44.33112" lon="2.52008">
        <ele>628</ele>
        <time>2011-04-06T16:37:44Z</time>
      </trkpt>
      <trkpt lat="44.33115" lon="2.52">
        <ele>628.5</ele>
        <time>2011-04-06T16:37:52Z</time>
      </trkpt>
      <trkpt lat="44.33117" lon="2.51996">
        <ele>628.2</ele>
        <time>2011-04-06T16:37:55Z</time>
      </trkpt>
      <trkpt lat="44.3312" lon="2.51992">
        <ele>628.2</ele>
        <time>2011-04-06T16:37:59Z</time>
      </trkpt>
      <trkpt lat="44.33122" lon="2.51988">
        <ele>628.2</ele>
        <time>2011-04-06T16:38:02Z</time>
      </trkpt>
      <trkpt lat="44.33125" lon="2.51983">
        <ele>628</ele>
        <time>2011-04-06T16:38:06Z</time>
      </trkpt>
      <trkpt lat="44.33126" lon="2.51979">
        <ele>628</ele>
        <time>2011-04-06T16:38:09Z</time>
      </trkpt>
      <trkpt lat="44.33129" lon="2.51974">
        <ele>628.4</ele>
        <time>2011-04-06T16:38:13Z</time>
      </trkpt>
      <trkpt lat="44.33131" lon="2.51969">
        <ele>628.5</ele>
        <time>2011-04-06T16:38:17Z</time>
      </trkpt>
      <trkpt lat="44.33133" lon="2.51964">
        <ele>629.5</ele>
        <time>2011-04-06T16:38:23Z</time>
      </trkpt>
      <trkpt lat="44.33136" lon="2.51959">
        <ele>631.5</ele>
        <time>2011-04-06T16:38:43Z</time>
      </trkpt>
      <trkpt lat="44.33136" lon="2.51958">
        <ele>631.5</ele>
        <time>2011-04-06T16:38:44Z</time>
      </trkpt>
      <trkpt lat="44.33137" lon="2.51947">
        <ele>627.5</ele>
        <time>2011-04-06T16:39:29Z</time>
      </trkpt>
      <trkpt lat="44.33137" lon="2.51941">
        <ele>628.5</ele>
        <time>2011-04-06T16:39:50Z</time>
      </trkpt>
      <trkpt lat="44.33137" lon="2.51941">
        <ele>628.5</ele>
        <time>2011-04-06T16:39:51Z</time>
      </trkpt>
      <trkpt lat="44.33144" lon="2.51936">
        <ele>629</ele>
        <time>2011-04-06T16:40:20Z</time>
      </trkpt>
      <trkpt lat="44.33148" lon="2.51934">
        <ele>630</ele>
        <time>2011-04-06T16:40:24Z</time>
      </trkpt>
      <trkpt lat="44.33152" lon="2.5193">
        <ele>631.2</ele>
        <time>2011-04-06T16:40:28Z</time>
      </trkpt>
      <trkpt lat="44.33154" lon="2.51927">
        <ele>632</ele>
        <time>2011-04-06T16:40:31Z</time>
      </trkpt>
      <trkpt lat="44.33157" lon="2.51923">
        <ele>632.7</ele>
        <time>2011-04-06T16:40:35Z</time>
      </trkpt>
      <trkpt lat="44.3316" lon="2.51919">
        <ele>633.4</ele>
        <time>2011-04-06T16:40:38Z</time>
      </trkpt>
      <trkpt lat="44.33162" lon="2.51916">
        <ele>633.9</ele>
        <time>2011-04-06T16:40:40Z</time>
      </trkpt>
      <trkpt lat="44.33165" lon="2.51912">
        <ele>634.4</ele>
        <time>2011-04-06T16:40:42Z</time>
      </trkpt>
      <trkpt lat="44.33167" lon="2.51909">
        <ele>634.9</ele>
        <time>2011-04-06T16:40:44Z</time>
      </trkpt>
      <trkpt lat="44.3317" lon="2.51905">
        <ele>635.7</ele>
        <time>2011-04-06T16:40:46Z</time>
      </trkpt>
      <trkpt lat="44.33172" lon="2.51901">
        <ele>636.7</ele>
        <time>2011-04-06T16:40:48Z</time>
      </trkpt>
      <trkpt lat="44.33174" lon="2.51897">
        <ele>637.5</ele>
        <time>2011-04-06T16:40:50Z</time>
      </trkpt>
      <trkpt lat="44.33175" lon="2.51895">
        <ele>637.9</ele>
        <time>2011-04-06T16:40:51Z</time>
      </trkpt>
      <trkpt lat="44.33176" lon="2.51892">
        <ele>638</ele>
        <time>2011-04-06T16:40:52Z</time>
      </trkpt>
      <trkpt lat="44.33179" lon="2.51884">
        <ele>638.4</ele>
        <time>2011-04-06T16:40:55Z</time>
      </trkpt>
      <trkpt lat="44.33181" lon="2.5188">
        <ele>638.9</ele>
        <time>2011-04-06T16:40:57Z</time>
      </trkpt>
      <trkpt lat="44.33183" lon="2.51875">
        <ele>639.2</ele>
        <time>2011-04-06T16:40:59Z</time>
      </trkpt>
      <trkpt lat="44.33185" lon="2.51869">
        <ele>639.5</ele>
        <time>2011-04-06T16:41:01Z</time>
      </trkpt>
      <trkpt lat="44.33187" lon="2.51864">
        <ele>639.7</ele>
        <time>2011-04-06T16:41:03Z</time>
      </trkpt>
      <trkpt lat="44.33188" lon="2.51861">
        <ele>639.9</ele>
        <time>2011-04-06T16:41:04Z</time>
      </trkpt>
      <trkpt lat="44.33188" lon="2.51858">
        <ele>639.9</ele>
        <time>2011-04-06T16:41:05Z</time>
      </trkpt>
      <trkpt lat="44.33189" lon="2.51852">
        <ele>640</ele>
        <time>2011-04-06T16:41:07Z</time>
      </trkpt>
      <trkpt lat="44.3319" lon="2.51846">
        <ele>639.9</ele>
        <time>2011-04-06T16:41:09Z</time>
      </trkpt>
      <trkpt lat="44.3319" lon="2.51842">
        <ele>640</ele>
        <time>2011-04-06T16:41:11Z</time>
      </trkpt>
      <trkpt lat="44.33191" lon="2.51837">
        <ele>640</ele>
        <time>2011-04-06T16:41:13Z</time>
      </trkpt>
      <trkpt lat="44.33191" lon="2.51831">
        <ele>639.7</ele>
        <time>2011-04-06T16:41:15Z</time>
      </trkpt>
      <trkpt lat="44.33191" lon="2.51826">
        <ele>639.7</ele>
        <time>2011-04-06T16:41:17Z</time>
      </trkpt>
      <trkpt lat="44.33191" lon="2.5182">
        <ele>639.5</ele>
        <time>2011-04-06T16:41:19Z</time>
      </trkpt>
      <trkpt lat="44.33191" lon="2.51814">
        <ele>639.5</ele>
        <time>2011-04-06T16:41:21Z</time>
      </trkpt>
      <trkpt lat="44.33191" lon="2.51811">
        <ele>639.5</ele>
        <time>2011-04-06T16:41:22Z</time>
      </trkpt>
      <trkpt lat="44.33191" lon="2.51808">
        <ele>639.5</ele>
        <time>2011-04-06T16:41:23Z</time>
      </trkpt>
      <trkpt lat="44.33192" lon="2.51804">
        <ele>639.5</ele>
        <time>2011-04-06T16:41:24Z</time>
      </trkpt>
      <trkpt lat="44.33192" lon="2.51801">
        <ele>639.5</ele>
        <time>2011-04-06T16:41:25Z</time>
      </trkpt>
      <trkpt lat="44.33192" lon="2.51797">
        <ele>639.5</ele>
        <time>2011-04-06T16:41:26Z</time>
      </trkpt>
      <trkpt lat="44.33192" lon="2.51794">
        <ele>639.2</ele>
        <time>2011-04-06T16:41:27Z</time>
      </trkpt>
      <trkpt lat="44.33193" lon="2.51791">
        <ele>639.2</ele>
        <time>2011-04-06T16:41:28Z</time>
      </trkpt>
      <trkpt lat="44.33193" lon="2.51787">
        <ele>639</ele>
        <time>2011-04-06T16:41:29Z</time>
      </trkpt>
      <trkpt lat="44.33193" lon="2.51784">
        <ele>639</ele>
        <time>2011-04-06T16:41:30Z</time>
      </trkpt>
      <trkpt lat="44.33193" lon="2.51781">
        <ele>638.7</ele>
        <time>2011-04-06T16:41:31Z</time>
      </trkpt>
      <trkpt lat="44.33193" lon="2.51777">
        <ele>638.7</ele>
        <time>2011-04-06T16:41:32Z</time>
      </trkpt>
      <trkpt lat="44.33193" lon="2.51774">
        <ele>638.5</ele>
        <time>2011-04-06T16:41:33Z</time>
      </trkpt>
      <trkpt lat="44.33194" lon="2.5177">
        <ele>638.4</ele>
        <time>2011-04-06T16:41:34Z</time>
      </trkpt>
      <trkpt lat="44.33194" lon="2.51766">
        <ele>638.2</ele>
        <time>2011-04-06T16:41:35Z</time>
      </trkpt>
      <trkpt lat="44.33194" lon="2.51763">
        <ele>638</ele>
        <time>2011-04-06T16:41:36Z</time>
      </trkpt>
      <trkpt lat="44.33195" lon="2.51759">
        <ele>637.9</ele>
        <time>2011-04-06T16:41:37Z</time>
      </trkpt>
      <trkpt lat="44.33196" lon="2.51754">
        <ele>637.7</ele>
        <time>2011-04-06T16:41:38Z</time>
      </trkpt>
      <trkpt lat="44.33196" lon="2.5175">
        <ele>637.5</ele>
        <time>2011-04-06T16:41:39Z</time>
      </trkpt>
      <trkpt lat="44.33196" lon="2.51745">
        <ele>637.2</ele>
        <time>2011-04-06T16:41:40Z</time>
      </trkpt>
      <trkpt lat="44.33197" lon="2.5174">
        <ele>637</ele>
        <time>2011-04-06T16:41:41Z</time>
      </trkpt>
      <trkpt lat="44.33198" lon="2.51735">
        <ele>636.9</ele>
        <time>2011-04-06T16:41:42Z</time>
      </trkpt>
      <trkpt lat="44.33199" lon="2.5173">
        <ele>636.7</ele>
        <time>2011-04-06T16:41:43Z</time>
      </trkpt>
      <trkpt lat="44.33199" lon="2.51725">
        <ele>636.5</ele>
        <time>2011-04-06T16:41:44Z</time>
      </trkpt>
      <trkpt lat="44.332" lon="2.51719">
        <ele>636.2</ele>
        <time>2011-04-06T16:41:45Z</time>
      </trkpt>
      <trkpt lat="44.332" lon="2.51713">
        <ele>636</ele>
        <time>2011-04-06T16:41:46Z</time>
      </trkpt>
      <trkpt lat="44.33201" lon="2.51707">
        <ele>635.7</ele>
        <time>2011-04-06T16:41:47Z</time>
      </trkpt>
      <trkpt lat="44.33202" lon="2.51701">
        <ele>635.5</ele>
        <time>2011-04-06T16:41:48Z</time>
      </trkpt>
      <trkpt lat="44.33203" lon="2.51693">
        <ele>635</ele>
        <time>2011-04-06T16:41:49Z</time>
      </trkpt>
      <trkpt lat="44.33203" lon="2.51686">
        <ele>634.5</ele>
        <time>2011-04-06T16:41:50Z</time>
      </trkpt>
      <trkpt lat="44.33204" lon="2.51677">
        <ele>634</ele>
        <time>2011-04-06T16:41:51Z</time>
      </trkpt>
      <trkpt lat="44.33205" lon="2.51668">
        <ele>633.4</ele>
        <time>2011-04-06T16:41:52Z</time>
      </trkpt>
      <trkpt lat="44.33205" lon="2.51659">
        <ele>632.7</ele>
        <time>2011-04-06T16:41:53Z</time>
      </trkpt>
      <trkpt lat="44.33207" lon="2.51649">
        <ele>632</ele>
        <time>2011-04-06T16:41:54Z</time>
      </trkpt>
      <trkpt lat="44.33208" lon="2.51638">
        <ele>631.5</ele>
        <time>2011-04-06T16:41:55Z</time>
      </trkpt>
      <trkpt lat="44.33209" lon="2.51627">
        <ele>630.7</ele>
        <time>2011-04-06T16:41:56Z</time>
      </trkpt>
      <trkpt lat="44.33211" lon="2.51616">
        <ele>630</ele>
        <time>2011-04-06T16:41:57Z</time>
      </trkpt>
      <trkpt lat="44.33212" lon="2.51605">
        <ele>629.5</ele>
        <time>2011-04-06T16:41:58Z</time>
      </trkpt>
      <trkpt lat="44.33214" lon="2.51594">
        <ele>629</ele>
        <time>2011-04-06T16:41:59Z</time>
      </trkpt>
      <trkpt lat="44.33216" lon="2.51583">
        <ele>628.5</ele>
        <time>2011-04-06T16:42:00Z</time>
      </trkpt>
      <trkpt lat="44.33218" lon="2.51573">
        <ele>628.2</ele>
        <time>2011-04-06T16:42:01Z</time>
      </trkpt>
      <trkpt lat="44.3322" lon="2.51563">
        <ele>628</ele>
        <time>2011-04-06T16:42:02Z</time>
      </trkpt>
      <trkpt lat="44.33222" lon="2.51553">
        <ele>628.2</ele>
        <time>2011-04-06T16:42:03Z</time>
      </trkpt>
      <trkpt lat="44.33221" lon="2.51544">
        <ele>628.7</ele>
        <time>2011-04-06T16:42:04Z</time>
      </trkpt>
      <trkpt lat="44.3322" lon="2.51537">
        <ele>629.4</ele>
        <time>2011-04-06T16:42:05Z</time>
      </trkpt>
      <trkpt lat="44.33219" lon="2.51531">
        <ele>630</ele>
        <time>2011-04-06T16:42:06Z</time>
      </trkpt>
      <trkpt lat="44.33217" lon="2.51526">
        <ele>630.5</ele>
        <time>2011-04-06T16:42:07Z</time>
      </trkpt>
      <trkpt lat="44.33216" lon="2.51521">
        <ele>630.7</ele>
        <time>2011-04-06T16:42:08Z</time>
      </trkpt>
      <trkpt lat="44.33214" lon="2.51517">
        <ele>630.9</ele>
        <time>2011-04-06T16:42:09Z</time>
      </trkpt>
      <trkpt lat="44.33213" lon="2.51513">
        <ele>631</ele>
        <time>2011-04-06T16:42:10Z</time>
      </trkpt>
      <trkpt lat="44.33211" lon="2.51509">
        <ele>631.2</ele>
        <time>2011-04-06T16:42:11Z</time>
      </trkpt>
      <trkpt lat="44.3321" lon="2.51506">
        <ele>631.5</ele>
        <time>2011-04-06T16:42:12Z</time>
      </trkpt>
      <trkpt lat="44.33209" lon="2.51502">
        <ele>631.5</ele>
        <time>2011-04-06T16:42:13Z</time>
      </trkpt>
      <trkpt lat="44.33207" lon="2.51497">
        <ele>631.7</ele>
        <time>2011-04-06T16:42:15Z</time>
      </trkpt>
      <trkpt lat="44.33206" lon="2.51491">
        <ele>632.2</ele>
        <time>2011-04-06T16:42:18Z</time>
      </trkpt>
      <trkpt lat="44.33205" lon="2.51486">
        <ele>632.2</ele>
        <time>2011-04-06T16:42:21Z</time>
      </trkpt>
      <trkpt lat="44.33206" lon="2.51483">
        <ele>632</ele>
        <time>2011-04-06T16:42:22Z</time>
      </trkpt>
      <trkpt lat="44.33207" lon="2.5148">
        <ele>632</ele>
        <time>2011-04-06T16:42:23Z</time>
      </trkpt>
      <trkpt lat="44.33209" lon="2.51477">
        <ele>631.7</ele>
        <time>2011-04-06T16:42:24Z</time>
      </trkpt>
      <trkpt lat="44.33211" lon="2.51476">
        <ele>631.2</ele>
        <time>2011-04-06T16:42:25Z</time>
      </trkpt>
      <trkpt lat="44.33213" lon="2.51475">
        <ele>630.7</ele>
        <time>2011-04-06T16:42:26Z</time>
      </trkpt>
      <trkpt lat="44.33217" lon="2.51472">
        <ele>630.2</ele>
        <time>2011-04-06T16:42:27Z</time>
      </trkpt>
      <trkpt lat="44.3322" lon="2.51469">
        <ele>629.5</ele>
        <time>2011-04-06T16:42:28Z</time>
      </trkpt>
      <trkpt lat="44.33224" lon="2.51466">
        <ele>628.7</ele>
        <time>2011-04-06T16:42:29Z</time>
      </trkpt>
      <trkpt lat="44.33228" lon="2.51462">
        <ele>628</ele>
        <time>2011-04-06T16:42:30Z</time>
      </trkpt>
      <trkpt lat="44.33232" lon="2.51459">
        <ele>627.4</ele>
        <time>2011-04-06T16:42:31Z</time>
      </trkpt>
      <trkpt lat="44.33237" lon="2.51456">
        <ele>626.7</ele>
        <time>2011-04-06T16:42:32Z</time>
      </trkpt>
      <trkpt lat="44.33242" lon="2.51453">
        <ele>626.4</ele>
        <time>2011-04-06T16:42:33Z</time>
      </trkpt>
      <trkpt lat="44.33246" lon="2.51451">
        <ele>625.9</ele>
        <time>2011-04-06T16:42:34Z</time>
      </trkpt>
      <trkpt lat="44.33251" lon="2.51448">
        <ele>625.7</ele>
        <time>2011-04-06T16:42:35Z</time>
      </trkpt>
      <trkpt lat="44.33256" lon="2.51445">
        <ele>625.2</ele>
        <time>2011-04-06T16:42:36Z</time>
      </trkpt>
      <trkpt lat="44.33261" lon="2.51441">
        <ele>624.5</ele>
        <time>2011-04-06T16:42:37Z</time>
      </trkpt>
      <trkpt lat="44.33266" lon="2.51438">
        <ele>623.9</ele>
        <time>2011-04-06T16:42:38Z</time>
      </trkpt>
      <trkpt lat="44.33271" lon="2.51433">
        <ele>623</ele>
        <time>2011-04-06T16:42:39Z</time>
      </trkpt>
      <trkpt lat="44.33276" lon="2.51428">
        <ele>622.2</ele>
        <time>2011-04-06T16:42:40Z</time>
      </trkpt>
      <trkpt lat="44.33281" lon="2.51422">
        <ele>621.5</ele>
        <time>2011-04-06T16:42:41Z</time>
      </trkpt>
      <trkpt lat="44.33286" lon="2.51417">
        <ele>620.7</ele>
        <time>2011-04-06T16:42:42Z</time>
      </trkpt>
      <trkpt lat="44.3329" lon="2.5141">
        <ele>620</ele>
        <time>2011-04-06T16:42:43Z</time>
      </trkpt>
      <trkpt lat="44.33293" lon="2.51401">
        <ele>619.5</ele>
        <time>2011-04-06T16:42:44Z</time>
      </trkpt>
      <trkpt lat="44.33295" lon="2.51391">
        <ele>619.2</ele>
        <time>2011-04-06T16:42:45Z</time>
      </trkpt>
      <trkpt lat="44.33296" lon="2.51383">
        <ele>619</ele>
        <time>2011-04-06T16:42:46Z</time>
      </trkpt>
      <trkpt lat="44.33299" lon="2.51375">
        <ele>618.7</ele>
        <time>2011-04-06T16:42:47Z</time>
      </trkpt>
      <trkpt lat="44.33304" lon="2.5137">
        <ele>618.9</ele>
        <time>2011-04-06T16:42:48Z</time>
      </trkpt>
      <trkpt lat="44.33309" lon="2.51367">
        <ele>619.2</ele>
        <time>2011-04-06T16:42:49Z</time>
      </trkpt>
      <trkpt lat="44.33314" lon="2.51363">
        <ele>619.2</ele>
        <time>2011-04-06T16:42:50Z</time>
      </trkpt>
      <trkpt lat="44.33319" lon="2.51359">
        <ele>619</ele>
        <time>2011-04-06T16:42:51Z</time>
      </trkpt>
      <trkpt lat="44.33324" lon="2.51356">
        <ele>619.2</ele>
        <time>2011-04-06T16:42:52Z</time>
      </trkpt>
      <trkpt lat="44.33328" lon="2.51353">
        <ele>619.2</ele>
        <time>2011-04-06T16:42:53Z</time>
      </trkpt>
      <trkpt lat="44.33331" lon="2.5135">
        <ele>619</ele>
        <time>2011-04-06T16:42:54Z</time>
      </trkpt>
      <trkpt lat="44.33335" lon="2.51346">
        <ele>619</ele>
        <time>2011-04-06T16:42:55Z</time>
      </trkpt>
      <trkpt lat="44.33337" lon="2.51344">
        <ele>618.7</ele>
        <time>2011-04-06T16:42:56Z</time>
      </trkpt>
      <trkpt lat="44.33338" lon="2.5134">
        <ele>617.5</ele>
        <time>2011-04-06T16:44:12Z</time>
      </trkpt>
      <trkpt lat="44.33339" lon="2.51339">
        <ele>617.5</ele>
        <time>2011-04-06T16:44:13Z</time>
      </trkpt>
      <trkpt lat="44.33345" lon="2.51334">
        <ele>617</ele>
        <time>2011-04-06T16:44:16Z</time>
      </trkpt>
      <trkpt lat="44.33348" lon="2.51331">
        <ele>616.5</ele>
        <time>2011-04-06T16:44:18Z</time>
      </trkpt>
      <trkpt lat="44.3335" lon="2.51329">
        <ele>616.2</ele>
        <time>2011-04-06T16:44:19Z</time>
      </trkpt>
      <trkpt lat="44.33352" lon="2.51326">
        <ele>616</ele>
        <time>2011-04-06T16:44:20Z</time>
      </trkpt>
      <trkpt lat="44.33355" lon="2.51324">
        <ele>615.7</ele>
        <time>2011-04-06T16:44:21Z</time>
      </trkpt>
      <trkpt lat="44.33358" lon="2.51322">
        <ele>615.5</ele>
        <time>2011-04-06T16:44:22Z</time>
      </trkpt>
      <trkpt lat="44.3336" lon="2.5132">
        <ele>615</ele>
        <time>2011-04-06T16:44:23Z</time>
      </trkpt>
      <trkpt lat="44.33364" lon="2.51318">
        <ele>614.4</ele>
        <time>2011-04-06T16:44:24Z</time>
      </trkpt>
      <trkpt lat="44.33367" lon="2.51316">
        <ele>613.7</ele>
        <time>2011-04-06T16:44:25Z</time>
      </trkpt>
      <trkpt lat="44.33369" lon="2.51313">
        <ele>613.4</ele>
        <time>2011-04-06T16:44:26Z</time>
      </trkpt>
      <trkpt lat="44.33373" lon="2.5131">
        <ele>613.2</ele>
        <time>2011-04-06T16:44:27Z</time>
      </trkpt>
      <trkpt lat="44.33376" lon="2.51306">
        <ele>612.7</ele>
        <time>2011-04-06T16:44:28Z</time>
      </trkpt>
      <trkpt lat="44.3338" lon="2.51304">
        <ele>612.5</ele>
        <time>2011-04-06T16:44:29Z</time>
      </trkpt>
      <trkpt lat="44.33384" lon="2.51302">
        <ele>612.4</ele>
        <time>2011-04-06T16:44:30Z</time>
      </trkpt>
      <trkpt lat="44.33389" lon="2.51298">
        <ele>612.7</ele>
        <time>2011-04-06T16:44:31Z</time>
      </trkpt>
      <trkpt lat="44.33393" lon="2.51293">
        <ele>612.7</ele>
        <time>2011-04-06T16:44:32Z</time>
      </trkpt>
      <trkpt lat="44.33397" lon="2.51288">
        <ele>612.7</ele>
        <time>2011-04-06T16:44:33Z</time>
      </trkpt>
      <trkpt lat="44.33401" lon="2.51282">
        <ele>612.5</ele>
        <time>2011-04-06T16:44:34Z</time>
      </trkpt>
      <trkpt lat="44.33404" lon="2.51276">
        <ele>612.2</ele>
        <time>2011-04-06T16:44:35Z</time>
      </trkpt>
      <trkpt lat="44.33407" lon="2.51269">
        <ele>612.2</ele>
        <time>2011-04-06T16:44:36Z</time>
      </trkpt>
      <trkpt lat="44.3341" lon="2.51264">
        <ele>611.4</ele>
        <time>2011-04-06T16:44:37Z</time>
      </trkpt>
      <trkpt lat="44.33414" lon="2.51258">
        <ele>610.5</ele>
        <time>2011-04-06T16:44:38Z</time>
      </trkpt>
      <trkpt lat="44.33416" lon="2.51253">
        <ele>609.5</ele>
        <time>2011-04-06T16:44:39Z</time>
      </trkpt>
      <trkpt lat="44.33417" lon="2.51248">
        <ele>608.4</ele>
        <time>2011-04-06T16:44:40Z</time>
      </trkpt>
      <trkpt lat="44.33419" lon="2.51242">
        <ele>606.9</ele>
        <time>2011-04-06T16:44:41Z</time>
      </trkpt>
      <trkpt lat="44.33421" lon="2.51236">
        <ele>605.7</ele>
        <time>2011-04-06T16:44:42Z</time>
      </trkpt>
      <trkpt lat="44.33423" lon="2.5123">
        <ele>604.2</ele>
        <time>2011-04-06T16:44:43Z</time>
      </trkpt>
      <trkpt lat="44.33426" lon="2.51222">
        <ele>602.4</ele>
        <time>2011-04-06T16:44:44Z</time>
      </trkpt>
      <trkpt lat="44.33429" lon="2.51215">
        <ele>600.7</ele>
        <time>2011-04-06T16:44:45Z</time>
      </trkpt>
      <trkpt lat="44.33432" lon="2.5121">
        <ele>599.2</ele>
        <time>2011-04-06T16:44:46Z</time>
      </trkpt>
      <trkpt lat="44.33436" lon="2.51204">
        <ele>597.9</ele>
        <time>2011-04-06T16:44:47Z</time>
      </trkpt>
      <trkpt lat="44.33438" lon="2.51199">
        <ele>596.7</ele>
        <time>2011-04-06T16:44:48Z</time>
      </trkpt>
      <trkpt lat="44.3344" lon="2.51194">
        <ele>596</ele>
        <time>2011-04-06T16:44:49Z</time>
      </trkpt>
      <trkpt lat="44.33442" lon="2.51188">
        <ele>595.5</ele>
        <time>2011-04-06T16:44:50Z</time>
      </trkpt>
      <trkpt lat="44.33445" lon="2.51183">
        <ele>594.9</ele>
        <time>2011-04-06T16:44:51Z</time>
      </trkpt>
      <trkpt lat="44.33447" lon="2.51177">
        <ele>594.4</ele>
        <time>2011-04-06T16:44:52Z</time>
      </trkpt>
      <trkpt lat="44.3345" lon="2.51172">
        <ele>594</ele>
        <time>2011-04-06T16:44:53Z</time>
      </trkpt>
      <trkpt lat="44.33453" lon="2.51168">
        <ele>593.7</ele>
        <time>2011-04-06T16:44:54Z</time>
      </trkpt>
      <trkpt lat="44.33456" lon="2.51163">
        <ele>593.9</ele>
        <time>2011-04-06T16:44:55Z</time>
      </trkpt>
      <trkpt lat="44.33458" lon="2.51158">
        <ele>593.9</ele>
        <time>2011-04-06T16:44:56Z</time>
      </trkpt>
      <trkpt lat="44.3346" lon="2.51154">
        <ele>594</ele>
        <time>2011-04-06T16:44:57Z</time>
      </trkpt>
      <trkpt lat="44.33461" lon="2.5115">
        <ele>594</ele>
        <time>2011-04-06T16:44:58Z</time>
      </trkpt>
      <trkpt lat="44.33462" lon="2.51147">
        <ele>594.2</ele>
        <time>2011-04-06T16:44:59Z</time>
      </trkpt>
      <trkpt lat="44.33462" lon="2.51141">
        <ele>594.2</ele>
        <time>2011-04-06T16:45:01Z</time>
      </trkpt>
      <trkpt lat="44.33462" lon="2.51138">
        <ele>594.2</ele>
        <time>2011-04-06T16:45:02Z</time>
      </trkpt>
      <trkpt lat="44.33462" lon="2.51132">
        <ele>594</ele>
        <time>2011-04-06T16:45:04Z</time>
      </trkpt>
      <trkpt lat="44.33461" lon="2.51129">
        <ele>593.7</ele>
        <time>2011-04-06T16:45:05Z</time>
      </trkpt>
      <trkpt lat="44.33463" lon="2.51123">
        <ele>592.5</ele>
        <time>2011-04-06T16:45:07Z</time>
      </trkpt>
      <trkpt lat="44.33465" lon="2.51118">
        <ele>593.7</ele>
        <time>2011-04-06T16:45:16Z</time>
      </trkpt>
      <trkpt lat="44.33464" lon="2.51117">
        <ele>594.2</ele>
        <time>2011-04-06T16:45:17Z</time>
      </trkpt>
      <trkpt lat="44.3346" lon="2.51108">
        <ele>600</ele>
        <time>2011-04-06T16:45:38Z</time>
      </trkpt>
      <trkpt lat="44.33462" lon="2.51103">
        <ele>600.5</ele>
        <time>2011-04-06T16:46:03Z</time>
      </trkpt>
      <trkpt lat="44.33466" lon="2.51102">
        <ele>599.7</ele>
        <time>2011-04-06T16:46:17Z</time>
      </trkpt>
      <trkpt lat="44.33467" lon="2.51102">
        <ele>599.9</ele>
        <time>2011-04-06T16:46:18Z</time>
      </trkpt>
      <trkpt lat="44.33474" lon="2.51097">
        <ele>602.4</ele>
        <time>2011-04-06T16:46:27Z</time>
      </trkpt>
      <trkpt lat="44.33478" lon="2.51095">
        <ele>603</ele>
        <time>2011-04-06T16:46:39Z</time>
      </trkpt>
      <trkpt lat="44.3348" lon="2.5109">
        <ele>603.4</ele>
        <time>2011-04-06T16:46:43Z</time>
      </trkpt>
      <trkpt lat="44.33482" lon="2.51087">
        <ele>603.2</ele>
        <time>2011-04-06T16:46:45Z</time>
      </trkpt>
      <trkpt lat="44.33484" lon="2.51083">
        <ele>602.7</ele>
        <time>2011-04-06T16:46:47Z</time>
      </trkpt>
      <trkpt lat="44.33486" lon="2.51077">
        <ele>602.4</ele>
        <time>2011-04-06T16:46:50Z</time>
      </trkpt>
      <trkpt lat="44.33486" lon="2.51073">
        <ele>602.2</ele>
        <time>2011-04-06T16:46:52Z</time>
      </trkpt>
      <trkpt lat="44.33486" lon="2.51069">
        <ele>602</ele>
        <time>2011-04-06T16:46:53Z</time>
      </trkpt>
      <trkpt lat="44.33487" lon="2.51066">
        <ele>601.4</ele>
        <time>2011-04-06T16:46:54Z</time>
      </trkpt>
      <trkpt lat="44.33489" lon="2.51062">
        <ele>600.9</ele>
        <time>2011-04-06T16:46:55Z</time>
      </trkpt>
      <trkpt lat="44.33492" lon="2.51058">
        <ele>600.2</ele>
        <time>2011-04-06T16:46:56Z</time>
      </trkpt>
      <trkpt lat="44.33494" lon="2.51054">
        <ele>599.7</ele>
        <time>2011-04-06T16:46:57Z</time>
      </trkpt>
      <trkpt lat="44.33496" lon="2.51048">
        <ele>598.9</ele>
        <time>2011-04-06T16:46:58Z</time>
      </trkpt>
      <trkpt lat="44.33497" lon="2.51042">
        <ele>598.2</ele>
        <time>2011-04-06T16:46:59Z</time>
      </trkpt>
      <trkpt lat="44.335" lon="2.51037">
        <ele>597.5</ele>
        <time>2011-04-06T16:47:00Z</time>
      </trkpt>
      <trkpt lat="44.33503" lon="2.51032">
        <ele>596.7</ele>
        <time>2011-04-06T16:47:01Z</time>
      </trkpt>
      <trkpt lat="44.33507" lon="2.51028">
        <ele>595.9</ele>
        <time>2011-04-06T16:47:02Z</time>
      </trkpt>
      <trkpt lat="44.33511" lon="2.51024">
        <ele>595</ele>
        <time>2011-04-06T16:47:03Z</time>
      </trkpt>
      <trkpt lat="44.33514" lon="2.51019">
        <ele>594.7</ele>
        <time>2011-04-06T16:47:04Z</time>
      </trkpt>
      <trkpt lat="44.33515" lon="2.51014">
        <ele>594.4</ele>
        <time>2011-04-06T16:47:05Z</time>
      </trkpt>
      <trkpt lat="44.33515" lon="2.51009">
        <ele>594</ele>
        <time>2011-04-06T16:47:06Z</time>
      </trkpt>
      <trkpt lat="44.33516" lon="2.51004">
        <ele>593.2</ele>
        <time>2011-04-06T16:47:07Z</time>
      </trkpt>
      <trkpt lat="44.33518" lon="2.50999">
        <ele>592.5</ele>
        <time>2011-04-06T16:47:08Z</time>
      </trkpt>
      <trkpt lat="44.3352" lon="2.50995">
        <ele>591.5</ele>
        <time>2011-04-06T16:47:09Z</time>
      </trkpt>
      <trkpt lat="44.33522" lon="2.50991">
        <ele>590.7</ele>
        <time>2011-04-06T16:47:10Z</time>
      </trkpt>
      <trkpt lat="44.33523" lon="2.50988">
        <ele>589.7</ele>
        <time>2011-04-06T16:47:11Z</time>
      </trkpt>
      <trkpt lat="44.33525" lon="2.50985">
        <ele>588.9</ele>
        <time>2011-04-06T16:47:12Z</time>
      </trkpt>
      <trkpt lat="44.33527" lon="2.5098">
        <ele>587.2</ele>
        <time>2011-04-06T16:47:14Z</time>
      </trkpt>
      <trkpt lat="44.33529" lon="2.50976">
        <ele>585.5</ele>
        <time>2011-04-06T16:47:16Z</time>
      </trkpt>
      <trkpt lat="44.33531" lon="2.50973">
        <ele>584.4</ele>
        <time>2011-04-06T16:47:17Z</time>
      </trkpt>
      <trkpt lat="44.33533" lon="2.50967">
        <ele>583.2</ele>
        <time>2011-04-06T16:47:18Z</time>
      </trkpt>
      <trkpt lat="44.33536" lon="2.50961">
        <ele>582.5</ele>
        <time>2011-04-06T16:47:19Z</time>
      </trkpt>
      <trkpt lat="44.33538" lon="2.50958">
        <ele>582.2</ele>
        <time>2011-04-06T16:47:20Z</time>
      </trkpt>
      <trkpt lat="44.33542" lon="2.50955">
        <ele>582.2</ele>
        <time>2011-04-06T16:48:06Z</time>
      </trkpt>
      <trkpt lat="44.33543" lon="2.5095">
        <ele>581.5</ele>
        <time>2011-04-06T16:48:08Z</time>
      </trkpt>
      <trkpt lat="44.33544" lon="2.50945">
        <ele>580.7</ele>
        <time>2011-04-06T16:48:09Z</time>
      </trkpt>
      <trkpt lat="44.33545" lon="2.5094">
        <ele>579.7</ele>
        <time>2011-04-06T16:48:10Z</time>
      </trkpt>
      <trkpt lat="44.33549" lon="2.50933">
        <ele>578.7</ele>
        <time>2011-04-06T16:48:11Z</time>
      </trkpt>
      <trkpt lat="44.33553" lon="2.50928">
        <ele>577.7</ele>
        <time>2011-04-06T16:48:12Z</time>
      </trkpt>
      <trkpt lat="44.33558" lon="2.50923">
        <ele>577.2</ele>
        <time>2011-04-06T16:48:13Z</time>
      </trkpt>
      <trkpt lat="44.33563" lon="2.50919">
        <ele>577</ele>
        <time>2011-04-06T16:48:14Z</time>
      </trkpt>
      <trkpt lat="44.33566" lon="2.50915">
        <ele>576.4</ele>
        <time>2011-04-06T16:48:15Z</time>
      </trkpt>
      <trkpt lat="44.33569" lon="2.50911">
        <ele>575.9</ele>
        <time>2011-04-06T16:48:16Z</time>
      </trkpt>
      <trkpt lat="44.33574" lon="2.50909">
        <ele>575.7</ele>
        <time>2011-04-06T16:48:17Z</time>
      </trkpt>
      <trkpt lat="44.33578" lon="2.50907">
        <ele>575.5</ele>
        <time>2011-04-06T16:48:18Z</time>
      </trkpt>
      <trkpt lat="44.33581" lon="2.50905">
        <ele>575</ele>
        <time>2011-04-06T16:48:19Z</time>
      </trkpt>
      <trkpt lat="44.33583" lon="2.509">
        <ele>574</ele>
        <time>2011-04-06T16:48:20Z</time>
      </trkpt>
      <trkpt lat="44.33586" lon="2.50896">
        <ele>573</ele>
        <time>2011-04-06T16:48:21Z</time>
      </trkpt>
      <trkpt lat="44.33587" lon="2.5089">
        <ele>571.7</ele>
        <time>2011-04-06T16:48:22Z</time>
      </trkpt>
      <trkpt lat="44.33588" lon="2.50886">
        <ele>570.4</ele>
        <time>2011-04-06T16:48:23Z</time>
      </trkpt>
      <trkpt lat="44.33589" lon="2.50882">
        <ele>569.4</ele>
        <time>2011-04-06T16:48:24Z</time>
      </trkpt>
      <trkpt lat="44.33592" lon="2.5088">
        <ele>568.5</ele>
        <time>2011-04-06T16:48:25Z</time>
      </trkpt>
      <trkpt lat="44.33596" lon="2.50878">
        <ele>567.5</ele>
        <time>2011-04-06T16:48:26Z</time>
      </trkpt>
      <trkpt lat="44.33599" lon="2.50876">
        <ele>566.5</ele>
        <time>2011-04-06T16:48:27Z</time>
      </trkpt>
      <trkpt lat="44.33602" lon="2.50874">
        <ele>565.4</ele>
        <time>2011-04-06T16:48:28Z</time>
      </trkpt>
      <trkpt lat="44.33605" lon="2.50871">
        <ele>564</ele>
        <time>2011-04-06T16:48:29Z</time>
      </trkpt>
      <trkpt lat="44.33608" lon="2.50867">
        <ele>562.7</ele>
        <time>2011-04-06T16:48:30Z</time>
      </trkpt>
      <trkpt lat="44.33612" lon="2.50864">
        <ele>561.5</ele>
        <time>2011-04-06T16:48:31Z</time>
      </trkpt>
      <trkpt lat="44.33616" lon="2.50861">
        <ele>560</ele>
        <time>2011-04-06T16:48:32Z</time>
      </trkpt>
      <trkpt lat="44.33621" lon="2.50858">
        <ele>558.7</ele>
        <time>2011-04-06T16:48:33Z</time>
      </trkpt>
      <trkpt lat="44.33626" lon="2.50854">
        <ele>557.5</ele>
        <time>2011-04-06T16:48:34Z</time>
      </trkpt>
      <trkpt lat="44.33631" lon="2.50849">
        <ele>556.4</ele>
        <time>2011-04-06T16:48:35Z</time>
      </trkpt>
      <trkpt lat="44.33636" lon="2.50845">
        <ele>555.9</ele>
        <time>2011-04-06T16:48:36Z</time>
      </trkpt>
      <trkpt lat="44.3364" lon="2.50843">
        <ele>555.5</ele>
        <time>2011-04-06T16:48:37Z</time>
      </trkpt>
      <trkpt lat="44.33645" lon="2.50841">
        <ele>555.5</ele>
        <time>2011-04-06T16:48:38Z</time>
      </trkpt>
      <trkpt lat="44.33649" lon="2.5084">
        <ele>555.2</ele>
        <time>2011-04-06T16:48:39Z</time>
      </trkpt>
      <trkpt lat="44.33652" lon="2.50838">
        <ele>554.9</ele>
        <time>2011-04-06T16:48:40Z</time>
      </trkpt>
      <trkpt lat="44.33655" lon="2.50835">
        <ele>554.5</ele>
        <time>2011-04-06T16:48:41Z</time>
      </trkpt>
      <trkpt lat="44.33658" lon="2.50832">
        <ele>554.5</ele>
        <time>2011-04-06T16:48:42Z</time>
      </trkpt>
      <trkpt lat="44.3366" lon="2.5083">
        <ele>554.2</ele>
        <time>2011-04-06T16:48:43Z</time>
      </trkpt>
      <trkpt lat="44.33661" lon="2.50827">
        <ele>553.7</ele>
        <time>2011-04-06T16:48:44Z</time>
      </trkpt>
      <trkpt lat="44.33663" lon="2.50824">
        <ele>553</ele>
        <time>2011-04-06T16:48:45Z</time>
      </trkpt>
      <trkpt lat="44.33665" lon="2.5082">
        <ele>552</ele>
        <time>2011-04-06T16:48:46Z</time>
      </trkpt>
      <trkpt lat="44.33666" lon="2.50816">
        <ele>551.7</ele>
        <time>2011-04-06T16:48:47Z</time>
      </trkpt>
      <trkpt lat="44.33669" lon="2.50813">
        <ele>550.7</ele>
        <time>2011-04-06T16:48:49Z</time>
      </trkpt>
      <trkpt lat="44.33672" lon="2.5081">
        <ele>550.5</ele>
        <time>2011-04-06T16:49:00Z</time>
      </trkpt>
      <trkpt lat="44.33677" lon="2.50809">
        <ele>553.5</ele>
        <time>2011-04-06T16:49:20Z</time>
      </trkpt>
      <trkpt lat="44.33681" lon="2.50807">
        <ele>555</ele>
        <time>2011-04-06T16:49:30Z</time>
      </trkpt>
      <trkpt lat="44.33682" lon="2.50806">
        <ele>555</ele>
        <time>2011-04-06T16:49:31Z</time>
      </trkpt>
      <trkpt lat="44.33686" lon="2.50803">
        <ele>554.7</ele>
        <time>2011-04-06T16:49:33Z</time>
      </trkpt>
      <trkpt lat="44.33689" lon="2.50801">
        <ele>554.5</ele>
        <time>2011-04-06T16:49:34Z</time>
      </trkpt>
      <trkpt lat="44.33692" lon="2.50799">
        <ele>554.2</ele>
        <time>2011-04-06T16:49:35Z</time>
      </trkpt>
      <trkpt lat="44.33695" lon="2.50797">
        <ele>554.2</ele>
        <time>2011-04-06T16:49:36Z</time>
      </trkpt>
      <trkpt lat="44.33699" lon="2.50796">
        <ele>554.2</ele>
        <time>2011-04-06T16:49:37Z</time>
      </trkpt>
      <trkpt lat="44.33703" lon="2.50795">
        <ele>554.4</ele>
        <time>2011-04-06T16:49:38Z</time>
      </trkpt>
      <trkpt lat="44.33706" lon="2.50794">
        <ele>554.4</ele>
        <time>2011-04-06T16:49:39Z</time>
      </trkpt>
      <trkpt lat="44.3371" lon="2.50793">
        <ele>554.4</ele>
        <time>2011-04-06T16:49:40Z</time>
      </trkpt>
      <trkpt lat="44.33714" lon="2.50792">
        <ele>554.2</ele>
        <time>2011-04-06T16:49:41Z</time>
      </trkpt>
      <trkpt lat="44.33719" lon="2.50792">
        <ele>554.4</ele>
        <time>2011-04-06T16:49:42Z</time>
      </trkpt>
      <trkpt lat="44.33723" lon="2.50791">
        <ele>554.4</ele>
        <time>2011-04-06T16:49:43Z</time>
      </trkpt>
      <trkpt lat="44.33727" lon="2.5079">
        <ele>554.4</ele>
        <time>2011-04-06T16:49:44Z</time>
      </trkpt>
      <trkpt lat="44.3373" lon="2.5079">
        <ele>554.2</ele>
        <time>2011-04-06T16:49:45Z</time>
      </trkpt>
      <trkpt lat="44.33733" lon="2.5079">
        <ele>554.2</ele>
        <time>2011-04-06T16:49:46Z</time>
      </trkpt>
      <trkpt lat="44.33735" lon="2.50792">
        <ele>553.7</ele>
        <time>2011-04-06T16:49:47Z</time>
      </trkpt>
      <trkpt lat="44.33738" lon="2.50794">
        <ele>553</ele>
        <time>2011-04-06T16:49:48Z</time>
      </trkpt>
      <trkpt lat="44.33742" lon="2.50797">
        <ele>552</ele>
        <time>2011-04-06T16:49:50Z</time>
      </trkpt>
      <trkpt lat="44.33744" lon="2.50797">
        <ele>551.4</ele>
        <time>2011-04-06T16:49:51Z</time>
      </trkpt>
      <trkpt lat="44.33748" lon="2.50796">
        <ele>550.5</ele>
        <time>2011-04-06T16:49:53Z</time>
      </trkpt>
      <trkpt lat="44.3375" lon="2.50791">
        <ele>545</ele>
        <time>2011-04-06T16:50:34Z</time>
      </trkpt>
      <trkpt lat="44.33751" lon="2.50791">
        <ele>545</ele>
        <time>2011-04-06T16:50:35Z</time>
      </trkpt>
      <trkpt lat="44.33758" lon="2.50795">
        <ele>544.4</ele>
        <time>2011-04-06T16:50:49Z</time>
      </trkpt>
      <trkpt lat="44.33761" lon="2.50797">
        <ele>543.7</ele>
        <time>2011-04-06T16:50:51Z</time>
      </trkpt>
      <trkpt lat="44.33764" lon="2.50798">
        <ele>543.2</ele>
        <time>2011-04-06T16:50:53Z</time>
      </trkpt>
      <trkpt lat="44.33768" lon="2.50799">
        <ele>542.5</ele>
        <time>2011-04-06T16:50:55Z</time>
      </trkpt>
      <trkpt lat="44.33771" lon="2.508">
        <ele>542.2</ele>
        <time>2011-04-06T16:50:56Z</time>
      </trkpt>
      <trkpt lat="44.33774" lon="2.50803">
        <ele>542</ele>
        <time>2011-04-06T16:50:58Z</time>
      </trkpt>
      <trkpt lat="44.33777" lon="2.50804">
        <ele>542</ele>
        <time>2011-04-06T16:50:59Z</time>
      </trkpt>
      <trkpt lat="44.3378" lon="2.50805">
        <ele>541.7</ele>
        <time>2011-04-06T16:51:00Z</time>
      </trkpt>
      <trkpt lat="44.33782" lon="2.50806">
        <ele>541.5</ele>
        <time>2011-04-06T16:51:01Z</time>
      </trkpt>
      <trkpt lat="44.33784" lon="2.50808">
        <ele>541.2</ele>
        <time>2011-04-06T16:51:02Z</time>
      </trkpt>
      <trkpt lat="44.33787" lon="2.50809">
        <ele>541</ele>
        <time>2011-04-06T16:51:03Z</time>
      </trkpt>
      <trkpt lat="44.3379" lon="2.50811">
        <ele>540.7</ele>
        <time>2011-04-06T16:51:04Z</time>
      </trkpt>
      <trkpt lat="44.33793" lon="2.50813">
        <ele>540</ele>
        <time>2011-04-06T16:51:05Z</time>
      </trkpt>
      <trkpt lat="44.33797" lon="2.50815">
        <ele>539.2</ele>
        <time>2011-04-06T16:51:06Z</time>
      </trkpt>
      <trkpt lat="44.33801" lon="2.50815">
        <ele>538.5</ele>
        <time>2011-04-06T16:51:07Z</time>
      </trkpt>
      <trkpt lat="44.33805" lon="2.50817">
        <ele>537.9</ele>
        <time>2011-04-06T16:51:08Z</time>
      </trkpt>
      <trkpt lat="44.33809" lon="2.50819">
        <ele>537.2</ele>
        <time>2011-04-06T16:51:09Z</time>
      </trkpt>
      <trkpt lat="44.33813" lon="2.50821">
        <ele>536.7</ele>
        <time>2011-04-06T16:51:10Z</time>
      </trkpt>
      <trkpt lat="44.33817" lon="2.50824">
        <ele>536.4</ele>
        <time>2011-04-06T16:51:11Z</time>
      </trkpt>
      <trkpt lat="44.33821" lon="2.50826">
        <ele>536.2</ele>
        <time>2011-04-06T16:51:12Z</time>
      </trkpt>
      <trkpt lat="44.33825" lon="2.50831">
        <ele>536</ele>
        <time>2011-04-06T16:51:13Z</time>
      </trkpt>
      <trkpt lat="44.3383" lon="2.50838">
        <ele>535.5</ele>
        <time>2011-04-06T16:51:14Z</time>
      </trkpt>
      <trkpt lat="44.33834" lon="2.50845">
        <ele>535.4</ele>
        <time>2011-04-06T16:51:15Z</time>
      </trkpt>
      <trkpt lat="44.33837" lon="2.50853">
        <ele>535.2</ele>
        <time>2011-04-06T16:51:16Z</time>
      </trkpt>
      <trkpt lat="44.3384" lon="2.50859">
        <ele>535</ele>
        <time>2011-04-06T16:51:17Z</time>
      </trkpt>
      <trkpt lat="44.33843" lon="2.50865">
        <ele>534.7</ele>
        <time>2011-04-06T16:51:18Z</time>
      </trkpt>
      <trkpt lat="44.33847" lon="2.50871">
        <ele>534.4</ele>
        <time>2011-04-06T16:51:19Z</time>
      </trkpt>
      <trkpt lat="44.3385" lon="2.50875">
        <ele>533.7</ele>
        <time>2011-04-06T16:51:20Z</time>
      </trkpt>
      <trkpt lat="44.33852" lon="2.50878">
        <ele>533.2</ele>
        <time>2011-04-06T16:51:21Z</time>
      </trkpt>
      <trkpt lat="44.33855" lon="2.50883">
        <ele>533.2</ele>
        <time>2011-04-06T16:51:23Z</time>
      </trkpt>
      <trkpt lat="44.33859" lon="2.50886">
        <ele>533.5</ele>
        <time>2011-04-06T16:51:25Z</time>
      </trkpt>
      <trkpt lat="44.33861" lon="2.50889">
        <ele>533</ele>
        <time>2011-04-06T16:51:26Z</time>
      </trkpt>
      <trkpt lat="44.33864" lon="2.50892">
        <ele>532.2</ele>
        <time>2011-04-06T16:51:27Z</time>
      </trkpt>
      <trkpt lat="44.33868" lon="2.50896">
        <ele>531.5</ele>
        <time>2011-04-06T16:51:28Z</time>
      </trkpt>
      <trkpt lat="44.33872" lon="2.50898">
        <ele>531</ele>
        <time>2011-04-06T16:51:29Z</time>
      </trkpt>
      <trkpt lat="44.33877" lon="2.509">
        <ele>530.7</ele>
        <time>2011-04-06T16:51:30Z</time>
      </trkpt>
      <trkpt lat="44.33882" lon="2.50903">
        <ele>530.5</ele>
        <time>2011-04-06T16:51:31Z</time>
      </trkpt>
      <trkpt lat="44.33887" lon="2.50906">
        <ele>530.4</ele>
        <time>2011-04-06T16:51:32Z</time>
      </trkpt>
      <trkpt lat="44.33893" lon="2.50908">
        <ele>530.2</ele>
        <time>2011-04-06T16:51:33Z</time>
      </trkpt>
      <trkpt lat="44.33899" lon="2.50909">
        <ele>529.7</ele>
        <time>2011-04-06T16:51:34Z</time>
      </trkpt>
      <trkpt lat="44.33905" lon="2.5091">
        <ele>529</ele>
        <time>2011-04-06T16:51:35Z</time>
      </trkpt>
      <trkpt lat="44.3391" lon="2.50912">
        <ele>528.5</ele>
        <time>2011-04-06T16:51:36Z</time>
      </trkpt>
      <trkpt lat="44.33916" lon="2.50912">
        <ele>528</ele>
        <time>2011-04-06T16:51:37Z</time>
      </trkpt>
      <trkpt lat="44.33922" lon="2.50912">
        <ele>527.5</ele>
        <time>2011-04-06T16:51:38Z</time>
      </trkpt>
      <trkpt lat="44.33927" lon="2.50912">
        <ele>527</ele>
        <time>2011-04-06T16:51:39Z</time>
      </trkpt>
      <trkpt lat="44.33934" lon="2.50911">
        <ele>526.5</ele>
        <time>2011-04-06T16:51:40Z</time>
      </trkpt>
      <trkpt lat="44.3394" lon="2.50912">
        <ele>525.7</ele>
        <time>2011-04-06T16:51:41Z</time>
      </trkpt>
      <trkpt lat="44.33947" lon="2.50912">
        <ele>525</ele>
        <time>2011-04-06T16:51:42Z</time>
      </trkpt>
      <trkpt lat="44.33953" lon="2.50913">
        <ele>524.7</ele>
        <time>2011-04-06T16:51:43Z</time>
      </trkpt>
      <trkpt lat="44.3396" lon="2.50914">
        <ele>524.5</ele>
        <time>2011-04-06T16:51:44Z</time>
      </trkpt>
      <trkpt lat="44.33967" lon="2.50916">
        <ele>523.9</ele>
        <time>2011-04-06T16:51:45Z</time>
      </trkpt>
      <trkpt lat="44.33974" lon="2.50918">
        <ele>523.2</ele>
        <time>2011-04-06T16:51:46Z</time>
      </trkpt>
      <trkpt lat="44.3398" lon="2.5092">
        <ele>522.4</ele>
        <time>2011-04-06T16:51:47Z</time>
      </trkpt>
      <trkpt lat="44.33987" lon="2.50923">
        <ele>521.4</ele>
        <time>2011-04-06T16:51:48Z</time>
      </trkpt>
      <trkpt lat="44.33993" lon="2.50924">
        <ele>520</ele>
        <time>2011-04-06T16:51:49Z</time>
      </trkpt>
      <trkpt lat="44.33998" lon="2.50921">
        <ele>518.5</ele>
        <time>2011-04-06T16:51:50Z</time>
      </trkpt>
      <trkpt lat="44.34003" lon="2.50916">
        <ele>517.7</ele>
        <time>2011-04-06T16:51:51Z</time>
      </trkpt>
      <trkpt lat="44.34009" lon="2.50912">
        <ele>517</ele>
        <time>2011-04-06T16:51:52Z</time>
      </trkpt>
      <trkpt lat="44.34014" lon="2.50909">
        <ele>516.2</ele>
        <time>2011-04-06T16:51:53Z</time>
      </trkpt>
      <trkpt lat="44.34018" lon="2.50908">
        <ele>515.5</ele>
        <time>2011-04-06T16:51:54Z</time>
      </trkpt>
      <trkpt lat="44.34021" lon="2.50908">
        <ele>515</ele>
        <time>2011-04-06T16:51:55Z</time>
      </trkpt>
      <trkpt lat="44.34024" lon="2.50909">
        <ele>514.5</ele>
        <time>2011-04-06T16:51:56Z</time>
      </trkpt>
      <trkpt lat="44.34027" lon="2.5091">
        <ele>514.2</ele>
        <time>2011-04-06T16:51:57Z</time>
      </trkpt>
      <trkpt lat="44.3403" lon="2.5091">
        <ele>513.9</ele>
        <time>2011-04-06T16:51:58Z</time>
      </trkpt>
      <trkpt lat="44.34032" lon="2.50911">
        <ele>513.5</ele>
        <time>2011-04-06T16:51:59Z</time>
      </trkpt>
      <trkpt lat="44.34036" lon="2.50913">
        <ele>512.2</ele>
        <time>2011-04-06T16:52:03Z</time>
      </trkpt>
      <trkpt lat="44.3404" lon="2.50915">
        <ele>511.7</ele>
        <time>2011-04-06T16:52:09Z</time>
      </trkpt>
      <trkpt lat="44.34044" lon="2.50918">
        <ele>511</ele>
        <time>2011-04-06T16:52:19Z</time>
      </trkpt>
      <trkpt lat="44.34048" lon="2.5092">
        <ele>510.1</ele>
        <time>2011-04-06T16:52:32Z</time>
      </trkpt>
      <trkpt lat="44.34052" lon="2.50923">
        <ele>508.5</ele>
        <time>2011-04-06T16:52:51Z</time>
      </trkpt>
      <trkpt lat="44.34052" lon="2.50923">
        <ele>508.3</ele>
        <time>2011-04-06T16:52:52Z</time>
      </trkpt>
      <trkpt lat="44.34059" lon="2.50925">
        <ele>509.7</ele>
        <time>2011-04-06T16:53:25Z</time>
      </trkpt>
      <trkpt lat="44.34062" lon="2.50927">
        <ele>510.1</ele>
        <time>2011-04-06T16:53:27Z</time>
      </trkpt>
      <trkpt lat="44.34066" lon="2.50929">
        <ele>510.3</ele>
        <time>2011-04-06T16:53:29Z</time>
      </trkpt>
      <trkpt lat="44.34069" lon="2.50932">
        <ele>510.6</ele>
        <time>2011-04-06T16:53:31Z</time>
      </trkpt>
      <trkpt lat="44.34072" lon="2.50934">
        <ele>510.7</ele>
        <time>2011-04-06T16:53:33Z</time>
      </trkpt>
      <trkpt lat="44.34075" lon="2.50937">
        <ele>510.7</ele>
        <time>2011-04-06T16:53:35Z</time>
      </trkpt>
      <trkpt lat="44.34079" lon="2.5094">
        <ele>510.7</ele>
        <time>2011-04-06T16:53:38Z</time>
      </trkpt>
      <trkpt lat="44.34082" lon="2.50943">
        <ele>510.7</ele>
        <time>2011-04-06T16:53:42Z</time>
      </trkpt>
      <trkpt lat="44.34085" lon="2.50947">
        <ele>510.7</ele>
        <time>2011-04-06T16:53:45Z</time>
      </trkpt>
      <trkpt lat="44.34086" lon="2.50953">
        <ele>510.7</ele>
        <time>2011-04-06T16:53:48Z</time>
      </trkpt>
      <trkpt lat="44.34085" lon="2.5096">
        <ele>511.5</ele>
        <time>2011-04-06T16:53:51Z</time>
      </trkpt>
      <trkpt lat="44.34084" lon="2.50964">
        <ele>512.5</ele>
        <time>2011-04-06T16:53:53Z</time>
      </trkpt>
      <trkpt lat="44.34084" lon="2.50966">
        <ele>513.2</ele>
        <time>2011-04-06T16:53:54Z</time>
      </trkpt>
      <trkpt lat="44.34082" lon="2.50974">
        <ele>515.2</ele>
        <time>2011-04-06T16:53:57Z</time>
      </trkpt>
      <trkpt lat="44.3408" lon="2.5098">
        <ele>516.5</ele>
        <time>2011-04-06T16:53:59Z</time>
      </trkpt>
      <trkpt lat="44.34079" lon="2.50982">
        <ele>517.4</ele>
        <time>2011-04-06T16:54:00Z</time>
      </trkpt>
      <trkpt lat="44.34078" lon="2.50985">
        <ele>518</ele>
        <time>2011-04-06T16:54:01Z</time>
      </trkpt>
      <trkpt lat="44.34077" lon="2.50988">
        <ele>518.5</ele>
        <time>2011-04-06T16:54:02Z</time>
      </trkpt>
      <trkpt lat="44.34076" lon="2.50991">
        <ele>519</ele>
        <time>2011-04-06T16:54:03Z</time>
      </trkpt>
      <trkpt lat="44.34075" lon="2.50994">
        <ele>519.5</ele>
        <time>2011-04-06T16:54:04Z</time>
      </trkpt>
      <trkpt lat="44.34074" lon="2.50997">
        <ele>520</ele>
        <time>2011-04-06T16:54:05Z</time>
      </trkpt>
      <trkpt lat="44.34073" lon="2.51">
        <ele>520.5</ele>
        <time>2011-04-06T16:54:06Z</time>
      </trkpt>
      <trkpt lat="44.34072" lon="2.51003">
        <ele>521</ele>
        <time>2011-04-06T16:54:07Z</time>
      </trkpt>
      <trkpt lat="44.34071" lon="2.51005">
        <ele>521.5</ele>
        <time>2011-04-06T16:54:08Z</time>
      </trkpt>
      <trkpt lat="44.34069" lon="2.51008">
        <ele>522</ele>
        <time>2011-04-06T16:54:09Z</time>
      </trkpt>
      <trkpt lat="44.34068" lon="2.51011">
        <ele>522.7</ele>
        <time>2011-04-06T16:54:10Z</time>
      </trkpt>
      <trkpt lat="44.34066" lon="2.51014">
        <ele>523.2</ele>
        <time>2011-04-06T16:54:11Z</time>
      </trkpt>
      <trkpt lat="44.34065" lon="2.51017">
        <ele>523.7</ele>
        <time>2011-04-06T16:54:12Z</time>
      </trkpt>
      <trkpt lat="44.34063" lon="2.5102">
        <ele>524.4</ele>
        <time>2011-04-06T16:54:13Z</time>
      </trkpt>
      <trkpt lat="44.34062" lon="2.51023">
        <ele>525</ele>
        <time>2011-04-06T16:54:14Z</time>
      </trkpt>
      <trkpt lat="44.34061" lon="2.51026">
        <ele>525.7</ele>
        <time>2011-04-06T16:54:15Z</time>
      </trkpt>
      <trkpt lat="44.34059" lon="2.51028">
        <ele>526.5</ele>
        <time>2011-04-06T16:54:16Z</time>
      </trkpt>
      <trkpt lat="44.34058" lon="2.51031">
        <ele>527.2</ele>
        <time>2011-04-06T16:54:17Z</time>
      </trkpt>
      <trkpt lat="44.34056" lon="2.51033">
        <ele>528</ele>
        <time>2011-04-06T16:54:18Z</time>
      </trkpt>
      <trkpt lat="44.34054" lon="2.51035">
        <ele>528.9</ele>
        <time>2011-04-06T16:54:19Z</time>
      </trkpt>
      <trkpt lat="44.34053" lon="2.51038">
        <ele>529.7</ele>
        <time>2011-04-06T16:54:20Z</time>
      </trkpt>
      <trkpt lat="44.34051" lon="2.51041">
        <ele>530.5</ele>
        <time>2011-04-06T16:54:21Z</time>
      </trkpt>
      <trkpt lat="44.3405" lon="2.51043">
        <ele>531.5</ele>
        <time>2011-04-06T16:54:22Z</time>
      </trkpt>
      <trkpt lat="44.34048" lon="2.51047">
        <ele>532.4</ele>
        <time>2011-04-06T16:54:23Z</time>
      </trkpt>
      <trkpt lat="44.34047" lon="2.5105">
        <ele>533.5</ele>
        <time>2011-04-06T16:54:24Z</time>
      </trkpt>
      <trkpt lat="44.34045" lon="2.51052">
        <ele>534.5</ele>
        <time>2011-04-06T16:54:25Z</time>
      </trkpt>
      <trkpt lat="44.34043" lon="2.51055">
        <ele>535.7</ele>
        <time>2011-04-06T16:54:26Z</time>
      </trkpt>
      <trkpt lat="44.34041" lon="2.51058">
        <ele>537</ele>
        <time>2011-04-06T16:54:27Z</time>
      </trkpt>
      <trkpt lat="44.3404" lon="2.5106">
        <ele>538.2</ele>
        <time>2011-04-06T16:54:28Z</time>
      </trkpt>
      <trkpt lat="44.34038" lon="2.51063">
        <ele>539.5</ele>
        <time>2011-04-06T16:54:29Z</time>
      </trkpt>
      <trkpt lat="44.34036" lon="2.51066">
        <ele>540.7</ele>
        <time>2011-04-06T16:54:30Z</time>
      </trkpt>
      <trkpt lat="44.34034" lon="2.51068">
        <ele>541.7</ele>
        <time>2011-04-06T16:54:31Z</time>
      </trkpt>
      <trkpt lat="44.34032" lon="2.51071">
        <ele>542.9</ele>
        <time>2011-04-06T16:54:32Z</time>
      </trkpt>
      <trkpt lat="44.3403" lon="2.51073">
        <ele>543.7</ele>
        <time>2011-04-06T16:54:33Z</time>
      </trkpt>
      <trkpt lat="44.34028" lon="2.51075">
        <ele>544.7</ele>
        <time>2011-04-06T16:54:34Z</time>
      </trkpt>
      <trkpt lat="44.34025" lon="2.51076">
        <ele>545.2</ele>
        <time>2011-04-06T16:54:35Z</time>
      </trkpt>
      <trkpt lat="44.34023" lon="2.51078">
        <ele>545.7</ele>
        <time>2011-04-06T16:54:36Z</time>
      </trkpt>
      <trkpt lat="44.34021" lon="2.5108">
        <ele>546</ele>
        <time>2011-04-06T16:54:37Z</time>
      </trkpt>
      <trkpt lat="44.34019" lon="2.51081">
        <ele>546.2</ele>
        <time>2011-04-06T16:54:38Z</time>
      </trkpt>
      <trkpt lat="44.34015" lon="2.51084">
        <ele>546.5</ele>
        <time>2011-04-06T16:54:40Z</time>
      </trkpt>
      <trkpt lat="44.34012" lon="2.51088">
        <ele>547.5</ele>
        <time>2011-04-06T16:54:43Z</time>
      </trkpt>
      <trkpt lat="44.34009" lon="2.51092">
        <ele>548.7</ele>
        <time>2011-04-06T16:54:45Z</time>
      </trkpt>
      <trkpt lat="44.34007" lon="2.51096">
        <ele>549.9</ele>
        <time>2011-04-06T16:54:47Z</time>
      </trkpt>
      <trkpt lat="44.34004" lon="2.51099">
        <ele>550.7</ele>
        <time>2011-04-06T16:54:49Z</time>
      </trkpt>
      <trkpt lat="44.34001" lon="2.51103">
        <ele>551.2</ele>
        <time>2011-04-06T16:54:51Z</time>
      </trkpt>
      <trkpt lat="44.33998" lon="2.51105">
        <ele>552</ele>
        <time>2011-04-06T16:54:53Z</time>
      </trkpt>
      <trkpt lat="44.33994" lon="2.51107">
        <ele>553</ele>
        <time>2011-04-06T16:54:55Z</time>
      </trkpt>
      <trkpt lat="44.33992" lon="2.51108">
        <ele>553.5</ele>
        <time>2011-04-06T16:54:56Z</time>
      </trkpt>
      <trkpt lat="44.33986" lon="2.51112">
        <ele>555.2</ele>
        <time>2011-04-06T16:55:00Z</time>
      </trkpt>
      <trkpt lat="44.33982" lon="2.51112">
        <ele>556.2</ele>
        <time>2011-04-06T16:55:02Z</time>
      </trkpt>
      <trkpt lat="44.33979" lon="2.51114">
        <ele>557.7</ele>
        <time>2011-04-06T16:55:04Z</time>
      </trkpt>
      <trkpt lat="44.33975" lon="2.51114">
        <ele>559.5</ele>
        <time>2011-04-06T16:55:06Z</time>
      </trkpt>
      <trkpt lat="44.33971" lon="2.51114">
        <ele>561.7</ele>
        <time>2011-04-06T16:55:08Z</time>
      </trkpt>
      <trkpt lat="44.33969" lon="2.51113">
        <ele>562.9</ele>
        <time>2011-04-06T16:55:09Z</time>
      </trkpt>
      <trkpt lat="44.33965" lon="2.51112">
        <ele>564.9</ele>
        <time>2011-04-06T16:55:11Z</time>
      </trkpt>
      <trkpt lat="44.33961" lon="2.5111">
        <ele>566.5</ele>
        <time>2011-04-06T16:55:13Z</time>
      </trkpt>
      <trkpt lat="44.33958" lon="2.51109">
        <ele>567.2</ele>
        <time>2011-04-06T16:55:14Z</time>
      </trkpt>
      <trkpt lat="44.33954" lon="2.51108">
        <ele>568.5</ele>
        <time>2011-04-06T16:55:16Z</time>
      </trkpt>
      <trkpt lat="44.3395" lon="2.51107">
        <ele>569.7</ele>
        <time>2011-04-06T16:55:18Z</time>
      </trkpt>
      <trkpt lat="44.33946" lon="2.51105">
        <ele>570.2</ele>
        <time>2011-04-06T16:55:20Z</time>
      </trkpt>
      <trkpt lat="44.33942" lon="2.51103">
        <ele>570.7</ele>
        <time>2011-04-06T16:55:22Z</time>
      </trkpt>
      <trkpt lat="44.3394" lon="2.51102">
        <ele>571</ele>
        <time>2011-04-06T16:55:23Z</time>
      </trkpt>
      <trkpt lat="44.33938" lon="2.51101">
        <ele>571.4</ele>
        <time>2011-04-06T16:55:24Z</time>
      </trkpt>
      <trkpt lat="44.33933" lon="2.51099">
        <ele>572.2</ele>
        <time>2011-04-06T16:55:26Z</time>
      </trkpt>
      <trkpt lat="44.33931" lon="2.51098">
        <ele>572.4</ele>
        <time>2011-04-06T16:55:27Z</time>
      </trkpt>
      <trkpt lat="44.33929" lon="2.51097">
        <ele>572.5</ele>
        <time>2011-04-06T16:55:28Z</time>
      </trkpt>
      <trkpt lat="44.33927" lon="2.51096">
        <ele>572.5</ele>
        <time>2011-04-06T16:55:29Z</time>
      </trkpt>
      <trkpt lat="44.33925" lon="2.51094">
        <ele>572.5</ele>
        <time>2011-04-06T16:55:30Z</time>
      </trkpt>
      <trkpt lat="44.33922" lon="2.51093">
        <ele>572.5</ele>
        <time>2011-04-06T16:55:31Z</time>
      </trkpt>
      <trkpt lat="44.33919" lon="2.51092">
        <ele>572.2</ele>
        <time>2011-04-06T16:55:32Z</time>
      </trkpt>
      <trkpt lat="44.33917" lon="2.51091">
        <ele>572</ele>
        <time>2011-04-06T16:55:33Z</time>
      </trkpt>
      <trkpt lat="44.33915" lon="2.51089">
        <ele>571.5</ele>
        <time>2011-04-06T16:55:34Z</time>
      </trkpt>
      <trkpt lat="44.33912" lon="2.51088">
        <ele>571</ele>
        <time>2011-04-06T16:55:35Z</time>
      </trkpt>
      <trkpt lat="44.3391" lon="2.51087">
        <ele>570.5</ele>
        <time>2011-04-06T16:55:36Z</time>
      </trkpt>
      <trkpt lat="44.33907" lon="2.51085">
        <ele>570</ele>
        <time>2011-04-06T16:55:37Z</time>
      </trkpt>
      <trkpt lat="44.33905" lon="2.51084">
        <ele>569.5</ele>
        <time>2011-04-06T16:55:38Z</time>
      </trkpt>
      <trkpt lat="44.33902" lon="2.51083">
        <ele>569</ele>
        <time>2011-04-06T16:55:39Z</time>
      </trkpt>
      <trkpt lat="44.33898" lon="2.5108">
        <ele>568.2</ele>
        <time>2011-04-06T16:55:41Z</time>
      </trkpt>
      <trkpt lat="44.33894" lon="2.51077">
        <ele>568</ele>
        <time>2011-04-06T16:55:43Z</time>
      </trkpt>
      <trkpt lat="44.33892" lon="2.51076">
        <ele>568.2</ele>
        <time>2011-04-06T16:55:44Z</time>
      </trkpt>
      <trkpt lat="44.3389" lon="2.51074">
        <ele>568.5</ele>
        <time>2011-04-06T16:55:45Z</time>
      </trkpt>
      <trkpt lat="44.33888" lon="2.51072">
        <ele>568.7</ele>
        <time>2011-04-06T16:55:46Z</time>
      </trkpt>
      <trkpt lat="44.33886" lon="2.5107">
        <ele>568.7</ele>
        <time>2011-04-06T16:55:47Z</time>
      </trkpt>
      <trkpt lat="44.33884" lon="2.51069">
        <ele>568.7</ele>
        <time>2011-04-06T16:55:48Z</time>
      </trkpt>
      <trkpt lat="44.33882" lon="2.51067">
        <ele>568.7</ele>
        <time>2011-04-06T16:55:49Z</time>
      </trkpt>
      <trkpt lat="44.33879" lon="2.51065">
        <ele>568.5</ele>
        <time>2011-04-06T16:55:50Z</time>
      </trkpt>
      <trkpt lat="44.33877" lon="2.51064">
        <ele>568.2</ele>
        <time>2011-04-06T16:55:51Z</time>
      </trkpt>
      <trkpt lat="44.33875" lon="2.51062">
        <ele>568</ele>
        <time>2011-04-06T16:55:52Z</time>
      </trkpt>
      <trkpt lat="44.33873" lon="2.5106">
        <ele>567.7</ele>
        <time>2011-04-06T16:55:53Z</time>
      </trkpt>
      <trkpt lat="44.3387" lon="2.51059">
        <ele>567.4</ele>
        <time>2011-04-06T16:55:54Z</time>
      </trkpt>
      <trkpt lat="44.33868" lon="2.51058">
        <ele>567</ele>
        <time>2011-04-06T16:55:55Z</time>
      </trkpt>
      <trkpt lat="44.33865" lon="2.51057">
        <ele>566.7</ele>
        <time>2011-04-06T16:55:56Z</time>
      </trkpt>
      <trkpt lat="44.33863" lon="2.51056">
        <ele>566.2</ele>
        <time>2011-04-06T16:55:57Z</time>
      </trkpt>
      <trkpt lat="44.33861" lon="2.51055">
        <ele>566</ele>
        <time>2011-04-06T16:55:58Z</time>
      </trkpt>
      <trkpt lat="44.33858" lon="2.51055">
        <ele>565.5</ele>
        <time>2011-04-06T16:55:59Z</time>
      </trkpt>
      <trkpt lat="44.33856" lon="2.51055">
        <ele>565.2</ele>
        <time>2011-04-06T16:56:00Z</time>
      </trkpt>
      <trkpt lat="44.33854" lon="2.51056">
        <ele>564.9</ele>
        <time>2011-04-06T16:56:01Z</time>
      </trkpt>
      <trkpt lat="44.33849" lon="2.51057">
        <ele>564.2</ele>
        <time>2011-04-06T16:56:03Z</time>
      </trkpt>
      <trkpt lat="44.33845" lon="2.51059">
        <ele>563.4</ele>
        <time>2011-04-06T16:56:05Z</time>
      </trkpt>
      <trkpt lat="44.33842" lon="2.51062">
        <ele>562.5</ele>
        <time>2011-04-06T16:56:07Z</time>
      </trkpt>
      <trkpt lat="44.33838" lon="2.51065">
        <ele>561.5</ele>
        <time>2011-04-06T16:56:09Z</time>
      </trkpt>
      <trkpt lat="44.33835" lon="2.51068">
        <ele>560.7</ele>
        <time>2011-04-06T16:56:11Z</time>
      </trkpt>
      <trkpt lat="44.33832" lon="2.51073">
        <ele>560</ele>
        <time>2011-04-06T16:56:13Z</time>
      </trkpt>
      <trkpt lat="44.33829" lon="2.51077">
        <ele>559.2</ele>
        <time>2011-04-06T16:56:15Z</time>
      </trkpt>
      <trkpt lat="44.33827" lon="2.51081">
        <ele>558.4</ele>
        <time>2011-04-06T16:56:17Z</time>
      </trkpt>
      <trkpt lat="44.33824" lon="2.51086">
        <ele>557.7</ele>
        <time>2011-04-06T16:56:19Z</time>
      </trkpt>
      <trkpt lat="44.33822" lon="2.5109">
        <ele>557.2</ele>
        <time>2011-04-06T16:56:21Z</time>
      </trkpt>
      <trkpt lat="44.3382" lon="2.51095">
        <ele>556.9</ele>
        <time>2011-04-06T16:56:23Z</time>
      </trkpt>
      <trkpt lat="44.33817" lon="2.51099">
        <ele>556.4</ele>
        <time>2011-04-06T16:56:25Z</time>
      </trkpt>
      <trkpt lat="44.33815" lon="2.51104">
        <ele>556</ele>
        <time>2011-04-06T16:56:27Z</time>
      </trkpt>
      <trkpt lat="44.33813" lon="2.51108">
        <ele>555.5</ele>
        <time>2011-04-06T16:56:29Z</time>
      </trkpt>
      <trkpt lat="44.33811" lon="2.51113">
        <ele>555.2</ele>
        <time>2011-04-06T16:56:31Z</time>
      </trkpt>
      <trkpt lat="44.3381" lon="2.51117">
        <ele>555</ele>
        <time>2011-04-06T16:56:33Z</time>
      </trkpt>
      <trkpt lat="44.33808" lon="2.51121">
        <ele>554.7</ele>
        <time>2011-04-06T16:56:35Z</time>
      </trkpt>
      <trkpt lat="44.33807" lon="2.51125">
        <ele>554.5</ele>
        <time>2011-04-06T16:56:37Z</time>
      </trkpt>
      <trkpt lat="44.33805" lon="2.51129">
        <ele>554.4</ele>
        <time>2011-04-06T16:56:39Z</time>
      </trkpt>
      <trkpt lat="44.33803" lon="2.51134">
        <ele>554.2</ele>
        <time>2011-04-06T16:56:41Z</time>
      </trkpt>
      <trkpt lat="44.33802" lon="2.51139">
        <ele>553.9</ele>
        <time>2011-04-06T16:56:43Z</time>
      </trkpt>
      <trkpt lat="44.33801" lon="2.51144">
        <ele>553.5</ele>
        <time>2011-04-06T16:56:45Z</time>
      </trkpt>
      <trkpt lat="44.338" lon="2.51149">
        <ele>553.2</ele>
        <time>2011-04-06T16:56:47Z</time>
      </trkpt>
      <trkpt lat="44.33799" lon="2.51153">
        <ele>553</ele>
        <time>2011-04-06T16:56:49Z</time>
      </trkpt>
      <trkpt lat="44.33798" lon="2.51158">
        <ele>553</ele>
        <time>2011-04-06T16:56:51Z</time>
      </trkpt>
      <trkpt lat="44.33797" lon="2.51163">
        <ele>553</ele>
        <time>2011-04-06T16:56:53Z</time>
      </trkpt>
      <trkpt lat="44.33796" lon="2.51167">
        <ele>553.2</ele>
        <time>2011-04-06T16:56:55Z</time>
      </trkpt>
      <trkpt lat="44.33795" lon="2.51172">
        <ele>553.4</ele>
        <time>2011-04-06T16:56:57Z</time>
      </trkpt>
      <trkpt lat="44.33795" lon="2.51174">
        <ele>553.5</ele>
        <time>2011-04-06T16:56:58Z</time>
      </trkpt>
      <trkpt lat="44.33794" lon="2.51181">
        <ele>553.7</ele>
        <time>2011-04-06T16:57:01Z</time>
      </trkpt>
      <trkpt lat="44.33793" lon="2.51186">
        <ele>554</ele>
        <time>2011-04-06T16:57:03Z</time>
      </trkpt>
      <trkpt lat="44.33793" lon="2.51191">
        <ele>554.2</ele>
        <time>2011-04-06T16:57:05Z</time>
      </trkpt>
      <trkpt lat="44.33793" lon="2.51196">
        <ele>554.5</ele>
        <time>2011-04-06T16:57:07Z</time>
      </trkpt>
      <trkpt lat="44.33792" lon="2.51202">
        <ele>554.5</ele>
        <time>2011-04-06T16:57:10Z</time>
      </trkpt>
      <trkpt lat="44.33791" lon="2.51206">
        <ele>554.7</ele>
        <time>2011-04-06T16:57:12Z</time>
      </trkpt>
      <trkpt lat="44.3379" lon="2.51211">
        <ele>554.9</ele>
        <time>2011-04-06T16:57:14Z</time>
      </trkpt>
      <trkpt lat="44.33789" lon="2.51215">
        <ele>555</ele>
        <time>2011-04-06T16:57:16Z</time>
      </trkpt>
      <trkpt lat="44.33789" lon="2.5122">
        <ele>555.5</ele>
        <time>2011-04-06T16:57:18Z</time>
      </trkpt>
      <trkpt lat="44.33789" lon="2.51225">
        <ele>555.9</ele>
        <time>2011-04-06T16:57:20Z</time>
      </trkpt>
      <trkpt lat="44.33788" lon="2.51229">
        <ele>556.2</ele>
        <time>2011-04-06T16:57:22Z</time>
      </trkpt>
      <trkpt lat="44.33787" lon="2.51234">
        <ele>556.5</ele>
        <time>2011-04-06T16:57:24Z</time>
      </trkpt>
      <trkpt lat="44.33787" lon="2.51239">
        <ele>556.7</ele>
        <time>2011-04-06T16:57:26Z</time>
      </trkpt>
      <trkpt lat="44.33786" lon="2.51244">
        <ele>556.9</ele>
        <time>2011-04-06T16:57:28Z</time>
      </trkpt>
      <trkpt lat="44.33786" lon="2.51249">
        <ele>557</ele>
        <time>2011-04-06T16:57:30Z</time>
      </trkpt>
      <trkpt lat="44.33785" lon="2.51253">
        <ele>557.2</ele>
        <time>2011-04-06T16:57:32Z</time>
      </trkpt>
      <trkpt lat="44.33784" lon="2.51258">
        <ele>557.4</ele>
        <time>2011-04-06T16:57:34Z</time>
      </trkpt>
      <trkpt lat="44.33783" lon="2.51262">
        <ele>557.4</ele>
        <time>2011-04-06T16:57:36Z</time>
      </trkpt>
      <trkpt lat="44.33782" lon="2.51267">
        <ele>557.5</ele>
        <time>2011-04-06T16:57:38Z</time>
      </trkpt>
      <trkpt lat="44.33781" lon="2.51271">
        <ele>557.7</ele>
        <time>2011-04-06T16:57:40Z</time>
      </trkpt>
      <trkpt lat="44.33781" lon="2.51276">
        <ele>557.7</ele>
        <time>2011-04-06T16:57:42Z</time>
      </trkpt>
      <trkpt lat="44.33779" lon="2.5128">
        <ele>558</ele>
        <time>2011-04-06T16:57:44Z</time>
      </trkpt>
      <trkpt lat="44.33778" lon="2.51284">
        <ele>558.2</ele>
        <time>2011-04-06T16:57:46Z</time>
      </trkpt>
      <trkpt lat="44.33778" lon="2.51289">
        <ele>558.4</ele>
        <time>2011-04-06T16:57:48Z</time>
      </trkpt>
      <trkpt lat="44.33777" lon="2.51294">
        <ele>558.5</ele>
        <time>2011-04-06T16:57:50Z</time>
      </trkpt>
      <trkpt lat="44.33775" lon="2.51298">
        <ele>558.5</ele>
        <time>2011-04-06T16:57:52Z</time>
      </trkpt>
      <trkpt lat="44.33774" lon="2.51303">
        <ele>558.7</ele>
        <time>2011-04-06T16:57:54Z</time>
      </trkpt>
      <trkpt lat="44.33773" lon="2.51308">
        <ele>558.5</ele>
        <time>2011-04-06T16:57:56Z</time>
      </trkpt>
      <trkpt lat="44.33772" lon="2.51312">
        <ele>558.7</ele>
        <time>2011-04-06T16:57:58Z</time>
      </trkpt>
      <trkpt lat="44.33772" lon="2.51315">
        <ele>558.7</ele>
        <time>2011-04-06T16:57:59Z</time>
      </trkpt>
      <trkpt lat="44.33771" lon="2.51321">
        <ele>559</ele>
        <time>2011-04-06T16:58:02Z</time>
      </trkpt>
      <trkpt lat="44.3377" lon="2.51325">
        <ele>559</ele>
        <time>2011-04-06T16:58:04Z</time>
      </trkpt>
      <trkpt lat="44.33769" lon="2.51329">
        <ele>559.2</ele>
        <time>2011-04-06T16:58:06Z</time>
      </trkpt>
      <trkpt lat="44.33768" lon="2.51334">
        <ele>559.2</ele>
        <time>2011-04-06T16:58:08Z</time>
      </trkpt>
      <trkpt lat="44.33767" lon="2.51338">
        <ele>559.5</ele>
        <time>2011-04-06T16:58:10Z</time>
      </trkpt>
      <trkpt lat="44.33766" lon="2.51343">
        <ele>559.7</ele>
        <time>2011-04-06T16:58:12Z</time>
      </trkpt>
      <trkpt lat="44.33765" lon="2.51348">
        <ele>560</ele>
        <time>2011-04-06T16:58:14Z</time>
      </trkpt>
      <trkpt lat="44.33764" lon="2.51353">
        <ele>560.2</ele>
        <time>2011-04-06T16:58:16Z</time>
      </trkpt>
      <trkpt lat="44.33764" lon="2.51358">
        <ele>560.4</ele>
        <time>2011-04-06T16:58:18Z</time>
      </trkpt>
      <trkpt lat="44.33763" lon="2.51363">
        <ele>560.7</ele>
        <time>2011-04-06T16:58:20Z</time>
      </trkpt>
      <trkpt lat="44.33762" lon="2.51367">
        <ele>561</ele>
        <time>2011-04-06T16:58:22Z</time>
      </trkpt>
      <trkpt lat="44.33761" lon="2.51372">
        <ele>561.2</ele>
        <time>2011-04-06T16:58:24Z</time>
      </trkpt>
      <trkpt lat="44.33761" lon="2.51377">
        <ele>561.5</ele>
        <time>2011-04-06T16:58:26Z</time>
      </trkpt>
      <trkpt lat="44.33759" lon="2.51381">
        <ele>561.9</ele>
        <time>2011-04-06T16:58:28Z</time>
      </trkpt>
      <trkpt lat="44.33759" lon="2.51386">
        <ele>562.4</ele>
        <time>2011-04-06T16:58:30Z</time>
      </trkpt>
      <trkpt lat="44.33758" lon="2.51391">
        <ele>562.7</ele>
        <time>2011-04-06T16:58:32Z</time>
      </trkpt>
      <trkpt lat="44.33758" lon="2.51396">
        <ele>562.7</ele>
        <time>2011-04-06T16:58:34Z</time>
      </trkpt>
      <trkpt lat="44.33757" lon="2.514">
        <ele>563.2</ele>
        <time>2011-04-06T16:58:36Z</time>
      </trkpt>
      <trkpt lat="44.33756" lon="2.51404">
        <ele>563.5</ele>
        <time>2011-04-06T16:58:38Z</time>
      </trkpt>
      <trkpt lat="44.33755" lon="2.51409">
        <ele>563.9</ele>
        <time>2011-04-06T16:58:40Z</time>
      </trkpt>
      <trkpt lat="44.33755" lon="2.51414">
        <ele>564.2</ele>
        <time>2011-04-06T16:58:42Z</time>
      </trkpt>
      <trkpt lat="44.33755" lon="2.51419">
        <ele>564.5</ele>
        <time>2011-04-06T16:58:44Z</time>
      </trkpt>
      <trkpt lat="44.33755" lon="2.51424">
        <ele>564.9</ele>
        <time>2011-04-06T16:58:46Z</time>
      </trkpt>
      <trkpt lat="44.33755" lon="2.51429">
        <ele>565</ele>
        <time>2011-04-06T16:58:48Z</time>
      </trkpt>
      <trkpt lat="44.33757" lon="2.51434">
        <ele>565.2</ele>
        <time>2011-04-06T16:58:50Z</time>
      </trkpt>
      <trkpt lat="44.33759" lon="2.51437">
        <ele>565.5</ele>
        <time>2011-04-06T16:58:52Z</time>
      </trkpt>
      <trkpt lat="44.33762" lon="2.51438">
        <ele>566</ele>
        <time>2011-04-06T16:58:54Z</time>
      </trkpt>
      <trkpt lat="44.33767" lon="2.51438">
        <ele>566.7</ele>
        <time>2011-04-06T16:58:57Z</time>
      </trkpt>
      <trkpt lat="44.33769" lon="2.51435">
        <ele>567</ele>
        <time>2011-04-06T16:58:59Z</time>
      </trkpt>
      <trkpt lat="44.3377" lon="2.51434">
        <ele>567.2</ele>
        <time>2011-04-06T16:59:00Z</time>
      </trkpt>
      <trkpt lat="44.33774" lon="2.51429">
        <ele>567.9</ele>
        <time>2011-04-06T16:59:03Z</time>
      </trkpt>
      <trkpt lat="44.33775" lon="2.51425">
        <ele>568.4</ele>
        <time>2011-04-06T16:59:05Z</time>
      </trkpt>
      <trkpt lat="44.33777" lon="2.51421">
        <ele>568.7</ele>
        <time>2011-04-06T16:59:07Z</time>
      </trkpt>
      <trkpt lat="44.33779" lon="2.51417">
        <ele>569.2</ele>
        <time>2011-04-06T16:59:09Z</time>
      </trkpt>
      <trkpt lat="44.33781" lon="2.51413">
        <ele>570</ele>
        <time>2011-04-06T16:59:11Z</time>
      </trkpt>
      <trkpt lat="44.33783" lon="2.51409">
        <ele>570.5</ele>
        <time>2011-04-06T16:59:13Z</time>
      </trkpt>
      <trkpt lat="44.33785" lon="2.51405">
        <ele>571.4</ele>
        <time>2011-04-06T16:59:15Z</time>
      </trkpt>
      <trkpt lat="44.33787" lon="2.51401">
        <ele>572.2</ele>
        <time>2011-04-06T16:59:17Z</time>
      </trkpt>
      <trkpt lat="44.33789" lon="2.51397">
        <ele>572.9</ele>
        <time>2011-04-06T16:59:19Z</time>
      </trkpt>
      <trkpt lat="44.33791" lon="2.51393">
        <ele>573.5</ele>
        <time>2011-04-06T16:59:21Z</time>
      </trkpt>
      <trkpt lat="44.33794" lon="2.51389">
        <ele>574.2</ele>
        <time>2011-04-06T16:59:23Z</time>
      </trkpt>
      <trkpt lat="44.33796" lon="2.51386">
        <ele>574.9</ele>
        <time>2011-04-06T16:59:25Z</time>
      </trkpt>
      <trkpt lat="44.33798" lon="2.51382">
        <ele>575.4</ele>
        <time>2011-04-06T16:59:27Z</time>
      </trkpt>
      <trkpt lat="44.33801" lon="2.51379">
        <ele>575.9</ele>
        <time>2011-04-06T16:59:29Z</time>
      </trkpt>
      <trkpt lat="44.33803" lon="2.51376">
        <ele>576.5</ele>
        <time>2011-04-06T16:59:31Z</time>
      </trkpt>
      <trkpt lat="44.33806" lon="2.51373">
        <ele>577</ele>
        <time>2011-04-06T16:59:33Z</time>
      </trkpt>
      <trkpt lat="44.33809" lon="2.5137">
        <ele>577.7</ele>
        <time>2011-04-06T16:59:35Z</time>
      </trkpt>
      <trkpt lat="44.33811" lon="2.51367">
        <ele>578.5</ele>
        <time>2011-04-06T16:59:37Z</time>
      </trkpt>
      <trkpt lat="44.33814" lon="2.51365">
        <ele>579.2</ele>
        <time>2011-04-06T16:59:39Z</time>
      </trkpt>
      <trkpt lat="44.33817" lon="2.51363">
        <ele>579.5</ele>
        <time>2011-04-06T16:59:41Z</time>
      </trkpt>
      <trkpt lat="44.3382" lon="2.51363">
        <ele>579.5</ele>
        <time>2011-04-06T16:59:43Z</time>
      </trkpt>
      <trkpt lat="44.33823" lon="2.51366">
        <ele>579.7</ele>
        <time>2011-04-06T16:59:45Z</time>
      </trkpt>
      <trkpt lat="44.33823" lon="2.5137">
        <ele>579.9</ele>
        <time>2011-04-06T16:59:47Z</time>
      </trkpt>
      <trkpt lat="44.33823" lon="2.51375">
        <ele>580</ele>
        <time>2011-04-06T16:59:49Z</time>
      </trkpt>
      <trkpt lat="44.33823" lon="2.51379">
        <ele>580</ele>
        <time>2011-04-06T16:59:51Z</time>
      </trkpt>
      <trkpt lat="44.33822" lon="2.51384">
        <ele>580.4</ele>
        <time>2011-04-06T16:59:53Z</time>
      </trkpt>
      <trkpt lat="44.33821" lon="2.51388">
        <ele>580.5</ele>
        <time>2011-04-06T16:59:55Z</time>
      </trkpt>
      <trkpt lat="44.3382" lon="2.51394">
        <ele>580.5</ele>
        <time>2011-04-06T16:59:58Z</time>
      </trkpt>
      <trkpt lat="44.33819" lon="2.51398">
        <ele>580.5</ele>
        <time>2011-04-06T17:00:00Z</time>
      </trkpt>
      <trkpt lat="44.33819" lon="2.51401">
        <ele>580.5</ele>
        <time>2011-04-06T17:00:01Z</time>
      </trkpt>
      <trkpt lat="44.33819" lon="2.51408">
        <ele>580.5</ele>
        <time>2011-04-06T17:00:04Z</time>
      </trkpt>
      <trkpt lat="44.33818" lon="2.51412">
        <ele>580.7</ele>
        <time>2011-04-06T17:00:06Z</time>
      </trkpt>
      <trkpt lat="44.33818" lon="2.51416">
        <ele>580.7</ele>
        <time>2011-04-06T17:00:08Z</time>
      </trkpt>
      <trkpt lat="44.33817" lon="2.51421">
        <ele>580.9</ele>
        <time>2011-04-06T17:00:10Z</time>
      </trkpt>
      <trkpt lat="44.33817" lon="2.51426">
        <ele>581</ele>
        <time>2011-04-06T17:00:12Z</time>
      </trkpt>
      <trkpt lat="44.33817" lon="2.51431">
        <ele>581</ele>
        <time>2011-04-06T17:00:14Z</time>
      </trkpt>
      <trkpt lat="44.33816" lon="2.51436">
        <ele>581</ele>
        <time>2011-04-06T17:00:16Z</time>
      </trkpt>
      <trkpt lat="44.33816" lon="2.5144">
        <ele>581</ele>
        <time>2011-04-06T17:00:18Z</time>
      </trkpt>
      <trkpt lat="44.33817" lon="2.51445">
        <ele>581</ele>
        <time>2011-04-06T17:00:20Z</time>
      </trkpt>
      <trkpt lat="44.33817" lon="2.5145">
        <ele>581.2</ele>
        <time>2011-04-06T17:00:22Z</time>
      </trkpt>
      <trkpt lat="44.33817" lon="2.51454">
        <ele>581.4</ele>
        <time>2011-04-06T17:00:24Z</time>
      </trkpt>
      <trkpt lat="44.33818" lon="2.51459">
        <ele>581.7</ele>
        <time>2011-04-06T17:00:26Z</time>
      </trkpt>
      <trkpt lat="44.33819" lon="2.51463">
        <ele>582</ele>
        <time>2011-04-06T17:00:28Z</time>
      </trkpt>
      <trkpt lat="44.3382" lon="2.51468">
        <ele>582.2</ele>
        <time>2011-04-06T17:00:30Z</time>
      </trkpt>
      <trkpt lat="44.33821" lon="2.51472">
        <ele>582.7</ele>
        <time>2011-04-06T17:00:32Z</time>
      </trkpt>
      <trkpt lat="44.33823" lon="2.51477">
        <ele>583.4</ele>
        <time>2011-04-06T17:00:35Z</time>
      </trkpt>
      <trkpt lat="44.33825" lon="2.51482">
        <ele>583.7</ele>
        <time>2011-04-06T17:00:38Z</time>
      </trkpt>
      <trkpt lat="44.33828" lon="2.51487">
        <ele>584.2</ele>
        <time>2011-04-06T17:00:41Z</time>
      </trkpt>
      <trkpt lat="44.3383" lon="2.51492">
        <ele>584.5</ele>
        <time>2011-04-06T17:00:44Z</time>
      </trkpt>
      <trkpt lat="44.33833" lon="2.51496">
        <ele>585</ele>
        <time>2011-04-06T17:00:47Z</time>
      </trkpt>
      <trkpt lat="44.33836" lon="2.515">
        <ele>585.7</ele>
        <time>2011-04-06T17:00:50Z</time>
      </trkpt>
      <trkpt lat="44.33839" lon="2.51504">
        <ele>586.5</ele>
        <time>2011-04-06T17:00:53Z</time>
      </trkpt>
      <trkpt lat="44.33841" lon="2.51508">
        <ele>587.2</ele>
        <time>2011-04-06T17:00:56Z</time>
      </trkpt>
      <trkpt lat="44.33844" lon="2.51511">
        <ele>587.7</ele>
        <time>2011-04-06T17:00:59Z</time>
      </trkpt>
      <trkpt lat="44.33847" lon="2.51512">
        <ele>588.5</ele>
        <time>2011-04-06T17:01:02Z</time>
      </trkpt>
      <trkpt lat="44.33849" lon="2.51512">
        <ele>588.9</ele>
        <time>2011-04-06T17:01:03Z</time>
      </trkpt>
      <trkpt lat="44.3385" lon="2.51505">
        <ele>590.7</ele>
        <time>2011-04-06T17:01:08Z</time>
      </trkpt>
      <trkpt lat="44.33848" lon="2.51499">
        <ele>591.9</ele>
        <time>2011-04-06T17:01:11Z</time>
      </trkpt>
      <trkpt lat="44.33847" lon="2.51494">
        <ele>593</ele>
        <time>2011-04-06T17:01:14Z</time>
      </trkpt>
      <trkpt lat="44.33848" lon="2.51488">
        <ele>594.2</ele>
        <time>2011-04-06T17:01:17Z</time>
      </trkpt>
      <trkpt lat="44.33849" lon="2.51482">
        <ele>595.2</ele>
        <time>2011-04-06T17:01:20Z</time>
      </trkpt>
      <trkpt lat="44.3385" lon="2.51478">
        <ele>595.7</ele>
        <time>2011-04-06T17:01:23Z</time>
      </trkpt>
      <trkpt lat="44.33852" lon="2.51473">
        <ele>596.2</ele>
        <time>2011-04-06T17:01:26Z</time>
      </trkpt>
      <trkpt lat="44.33856" lon="2.5147">
        <ele>596.2</ele>
        <time>2011-04-06T17:01:29Z</time>
      </trkpt>
      <trkpt lat="44.33859" lon="2.51467">
        <ele>596.7</ele>
        <time>2011-04-06T17:01:32Z</time>
      </trkpt>
      <trkpt lat="44.33863" lon="2.51465">
        <ele>597.2</ele>
        <time>2011-04-06T17:01:35Z</time>
      </trkpt>
      <trkpt lat="44.33867" lon="2.51463">
        <ele>597.5</ele>
        <time>2011-04-06T17:01:38Z</time>
      </trkpt>
      <trkpt lat="44.3387" lon="2.51461">
        <ele>597.7</ele>
        <time>2011-04-06T17:01:40Z</time>
      </trkpt>
      <trkpt lat="44.33873" lon="2.5146">
        <ele>597.9</ele>
        <time>2011-04-06T17:01:42Z</time>
      </trkpt>
      <trkpt lat="44.33877" lon="2.51457">
        <ele>598.5</ele>
        <time>2011-04-06T17:01:45Z</time>
      </trkpt>
      <trkpt lat="44.33881" lon="2.51456">
        <ele>599</ele>
        <time>2011-04-06T17:01:48Z</time>
      </trkpt>
      <trkpt lat="44.33885" lon="2.51455">
        <ele>599.4</ele>
        <time>2011-04-06T17:01:51Z</time>
      </trkpt>
      <trkpt lat="44.33889" lon="2.51454">
        <ele>599.5</ele>
        <time>2011-04-06T17:01:54Z</time>
      </trkpt>
      <trkpt lat="44.33893" lon="2.51452">
        <ele>599.9</ele>
        <time>2011-04-06T17:01:57Z</time>
      </trkpt>
      <trkpt lat="44.33897" lon="2.5145">
        <ele>600.2</ele>
        <time>2011-04-06T17:02:00Z</time>
      </trkpt>
      <trkpt lat="44.339" lon="2.51448">
        <ele>600.9</ele>
        <time>2011-04-06T17:02:03Z</time>
      </trkpt>
      <trkpt lat="44.33902" lon="2.51447">
        <ele>601</ele>
        <time>2011-04-06T17:02:04Z</time>
      </trkpt>
      <trkpt lat="44.33906" lon="2.51447">
        <ele>601.5</ele>
        <time>2011-04-06T17:02:07Z</time>
      </trkpt>
      <trkpt lat="44.33909" lon="2.51448">
        <ele>602</ele>
        <time>2011-04-06T17:02:09Z</time>
      </trkpt>
      <trkpt lat="44.33913" lon="2.5145">
        <ele>602.5</ele>
        <time>2011-04-06T17:02:12Z</time>
      </trkpt>
      <trkpt lat="44.33916" lon="2.51454">
        <ele>603.2</ele>
        <time>2011-04-06T17:02:15Z</time>
      </trkpt>
      <trkpt lat="44.33917" lon="2.5146">
        <ele>604.4</ele>
        <time>2011-04-06T17:02:19Z</time>
      </trkpt>
      <trkpt lat="44.33917" lon="2.51465">
        <ele>605</ele>
        <time>2011-04-06T17:02:22Z</time>
      </trkpt>
      <trkpt lat="44.33918" lon="2.5147">
        <ele>605.2</ele>
        <time>2011-04-06T17:02:25Z</time>
      </trkpt>
      <trkpt lat="44.33918" lon="2.51475">
        <ele>605.5</ele>
        <time>2011-04-06T17:02:27Z</time>
      </trkpt>
      <trkpt lat="44.33918" lon="2.5148">
        <ele>605.7</ele>
        <time>2011-04-06T17:02:29Z</time>
      </trkpt>
      <trkpt lat="44.33918" lon="2.51485">
        <ele>606</ele>
        <time>2011-04-06T17:02:32Z</time>
      </trkpt>
      <trkpt lat="44.33918" lon="2.51491">
        <ele>606.5</ele>
        <time>2011-04-06T17:02:35Z</time>
      </trkpt>
      <trkpt lat="44.33918" lon="2.51497">
        <ele>607</ele>
        <time>2011-04-06T17:02:38Z</time>
      </trkpt>
      <trkpt lat="44.33918" lon="2.51503">
        <ele>607.5</ele>
        <time>2011-04-06T17:02:41Z</time>
      </trkpt>
      <trkpt lat="44.33919" lon="2.51507">
        <ele>607.7</ele>
        <time>2011-04-06T17:02:43Z</time>
      </trkpt>
      <trkpt lat="44.33919" lon="2.51511">
        <ele>608</ele>
        <time>2011-04-06T17:02:45Z</time>
      </trkpt>
      <trkpt lat="44.3392" lon="2.51515">
        <ele>608</ele>
        <time>2011-04-06T17:02:47Z</time>
      </trkpt>
      <trkpt lat="44.33919" lon="2.5152">
        <ele>608.4</ele>
        <time>2011-04-06T17:02:49Z</time>
      </trkpt>
      <trkpt lat="44.33919" lon="2.51524">
        <ele>608.5</ele>
        <time>2011-04-06T17:02:51Z</time>
      </trkpt>
      <trkpt lat="44.3392" lon="2.51528">
        <ele>608.9</ele>
        <time>2011-04-06T17:02:53Z</time>
      </trkpt>
      <trkpt lat="44.33921" lon="2.51532">
        <ele>609</ele>
        <time>2011-04-06T17:02:55Z</time>
      </trkpt>
      <trkpt lat="44.33922" lon="2.51536">
        <ele>609.2</ele>
        <time>2011-04-06T17:02:57Z</time>
      </trkpt>
      <trkpt lat="44.33924" lon="2.51542">
        <ele>609.9</ele>
        <time>2011-04-06T17:03:00Z</time>
      </trkpt>
      <trkpt lat="44.33926" lon="2.51545">
        <ele>610.2</ele>
        <time>2011-04-06T17:03:02Z</time>
      </trkpt>
      <trkpt lat="44.33927" lon="2.51549">
        <ele>610.5</ele>
        <time>2011-04-06T17:03:04Z</time>
      </trkpt>
      <trkpt lat="44.33928" lon="2.51551">
        <ele>610.7</ele>
        <time>2011-04-06T17:03:05Z</time>
      </trkpt>
      <trkpt lat="44.33932" lon="2.51557">
        <ele>611</ele>
        <time>2011-04-06T17:03:09Z</time>
      </trkpt>
      <trkpt lat="44.33934" lon="2.5156">
        <ele>611.4</ele>
        <time>2011-04-06T17:03:11Z</time>
      </trkpt>
      <trkpt lat="44.33937" lon="2.51565">
        <ele>611.7</ele>
        <time>2011-04-06T17:03:14Z</time>
      </trkpt>
      <trkpt lat="44.3394" lon="2.51568">
        <ele>612.2</ele>
        <time>2011-04-06T17:03:16Z</time>
      </trkpt>
      <trkpt lat="44.33943" lon="2.51571">
        <ele>612.5</ele>
        <time>2011-04-06T17:03:18Z</time>
      </trkpt>
      <trkpt lat="44.33945" lon="2.51575">
        <ele>613</ele>
        <time>2011-04-06T17:03:20Z</time>
      </trkpt>
      <trkpt lat="44.33946" lon="2.51579">
        <ele>613.5</ele>
        <time>2011-04-06T17:03:22Z</time>
      </trkpt>
      <trkpt lat="44.33948" lon="2.51583">
        <ele>614</ele>
        <time>2011-04-06T17:03:24Z</time>
      </trkpt>
      <trkpt lat="44.3395" lon="2.51586">
        <ele>614.7</ele>
        <time>2011-04-06T17:03:26Z</time>
      </trkpt>
      <trkpt lat="44.3395" lon="2.5159">
        <ele>615</ele>
        <time>2011-04-06T17:03:28Z</time>
      </trkpt>
      <trkpt lat="44.33951" lon="2.51595">
        <ele>615.5</ele>
        <time>2011-04-06T17:03:30Z</time>
      </trkpt>
      <trkpt lat="44.33952" lon="2.516">
        <ele>615.7</ele>
        <time>2011-04-06T17:03:32Z</time>
      </trkpt>
      <trkpt lat="44.33953" lon="2.51604">
        <ele>616</ele>
        <time>2011-04-06T17:03:34Z</time>
      </trkpt>
      <trkpt lat="44.33953" lon="2.51609">
        <ele>616.2</ele>
        <time>2011-04-06T17:03:36Z</time>
      </trkpt>
      <trkpt lat="44.33954" lon="2.51613">
        <ele>616.7</ele>
        <time>2011-04-06T17:03:38Z</time>
      </trkpt>
      <trkpt lat="44.33955" lon="2.51617">
        <ele>617</ele>
        <time>2011-04-06T17:03:40Z</time>
      </trkpt>
      <trkpt lat="44.33956" lon="2.51621">
        <ele>617.5</ele>
        <time>2011-04-06T17:03:42Z</time>
      </trkpt>
      <trkpt lat="44.33958" lon="2.51625">
        <ele>618.2</ele>
        <time>2011-04-06T17:03:44Z</time>
      </trkpt>
      <trkpt lat="44.33959" lon="2.51631">
        <ele>619.4</ele>
        <time>2011-04-06T17:03:47Z</time>
      </trkpt>
      <trkpt lat="44.33959" lon="2.51636">
        <ele>620</ele>
        <time>2011-04-06T17:03:50Z</time>
      </trkpt>
      <trkpt lat="44.33962" lon="2.51639">
        <ele>620.4</ele>
        <time>2011-04-06T17:03:52Z</time>
      </trkpt>
      <trkpt lat="44.33965" lon="2.51643">
        <ele>620.7</ele>
        <time>2011-04-06T17:03:55Z</time>
      </trkpt>
      <trkpt lat="44.33968" lon="2.51648">
        <ele>621.2</ele>
        <time>2011-04-06T17:03:59Z</time>
      </trkpt>
      <trkpt lat="44.33971" lon="2.5165">
        <ele>621.7</ele>
        <time>2011-04-06T17:04:02Z</time>
      </trkpt>
      <trkpt lat="44.33975" lon="2.51652">
        <ele>622.2</ele>
        <time>2011-04-06T17:04:06Z</time>
      </trkpt>
      <trkpt lat="44.33977" lon="2.51652">
        <ele>622.2</ele>
        <time>2011-04-06T17:04:07Z</time>
      </trkpt>
      <trkpt lat="44.33983" lon="2.51652">
        <ele>622.7</ele>
        <time>2011-04-06T17:04:12Z</time>
      </trkpt>
      <trkpt lat="44.33986" lon="2.51654">
        <ele>623</ele>
        <time>2011-04-06T17:04:15Z</time>
      </trkpt>
      <trkpt lat="44.3399" lon="2.51655">
        <ele>623</ele>
        <time>2011-04-06T17:04:18Z</time>
      </trkpt>
      <trkpt lat="44.33994" lon="2.51658">
        <ele>623</ele>
        <time>2011-04-06T17:04:21Z</time>
      </trkpt>
      <trkpt lat="44.33998" lon="2.5166">
        <ele>623</ele>
        <time>2011-04-06T17:04:24Z</time>
      </trkpt>
      <trkpt lat="44.34001" lon="2.51662">
        <ele>623.2</ele>
        <time>2011-04-06T17:04:26Z</time>
      </trkpt>
      <trkpt lat="44.34004" lon="2.51664">
        <ele>623.2</ele>
        <time>2011-04-06T17:04:28Z</time>
      </trkpt>
      <trkpt lat="44.34008" lon="2.51667">
        <ele>623.2</ele>
        <time>2011-04-06T17:04:31Z</time>
      </trkpt>
      <trkpt lat="44.34012" lon="2.5167">
        <ele>623.5</ele>
        <time>2011-04-06T17:04:34Z</time>
      </trkpt>
      <trkpt lat="44.34015" lon="2.51673">
        <ele>624</ele>
        <time>2011-04-06T17:04:37Z</time>
      </trkpt>
      <trkpt lat="44.34019" lon="2.51676">
        <ele>624.2</ele>
        <time>2011-04-06T17:04:40Z</time>
      </trkpt>
      <trkpt lat="44.34022" lon="2.51678">
        <ele>624.5</ele>
        <time>2011-04-06T17:04:42Z</time>
      </trkpt>
      <trkpt lat="44.34025" lon="2.5168">
        <ele>624.7</ele>
        <time>2011-04-06T17:04:44Z</time>
      </trkpt>
      <trkpt lat="44.34028" lon="2.51682">
        <ele>624.7</ele>
        <time>2011-04-06T17:04:46Z</time>
      </trkpt>
      <trkpt lat="44.3403" lon="2.51685">
        <ele>624.9</ele>
        <time>2011-04-06T17:04:48Z</time>
      </trkpt>
      <trkpt lat="44.34033" lon="2.51687">
        <ele>625</ele>
        <time>2011-04-06T17:04:50Z</time>
      </trkpt>
      <trkpt lat="44.34036" lon="2.51689">
        <ele>625.2</ele>
        <time>2011-04-06T17:04:52Z</time>
      </trkpt>
      <trkpt lat="44.34039" lon="2.51691">
        <ele>625.2</ele>
        <time>2011-04-06T17:04:54Z</time>
      </trkpt>
      <trkpt lat="44.34043" lon="2.51692">
        <ele>625.5</ele>
        <time>2011-04-06T17:04:56Z</time>
      </trkpt>
      <trkpt lat="44.34046" lon="2.51694">
        <ele>625.5</ele>
        <time>2011-04-06T17:04:58Z</time>
      </trkpt>
      <trkpt lat="44.34049" lon="2.51695">
        <ele>625.7</ele>
        <time>2011-04-06T17:05:00Z</time>
      </trkpt>
      <trkpt lat="44.34052" lon="2.51697">
        <ele>625.7</ele>
        <time>2011-04-06T17:05:02Z</time>
      </trkpt>
      <trkpt lat="44.34056" lon="2.51698">
        <ele>625.9</ele>
        <time>2011-04-06T17:05:04Z</time>
      </trkpt>
      <trkpt lat="44.34059" lon="2.51698">
        <ele>625.9</ele>
        <time>2011-04-06T17:05:06Z</time>
      </trkpt>
      <trkpt lat="44.34062" lon="2.517">
        <ele>625.9</ele>
        <time>2011-04-06T17:05:08Z</time>
      </trkpt>
      <trkpt lat="44.34064" lon="2.517">
        <ele>625.9</ele>
        <time>2011-04-06T17:05:09Z</time>
      </trkpt>
      <trkpt lat="44.3407" lon="2.51702">
        <ele>626</ele>
        <time>2011-04-06T17:05:12Z</time>
      </trkpt>
      <trkpt lat="44.34073" lon="2.51703">
        <ele>626</ele>
        <time>2011-04-06T17:05:14Z</time>
      </trkpt>
      <trkpt lat="44.34078" lon="2.51704">
        <ele>626</ele>
        <time>2011-04-06T17:05:16Z</time>
      </trkpt>
      <trkpt lat="44.3408" lon="2.51704">
        <ele>626</ele>
        <time>2011-04-06T17:05:17Z</time>
      </trkpt>
      <trkpt lat="44.34084" lon="2.51705">
        <ele>626.2</ele>
        <time>2011-04-06T17:05:19Z</time>
      </trkpt>
      <trkpt lat="44.34088" lon="2.51706">
        <ele>626.2</ele>
        <time>2011-04-06T17:05:21Z</time>
      </trkpt>
      <trkpt lat="44.34092" lon="2.51707">
        <ele>626.2</ele>
        <time>2011-04-06T17:05:23Z</time>
      </trkpt>
      <trkpt lat="44.34095" lon="2.51709">
        <ele>626.5</ele>
        <time>2011-04-06T17:05:25Z</time>
      </trkpt>
      <trkpt lat="44.34099" lon="2.51712">
        <ele>626.5</ele>
        <time>2011-04-06T17:05:27Z</time>
      </trkpt>
      <trkpt lat="44.34101" lon="2.51713">
        <ele>626.5</ele>
        <time>2011-04-06T17:05:28Z</time>
      </trkpt>
      <trkpt lat="44.34103" lon="2.51715">
        <ele>626.4</ele>
        <time>2011-04-06T17:05:29Z</time>
      </trkpt>
      <trkpt lat="44.34104" lon="2.51718">
        <ele>626.4</ele>
        <time>2011-04-06T17:05:30Z</time>
      </trkpt>
      <trkpt lat="44.34106" lon="2.5172">
        <ele>626.2</ele>
        <time>2011-04-06T17:05:31Z</time>
      </trkpt>
      <trkpt lat="44.34108" lon="2.51723">
        <ele>626.2</ele>
        <time>2011-04-06T17:05:32Z</time>
      </trkpt>
      <trkpt lat="44.34109" lon="2.51725">
        <ele>626.2</ele>
        <time>2011-04-06T17:05:33Z</time>
      </trkpt>
      <trkpt lat="44.34111" lon="2.51728">
        <ele>626</ele>
        <time>2011-04-06T17:05:34Z</time>
      </trkpt>
      <trkpt lat="44.34112" lon="2.51731">
        <ele>626</ele>
        <time>2011-04-06T17:05:35Z</time>
      </trkpt>
      <trkpt lat="44.34114" lon="2.51734">
        <ele>625.9</ele>
        <time>2011-04-06T17:05:36Z</time>
      </trkpt>
      <trkpt lat="44.34115" lon="2.51737">
        <ele>625.7</ele>
        <time>2011-04-06T17:05:37Z</time>
      </trkpt>
      <trkpt lat="44.34117" lon="2.5174">
        <ele>625.5</ele>
        <time>2011-04-06T17:05:38Z</time>
      </trkpt>
      <trkpt lat="44.34118" lon="2.51743">
        <ele>625.5</ele>
        <time>2011-04-06T17:05:39Z</time>
      </trkpt>
      <trkpt lat="44.3412" lon="2.51746">
        <ele>625.2</ele>
        <time>2011-04-06T17:05:40Z</time>
      </trkpt>
      <trkpt lat="44.34121" lon="2.51749">
        <ele>625.2</ele>
        <time>2011-04-06T17:05:41Z</time>
      </trkpt>
      <trkpt lat="44.34123" lon="2.51752">
        <ele>625</ele>
        <time>2011-04-06T17:05:42Z</time>
      </trkpt>
      <trkpt lat="44.34125" lon="2.51754">
        <ele>624.9</ele>
        <time>2011-04-06T17:05:43Z</time>
      </trkpt>
      <trkpt lat="44.34127" lon="2.51757">
        <ele>624.7</ele>
        <time>2011-04-06T17:05:44Z</time>
      </trkpt>
      <trkpt lat="44.34129" lon="2.51759">
        <ele>624.7</ele>
        <time>2011-04-06T17:05:45Z</time>
      </trkpt>
      <trkpt lat="44.34132" lon="2.51762">
        <ele>624.5</ele>
        <time>2011-04-06T17:05:46Z</time>
      </trkpt>
      <trkpt lat="44.34134" lon="2.51765">
        <ele>624.5</ele>
        <time>2011-04-06T17:05:47Z</time>
      </trkpt>
      <trkpt lat="44.34137" lon="2.51768">
        <ele>624.5</ele>
        <time>2011-04-06T17:05:48Z</time>
      </trkpt>
      <trkpt lat="44.3414" lon="2.51771">
        <ele>624.4</ele>
        <time>2011-04-06T17:05:49Z</time>
      </trkpt>
      <trkpt lat="44.34143" lon="2.51774">
        <ele>624.2</ele>
        <time>2011-04-06T17:05:50Z</time>
      </trkpt>
      <trkpt lat="44.34146" lon="2.51776">
        <ele>624.2</ele>
        <time>2011-04-06T17:05:51Z</time>
      </trkpt>
      <trkpt lat="44.34149" lon="2.51779">
        <ele>624.2</ele>
        <time>2011-04-06T17:05:52Z</time>
      </trkpt>
      <trkpt lat="44.34152" lon="2.51782">
        <ele>624.2</ele>
        <time>2011-04-06T17:05:53Z</time>
      </trkpt>
      <trkpt lat="44.34155" lon="2.51785">
        <ele>624.2</ele>
        <time>2011-04-06T17:05:54Z</time>
      </trkpt>
      <trkpt lat="44.34158" lon="2.51788">
        <ele>624</ele>
        <time>2011-04-06T17:05:55Z</time>
      </trkpt>
      <trkpt lat="44.34161" lon="2.51791">
        <ele>623.7</ele>
        <time>2011-04-06T17:05:56Z</time>
      </trkpt>
      <trkpt lat="44.34164" lon="2.51794">
        <ele>623.7</ele>
        <time>2011-04-06T17:05:57Z</time>
      </trkpt>
      <trkpt lat="44.34167" lon="2.51798">
        <ele>623.7</ele>
        <time>2011-04-06T17:05:58Z</time>
      </trkpt>
      <trkpt lat="44.34171" lon="2.518">
        <ele>623.5</ele>
        <time>2011-04-06T17:05:59Z</time>
      </trkpt>
      <trkpt lat="44.34174" lon="2.51803">
        <ele>623.5</ele>
        <time>2011-04-06T17:06:00Z</time>
      </trkpt>
      <trkpt lat="44.34177" lon="2.51806">
        <ele>623.4</ele>
        <time>2011-04-06T17:06:01Z</time>
      </trkpt>
      <trkpt lat="44.3418" lon="2.51809">
        <ele>623.2</ele>
        <time>2011-04-06T17:06:02Z</time>
      </trkpt>
      <trkpt lat="44.34183" lon="2.51812">
        <ele>623</ele>
        <time>2011-04-06T17:06:03Z</time>
      </trkpt>
      <trkpt lat="44.34186" lon="2.51815">
        <ele>623</ele>
        <time>2011-04-06T17:06:04Z</time>
      </trkpt>
      <trkpt lat="44.34189" lon="2.51818">
        <ele>622.9</ele>
        <time>2011-04-06T17:06:05Z</time>
      </trkpt>
      <trkpt lat="44.34192" lon="2.51821">
        <ele>622.7</ele>
        <time>2011-04-06T17:06:06Z</time>
      </trkpt>
      <trkpt lat="44.34195" lon="2.51824">
        <ele>622.7</ele>
        <time>2011-04-06T17:06:07Z</time>
      </trkpt>
      <trkpt lat="44.34199" lon="2.51826">
        <ele>622.5</ele>
        <time>2011-04-06T17:06:08Z</time>
      </trkpt>
      <trkpt lat="44.34202" lon="2.51829">
        <ele>622.5</ele>
        <time>2011-04-06T17:06:09Z</time>
      </trkpt>
      <trkpt lat="44.34205" lon="2.51832">
        <ele>622.5</ele>
        <time>2011-04-06T17:06:10Z</time>
      </trkpt>
      <trkpt lat="44.34208" lon="2.51835">
        <ele>622.4</ele>
        <time>2011-04-06T17:06:11Z</time>
      </trkpt>
      <trkpt lat="44.34211" lon="2.51837">
        <ele>622.2</ele>
        <time>2011-04-06T17:06:12Z</time>
      </trkpt>
      <trkpt lat="44.34214" lon="2.5184">
        <ele>622.2</ele>
        <time>2011-04-06T17:06:13Z</time>
      </trkpt>
      <trkpt lat="44.34218" lon="2.51843">
        <ele>622.2</ele>
        <time>2011-04-06T17:06:14Z</time>
      </trkpt>
      <trkpt lat="44.34221" lon="2.51846">
        <ele>622.2</ele>
        <time>2011-04-06T17:06:15Z</time>
      </trkpt>
      <trkpt lat="44.34224" lon="2.51849">
        <ele>622</ele>
        <time>2011-04-06T17:06:16Z</time>
      </trkpt>
      <trkpt lat="44.34227" lon="2.51852">
        <ele>622.2</ele>
        <time>2011-04-06T17:06:17Z</time>
      </trkpt>
      <trkpt lat="44.3423" lon="2.51854">
        <ele>622.2</ele>
        <time>2011-04-06T17:06:18Z</time>
      </trkpt>
      <trkpt lat="44.34233" lon="2.51857">
        <ele>622.2</ele>
        <time>2011-04-06T17:06:19Z</time>
      </trkpt>
      <trkpt lat="44.34236" lon="2.5186">
        <ele>622.2</ele>
        <time>2011-04-06T17:06:20Z</time>
      </trkpt>
      <trkpt lat="44.3424" lon="2.51863">
        <ele>622.2</ele>
        <time>2011-04-06T17:06:21Z</time>
      </trkpt>
      <trkpt lat="44.34243" lon="2.51865">
        <ele>622.2</ele>
        <time>2011-04-06T17:06:22Z</time>
      </trkpt>
      <trkpt lat="44.34246" lon="2.51867">
        <ele>622.2</ele>
        <time>2011-04-06T17:06:23Z</time>
      </trkpt>
      <trkpt lat="44.3425" lon="2.51869">
        <ele>622.2</ele>
        <time>2011-04-06T17:06:24Z</time>
      </trkpt>
      <trkpt lat="44.34254" lon="2.51871">
        <ele>622.2</ele>
        <time>2011-04-06T17:06:25Z</time>
      </trkpt>
      <trkpt lat="44.34257" lon="2.51873">
        <ele>622.2</ele>
        <time>2011-04-06T17:06:26Z</time>
      </trkpt>
      <trkpt lat="44.34261" lon="2.51875">
        <ele>622.2</ele>
        <time>2011-04-06T17:06:27Z</time>
      </trkpt>
      <trkpt lat="44.34265" lon="2.51876">
        <ele>622.2</ele>
        <time>2011-04-06T17:06:28Z</time>
      </trkpt>
      <trkpt lat="44.34269" lon="2.51876">
        <ele>622.2</ele>
        <time>2011-04-06T17:06:29Z</time>
      </trkpt>
      <trkpt lat="44.34273" lon="2.51877">
        <ele>622</ele>
        <time>2011-04-06T17:06:30Z</time>
      </trkpt>
      <trkpt lat="44.34277" lon="2.51877">
        <ele>622</ele>
        <time>2011-04-06T17:06:31Z</time>
      </trkpt>
      <trkpt lat="44.3428" lon="2.51876">
        <ele>622</ele>
        <time>2011-04-06T17:06:32Z</time>
      </trkpt>
      <trkpt lat="44.34284" lon="2.51876">
        <ele>622</ele>
        <time>2011-04-06T17:06:33Z</time>
      </trkpt>
      <trkpt lat="44.34288" lon="2.51875">
        <ele>622</ele>
        <time>2011-04-06T17:06:34Z</time>
      </trkpt>
      <trkpt lat="44.34292" lon="2.51875">
        <ele>622</ele>
        <time>2011-04-06T17:06:35Z</time>
      </trkpt>
      <trkpt lat="44.34296" lon="2.51875">
        <ele>622</ele>
        <time>2011-04-06T17:06:36Z</time>
      </trkpt>
      <trkpt lat="44.343" lon="2.51874">
        <ele>622.2</ele>
        <time>2011-04-06T17:06:37Z</time>
      </trkpt>
      <trkpt lat="44.34304" lon="2.51873">
        <ele>622.2</ele>
        <time>2011-04-06T17:06:38Z</time>
      </trkpt>
      <trkpt lat="44.34308" lon="2.51873">
        <ele>622.2</ele>
        <time>2011-04-06T17:06:39Z</time>
      </trkpt>
      <trkpt lat="44.34312" lon="2.51872">
        <ele>622.2</ele>
        <time>2011-04-06T17:06:40Z</time>
      </trkpt>
      <trkpt lat="44.34316" lon="2.51871">
        <ele>622.5</ele>
        <time>2011-04-06T17:06:41Z</time>
      </trkpt>
      <trkpt lat="44.3432" lon="2.51871">
        <ele>622.5</ele>
        <time>2011-04-06T17:06:42Z</time>
      </trkpt>
      <trkpt lat="44.34324" lon="2.5187">
        <ele>622.7</ele>
        <time>2011-04-06T17:06:43Z</time>
      </trkpt>
      <trkpt lat="44.34328" lon="2.5187">
        <ele>623</ele>
        <time>2011-04-06T17:06:44Z</time>
      </trkpt>
      <trkpt lat="44.34331" lon="2.51869">
        <ele>623.2</ele>
        <time>2011-04-06T17:06:45Z</time>
      </trkpt>
      <trkpt lat="44.34335" lon="2.51869">
        <ele>623.5</ele>
        <time>2011-04-06T17:06:46Z</time>
      </trkpt>
      <trkpt lat="44.34339" lon="2.51868">
        <ele>623.5</ele>
        <time>2011-04-06T17:06:47Z</time>
      </trkpt>
      <trkpt lat="44.34342" lon="2.51868">
        <ele>623.7</ele>
        <time>2011-04-06T17:06:48Z</time>
      </trkpt>
      <trkpt lat="44.34346" lon="2.51868">
        <ele>623.9</ele>
        <time>2011-04-06T17:06:49Z</time>
      </trkpt>
      <trkpt lat="44.34349" lon="2.51868">
        <ele>623.9</ele>
        <time>2011-04-06T17:06:50Z</time>
      </trkpt>
      <trkpt lat="44.34352" lon="2.51867">
        <ele>624</ele>
        <time>2011-04-06T17:06:51Z</time>
      </trkpt>
      <trkpt lat="44.34355" lon="2.51866">
        <ele>624.2</ele>
        <time>2011-04-06T17:06:52Z</time>
      </trkpt>
      <trkpt lat="44.34358" lon="2.51865">
        <ele>624.5</ele>
        <time>2011-04-06T17:06:53Z</time>
      </trkpt>
      <trkpt lat="44.34361" lon="2.51864">
        <ele>624.9</ele>
        <time>2011-04-06T17:06:54Z</time>
      </trkpt>
      <trkpt lat="44.34363" lon="2.51862">
        <ele>625.2</ele>
        <time>2011-04-06T17:06:55Z</time>
      </trkpt>
      <trkpt lat="44.34366" lon="2.51861">
        <ele>625.7</ele>
        <time>2011-04-06T17:06:56Z</time>
      </trkpt>
      <trkpt lat="44.34368" lon="2.5186">
        <ele>626.2</ele>
        <time>2011-04-06T17:06:57Z</time>
      </trkpt>
      <trkpt lat="44.34371" lon="2.51859">
        <ele>626.5</ele>
        <time>2011-04-06T17:06:58Z</time>
      </trkpt>
      <trkpt lat="44.34374" lon="2.51858">
        <ele>626.7</ele>
        <time>2011-04-06T17:06:59Z</time>
      </trkpt>
      <trkpt lat="44.34378" lon="2.51858">
        <ele>626.9</ele>
        <time>2011-04-06T17:07:00Z</time>
      </trkpt>
      <trkpt lat="44.34383" lon="2.51859">
        <ele>627</ele>
        <time>2011-04-06T17:07:01Z</time>
      </trkpt>
      <trkpt lat="44.34388" lon="2.5186">
        <ele>627.4</ele>
        <time>2011-04-06T17:07:02Z</time>
      </trkpt>
      <trkpt lat="44.34392" lon="2.5186">
        <ele>627.7</ele>
        <time>2011-04-06T17:07:03Z</time>
      </trkpt>
      <trkpt lat="44.34396" lon="2.5186">
        <ele>627.7</ele>
        <time>2011-04-06T17:07:04Z</time>
      </trkpt>
      <trkpt lat="44.34399" lon="2.51857">
        <ele>627.2</ele>
        <time>2011-04-06T17:07:05Z</time>
      </trkpt>
      <trkpt lat="44.34403" lon="2.51854">
        <ele>627</ele>
        <time>2011-04-06T17:07:06Z</time>
      </trkpt>
      <trkpt lat="44.34406" lon="2.51852">
        <ele>626.9</ele>
        <time>2011-04-06T17:07:07Z</time>
      </trkpt>
      <trkpt lat="44.3441" lon="2.5185">
        <ele>626.9</ele>
        <time>2011-04-06T17:07:08Z</time>
      </trkpt>
      <trkpt lat="44.34414" lon="2.51848">
        <ele>626.7</ele>
        <time>2011-04-06T17:07:09Z</time>
      </trkpt>
      <trkpt lat="44.34417" lon="2.51845">
        <ele>626.5</ele>
        <time>2011-04-06T17:07:10Z</time>
      </trkpt>
      <trkpt lat="44.34419" lon="2.51841">
        <ele>626.5</ele>
        <time>2011-04-06T17:07:11Z</time>
      </trkpt>
      <trkpt lat="44.34421" lon="2.51837">
        <ele>626.2</ele>
        <time>2011-04-06T17:07:12Z</time>
      </trkpt>
      <trkpt lat="44.34422" lon="2.51833">
        <ele>626.2</ele>
        <time>2011-04-06T17:07:13Z</time>
      </trkpt>
      <trkpt lat="44.34423" lon="2.51828">
        <ele>626</ele>
        <time>2011-04-06T17:07:14Z</time>
      </trkpt>
      <trkpt lat="44.34424" lon="2.51824">
        <ele>625.7</ele>
        <time>2011-04-06T17:07:15Z</time>
      </trkpt>
      <trkpt lat="44.34426" lon="2.51819">
        <ele>625.5</ele>
        <time>2011-04-06T17:07:16Z</time>
      </trkpt>
      <trkpt lat="44.34428" lon="2.51814">
        <ele>625.5</ele>
        <time>2011-04-06T17:07:17Z</time>
      </trkpt>
      <trkpt lat="44.34432" lon="2.51812">
        <ele>625.7</ele>
        <time>2011-04-06T17:07:18Z</time>
      </trkpt>
      <trkpt lat="44.34435" lon="2.5181">
        <ele>626.2</ele>
        <time>2011-04-06T17:07:19Z</time>
      </trkpt>
      <trkpt lat="44.34437" lon="2.51808">
        <ele>626</ele>
        <time>2011-04-06T17:07:20Z</time>
      </trkpt>
      <trkpt lat="44.34441" lon="2.51805">
        <ele>625.7</ele>
        <time>2011-04-06T17:07:21Z</time>
      </trkpt>
      <trkpt lat="44.34443" lon="2.51802">
        <ele>625.5</ele>
        <time>2011-04-06T17:07:22Z</time>
      </trkpt>
      <trkpt lat="44.34446" lon="2.51799">
        <ele>625</ele>
        <time>2011-04-06T17:07:23Z</time>
      </trkpt>
      <trkpt lat="44.34449" lon="2.51796">
        <ele>625.2</ele>
        <time>2011-04-06T17:07:24Z</time>
      </trkpt>
      <trkpt lat="44.34452" lon="2.51792">
        <ele>625.4</ele>
        <time>2011-04-06T17:07:25Z</time>
      </trkpt>
      <trkpt lat="44.34455" lon="2.51788">
        <ele>625.5</ele>
        <time>2011-04-06T17:07:26Z</time>
      </trkpt>
      <trkpt lat="44.34458" lon="2.51784">
        <ele>625.4</ele>
        <time>2011-04-06T17:07:27Z</time>
      </trkpt>
      <trkpt lat="44.34462" lon="2.51779">
        <ele>625.5</ele>
        <time>2011-04-06T17:07:28Z</time>
      </trkpt>
      <trkpt lat="44.34466" lon="2.51774">
        <ele>625.5</ele>
        <time>2011-04-06T17:07:29Z</time>
      </trkpt>
      <trkpt lat="44.34469" lon="2.51769">
        <ele>625.4</ele>
        <time>2011-04-06T17:07:30Z</time>
      </trkpt>
      <trkpt lat="44.34473" lon="2.51764">
        <ele>625.4</ele>
        <time>2011-04-06T17:07:31Z</time>
      </trkpt>
      <trkpt lat="44.34477" lon="2.51758">
        <ele>625.2</ele>
        <time>2011-04-06T17:07:32Z</time>
      </trkpt>
      <trkpt lat="44.3448" lon="2.51753">
        <ele>625.2</ele>
        <time>2011-04-06T17:07:33Z</time>
      </trkpt>
      <trkpt lat="44.34484" lon="2.51748">
        <ele>625.2</ele>
        <time>2011-04-06T17:07:34Z</time>
      </trkpt>
      <trkpt lat="44.34488" lon="2.51742">
        <ele>625.2</ele>
        <time>2011-04-06T17:07:35Z</time>
      </trkpt>
      <trkpt lat="44.34491" lon="2.51737">
        <ele>625.2</ele>
        <time>2011-04-06T17:07:36Z</time>
      </trkpt>
      <trkpt lat="44.34494" lon="2.51731">
        <ele>625.2</ele>
        <time>2011-04-06T17:07:37Z</time>
      </trkpt>
      <trkpt lat="44.34498" lon="2.51726">
        <ele>625</ele>
        <time>2011-04-06T17:07:38Z</time>
      </trkpt>
      <trkpt lat="44.34501" lon="2.51721">
        <ele>625</ele>
        <time>2011-04-06T17:07:39Z</time>
      </trkpt>
      <trkpt lat="44.34504" lon="2.51715">
        <ele>624.9</ele>
        <time>2011-04-06T17:07:40Z</time>
      </trkpt>
      <trkpt lat="44.34507" lon="2.5171">
        <ele>624.7</ele>
        <time>2011-04-06T17:07:41Z</time>
      </trkpt>
      <trkpt lat="44.3451" lon="2.51705">
        <ele>624.7</ele>
        <time>2011-04-06T17:07:42Z</time>
      </trkpt>
      <trkpt lat="44.34513" lon="2.51701">
        <ele>624.7</ele>
        <time>2011-04-06T17:07:43Z</time>
      </trkpt>
      <trkpt lat="44.34516" lon="2.51696">
        <ele>624.9</ele>
        <time>2011-04-06T17:07:44Z</time>
      </trkpt>
      <trkpt lat="44.34519" lon="2.51692">
        <ele>624.9</ele>
        <time>2011-04-06T17:07:45Z</time>
      </trkpt>
      <trkpt lat="44.34522" lon="2.51688">
        <ele>625</ele>
        <time>2011-04-06T17:07:46Z</time>
      </trkpt>
      <trkpt lat="44.34524" lon="2.51684">
        <ele>625.2</ele>
        <time>2011-04-06T17:07:47Z</time>
      </trkpt>
      <trkpt lat="44.34527" lon="2.51681">
        <ele>625.5</ele>
        <time>2011-04-06T17:07:48Z</time>
      </trkpt>
      <trkpt lat="44.3453" lon="2.51678">
        <ele>625.9</ele>
        <time>2011-04-06T17:07:49Z</time>
      </trkpt>
      <trkpt lat="44.34532" lon="2.51674">
        <ele>626.2</ele>
        <time>2011-04-06T17:07:50Z</time>
      </trkpt>
      <trkpt lat="44.34535" lon="2.51671">
        <ele>626.5</ele>
        <time>2011-04-06T17:07:51Z</time>
      </trkpt>
      <trkpt lat="44.34537" lon="2.51668">
        <ele>626.7</ele>
        <time>2011-04-06T17:07:52Z</time>
      </trkpt>
      <trkpt lat="44.34539" lon="2.51665">
        <ele>626.9</ele>
        <time>2011-04-06T17:07:53Z</time>
      </trkpt>
      <trkpt lat="44.34541" lon="2.51663">
        <ele>627</ele>
        <time>2011-04-06T17:07:54Z</time>
      </trkpt>
      <trkpt lat="44.34544" lon="2.51659">
        <ele>627.4</ele>
        <time>2011-04-06T17:07:56Z</time>
      </trkpt>
      <trkpt lat="44.34548" lon="2.51655">
        <ele>627.7</ele>
        <time>2011-04-06T17:07:58Z</time>
      </trkpt>
      <trkpt lat="44.34548" lon="2.51652">
        <ele>627.7</ele>
        <time>2011-04-06T17:07:59Z</time>
      </trkpt>
      <trkpt lat="44.34549" lon="2.51649">
        <ele>628</ele>
        <time>2011-04-06T17:08:00Z</time>
      </trkpt>
      <trkpt lat="44.34548" lon="2.51645">
        <ele>628.2</ele>
        <time>2011-04-06T17:08:01Z</time>
      </trkpt>
      <trkpt lat="44.34548" lon="2.51641">
        <ele>628.5</ele>
        <time>2011-04-06T17:08:02Z</time>
      </trkpt>
      <trkpt lat="44.34548" lon="2.51638">
        <ele>628.5</ele>
        <time>2011-04-06T17:08:03Z</time>
      </trkpt>
      <trkpt lat="44.34547" lon="2.51634">
        <ele>628.7</ele>
        <time>2011-04-06T17:08:04Z</time>
      </trkpt>
      <trkpt lat="44.34547" lon="2.5163">
        <ele>628.7</ele>
        <time>2011-04-06T17:08:05Z</time>
      </trkpt>
      <trkpt lat="44.34546" lon="2.51626">
        <ele>628.7</ele>
        <time>2011-04-06T17:08:06Z</time>
      </trkpt>
      <trkpt lat="44.34545" lon="2.51622">
        <ele>628.7</ele>
        <time>2011-04-06T17:08:07Z</time>
      </trkpt>
      <trkpt lat="44.34545" lon="2.51619">
        <ele>628.7</ele>
        <time>2011-04-06T17:08:08Z</time>
      </trkpt>
      <trkpt lat="44.34544" lon="2.51615">
        <ele>628.7</ele>
        <time>2011-04-06T17:08:09Z</time>
      </trkpt>
      <trkpt lat="44.34543" lon="2.51611">
        <ele>628.7</ele>
        <time>2011-04-06T17:08:10Z</time>
      </trkpt>
      <trkpt lat="44.34543" lon="2.51607">
        <ele>628.7</ele>
        <time>2011-04-06T17:08:11Z</time>
      </trkpt>
      <trkpt lat="44.34542" lon="2.51603">
        <ele>628.5</ele>
        <time>2011-04-06T17:08:12Z</time>
      </trkpt>
      <trkpt lat="44.34542" lon="2.51599">
        <ele>628.5</ele>
        <time>2011-04-06T17:08:13Z</time>
      </trkpt>
      <trkpt lat="44.34541" lon="2.51595">
        <ele>628.5</ele>
        <time>2011-04-06T17:08:14Z</time>
      </trkpt>
      <trkpt lat="44.3454" lon="2.51591">
        <ele>628.4</ele>
        <time>2011-04-06T17:08:15Z</time>
      </trkpt>
      <trkpt lat="44.3454" lon="2.51587">
        <ele>628.4</ele>
        <time>2011-04-06T17:08:16Z</time>
      </trkpt>
      <trkpt lat="44.34539" lon="2.51583">
        <ele>628.2</ele>
        <time>2011-04-06T17:08:17Z</time>
      </trkpt>
      <trkpt lat="44.34538" lon="2.51579">
        <ele>628.2</ele>
        <time>2011-04-06T17:08:18Z</time>
      </trkpt>
      <trkpt lat="44.34538" lon="2.51575">
        <ele>628.2</ele>
        <time>2011-04-06T17:08:19Z</time>
      </trkpt>
      <trkpt lat="44.34537" lon="2.51572">
        <ele>628.2</ele>
        <time>2011-04-06T17:08:20Z</time>
      </trkpt>
      <trkpt lat="44.34537" lon="2.51568">
        <ele>628.2</ele>
        <time>2011-04-06T17:08:21Z</time>
      </trkpt>
      <trkpt lat="44.34536" lon="2.51564">
        <ele>628.2</ele>
        <time>2011-04-06T17:08:22Z</time>
      </trkpt>
      <trkpt lat="44.34536" lon="2.5156">
        <ele>628</ele>
        <time>2011-04-06T17:08:23Z</time>
      </trkpt>
      <trkpt lat="44.34536" lon="2.51556">
        <ele>628</ele>
        <time>2011-04-06T17:08:24Z</time>
      </trkpt>
      <trkpt lat="44.34535" lon="2.51552">
        <ele>628</ele>
        <time>2011-04-06T17:08:25Z</time>
      </trkpt>
      <trkpt lat="44.34534" lon="2.51547">
        <ele>628</ele>
        <time>2011-04-06T17:08:26Z</time>
      </trkpt>
      <trkpt lat="44.34534" lon="2.51543">
        <ele>628</ele>
        <time>2011-04-06T17:08:27Z</time>
      </trkpt>
      <trkpt lat="44.34534" lon="2.51539">
        <ele>628</ele>
        <time>2011-04-06T17:08:28Z</time>
      </trkpt>
      <trkpt lat="44.34533" lon="2.51534">
        <ele>628.2</ele>
        <time>2011-04-06T17:08:29Z</time>
      </trkpt>
      <trkpt lat="44.34533" lon="2.5153">
        <ele>628.2</ele>
        <time>2011-04-06T17:08:30Z</time>
      </trkpt>
      <trkpt lat="44.34532" lon="2.51526">
        <ele>628.4</ele>
        <time>2011-04-06T17:08:31Z</time>
      </trkpt>
      <trkpt lat="44.34531" lon="2.51521">
        <ele>628.4</ele>
        <time>2011-04-06T17:08:32Z</time>
      </trkpt>
      <trkpt lat="44.34531" lon="2.51517">
        <ele>628.4</ele>
        <time>2011-04-06T17:08:33Z</time>
      </trkpt>
      <trkpt lat="44.3453" lon="2.51512">
        <ele>628.5</ele>
        <time>2011-04-06T17:08:34Z</time>
      </trkpt>
      <trkpt lat="44.3453" lon="2.51508">
        <ele>628.5</ele>
        <time>2011-04-06T17:08:35Z</time>
      </trkpt>
      <trkpt lat="44.34529" lon="2.51503">
        <ele>628.5</ele>
        <time>2011-04-06T17:08:36Z</time>
      </trkpt>
      <trkpt lat="44.34528" lon="2.51498">
        <ele>628.5</ele>
        <time>2011-04-06T17:08:37Z</time>
      </trkpt>
      <trkpt lat="44.34528" lon="2.51494">
        <ele>628.5</ele>
        <time>2011-04-06T17:08:38Z</time>
      </trkpt>
      <trkpt lat="44.34527" lon="2.51489">
        <ele>628.5</ele>
        <time>2011-04-06T17:08:39Z</time>
      </trkpt>
      <trkpt lat="44.34526" lon="2.51485">
        <ele>628.7</ele>
        <time>2011-04-06T17:08:40Z</time>
      </trkpt>
      <trkpt lat="44.34526" lon="2.51481">
        <ele>628.7</ele>
        <time>2011-04-06T17:08:41Z</time>
      </trkpt>
      <trkpt lat="44.34525" lon="2.51476">
        <ele>628.9</ele>
        <time>2011-04-06T17:08:42Z</time>
      </trkpt>
      <trkpt lat="44.34524" lon="2.51472">
        <ele>629</ele>
        <time>2011-04-06T17:08:43Z</time>
      </trkpt>
      <trkpt lat="44.34523" lon="2.51468">
        <ele>629</ele>
        <time>2011-04-06T17:08:44Z</time>
      </trkpt>
      <trkpt lat="44.34523" lon="2.51464">
        <ele>629</ele>
        <time>2011-04-06T17:08:45Z</time>
      </trkpt>
      <trkpt lat="44.34522" lon="2.5146">
        <ele>629.2</ele>
        <time>2011-04-06T17:08:46Z</time>
      </trkpt>
      <trkpt lat="44.34521" lon="2.51455">
        <ele>629.2</ele>
        <time>2011-04-06T17:08:47Z</time>
      </trkpt>
      <trkpt lat="44.3452" lon="2.51451">
        <ele>629.4</ele>
        <time>2011-04-06T17:08:48Z</time>
      </trkpt>
      <trkpt lat="44.34519" lon="2.51447">
        <ele>629.5</ele>
        <time>2011-04-06T17:08:49Z</time>
      </trkpt>
      <trkpt lat="44.34518" lon="2.51443">
        <ele>629.5</ele>
        <time>2011-04-06T17:08:50Z</time>
      </trkpt>
      <trkpt lat="44.34517" lon="2.51438">
        <ele>629.5</ele>
        <time>2011-04-06T17:08:51Z</time>
      </trkpt>
      <trkpt lat="44.34516" lon="2.51434">
        <ele>629.5</ele>
        <time>2011-04-06T17:08:52Z</time>
      </trkpt>
      <trkpt lat="44.34515" lon="2.51429">
        <ele>629.5</ele>
        <time>2011-04-06T17:08:53Z</time>
      </trkpt>
      <trkpt lat="44.34514" lon="2.51425">
        <ele>629.4</ele>
        <time>2011-04-06T17:08:54Z</time>
      </trkpt>
      <trkpt lat="44.34513" lon="2.51421">
        <ele>629.4</ele>
        <time>2011-04-06T17:08:55Z</time>
      </trkpt>
      <trkpt lat="44.34512" lon="2.51416">
        <ele>629.4</ele>
        <time>2011-04-06T17:08:56Z</time>
      </trkpt>
      <trkpt lat="44.34512" lon="2.51412">
        <ele>629.4</ele>
        <time>2011-04-06T17:08:57Z</time>
      </trkpt>
      <trkpt lat="44.34511" lon="2.51408">
        <ele>629.4</ele>
        <time>2011-04-06T17:08:58Z</time>
      </trkpt>
      <trkpt lat="44.3451" lon="2.51404">
        <ele>629.4</ele>
        <time>2011-04-06T17:08:59Z</time>
      </trkpt>
      <trkpt lat="44.34509" lon="2.514">
        <ele>629.4</ele>
        <time>2011-04-06T17:09:00Z</time>
      </trkpt>
      <trkpt lat="44.34508" lon="2.51395">
        <ele>629.5</ele>
        <time>2011-04-06T17:09:01Z</time>
      </trkpt>
      <trkpt lat="44.34507" lon="2.51392">
        <ele>629.5</ele>
        <time>2011-04-06T17:09:02Z</time>
      </trkpt>
      <trkpt lat="44.34506" lon="2.51387">
        <ele>629.7</ele>
        <time>2011-04-06T17:09:03Z</time>
      </trkpt>
      <trkpt lat="44.34505" lon="2.51383">
        <ele>629.9</ele>
        <time>2011-04-06T17:09:04Z</time>
      </trkpt>
      <trkpt lat="44.34504" lon="2.51379">
        <ele>630</ele>
        <time>2011-04-06T17:09:05Z</time>
      </trkpt>
      <trkpt lat="44.34502" lon="2.51375">
        <ele>630.5</ele>
        <time>2011-04-06T17:09:06Z</time>
      </trkpt>
      <trkpt lat="44.34502" lon="2.51371">
        <ele>631.2</ele>
        <time>2011-04-06T17:09:07Z</time>
      </trkpt>
      <trkpt lat="44.34501" lon="2.51368">
        <ele>631.9</ele>
        <time>2011-04-06T17:09:08Z</time>
      </trkpt>
      <trkpt lat="44.345" lon="2.51364">
        <ele>632.5</ele>
        <time>2011-04-06T17:09:09Z</time>
      </trkpt>
      <trkpt lat="44.34498" lon="2.51359">
        <ele>632.7</ele>
        <time>2011-04-06T17:09:10Z</time>
      </trkpt>
      <trkpt lat="44.34497" lon="2.51355">
        <ele>632.9</ele>
        <time>2011-04-06T17:09:11Z</time>
      </trkpt>
      <trkpt lat="44.34495" lon="2.51351">
        <ele>633</ele>
        <time>2011-04-06T17:09:12Z</time>
      </trkpt>
      <trkpt lat="44.34494" lon="2.51346">
        <ele>632.9</ele>
        <time>2011-04-06T17:09:13Z</time>
      </trkpt>
      <trkpt lat="44.34492" lon="2.51341">
        <ele>632.9</ele>
        <time>2011-04-06T17:09:14Z</time>
      </trkpt>
      <trkpt lat="44.34491" lon="2.51336">
        <ele>632.7</ele>
        <time>2011-04-06T17:09:15Z</time>
      </trkpt>
      <trkpt lat="44.3449" lon="2.51331">
        <ele>632.7</ele>
        <time>2011-04-06T17:09:16Z</time>
      </trkpt>
      <trkpt lat="44.34488" lon="2.51327">
        <ele>632.5</ele>
        <time>2011-04-06T17:09:17Z</time>
      </trkpt>
      <trkpt lat="44.34487" lon="2.51322">
        <ele>632.5</ele>
        <time>2011-04-06T17:09:18Z</time>
      </trkpt>
      <trkpt lat="44.34485" lon="2.51317">
        <ele>632.4</ele>
        <time>2011-04-06T17:09:19Z</time>
      </trkpt>
      <trkpt lat="44.34484" lon="2.51313">
        <ele>632.4</ele>
        <time>2011-04-06T17:09:20Z</time>
      </trkpt>
      <trkpt lat="44.34483" lon="2.51308">
        <ele>632.2</ele>
        <time>2011-04-06T17:09:21Z</time>
      </trkpt>
      <trkpt lat="44.34481" lon="2.51303">
        <ele>632</ele>
        <time>2011-04-06T17:09:22Z</time>
      </trkpt>
      <trkpt lat="44.3448" lon="2.51298">
        <ele>631.9</ele>
        <time>2011-04-06T17:09:23Z</time>
      </trkpt>
      <trkpt lat="44.34479" lon="2.51293">
        <ele>631.7</ele>
        <time>2011-04-06T17:09:24Z</time>
      </trkpt>
      <trkpt lat="44.34478" lon="2.51289">
        <ele>631.7</ele>
        <time>2011-04-06T17:09:25Z</time>
      </trkpt>
      <trkpt lat="44.34476" lon="2.51284">
        <ele>631.7</ele>
        <time>2011-04-06T17:09:26Z</time>
      </trkpt>
      <trkpt lat="44.34475" lon="2.5128">
        <ele>631.7</ele>
        <time>2011-04-06T17:09:27Z</time>
      </trkpt>
      <trkpt lat="44.34474" lon="2.51275">
        <ele>631.5</ele>
        <time>2011-04-06T17:09:28Z</time>
      </trkpt>
      <trkpt lat="44.34473" lon="2.5127">
        <ele>631.5</ele>
        <time>2011-04-06T17:09:29Z</time>
      </trkpt>
      <trkpt lat="44.34472" lon="2.51266">
        <ele>631.4</ele>
        <time>2011-04-06T17:09:30Z</time>
      </trkpt>
      <trkpt lat="44.34471" lon="2.51261">
        <ele>631.2</ele>
        <time>2011-04-06T17:09:31Z</time>
      </trkpt>
      <trkpt lat="44.3447" lon="2.51257">
        <ele>631</ele>
        <time>2011-04-06T17:09:32Z</time>
      </trkpt>
      <trkpt lat="44.34469" lon="2.51252">
        <ele>631</ele>
        <time>2011-04-06T17:09:33Z</time>
      </trkpt>
      <trkpt lat="44.34467" lon="2.51247">
        <ele>630.9</ele>
        <time>2011-04-06T17:09:34Z</time>
      </trkpt>
      <trkpt lat="44.34466" lon="2.51243">
        <ele>630.9</ele>
        <time>2011-04-06T17:09:35Z</time>
      </trkpt>
      <trkpt lat="44.34465" lon="2.51238">
        <ele>630.9</ele>
        <time>2011-04-06T17:09:36Z</time>
      </trkpt>
      <trkpt lat="44.34465" lon="2.51233">
        <ele>630.7</ele>
        <time>2011-04-06T17:09:37Z</time>
      </trkpt>
      <trkpt lat="44.34464" lon="2.51228">
        <ele>630.7</ele>
        <time>2011-04-06T17:09:38Z</time>
      </trkpt>
      <trkpt lat="44.34464" lon="2.51224">
        <ele>630.9</ele>
        <time>2011-04-06T17:09:39Z</time>
      </trkpt>
      <trkpt lat="44.34463" lon="2.51218">
        <ele>630.9</ele>
        <time>2011-04-06T17:09:40Z</time>
      </trkpt>
      <trkpt lat="44.34463" lon="2.51213">
        <ele>631</ele>
        <time>2011-04-06T17:09:41Z</time>
      </trkpt>
      <trkpt lat="44.34462" lon="2.51207">
        <ele>631</ele>
        <time>2011-04-06T17:09:42Z</time>
      </trkpt>
      <trkpt lat="44.34462" lon="2.51202">
        <ele>631</ele>
        <time>2011-04-06T17:09:43Z</time>
      </trkpt>
      <trkpt lat="44.34461" lon="2.51197">
        <ele>631</ele>
        <time>2011-04-06T17:09:44Z</time>
      </trkpt>
      <trkpt lat="44.3446" lon="2.51193">
        <ele>631</ele>
        <time>2011-04-06T17:09:45Z</time>
      </trkpt>
      <trkpt lat="44.3446" lon="2.51188">
        <ele>630.9</ele>
        <time>2011-04-06T17:09:46Z</time>
      </trkpt>
      <trkpt lat="44.3446" lon="2.51183">
        <ele>630.7</ele>
        <time>2011-04-06T17:09:47Z</time>
      </trkpt>
      <trkpt lat="44.34459" lon="2.51179">
        <ele>630.7</ele>
        <time>2011-04-06T17:09:48Z</time>
      </trkpt>
      <trkpt lat="44.34458" lon="2.51174">
        <ele>630.5</ele>
        <time>2011-04-06T17:09:49Z</time>
      </trkpt>
      <trkpt lat="44.34458" lon="2.51169">
        <ele>630.5</ele>
        <time>2011-04-06T17:09:50Z</time>
      </trkpt>
      <trkpt lat="44.34462" lon="2.51168">
        <ele>609.4</ele>
        <time>2011-04-06T16:22:13Z</time>
      </trkpt>
      <trkpt lat="44.34462" lon="2.51167">
        <ele>625.2</ele>
        <time>2011-04-06T17:12:22Z</time>
      </trkpt>
      <trkpt lat="44.34466" lon="2.51167">
        <ele>625</ele>
        <time>2011-04-06T17:12:23Z</time>
      </trkpt>
      <trkpt lat="44.34469" lon="2.51165">
        <ele>625</ele>
        <time>2011-04-06T17:12:24Z</time>
      </trkpt>
      <trkpt lat="44.34474" lon="2.51161">
        <ele>625</ele>
        <time>2011-04-06T17:12:25Z</time>
      </trkpt>
      <trkpt lat="44.34478" lon="2.51159">
        <ele>625</ele>
        <time>2011-04-06T17:12:26Z</time>
      </trkpt>
      <trkpt lat="44.34482" lon="2.51156">
        <ele>624.9</ele>
        <time>2011-04-06T17:12:27Z</time>
      </trkpt>
      <trkpt lat="44.34487" lon="2.51153">
        <ele>624.7</ele>
        <time>2011-04-06T17:12:28Z</time>
      </trkpt>
      <trkpt lat="44.34491" lon="2.5115">
        <ele>624.5</ele>
        <time>2011-04-06T17:12:29Z</time>
      </trkpt>
      <trkpt lat="44.34495" lon="2.51147">
        <ele>624.5</ele>
        <time>2011-04-06T17:12:30Z</time>
      </trkpt>
      <trkpt lat="44.34499" lon="2.51144">
        <ele>624.4</ele>
        <time>2011-04-06T17:12:31Z</time>
      </trkpt>
      <trkpt lat="44.34504" lon="2.51141">
        <ele>624.2</ele>
        <time>2011-04-06T17:12:32Z</time>
      </trkpt>
      <trkpt lat="44.34508" lon="2.51138">
        <ele>624.2</ele>
        <time>2011-04-06T17:12:33Z</time>
      </trkpt>
      <trkpt lat="44.34512" lon="2.51135">
        <ele>624.2</ele>
        <time>2011-04-06T17:12:34Z</time>
      </trkpt>
      <trkpt lat="44.34516" lon="2.51132">
        <ele>624.4</ele>
        <time>2011-04-06T17:12:35Z</time>
      </trkpt>
      <trkpt lat="44.34521" lon="2.51129">
        <ele>624.5</ele>
        <time>2011-04-06T17:12:36Z</time>
      </trkpt>
      <trkpt lat="44.34525" lon="2.51126">
        <ele>624.7</ele>
        <time>2011-04-06T17:12:37Z</time>
      </trkpt>
      <trkpt lat="44.3453" lon="2.51124">
        <ele>624.7</ele>
        <time>2011-04-06T17:12:38Z</time>
      </trkpt>
      <trkpt lat="44.34534" lon="2.51122">
        <ele>624.5</ele>
        <time>2011-04-06T17:12:39Z</time>
      </trkpt>
      <trkpt lat="44.34539" lon="2.51121">
        <ele>624.5</ele>
        <time>2011-04-06T17:12:40Z</time>
      </trkpt>
      <trkpt lat="44.34544" lon="2.5112">
        <ele>624.2</ele>
        <time>2011-04-06T17:12:41Z</time>
      </trkpt>
      <trkpt lat="44.3455" lon="2.51119">
        <ele>624</ele>
        <time>2011-04-06T17:12:42Z</time>
      </trkpt>
      <trkpt lat="44.34556" lon="2.51118">
        <ele>623.9</ele>
        <time>2011-04-06T17:12:43Z</time>
      </trkpt>
      <trkpt lat="44.34562" lon="2.51117">
        <ele>623.5</ele>
        <time>2011-04-06T17:12:44Z</time>
      </trkpt>
      <trkpt lat="44.34568" lon="2.51114">
        <ele>623</ele>
        <time>2011-04-06T17:12:45Z</time>
      </trkpt>
      <trkpt lat="44.34573" lon="2.51109">
        <ele>622.2</ele>
        <time>2011-04-06T17:12:46Z</time>
      </trkpt>
      <trkpt lat="44.34577" lon="2.51102">
        <ele>621.4</ele>
        <time>2011-04-06T17:12:47Z</time>
      </trkpt>
      <trkpt lat="44.3458" lon="2.51092">
        <ele>620.5</ele>
        <time>2011-04-06T17:12:48Z</time>
      </trkpt>
      <trkpt lat="44.34584" lon="2.51083">
        <ele>619.7</ele>
        <time>2011-04-06T17:12:49Z</time>
      </trkpt>
      <trkpt lat="44.34589" lon="2.51074">
        <ele>619</ele>
        <time>2011-04-06T17:12:50Z</time>
      </trkpt>
      <trkpt lat="44.34593" lon="2.51064">
        <ele>618.2</ele>
        <time>2011-04-06T17:12:51Z</time>
      </trkpt>
      <trkpt lat="44.34597" lon="2.51054">
        <ele>617.5</ele>
        <time>2011-04-06T17:12:52Z</time>
      </trkpt>
      <trkpt lat="44.346" lon="2.51045">
        <ele>617</ele>
        <time>2011-04-06T17:12:53Z</time>
      </trkpt>
      <trkpt lat="44.34603" lon="2.51036">
        <ele>616.5</ele>
        <time>2011-04-06T17:12:54Z</time>
      </trkpt>
      <trkpt lat="44.34605" lon="2.51028">
        <ele>616</ele>
        <time>2011-04-06T17:12:55Z</time>
      </trkpt>
      <trkpt lat="44.34606" lon="2.51019">
        <ele>615.7</ele>
        <time>2011-04-06T17:12:56Z</time>
      </trkpt>
      <trkpt lat="44.34606" lon="2.51012">
        <ele>615.7</ele>
        <time>2011-04-06T17:12:57Z</time>
      </trkpt>
      <trkpt lat="44.34607" lon="2.51004">
        <ele>615.5</ele>
        <time>2011-04-06T17:12:58Z</time>
      </trkpt>
      <trkpt lat="44.34607" lon="2.50997">
        <ele>615.4</ele>
        <time>2011-04-06T17:12:59Z</time>
      </trkpt>
      <trkpt lat="44.34608" lon="2.50989">
        <ele>615.2</ele>
        <time>2011-04-06T17:13:00Z</time>
      </trkpt>
      <trkpt lat="44.3461" lon="2.50982">
        <ele>615</ele>
        <time>2011-04-06T17:13:01Z</time>
      </trkpt>
      <trkpt lat="44.34611" lon="2.50977">
        <ele>614.5</ele>
        <time>2011-04-06T17:13:02Z</time>
      </trkpt>
      <trkpt lat="44.34613" lon="2.50974">
        <ele>614.2</ele>
        <time>2011-04-06T17:13:03Z</time>
      </trkpt>
      <trkpt lat="44.34614" lon="2.50971">
        <ele>613.7</ele>
        <time>2011-04-06T17:13:04Z</time>
      </trkpt>
      <trkpt lat="44.34617" lon="2.50965">
        <ele>613</ele>
        <time>2011-04-06T17:13:06Z</time>
      </trkpt>
      <trkpt lat="44.34618" lon="2.5096">
        <ele>612</ele>
        <time>2011-04-06T17:13:08Z</time>
      </trkpt>
      <trkpt lat="44.34619" lon="2.50955">
        <ele>611</ele>
        <time>2011-04-06T17:13:10Z</time>
      </trkpt>
      <trkpt lat="44.3462" lon="2.50949">
        <ele>610</ele>
        <time>2011-04-06T17:13:12Z</time>
      </trkpt>
      <trkpt lat="44.3462" lon="2.50946">
        <ele>609.5</ele>
        <time>2011-04-06T17:13:13Z</time>
      </trkpt>
      <trkpt lat="44.34621" lon="2.50943">
        <ele>609</ele>
        <time>2011-04-06T17:13:14Z</time>
      </trkpt>
      <trkpt lat="44.34622" lon="2.5094">
        <ele>608.5</ele>
        <time>2011-04-06T17:13:15Z</time>
      </trkpt>
      <trkpt lat="44.34623" lon="2.50936">
        <ele>607.7</ele>
        <time>2011-04-06T17:13:16Z</time>
      </trkpt>
      <trkpt lat="44.34625" lon="2.50932">
        <ele>607</ele>
        <time>2011-04-06T17:13:17Z</time>
      </trkpt>
      <trkpt lat="44.34626" lon="2.50928">
        <ele>606.2</ele>
        <time>2011-04-06T17:13:18Z</time>
      </trkpt>
      <trkpt lat="44.34626" lon="2.50922">
        <ele>605.2</ele>
        <time>2011-04-06T17:13:19Z</time>
      </trkpt>
      <trkpt lat="44.34626" lon="2.50916">
        <ele>604.4</ele>
        <time>2011-04-06T17:13:20Z</time>
      </trkpt>
      <trkpt lat="44.34626" lon="2.50909">
        <ele>603.7</ele>
        <time>2011-04-06T17:13:21Z</time>
      </trkpt>
      <trkpt lat="44.34626" lon="2.50903">
        <ele>603.7</ele>
        <time>2011-04-06T17:13:22Z</time>
      </trkpt>
      <trkpt lat="44.34627" lon="2.50899">
        <ele>604</ele>
        <time>2011-04-06T17:13:23Z</time>
      </trkpt>
      <trkpt lat="44.34628" lon="2.50896">
        <ele>604.7</ele>
        <time>2011-04-06T17:13:24Z</time>
      </trkpt>
      <trkpt lat="44.34629" lon="2.50892">
        <ele>605.2</ele>
        <time>2011-04-06T17:13:25Z</time>
      </trkpt>
      <trkpt lat="44.34629" lon="2.50888">
        <ele>605.7</ele>
        <time>2011-04-06T17:13:26Z</time>
      </trkpt>
      <trkpt lat="44.3463" lon="2.50884">
        <ele>606.4</ele>
        <time>2011-04-06T17:13:27Z</time>
      </trkpt>
      <trkpt lat="44.34631" lon="2.5088">
        <ele>606.9</ele>
        <time>2011-04-06T17:13:28Z</time>
      </trkpt>
      <trkpt lat="44.34631" lon="2.50877">
        <ele>607.4</ele>
        <time>2011-04-06T17:13:29Z</time>
      </trkpt>
      <trkpt lat="44.34631" lon="2.50873">
        <ele>607.7</ele>
        <time>2011-04-06T17:13:30Z</time>
      </trkpt>
      <trkpt lat="44.34632" lon="2.5087">
        <ele>608.2</ele>
        <time>2011-04-06T17:13:31Z</time>
      </trkpt>
      <trkpt lat="44.34632" lon="2.50866">
        <ele>608.5</ele>
        <time>2011-04-06T17:13:32Z</time>
      </trkpt>
      <trkpt lat="44.34633" lon="2.50862">
        <ele>608.7</ele>
        <time>2011-04-06T17:13:33Z</time>
      </trkpt>
      <trkpt lat="44.34634" lon="2.50857">
        <ele>608.7</ele>
        <time>2011-04-06T17:13:34Z</time>
      </trkpt>
      <trkpt lat="44.34636" lon="2.50852">
        <ele>608.5</ele>
        <time>2011-04-06T17:13:35Z</time>
      </trkpt>
      <trkpt lat="44.34638" lon="2.50848">
        <ele>608.2</ele>
        <time>2011-04-06T17:13:36Z</time>
      </trkpt>
      <trkpt lat="44.34641" lon="2.50843">
        <ele>607.9</ele>
        <time>2011-04-06T17:13:37Z</time>
      </trkpt>
      <trkpt lat="44.34644" lon="2.5084">
        <ele>607.5</ele>
        <time>2011-04-06T17:13:38Z</time>
      </trkpt>
      <trkpt lat="44.34646" lon="2.50835">
        <ele>607.5</ele>
        <time>2011-04-06T17:13:39Z</time>
      </trkpt>
      <trkpt lat="44.34649" lon="2.50831">
        <ele>607.7</ele>
        <time>2011-04-06T17:13:40Z</time>
      </trkpt>
      <trkpt lat="44.34651" lon="2.50827">
        <ele>607.9</ele>
        <time>2011-04-06T17:13:41Z</time>
      </trkpt>
      <trkpt lat="44.34654" lon="2.50822">
        <ele>608.2</ele>
        <time>2011-04-06T17:13:42Z</time>
      </trkpt>
      <trkpt lat="44.34657" lon="2.50817">
        <ele>608.5</ele>
        <time>2011-04-06T17:13:43Z</time>
      </trkpt>
      <trkpt lat="44.34659" lon="2.50813">
        <ele>608.7</ele>
        <time>2011-04-06T17:13:44Z</time>
      </trkpt>
      <trkpt lat="44.3466" lon="2.50806">
        <ele>609.4</ele>
        <time>2011-04-06T17:13:45Z</time>
      </trkpt>
      <trkpt lat="44.3466" lon="2.508">
        <ele>610.4</ele>
        <time>2011-04-06T17:13:46Z</time>
      </trkpt>
      <trkpt lat="44.34659" lon="2.50793">
        <ele>611.5</ele>
        <time>2011-04-06T17:13:47Z</time>
      </trkpt>
      <trkpt lat="44.34657" lon="2.50787">
        <ele>612.5</ele>
        <time>2011-04-06T17:13:48Z</time>
      </trkpt>
      <trkpt lat="44.34656" lon="2.50779">
        <ele>613.4</ele>
        <time>2011-04-06T17:13:49Z</time>
      </trkpt>
      <trkpt lat="44.34655" lon="2.50772">
        <ele>614.2</ele>
        <time>2011-04-06T17:13:50Z</time>
      </trkpt>
      <trkpt lat="44.34653" lon="2.50764">
        <ele>615</ele>
        <time>2011-04-06T17:13:51Z</time>
      </trkpt>
      <trkpt lat="44.34652" lon="2.50756">
        <ele>615.5</ele>
        <time>2011-04-06T17:13:52Z</time>
      </trkpt>
      <trkpt lat="44.3465" lon="2.50747">
        <ele>616.2</ele>
        <time>2011-04-06T17:13:53Z</time>
      </trkpt>
      <trkpt lat="44.34647" lon="2.5074">
        <ele>617.2</ele>
        <time>2011-04-06T17:13:54Z</time>
      </trkpt>
      <trkpt lat="44.34643" lon="2.50731">
        <ele>618.4</ele>
        <time>2011-04-06T17:13:55Z</time>
      </trkpt>
      <trkpt lat="44.3464" lon="2.50723">
        <ele>619.7</ele>
        <time>2011-04-06T17:13:56Z</time>
      </trkpt>
      <trkpt lat="44.34636" lon="2.50715">
        <ele>620.7</ele>
        <time>2011-04-06T17:13:57Z</time>
      </trkpt>
      <trkpt lat="44.34632" lon="2.50705">
        <ele>620.9</ele>
        <time>2011-04-06T17:13:58Z</time>
      </trkpt>
      <trkpt lat="44.34627" lon="2.50695">
        <ele>620.7</ele>
        <time>2011-04-06T17:13:59Z</time>
      </trkpt>
      <trkpt lat="44.34623" lon="2.50684">
        <ele>620.2</ele>
        <time>2011-04-06T17:14:00Z</time>
      </trkpt>
      <trkpt lat="44.34619" lon="2.50672">
        <ele>619.2</ele>
        <time>2011-04-06T17:14:01Z</time>
      </trkpt>
      <trkpt lat="44.34614" lon="2.50659">
        <ele>617.5</ele>
        <time>2011-04-06T17:14:02Z</time>
      </trkpt>
      <trkpt lat="44.34609" lon="2.50646">
        <ele>616.2</ele>
        <time>2011-04-06T17:14:03Z</time>
      </trkpt>
      <trkpt lat="44.34606" lon="2.50633">
        <ele>615</ele>
        <time>2011-04-06T17:14:04Z</time>
      </trkpt>
      <trkpt lat="44.34603" lon="2.5062">
        <ele>613.7</ele>
        <time>2011-04-06T17:14:05Z</time>
      </trkpt>
      <trkpt lat="44.346" lon="2.50607">
        <ele>612.5</ele>
        <time>2011-04-06T17:14:06Z</time>
      </trkpt>
      <trkpt lat="44.34597" lon="2.50593">
        <ele>611.2</ele>
        <time>2011-04-06T17:14:07Z</time>
      </trkpt>
      <trkpt lat="44.34594" lon="2.5058">
        <ele>610.2</ele>
        <time>2011-04-06T17:14:08Z</time>
      </trkpt>
      <trkpt lat="44.34592" lon="2.50568">
        <ele>609.2</ele>
        <time>2011-04-06T17:14:09Z</time>
      </trkpt>
      <trkpt lat="44.34589" lon="2.50556">
        <ele>608.5</ele>
        <time>2011-04-06T17:14:10Z</time>
      </trkpt>
      <trkpt lat="44.34587" lon="2.50546">
        <ele>608</ele>
        <time>2011-04-06T17:14:11Z</time>
      </trkpt>
      <trkpt lat="44.34585" lon="2.50536">
        <ele>607.5</ele>
        <time>2011-04-06T17:14:12Z</time>
      </trkpt>
      <trkpt lat="44.34583" lon="2.50527">
        <ele>607</ele>
        <time>2011-04-06T17:14:13Z</time>
      </trkpt>
      <trkpt lat="44.3458" lon="2.50518">
        <ele>607</ele>
        <time>2011-04-06T17:14:14Z</time>
      </trkpt>
      <trkpt lat="44.34576" lon="2.50511">
        <ele>607</ele>
        <time>2011-04-06T17:14:15Z</time>
      </trkpt>
      <trkpt lat="44.34571" lon="2.50504">
        <ele>607</ele>
        <time>2011-04-06T17:14:16Z</time>
      </trkpt>
      <trkpt lat="44.34565" lon="2.50498">
        <ele>606.7</ele>
        <time>2011-04-06T17:14:17Z</time>
      </trkpt>
      <trkpt lat="44.34558" lon="2.50492">
        <ele>605.7</ele>
        <time>2011-04-06T17:14:18Z</time>
      </trkpt>
      <trkpt lat="44.34552" lon="2.50486">
        <ele>604.4</ele>
        <time>2011-04-06T17:14:19Z</time>
      </trkpt>
      <trkpt lat="44.34545" lon="2.50479">
        <ele>602.9</ele>
        <time>2011-04-06T17:14:20Z</time>
      </trkpt>
      <trkpt lat="44.34539" lon="2.50472">
        <ele>601.4</ele>
        <time>2011-04-06T17:14:21Z</time>
      </trkpt>
      <trkpt lat="44.34533" lon="2.50465">
        <ele>600</ele>
        <time>2011-04-06T17:14:22Z</time>
      </trkpt>
      <trkpt lat="44.34527" lon="2.50457">
        <ele>598.7</ele>
        <time>2011-04-06T17:14:23Z</time>
      </trkpt>
      <trkpt lat="44.34521" lon="2.5045">
        <ele>597.5</ele>
        <time>2011-04-06T17:14:24Z</time>
      </trkpt>
      <trkpt lat="44.34516" lon="2.50441">
        <ele>596.4</ele>
        <time>2011-04-06T17:14:25Z</time>
      </trkpt>
      <trkpt lat="44.34511" lon="2.50432">
        <ele>595.2</ele>
        <time>2011-04-06T17:14:26Z</time>
      </trkpt>
      <trkpt lat="44.34506" lon="2.50423">
        <ele>594</ele>
        <time>2011-04-06T17:14:27Z</time>
      </trkpt>
      <trkpt lat="44.34501" lon="2.50414">
        <ele>593</ele>
        <time>2011-04-06T17:14:28Z</time>
      </trkpt>
      <trkpt lat="44.34496" lon="2.50405">
        <ele>592.4</ele>
        <time>2011-04-06T17:14:29Z</time>
      </trkpt>
      <trkpt lat="44.34492" lon="2.50396">
        <ele>591.9</ele>
        <time>2011-04-06T17:14:30Z</time>
      </trkpt>
      <trkpt lat="44.34489" lon="2.50386">
        <ele>591.2</ele>
        <time>2011-04-06T17:14:31Z</time>
      </trkpt>
      <trkpt lat="44.34485" lon="2.50378">
        <ele>591</ele>
        <time>2011-04-06T17:14:32Z</time>
      </trkpt>
      <trkpt lat="44.34481" lon="2.50371">
        <ele>590.7</ele>
        <time>2011-04-06T17:14:33Z</time>
      </trkpt>
      <trkpt lat="44.34476" lon="2.50365">
        <ele>590.5</ele>
        <time>2011-04-06T17:14:34Z</time>
      </trkpt>
      <trkpt lat="44.3447" lon="2.50361">
        <ele>590.5</ele>
        <time>2011-04-06T17:14:35Z</time>
      </trkpt>
      <trkpt lat="44.34464" lon="2.50358">
        <ele>590.5</ele>
        <time>2011-04-06T17:14:36Z</time>
      </trkpt>
      <trkpt lat="44.34459" lon="2.50354">
        <ele>590.5</ele>
        <time>2011-04-06T17:14:37Z</time>
      </trkpt>
      <trkpt lat="44.34454" lon="2.50351">
        <ele>590.5</ele>
        <time>2011-04-06T17:14:38Z</time>
      </trkpt>
      <trkpt lat="44.34449" lon="2.50348">
        <ele>590.7</ele>
        <time>2011-04-06T17:14:39Z</time>
      </trkpt>
      <trkpt lat="44.34444" lon="2.50345">
        <ele>591.4</ele>
        <time>2011-04-06T17:14:40Z</time>
      </trkpt>
      <trkpt lat="44.3444" lon="2.50342">
        <ele>592.5</ele>
        <time>2011-04-06T17:14:41Z</time>
      </trkpt>
      <trkpt lat="44.34436" lon="2.50337">
        <ele>593.5</ele>
        <time>2011-04-06T17:14:42Z</time>
      </trkpt>
      <trkpt lat="44.34433" lon="2.50333">
        <ele>594.4</ele>
        <time>2011-04-06T17:14:43Z</time>
      </trkpt>
      <trkpt lat="44.34429" lon="2.50329">
        <ele>595.5</ele>
        <time>2011-04-06T17:14:44Z</time>
      </trkpt>
      <trkpt lat="44.34426" lon="2.50325">
        <ele>596.7</ele>
        <time>2011-04-06T17:14:45Z</time>
      </trkpt>
      <trkpt lat="44.34422" lon="2.5032">
        <ele>597.5</ele>
        <time>2011-04-06T17:14:46Z</time>
      </trkpt>
      <trkpt lat="44.34419" lon="2.50316">
        <ele>598.7</ele>
        <time>2011-04-06T17:14:47Z</time>
      </trkpt>
      <trkpt lat="44.34417" lon="2.5031">
        <ele>599.7</ele>
        <time>2011-04-06T17:14:48Z</time>
      </trkpt>
      <trkpt lat="44.34414" lon="2.50306">
        <ele>600.7</ele>
        <time>2011-04-06T17:14:49Z</time>
      </trkpt>
      <trkpt lat="44.34412" lon="2.50301">
        <ele>602</ele>
        <time>2011-04-06T17:14:50Z</time>
      </trkpt>
      <trkpt lat="44.3441" lon="2.50297">
        <ele>603.2</ele>
        <time>2011-04-06T17:14:51Z</time>
      </trkpt>
      <trkpt lat="44.34407" lon="2.50292">
        <ele>604.5</ele>
        <time>2011-04-06T17:14:52Z</time>
      </trkpt>
      <trkpt lat="44.34404" lon="2.50287">
        <ele>606</ele>
        <time>2011-04-06T17:14:53Z</time>
      </trkpt>
      <trkpt lat="44.34402" lon="2.50281">
        <ele>607.5</ele>
        <time>2011-04-06T17:14:54Z</time>
      </trkpt>
      <trkpt lat="44.344" lon="2.50276">
        <ele>608.9</ele>
        <time>2011-04-06T17:14:55Z</time>
      </trkpt>
      <trkpt lat="44.34398" lon="2.50272">
        <ele>610</ele>
        <time>2011-04-06T17:14:56Z</time>
      </trkpt>
      <trkpt lat="44.34397" lon="2.50267">
        <ele>610.9</ele>
        <time>2011-04-06T17:14:57Z</time>
      </trkpt>
      <trkpt lat="44.34395" lon="2.50263">
        <ele>611.5</ele>
        <time>2011-04-06T17:14:58Z</time>
      </trkpt>
      <trkpt lat="44.34393" lon="2.5026">
        <ele>612.2</ele>
        <time>2011-04-06T17:14:59Z</time>
      </trkpt>
      <trkpt lat="44.34391" lon="2.50257">
        <ele>613</ele>
        <time>2011-04-06T17:15:00Z</time>
      </trkpt>
      <trkpt lat="44.3439" lon="2.50254">
        <ele>613.7</ele>
        <time>2011-04-06T17:15:01Z</time>
      </trkpt>
      <trkpt lat="44.34388" lon="2.50252">
        <ele>614.2</ele>
        <time>2011-04-06T17:15:02Z</time>
      </trkpt>
      <trkpt lat="44.34385" lon="2.50247">
        <ele>614.7</ele>
        <time>2011-04-06T17:15:04Z</time>
      </trkpt>
      <trkpt lat="44.34384" lon="2.50245">
        <ele>614.7</ele>
        <time>2011-04-06T17:15:05Z</time>
      </trkpt>
      <trkpt lat="44.34381" lon="2.50243">
        <ele>614.7</ele>
        <time>2011-04-06T17:15:06Z</time>
      </trkpt>
      <trkpt lat="44.34378" lon="2.5024">
        <ele>614.5</ele>
        <time>2011-04-06T17:15:08Z</time>
      </trkpt>
      <trkpt lat="44.34375" lon="2.50237">
        <ele>614</ele>
        <time>2011-04-06T17:15:10Z</time>
      </trkpt>
      <trkpt lat="44.34372" lon="2.50236">
        <ele>613</ele>
        <time>2011-04-06T17:15:12Z</time>
      </trkpt>
      <trkpt lat="44.34369" lon="2.50234">
        <ele>612.4</ele>
        <time>2011-04-06T17:15:13Z</time>
      </trkpt>
      <trkpt lat="44.34366" lon="2.50233">
        <ele>611.5</ele>
        <time>2011-04-06T17:15:14Z</time>
      </trkpt>
      <trkpt lat="44.34363" lon="2.50232">
        <ele>610.7</ele>
        <time>2011-04-06T17:15:15Z</time>
      </trkpt>
      <trkpt lat="44.34359" lon="2.5023">
        <ele>610.2</ele>
        <time>2011-04-06T17:15:16Z</time>
      </trkpt>
      <trkpt lat="44.34354" lon="2.50228">
        <ele>609.4</ele>
        <time>2011-04-06T17:15:17Z</time>
      </trkpt>
      <trkpt lat="44.3435" lon="2.50226">
        <ele>608.5</ele>
        <time>2011-04-06T17:15:18Z</time>
      </trkpt>
      <trkpt lat="44.34344" lon="2.50224">
        <ele>607.7</ele>
        <time>2011-04-06T17:15:19Z</time>
      </trkpt>
      <trkpt lat="44.34339" lon="2.50221">
        <ele>606.7</ele>
        <time>2011-04-06T17:15:20Z</time>
      </trkpt>
      <trkpt lat="44.34334" lon="2.50219">
        <ele>605.5</ele>
        <time>2011-04-06T17:15:21Z</time>
      </trkpt>
      <trkpt lat="44.34329" lon="2.50218">
        <ele>604.5</ele>
        <time>2011-04-06T17:15:22Z</time>
      </trkpt>
      <trkpt lat="44.34324" lon="2.50216">
        <ele>603.5</ele>
        <time>2011-04-06T17:15:23Z</time>
      </trkpt>
      <trkpt lat="44.3432" lon="2.50215">
        <ele>603</ele>
        <time>2011-04-06T17:15:24Z</time>
      </trkpt>
      <trkpt lat="44.34317" lon="2.50213">
        <ele>602.7</ele>
        <time>2011-04-06T17:15:25Z</time>
      </trkpt>
      <trkpt lat="44.34314" lon="2.50212">
        <ele>602.5</ele>
        <time>2011-04-06T17:15:26Z</time>
      </trkpt>
      <trkpt lat="44.34311" lon="2.50211">
        <ele>602.4</ele>
        <time>2011-04-06T17:15:27Z</time>
      </trkpt>
      <trkpt lat="44.34308" lon="2.5021">
        <ele>602.5</ele>
        <time>2011-04-06T17:15:28Z</time>
      </trkpt>
      <trkpt lat="44.34305" lon="2.50209">
        <ele>602.5</ele>
        <time>2011-04-06T17:15:29Z</time>
      </trkpt>
      <trkpt lat="44.34303" lon="2.50208">
        <ele>602.7</ele>
        <time>2011-04-06T17:15:30Z</time>
      </trkpt>
      <trkpt lat="44.343" lon="2.50207">
        <ele>602.7</ele>
        <time>2011-04-06T17:15:31Z</time>
      </trkpt>
      <trkpt lat="44.34298" lon="2.50206">
        <ele>602.5</ele>
        <time>2011-04-06T17:15:32Z</time>
      </trkpt>
      <trkpt lat="44.34295" lon="2.50205">
        <ele>602.5</ele>
        <time>2011-04-06T17:15:33Z</time>
      </trkpt>
      <trkpt lat="44.34293" lon="2.50204">
        <ele>602.4</ele>
        <time>2011-04-06T17:15:34Z</time>
      </trkpt>
      <trkpt lat="44.3429" lon="2.50203">
        <ele>602.2</ele>
        <time>2011-04-06T17:15:35Z</time>
      </trkpt>
      <trkpt lat="44.34288" lon="2.50201">
        <ele>601.9</ele>
        <time>2011-04-06T17:15:36Z</time>
      </trkpt>
      <trkpt lat="44.34286" lon="2.502">
        <ele>601.5</ele>
        <time>2011-04-06T17:15:37Z</time>
      </trkpt>
      <trkpt lat="44.34283" lon="2.50198">
        <ele>601</ele>
        <time>2011-04-06T17:15:38Z</time>
      </trkpt>
      <trkpt lat="44.34281" lon="2.50197">
        <ele>600.7</ele>
        <time>2011-04-06T17:15:39Z</time>
      </trkpt>
      <trkpt lat="44.34279" lon="2.50195">
        <ele>600.2</ele>
        <time>2011-04-06T17:15:40Z</time>
      </trkpt>
      <trkpt lat="44.34277" lon="2.50194">
        <ele>599.7</ele>
        <time>2011-04-06T17:15:41Z</time>
      </trkpt>
      <trkpt lat="44.34274" lon="2.50192">
        <ele>599.2</ele>
        <time>2011-04-06T17:15:42Z</time>
      </trkpt>
      <trkpt lat="44.34272" lon="2.50191">
        <ele>598.5</ele>
        <time>2011-04-06T17:15:43Z</time>
      </trkpt>
      <trkpt lat="44.34269" lon="2.50187">
        <ele>597.2</ele>
        <time>2011-04-06T17:15:45Z</time>
      </trkpt>
      <trkpt lat="44.34265" lon="2.50183">
        <ele>595.7</ele>
        <time>2011-04-06T17:15:47Z</time>
      </trkpt>
      <trkpt lat="44.34263" lon="2.50179">
        <ele>594.2</ele>
        <time>2011-04-06T17:15:49Z</time>
      </trkpt>
      <trkpt lat="44.3426" lon="2.50174">
        <ele>592.9</ele>
        <time>2011-04-06T17:15:51Z</time>
      </trkpt>
      <trkpt lat="44.34258" lon="2.50169">
        <ele>591.5</ele>
        <time>2011-04-06T17:15:53Z</time>
      </trkpt>
      <trkpt lat="44.34257" lon="2.50166">
        <ele>591</ele>
        <time>2011-04-06T17:15:54Z</time>
      </trkpt>
      <trkpt lat="44.34255" lon="2.50163">
        <ele>590.2</ele>
        <time>2011-04-06T17:15:55Z</time>
      </trkpt>
      <trkpt lat="44.34254" lon="2.5016">
        <ele>589.5</ele>
        <time>2011-04-06T17:15:56Z</time>
      </trkpt>
      <trkpt lat="44.34252" lon="2.50156">
        <ele>588.9</ele>
        <time>2011-04-06T17:15:57Z</time>
      </trkpt>
      <trkpt lat="44.34251" lon="2.50153">
        <ele>588.4</ele>
        <time>2011-04-06T17:15:58Z</time>
      </trkpt>
      <trkpt lat="44.34249" lon="2.50151">
        <ele>587.9</ele>
        <time>2011-04-06T17:15:59Z</time>
      </trkpt>
      <trkpt lat="44.34246" lon="2.50146">
        <ele>587.2</ele>
        <time>2011-04-06T17:16:01Z</time>
      </trkpt>
      <trkpt lat="44.34243" lon="2.50143">
        <ele>587</ele>
        <time>2011-04-06T17:16:03Z</time>
      </trkpt>
      <trkpt lat="44.3424" lon="2.50139">
        <ele>587.4</ele>
        <time>2011-04-06T17:16:05Z</time>
      </trkpt>
      <trkpt lat="44.34238" lon="2.50134">
        <ele>587.2</ele>
        <time>2011-04-06T17:16:07Z</time>
      </trkpt>
      <trkpt lat="44.34237" lon="2.50129">
        <ele>586.5</ele>
        <time>2011-04-06T17:16:09Z</time>
      </trkpt>
      <trkpt lat="44.34236" lon="2.50123">
        <ele>583.2</ele>
        <time>2011-04-06T17:16:17Z</time>
      </trkpt>
      <trkpt lat="44.34236" lon="2.50117">
        <ele>580.2</ele>
        <time>2011-04-06T17:16:34Z</time>
      </trkpt>
      <trkpt lat="44.34236" lon="2.50116">
        <ele>580.2</ele>
        <time>2011-04-06T17:16:35Z</time>
      </trkpt>
      <trkpt lat="44.34234" lon="2.50106">
        <ele>578.9</ele>
        <time>2011-04-06T17:17:00Z</time>
      </trkpt>
      <trkpt lat="44.34234" lon="2.501">
        <ele>579</ele>
        <time>2011-04-06T17:17:31Z</time>
      </trkpt>
      <trkpt lat="44.34232" lon="2.50095">
        <ele>580</ele>
        <time>2011-04-06T17:17:53Z</time>
      </trkpt>
      <trkpt lat="44.34232" lon="2.50093">
        <ele>580</ele>
        <time>2011-04-06T17:17:54Z</time>
      </trkpt>
      <trkpt lat="44.3423" lon="2.50089">
        <ele>580.5</ele>
        <time>2011-04-06T17:17:56Z</time>
      </trkpt>
      <trkpt lat="44.34229" lon="2.50085">
        <ele>580.5</ele>
        <time>2011-04-06T17:17:57Z</time>
      </trkpt>
      <trkpt lat="44.34228" lon="2.50082">
        <ele>580.7</ele>
        <time>2011-04-06T17:17:58Z</time>
      </trkpt>
      <trkpt lat="44.34227" lon="2.50078">
        <ele>580.9</ele>
        <time>2011-04-06T17:17:59Z</time>
      </trkpt>
      <trkpt lat="44.34226" lon="2.50074">
        <ele>580.9</ele>
        <time>2011-04-06T17:18:00Z</time>
      </trkpt>
      <trkpt lat="44.34224" lon="2.50069">
        <ele>580.7</ele>
        <time>2011-04-06T17:18:01Z</time>
      </trkpt>
      <trkpt lat="44.34223" lon="2.50063">
        <ele>580.5</ele>
        <time>2011-04-06T17:18:02Z</time>
      </trkpt>
      <trkpt lat="44.34221" lon="2.50058">
        <ele>580.2</ele>
        <time>2011-04-06T17:18:03Z</time>
      </trkpt>
      <trkpt lat="44.34217" lon="2.50053">
        <ele>579.7</ele>
        <time>2011-04-06T17:18:04Z</time>
      </trkpt>
      <trkpt lat="44.34214" lon="2.50049">
        <ele>579.2</ele>
        <time>2011-04-06T17:18:05Z</time>
      </trkpt>
      <trkpt lat="44.34209" lon="2.50046">
        <ele>578.7</ele>
        <time>2011-04-06T17:18:06Z</time>
      </trkpt>
      <trkpt lat="44.34204" lon="2.50045">
        <ele>578.4</ele>
        <time>2011-04-06T17:18:07Z</time>
      </trkpt>
      <trkpt lat="44.34198" lon="2.50046">
        <ele>578</ele>
        <time>2011-04-06T17:18:08Z</time>
      </trkpt>
      <trkpt lat="44.34193" lon="2.50047">
        <ele>577.4</ele>
        <time>2011-04-06T17:18:09Z</time>
      </trkpt>
      <trkpt lat="44.34189" lon="2.50047">
        <ele>576.7</ele>
        <time>2011-04-06T17:18:10Z</time>
      </trkpt>
      <trkpt lat="44.34184" lon="2.50046">
        <ele>575.9</ele>
        <time>2011-04-06T17:18:11Z</time>
      </trkpt>
      <trkpt lat="44.34179" lon="2.50043">
        <ele>575.4</ele>
        <time>2011-04-06T17:18:12Z</time>
      </trkpt>
      <trkpt lat="44.34175" lon="2.50038">
        <ele>575</ele>
        <time>2011-04-06T17:18:13Z</time>
      </trkpt>
      <trkpt lat="44.34171" lon="2.50032">
        <ele>574.5</ele>
        <time>2011-04-06T17:18:14Z</time>
      </trkpt>
      <trkpt lat="44.34166" lon="2.50027">
        <ele>574</ele>
        <time>2011-04-06T17:18:15Z</time>
      </trkpt>
      <trkpt lat="44.34161" lon="2.50023">
        <ele>573.5</ele>
        <time>2011-04-06T17:18:16Z</time>
      </trkpt>
      <trkpt lat="44.34157" lon="2.50018">
        <ele>573</ele>
        <time>2011-04-06T17:18:17Z</time>
      </trkpt>
      <trkpt lat="44.34153" lon="2.50013">
        <ele>572.9</ele>
        <time>2011-04-06T17:18:18Z</time>
      </trkpt>
      <trkpt lat="44.3415" lon="2.5001">
        <ele>572.5</ele>
        <time>2011-04-06T17:18:19Z</time>
      </trkpt>
      <trkpt lat="44.34147" lon="2.50008">
        <ele>572</ele>
        <time>2011-04-06T17:18:20Z</time>
      </trkpt>
      <trkpt lat="44.34145" lon="2.50005">
        <ele>571.5</ele>
        <time>2011-04-06T17:18:21Z</time>
      </trkpt>
      <trkpt lat="44.34141" lon="2.50002">
        <ele>570.5</ele>
        <time>2011-04-06T17:18:22Z</time>
      </trkpt>
      <trkpt lat="44.34137" lon="2.49997">
        <ele>569.7</ele>
        <time>2011-04-06T17:18:23Z</time>
      </trkpt>
      <trkpt lat="44.34133" lon="2.49994">
        <ele>568.7</ele>
        <time>2011-04-06T17:18:24Z</time>
      </trkpt>
      <trkpt lat="44.34131" lon="2.49988">
        <ele>567.7</ele>
        <time>2011-04-06T17:18:25Z</time>
      </trkpt>
      <trkpt lat="44.34128" lon="2.49981">
        <ele>567</ele>
        <time>2011-04-06T17:18:26Z</time>
      </trkpt>
      <trkpt lat="44.34126" lon="2.49975">
        <ele>566.2</ele>
        <time>2011-04-06T17:18:27Z</time>
      </trkpt>
      <trkpt lat="44.34123" lon="2.49968">
        <ele>565.5</ele>
        <time>2011-04-06T17:18:28Z</time>
      </trkpt>
      <trkpt lat="44.34121" lon="2.49962">
        <ele>565</ele>
        <time>2011-04-06T17:18:29Z</time>
      </trkpt>
      <trkpt lat="44.34121" lon="2.49957">
        <ele>564.5</ele>
        <time>2011-04-06T17:18:30Z</time>
      </trkpt>
      <trkpt lat="44.3412" lon="2.49951">
        <ele>563.7</ele>
        <time>2011-04-06T17:18:32Z</time>
      </trkpt>
      <trkpt lat="44.34119" lon="2.49948">
        <ele>563.2</ele>
        <time>2011-04-06T17:18:33Z</time>
      </trkpt>
      <trkpt lat="44.34118" lon="2.49945">
        <ele>562.7</ele>
        <time>2011-04-06T17:18:34Z</time>
      </trkpt>
      <trkpt lat="44.34117" lon="2.4994">
        <ele>562.2</ele>
        <time>2011-04-06T17:18:35Z</time>
      </trkpt>
      <trkpt lat="44.34116" lon="2.49935">
        <ele>561.5</ele>
        <time>2011-04-06T17:18:36Z</time>
      </trkpt>
      <trkpt lat="44.34115" lon="2.4993">
        <ele>560.7</ele>
        <time>2011-04-06T17:18:37Z</time>
      </trkpt>
      <trkpt lat="44.34114" lon="2.49924">
        <ele>559.7</ele>
        <time>2011-04-06T17:18:38Z</time>
      </trkpt>
      <trkpt lat="44.34112" lon="2.49918">
        <ele>558.5</ele>
        <time>2011-04-06T17:18:39Z</time>
      </trkpt>
      <trkpt lat="44.34109" lon="2.49914">
        <ele>557.5</ele>
        <time>2011-04-06T17:18:40Z</time>
      </trkpt>
      <trkpt lat="44.34107" lon="2.4991">
        <ele>556.5</ele>
        <time>2011-04-06T17:18:41Z</time>
      </trkpt>
      <trkpt lat="44.34104" lon="2.49907">
        <ele>555.5</ele>
        <time>2011-04-06T17:18:42Z</time>
      </trkpt>
      <trkpt lat="44.34102" lon="2.49903">
        <ele>554.4</ele>
        <time>2011-04-06T17:18:43Z</time>
      </trkpt>
      <trkpt lat="44.34101" lon="2.49899">
        <ele>553</ele>
        <time>2011-04-06T17:18:44Z</time>
      </trkpt>
      <trkpt lat="44.341" lon="2.49894">
        <ele>551.9</ele>
        <time>2011-04-06T17:18:45Z</time>
      </trkpt>
      <trkpt lat="44.341" lon="2.49889">
        <ele>550.9</ele>
        <time>2011-04-06T17:18:46Z</time>
      </trkpt>
      <trkpt lat="44.34101" lon="2.49884">
        <ele>549.7</ele>
        <time>2011-04-06T17:18:47Z</time>
      </trkpt>
      <trkpt lat="44.341" lon="2.49879">
        <ele>548.5</ele>
        <time>2011-04-06T17:18:48Z</time>
      </trkpt>
      <trkpt lat="44.34098" lon="2.49877">
        <ele>547.5</ele>
        <time>2011-04-06T17:18:49Z</time>
      </trkpt>
      <trkpt lat="44.34093" lon="2.49875">
        <ele>545.7</ele>
        <time>2011-04-06T17:18:51Z</time>
      </trkpt>
      <trkpt lat="44.3409" lon="2.49876">
        <ele>544</ele>
        <time>2011-04-06T17:18:54Z</time>
      </trkpt>
      <trkpt lat="44.34089" lon="2.49876">
        <ele>543.5</ele>
        <time>2011-04-06T17:18:55Z</time>
      </trkpt>
      <trkpt lat="44.34081" lon="2.49875">
        <ele>541.2</ele>
        <time>2011-04-06T17:18:59Z</time>
      </trkpt>
      <trkpt lat="44.34078" lon="2.49874">
        <ele>539.2</ele>
        <time>2011-04-06T17:19:01Z</time>
      </trkpt>
      <trkpt lat="44.34074" lon="2.49872">
        <ele>537</ele>
        <time>2011-04-06T17:19:03Z</time>
      </trkpt>
      <trkpt lat="44.34076" lon="2.49868">
        <ele>536.7</ele>
        <time>2011-04-06T17:20:01Z</time>
      </trkpt>
      <trkpt lat="44.34076" lon="2.49866">
        <ele>536.7</ele>
        <time>2011-04-06T17:20:02Z</time>
      </trkpt>
      <trkpt lat="44.34078" lon="2.49858">
        <ele>536.2</ele>
        <time>2011-04-06T17:20:10Z</time>
      </trkpt>
      <trkpt lat="44.34075" lon="2.49855">
        <ele>536.2</ele>
        <time>2011-04-06T17:20:15Z</time>
      </trkpt>
      <trkpt lat="44.34071" lon="2.49856">
        <ele>536</ele>
        <time>2011-04-06T17:20:18Z</time>
      </trkpt>
      <trkpt lat="44.34068" lon="2.49858">
        <ele>535.5</ele>
        <time>2011-04-06T17:20:20Z</time>
      </trkpt>
      <trkpt lat="44.34066" lon="2.49862">
        <ele>535.2</ele>
        <time>2011-04-06T17:20:22Z</time>
      </trkpt>
      <trkpt lat="44.34063" lon="2.49867">
        <ele>534.4</ele>
        <time>2011-04-06T17:20:24Z</time>
      </trkpt>
      <trkpt lat="44.34061" lon="2.49869">
        <ele>533.7</ele>
        <time>2011-04-06T17:20:25Z</time>
      </trkpt>
      <trkpt lat="44.34057" lon="2.49871">
        <ele>532.7</ele>
        <time>2011-04-06T17:20:27Z</time>
      </trkpt>
      <trkpt lat="44.34056" lon="2.49866">
        <ele>532</ele>
        <time>2011-04-06T17:20:31Z</time>
      </trkpt>
      <trkpt lat="44.34057" lon="2.4986">
        <ele>531.7</ele>
        <time>2011-04-06T17:20:58Z</time>
      </trkpt>
      <trkpt lat="44.34058" lon="2.49855">
        <ele>531.7</ele>
        <time>2011-04-06T17:21:07Z</time>
      </trkpt>
      <trkpt lat="44.34059" lon="2.49853">
        <ele>531.7</ele>
        <time>2011-04-06T17:21:08Z</time>
      </trkpt>
      <trkpt lat="44.34059" lon="2.49847">
        <ele>531.5</ele>
        <time>2011-04-06T17:21:11Z</time>
      </trkpt>
      <trkpt lat="44.34058" lon="2.49841">
        <ele>530.5</ele>
        <time>2011-04-06T17:21:13Z</time>
      </trkpt>
      <trkpt lat="44.34059" lon="2.49836">
        <ele>529.7</ele>
        <time>2011-04-06T17:21:15Z</time>
      </trkpt>
      <trkpt lat="44.34063" lon="2.49833">
        <ele>528.7</ele>
        <time>2011-04-06T17:21:17Z</time>
      </trkpt>
      <trkpt lat="44.34065" lon="2.49829">
        <ele>527.7</ele>
        <time>2011-04-06T17:21:19Z</time>
      </trkpt>
      <trkpt lat="44.34068" lon="2.49824">
        <ele>527</ele>
        <time>2011-04-06T17:21:21Z</time>
      </trkpt>
      <trkpt lat="44.3407" lon="2.49822">
        <ele>526.7</ele>
        <time>2011-04-06T17:21:22Z</time>
      </trkpt>
      <trkpt lat="44.34072" lon="2.4982">
        <ele>526</ele>
        <time>2011-04-06T17:21:23Z</time>
      </trkpt>
      <trkpt lat="44.34074" lon="2.49818">
        <ele>525.7</ele>
        <time>2011-04-06T17:21:24Z</time>
      </trkpt>
      <trkpt lat="44.34076" lon="2.49815">
        <ele>525.2</ele>
        <time>2011-04-06T17:21:25Z</time>
      </trkpt>
      <trkpt lat="44.34078" lon="2.49813">
        <ele>524.9</ele>
        <time>2011-04-06T17:21:26Z</time>
      </trkpt>
      <trkpt lat="44.3408" lon="2.49811">
        <ele>524.4</ele>
        <time>2011-04-06T17:21:27Z</time>
      </trkpt>
      <trkpt lat="44.34082" lon="2.49809">
        <ele>524</ele>
        <time>2011-04-06T17:21:28Z</time>
      </trkpt>
      <trkpt lat="44.34085" lon="2.49807">
        <ele>523.7</ele>
        <time>2011-04-06T17:21:29Z</time>
      </trkpt>
      <trkpt lat="44.34087" lon="2.49806">
        <ele>523.5</ele>
        <time>2011-04-06T17:21:30Z</time>
      </trkpt>
      <trkpt lat="44.3409" lon="2.49805">
        <ele>523.4</ele>
        <time>2011-04-06T17:21:31Z</time>
      </trkpt>
      <trkpt lat="44.34093" lon="2.49804">
        <ele>522.9</ele>
        <time>2011-04-06T17:21:32Z</time>
      </trkpt>
      <trkpt lat="44.34096" lon="2.49802">
        <ele>522.4</ele>
        <time>2011-04-06T17:21:33Z</time>
      </trkpt>
      <trkpt lat="44.34099" lon="2.498">
        <ele>521.7</ele>
        <time>2011-04-06T17:21:34Z</time>
      </trkpt>
      <trkpt lat="44.34103" lon="2.498">
        <ele>521</ele>
        <time>2011-04-06T17:21:35Z</time>
      </trkpt>
      <trkpt lat="44.34099" lon="2.49796">
        <ele>516.2</ele>
        <time>2011-04-06T17:21:42Z</time>
      </trkpt>
      <trkpt lat="44.34096" lon="2.49796">
        <ele>515.7</ele>
        <time>2011-04-06T17:21:44Z</time>
      </trkpt>
      <trkpt lat="44.34093" lon="2.49797">
        <ele>515.2</ele>
        <time>2011-04-06T17:21:46Z</time>
      </trkpt>
      <trkpt lat="44.34088" lon="2.49798">
        <ele>514.2</ele>
        <time>2011-04-06T17:21:48Z</time>
      </trkpt>
      <trkpt lat="44.34086" lon="2.49799">
        <ele>513.7</ele>
        <time>2011-04-06T17:21:49Z</time>
      </trkpt>
      <trkpt lat="44.34082" lon="2.49799">
        <ele>512.7</ele>
        <time>2011-04-06T17:21:50Z</time>
      </trkpt>
      <trkpt lat="44.34079" lon="2.498">
        <ele>511.6</ele>
        <time>2011-04-06T17:21:51Z</time>
      </trkpt>
      <trkpt lat="44.34074" lon="2.49801">
        <ele>510.2</ele>
        <time>2011-04-06T17:21:52Z</time>
      </trkpt>
      <trkpt lat="44.34068" lon="2.49803">
        <ele>508.6</ele>
        <time>2011-04-06T17:21:53Z</time>
      </trkpt>
      <trkpt lat="44.34063" lon="2.49806">
        <ele>507.2</ele>
        <time>2011-04-06T17:21:54Z</time>
      </trkpt>
      <trkpt lat="44.34057" lon="2.49809">
        <ele>506</ele>
        <time>2011-04-06T17:21:55Z</time>
      </trkpt>
      <trkpt lat="44.3405" lon="2.49812">
        <ele>505.1</ele>
        <time>2011-04-06T17:21:56Z</time>
      </trkpt>
      <trkpt lat="44.34045" lon="2.49813">
        <ele>503.8</ele>
        <time>2011-04-06T17:21:57Z</time>
      </trkpt>
      <trkpt lat="44.34042" lon="2.49815">
        <ele>502.3</ele>
        <time>2011-04-06T17:21:58Z</time>
      </trkpt>
      <trkpt lat="44.34038" lon="2.49818">
        <ele>500.2</ele>
        <time>2011-04-06T17:22:00Z</time>
      </trkpt>
      <trkpt lat="44.34034" lon="2.49818">
        <ele>501.5</ele>
        <time>2011-04-06T17:22:09Z</time>
      </trkpt>
      <trkpt lat="44.34033" lon="2.49818">
        <ele>502</ele>
        <time>2011-04-06T17:22:10Z</time>
      </trkpt>
      <trkpt lat="44.34027" lon="2.49822">
        <ele>510.2</ele>
        <time>2011-04-06T17:22:29Z</time>
      </trkpt>
      <trkpt lat="44.34026" lon="2.49825">
        <ele>510.7</ele>
        <time>2011-04-06T17:22:30Z</time>
      </trkpt>
      <trkpt lat="44.34025" lon="2.49829">
        <ele>511.1</ele>
        <time>2011-04-06T17:22:31Z</time>
      </trkpt>
      <trkpt lat="44.34025" lon="2.49832">
        <ele>511.3</ele>
        <time>2011-04-06T17:22:32Z</time>
      </trkpt>
      <trkpt lat="44.34024" lon="2.49836">
        <ele>511.7</ele>
        <time>2011-04-06T17:22:33Z</time>
      </trkpt>
      <trkpt lat="44.34023" lon="2.4984">
        <ele>512</ele>
        <time>2011-04-06T17:22:34Z</time>
      </trkpt>
      <trkpt lat="44.34023" lon="2.49845">
        <ele>512.2</ele>
        <time>2011-04-06T17:22:35Z</time>
      </trkpt>
      <trkpt lat="44.34023" lon="2.4985">
        <ele>512.4</ele>
        <time>2011-04-06T17:22:36Z</time>
      </trkpt>
      <trkpt lat="44.34023" lon="2.49855">
        <ele>512.5</ele>
        <time>2011-04-06T17:22:37Z</time>
      </trkpt>
      <trkpt lat="44.34023" lon="2.4986">
        <ele>512.5</ele>
        <time>2011-04-06T17:22:38Z</time>
      </trkpt>
      <trkpt lat="44.34023" lon="2.49866">
        <ele>512.7</ele>
        <time>2011-04-06T17:22:39Z</time>
      </trkpt>
      <trkpt lat="44.34024" lon="2.49872">
        <ele>512.7</ele>
        <time>2011-04-06T17:22:40Z</time>
      </trkpt>
      <trkpt lat="44.34025" lon="2.49878">
        <ele>512.5</ele>
        <time>2011-04-06T17:22:41Z</time>
      </trkpt>
      <trkpt lat="44.34026" lon="2.49884">
        <ele>512.4</ele>
        <time>2011-04-06T17:22:42Z</time>
      </trkpt>
      <trkpt lat="44.34027" lon="2.49891">
        <ele>512.2</ele>
        <time>2011-04-06T17:22:43Z</time>
      </trkpt>
      <trkpt lat="44.34029" lon="2.49898">
        <ele>511.8</ele>
        <time>2011-04-06T17:22:44Z</time>
      </trkpt>
      <trkpt lat="44.3403" lon="2.49905">
        <ele>511.7</ele>
        <time>2011-04-06T17:22:45Z</time>
      </trkpt>
      <trkpt lat="44.34032" lon="2.49912">
        <ele>511.3</ele>
        <time>2011-04-06T17:22:46Z</time>
      </trkpt>
      <trkpt lat="44.34034" lon="2.4992">
        <ele>511</ele>
        <time>2011-04-06T17:22:47Z</time>
      </trkpt>
      <trkpt lat="44.34037" lon="2.49928">
        <ele>510.7</ele>
        <time>2011-04-06T17:22:48Z</time>
      </trkpt>
      <trkpt lat="44.34039" lon="2.49935">
        <ele>510.5</ele>
        <time>2011-04-06T17:22:49Z</time>
      </trkpt>
      <trkpt lat="44.34042" lon="2.49943">
        <ele>510.2</ele>
        <time>2011-04-06T17:22:50Z</time>
      </trkpt>
      <trkpt lat="44.34044" lon="2.49951">
        <ele>509.8</ele>
        <time>2011-04-06T17:22:51Z</time>
      </trkpt>
      <trkpt lat="44.34047" lon="2.49959">
        <ele>509.6</ele>
        <time>2011-04-06T17:22:52Z</time>
      </trkpt>
      <trkpt lat="44.34049" lon="2.49966">
        <ele>509.3</ele>
        <time>2011-04-06T17:22:53Z</time>
      </trkpt>
      <trkpt lat="44.34052" lon="2.49974">
        <ele>509.2</ele>
        <time>2011-04-06T17:22:54Z</time>
      </trkpt>
      <trkpt lat="44.34054" lon="2.49982">
        <ele>509.2</ele>
        <time>2011-04-06T17:22:55Z</time>
      </trkpt>
      <trkpt lat="44.34057" lon="2.49989">
        <ele>509.2</ele>
        <time>2011-04-06T17:22:56Z</time>
      </trkpt>
      <trkpt lat="44.34059" lon="2.49996">
        <ele>509.6</ele>
        <time>2011-04-06T17:22:57Z</time>
      </trkpt>
      <trkpt lat="44.34061" lon="2.50004">
        <ele>509.8</ele>
        <time>2011-04-06T17:22:58Z</time>
      </trkpt>
      <trkpt lat="44.34064" lon="2.50011">
        <ele>510.2</ele>
        <time>2011-04-06T17:22:59Z</time>
      </trkpt>
      <trkpt lat="44.34067" lon="2.50019">
        <ele>510.3</ele>
        <time>2011-04-06T17:23:00Z</time>
      </trkpt>
      <trkpt lat="44.34069" lon="2.50026">
        <ele>510.5</ele>
        <time>2011-04-06T17:23:01Z</time>
      </trkpt>
      <trkpt lat="44.34072" lon="2.50034">
        <ele>510.5</ele>
        <time>2011-04-06T17:23:02Z</time>
      </trkpt>
      <trkpt lat="44.34076" lon="2.50041">
        <ele>510.2</ele>
        <time>2011-04-06T17:23:03Z</time>
      </trkpt>
      <trkpt lat="44.34079" lon="2.50049">
        <ele>509.8</ele>
        <time>2011-04-06T17:23:04Z</time>
      </trkpt>
      <trkpt lat="44.34082" lon="2.50056">
        <ele>509.6</ele>
        <time>2011-04-06T17:23:05Z</time>
      </trkpt>
      <trkpt lat="44.34085" lon="2.50063">
        <ele>509.5</ele>
        <time>2011-04-06T17:23:06Z</time>
      </trkpt>
      <trkpt lat="44.34088" lon="2.50071">
        <ele>509.3</ele>
        <time>2011-04-06T17:23:07Z</time>
      </trkpt>
      <trkpt lat="44.34091" lon="2.50078">
        <ele>509.2</ele>
        <time>2011-04-06T17:23:08Z</time>
      </trkpt>
      <trkpt lat="44.34094" lon="2.50085">
        <ele>509.2</ele>
        <time>2011-04-06T17:23:09Z</time>
      </trkpt>
      <trkpt lat="44.34097" lon="2.50092">
        <ele>509.1</ele>
        <time>2011-04-06T17:23:10Z</time>
      </trkpt>
      <trkpt lat="44.34101" lon="2.50099">
        <ele>509.1</ele>
        <time>2011-04-06T17:23:11Z</time>
      </trkpt>
      <trkpt lat="44.34104" lon="2.50107">
        <ele>509</ele>
        <time>2011-04-06T17:23:12Z</time>
      </trkpt>
      <trkpt lat="44.34107" lon="2.50114">
        <ele>509</ele>
        <time>2011-04-06T17:23:13Z</time>
      </trkpt>
      <trkpt lat="44.3411" lon="2.50121">
        <ele>508.8</ele>
        <time>2011-04-06T17:23:14Z</time>
      </trkpt>
      <trkpt lat="44.34112" lon="2.50128">
        <ele>508.7</ele>
        <time>2011-04-06T17:23:15Z</time>
      </trkpt>
      <trkpt lat="44.34115" lon="2.50135">
        <ele>508.7</ele>
        <time>2011-04-06T17:23:16Z</time>
      </trkpt>
      <trkpt lat="44.34118" lon="2.50142">
        <ele>508.6</ele>
        <time>2011-04-06T17:23:17Z</time>
      </trkpt>
      <trkpt lat="44.34121" lon="2.50149">
        <ele>508.3</ele>
        <time>2011-04-06T17:23:18Z</time>
      </trkpt>
      <trkpt lat="44.34124" lon="2.50156">
        <ele>508.2</ele>
        <time>2011-04-06T17:23:19Z</time>
      </trkpt>
      <trkpt lat="44.34127" lon="2.50163">
        <ele>508.2</ele>
        <time>2011-04-06T17:23:20Z</time>
      </trkpt>
      <trkpt lat="44.34129" lon="2.50169">
        <ele>508</ele>
        <time>2011-04-06T17:23:21Z</time>
      </trkpt>
      <trkpt lat="44.34132" lon="2.50176">
        <ele>507.8</ele>
        <time>2011-04-06T17:23:22Z</time>
      </trkpt>
      <trkpt lat="44.34135" lon="2.50182">
        <ele>507.7</ele>
        <time>2011-04-06T17:23:23Z</time>
      </trkpt>
      <trkpt lat="44.34138" lon="2.50189">
        <ele>507.7</ele>
        <time>2011-04-06T17:23:24Z</time>
      </trkpt>
      <trkpt lat="44.34141" lon="2.50195">
        <ele>507.8</ele>
        <time>2011-04-06T17:23:25Z</time>
      </trkpt>
      <trkpt lat="44.34144" lon="2.50201">
        <ele>508.2</ele>
        <time>2011-04-06T17:23:26Z</time>
      </trkpt>
      <trkpt lat="44.34146" lon="2.50207">
        <ele>508.5</ele>
        <time>2011-04-06T17:23:27Z</time>
      </trkpt>
      <trkpt lat="44.34148" lon="2.50212">
        <ele>508.7</ele>
        <time>2011-04-06T17:23:28Z</time>
      </trkpt>
      <trkpt lat="44.34151" lon="2.50218">
        <ele>509.2</ele>
        <time>2011-04-06T17:23:29Z</time>
      </trkpt>
      <trkpt lat="44.34153" lon="2.50223">
        <ele>509.6</ele>
        <time>2011-04-06T17:23:30Z</time>
      </trkpt>
      <trkpt lat="44.34156" lon="2.50229">
        <ele>509.8</ele>
        <time>2011-04-06T17:23:31Z</time>
      </trkpt>
      <trkpt lat="44.34158" lon="2.50234">
        <ele>510.2</ele>
        <time>2011-04-06T17:23:32Z</time>
      </trkpt>
      <trkpt lat="44.3416" lon="2.50239">
        <ele>510.5</ele>
        <time>2011-04-06T17:23:33Z</time>
      </trkpt>
      <trkpt lat="44.34163" lon="2.50245">
        <ele>510.7</ele>
        <time>2011-04-06T17:23:34Z</time>
      </trkpt>
      <trkpt lat="44.34165" lon="2.50249">
        <ele>511.7</ele>
        <time>2011-04-06T17:23:35Z</time>
      </trkpt>
      <trkpt lat="44.34167" lon="2.50254">
        <ele>512.9</ele>
        <time>2011-04-06T17:23:36Z</time>
      </trkpt>
      <trkpt lat="44.34169" lon="2.50258">
        <ele>513.9</ele>
        <time>2011-04-06T17:23:37Z</time>
      </trkpt>
      <trkpt lat="44.34171" lon="2.50263">
        <ele>514.7</ele>
        <time>2011-04-06T17:23:38Z</time>
      </trkpt>
      <trkpt lat="44.34172" lon="2.50267">
        <ele>515.9</ele>
        <time>2011-04-06T17:23:39Z</time>
      </trkpt>
      <trkpt lat="44.34174" lon="2.50271">
        <ele>517</ele>
        <time>2011-04-06T17:23:40Z</time>
      </trkpt>
      <trkpt lat="44.34175" lon="2.50275">
        <ele>518.2</ele>
        <time>2011-04-06T17:23:41Z</time>
      </trkpt>
      <trkpt lat="44.34177" lon="2.50279">
        <ele>519.4</ele>
        <time>2011-04-06T17:23:42Z</time>
      </trkpt>
      <trkpt lat="44.34178" lon="2.50284">
        <ele>520.2</ele>
        <time>2011-04-06T17:23:43Z</time>
      </trkpt>
      <trkpt lat="44.34179" lon="2.50289">
        <ele>520.9</ele>
        <time>2011-04-06T17:23:44Z</time>
      </trkpt>
      <trkpt lat="44.3418" lon="2.50294">
        <ele>521.5</ele>
        <time>2011-04-06T17:23:45Z</time>
      </trkpt>
      <trkpt lat="44.34182" lon="2.50298">
        <ele>522</ele>
        <time>2011-04-06T17:23:46Z</time>
      </trkpt>
      <trkpt lat="44.34184" lon="2.50303">
        <ele>522.7</ele>
        <time>2011-04-06T17:23:47Z</time>
      </trkpt>
      <trkpt lat="44.34186" lon="2.50308">
        <ele>523</ele>
        <time>2011-04-06T17:23:48Z</time>
      </trkpt>
      <trkpt lat="44.34188" lon="2.50313">
        <ele>523.2</ele>
        <time>2011-04-06T17:23:49Z</time>
      </trkpt>
      <trkpt lat="44.3419" lon="2.50319">
        <ele>523.2</ele>
        <time>2011-04-06T17:23:50Z</time>
      </trkpt>
      <trkpt lat="44.34192" lon="2.50324">
        <ele>523.2</ele>
        <time>2011-04-06T17:23:51Z</time>
      </trkpt>
      <trkpt lat="44.34194" lon="2.5033">
        <ele>522.9</ele>
        <time>2011-04-06T17:23:52Z</time>
      </trkpt>
      <trkpt lat="44.34196" lon="2.50335">
        <ele>522.5</ele>
        <time>2011-04-06T17:23:53Z</time>
      </trkpt>
      <trkpt lat="44.34198" lon="2.50341">
        <ele>522.2</ele>
        <time>2011-04-06T17:23:54Z</time>
      </trkpt>
      <trkpt lat="44.342" lon="2.50347">
        <ele>522</ele>
        <time>2011-04-06T17:23:55Z</time>
      </trkpt>
      <trkpt lat="44.34202" lon="2.50352">
        <ele>521.5</ele>
        <time>2011-04-06T17:23:56Z</time>
      </trkpt>
      <trkpt lat="44.34204" lon="2.50358">
        <ele>521.2</ele>
        <time>2011-04-06T17:23:57Z</time>
      </trkpt>
      <trkpt lat="44.34207" lon="2.50363">
        <ele>520.9</ele>
        <time>2011-04-06T17:23:58Z</time>
      </trkpt>
      <trkpt lat="44.34209" lon="2.50369">
        <ele>520.7</ele>
        <time>2011-04-06T17:23:59Z</time>
      </trkpt>
      <trkpt lat="44.34211" lon="2.50375">
        <ele>520.5</ele>
        <time>2011-04-06T17:24:00Z</time>
      </trkpt>
      <trkpt lat="44.34213" lon="2.5038">
        <ele>520.2</ele>
        <time>2011-04-06T17:24:01Z</time>
      </trkpt>
      <trkpt lat="44.34215" lon="2.50386">
        <ele>520</ele>
        <time>2011-04-06T17:24:02Z</time>
      </trkpt>
      <trkpt lat="44.34216" lon="2.50392">
        <ele>519.9</ele>
        <time>2011-04-06T17:24:03Z</time>
      </trkpt>
      <trkpt lat="44.34218" lon="2.50398">
        <ele>520</ele>
        <time>2011-04-06T17:24:04Z</time>
      </trkpt>
      <trkpt lat="44.34219" lon="2.50403">
        <ele>520.5</ele>
        <time>2011-04-06T17:24:05Z</time>
      </trkpt>
      <trkpt lat="44.34221" lon="2.50408">
        <ele>521.2</ele>
        <time>2011-04-06T17:24:06Z</time>
      </trkpt>
      <trkpt lat="44.34222" lon="2.50413">
        <ele>521.7</ele>
        <time>2011-04-06T17:24:07Z</time>
      </trkpt>
      <trkpt lat="44.34223" lon="2.50419">
        <ele>522.2</ele>
        <time>2011-04-06T17:24:08Z</time>
      </trkpt>
      <trkpt lat="44.34225" lon="2.50424">
        <ele>522.5</ele>
        <time>2011-04-06T17:24:09Z</time>
      </trkpt>
      <trkpt lat="44.34226" lon="2.5043">
        <ele>523</ele>
        <time>2011-04-06T17:24:10Z</time>
      </trkpt>
      <trkpt lat="44.34226" lon="2.50436">
        <ele>523.2</ele>
        <time>2011-04-06T17:24:11Z</time>
      </trkpt>
      <trkpt lat="44.34227" lon="2.50442">
        <ele>523.5</ele>
        <time>2011-04-06T17:24:12Z</time>
      </trkpt>
      <trkpt lat="44.34228" lon="2.50448">
        <ele>523.5</ele>
        <time>2011-04-06T17:24:13Z</time>
      </trkpt>
      <trkpt lat="44.34229" lon="2.50454">
        <ele>523.2</ele>
        <time>2011-04-06T17:24:14Z</time>
      </trkpt>
      <trkpt lat="44.34229" lon="2.5046">
        <ele>523</ele>
        <time>2011-04-06T17:24:15Z</time>
      </trkpt>
      <trkpt lat="44.34229" lon="2.50467">
        <ele>522.9</ele>
        <time>2011-04-06T17:24:16Z</time>
      </trkpt>
      <trkpt lat="44.3423" lon="2.50473">
        <ele>522.7</ele>
        <time>2011-04-06T17:24:17Z</time>
      </trkpt>
      <trkpt lat="44.3423" lon="2.50479">
        <ele>522.7</ele>
        <time>2011-04-06T17:24:18Z</time>
      </trkpt>
      <trkpt lat="44.3423" lon="2.50485">
        <ele>522.7</ele>
        <time>2011-04-06T17:24:19Z</time>
      </trkpt>
      <trkpt lat="44.34229" lon="2.50491">
        <ele>522.7</ele>
        <time>2011-04-06T17:24:20Z</time>
      </trkpt>
      <trkpt lat="44.34229" lon="2.50497">
        <ele>522.9</ele>
        <time>2011-04-06T17:24:21Z</time>
      </trkpt>
      <trkpt lat="44.34229" lon="2.50503">
        <ele>522.7</ele>
        <time>2011-04-06T17:24:22Z</time>
      </trkpt>
      <trkpt lat="44.34228" lon="2.5051">
        <ele>522.7</ele>
        <time>2011-04-06T17:24:23Z</time>
      </trkpt>
      <trkpt lat="44.34228" lon="2.50517">
        <ele>522.7</ele>
        <time>2011-04-06T17:24:24Z</time>
      </trkpt>
      <trkpt lat="44.34227" lon="2.50523">
        <ele>522.5</ele>
        <time>2011-04-06T17:24:25Z</time>
      </trkpt>
      <trkpt lat="44.34227" lon="2.50529">
        <ele>522.4</ele>
        <time>2011-04-06T17:24:26Z</time>
      </trkpt>
      <trkpt lat="44.34226" lon="2.50536">
        <ele>522.2</ele>
        <time>2011-04-06T17:24:27Z</time>
      </trkpt>
      <trkpt lat="44.34225" lon="2.50543">
        <ele>522.2</ele>
        <time>2011-04-06T17:24:28Z</time>
      </trkpt>
      <trkpt lat="44.34224" lon="2.50549">
        <ele>522.2</ele>
        <time>2011-04-06T17:24:29Z</time>
      </trkpt>
      <trkpt lat="44.34224" lon="2.50556">
        <ele>522.2</ele>
        <time>2011-04-06T17:24:30Z</time>
      </trkpt>
      <trkpt lat="44.34223" lon="2.50562">
        <ele>522.2</ele>
        <time>2011-04-06T17:24:31Z</time>
      </trkpt>
      <trkpt lat="44.34222" lon="2.50569">
        <ele>522</ele>
        <time>2011-04-06T17:24:32Z</time>
      </trkpt>
      <trkpt lat="44.34221" lon="2.50576">
        <ele>521.7</ele>
        <time>2011-04-06T17:24:33Z</time>
      </trkpt>
      <trkpt lat="44.3422" lon="2.50583">
        <ele>521.4</ele>
        <time>2011-04-06T17:24:34Z</time>
      </trkpt>
      <trkpt lat="44.34219" lon="2.5059">
        <ele>521</ele>
        <time>2011-04-06T17:24:35Z</time>
      </trkpt>
      <trkpt lat="44.34218" lon="2.50597">
        <ele>520.7</ele>
        <time>2011-04-06T17:24:36Z</time>
      </trkpt>
      <trkpt lat="44.34217" lon="2.50603">
        <ele>520.4</ele>
        <time>2011-04-06T17:24:37Z</time>
      </trkpt>
      <trkpt lat="44.34216" lon="2.5061">
        <ele>520</ele>
        <time>2011-04-06T17:24:38Z</time>
      </trkpt>
      <trkpt lat="44.34214" lon="2.50616">
        <ele>519.7</ele>
        <time>2011-04-06T17:24:39Z</time>
      </trkpt>
      <trkpt lat="44.34213" lon="2.50622">
        <ele>519.4</ele>
        <time>2011-04-06T17:24:40Z</time>
      </trkpt>
      <trkpt lat="44.34212" lon="2.50628">
        <ele>519.2</ele>
        <time>2011-04-06T17:24:41Z</time>
      </trkpt>
      <trkpt lat="44.3421" lon="2.50635">
        <ele>519</ele>
        <time>2011-04-06T17:24:42Z</time>
      </trkpt>
      <trkpt lat="44.34209" lon="2.50641">
        <ele>518.9</ele>
        <time>2011-04-06T17:24:43Z</time>
      </trkpt>
      <trkpt lat="44.34208" lon="2.50648">
        <ele>518.7</ele>
        <time>2011-04-06T17:24:44Z</time>
      </trkpt>
      <trkpt lat="44.34207" lon="2.50654">
        <ele>518.5</ele>
        <time>2011-04-06T17:24:45Z</time>
      </trkpt>
      <trkpt lat="44.34206" lon="2.5066">
        <ele>518.2</ele>
        <time>2011-04-06T17:24:46Z</time>
      </trkpt>
      <trkpt lat="44.34206" lon="2.50667">
        <ele>518.2</ele>
        <time>2011-04-06T17:24:47Z</time>
      </trkpt>
      <trkpt lat="44.34205" lon="2.50673">
        <ele>518.2</ele>
        <time>2011-04-06T17:24:48Z</time>
      </trkpt>
      <trkpt lat="44.34204" lon="2.50679">
        <ele>518.2</ele>
        <time>2011-04-06T17:24:49Z</time>
      </trkpt>
      <trkpt lat="44.34202" lon="2.50685">
        <ele>518.2</ele>
        <time>2011-04-06T17:24:50Z</time>
      </trkpt>
      <trkpt lat="44.34201" lon="2.50691">
        <ele>518.2</ele>
        <time>2011-04-06T17:24:51Z</time>
      </trkpt>
      <trkpt lat="44.34199" lon="2.50697">
        <ele>518.2</ele>
        <time>2011-04-06T17:24:52Z</time>
      </trkpt>
      <trkpt lat="44.34198" lon="2.50703">
        <ele>518.4</ele>
        <time>2011-04-06T17:24:53Z</time>
      </trkpt>
      <trkpt lat="44.34196" lon="2.50709">
        <ele>518.5</ele>
        <time>2011-04-06T17:24:54Z</time>
      </trkpt>
      <trkpt lat="44.34194" lon="2.50715">
        <ele>518.7</ele>
        <time>2011-04-06T17:24:55Z</time>
      </trkpt>
      <trkpt lat="44.34193" lon="2.50721">
        <ele>518.9</ele>
        <time>2011-04-06T17:24:56Z</time>
      </trkpt>
      <trkpt lat="44.34191" lon="2.50727">
        <ele>519</ele>
        <time>2011-04-06T17:24:57Z</time>
      </trkpt>
      <trkpt lat="44.3419" lon="2.50733">
        <ele>519.4</ele>
        <time>2011-04-06T17:24:58Z</time>
      </trkpt>
      <trkpt lat="44.34188" lon="2.50739">
        <ele>519.5</ele>
        <time>2011-04-06T17:24:59Z</time>
      </trkpt>
      <trkpt lat="44.34186" lon="2.50745">
        <ele>519.7</ele>
        <time>2011-04-06T17:25:00Z</time>
      </trkpt>
      <trkpt lat="44.34185" lon="2.50752">
        <ele>519.5</ele>
        <time>2011-04-06T17:25:01Z</time>
      </trkpt>
      <trkpt lat="44.34184" lon="2.50759">
        <ele>519.5</ele>
        <time>2011-04-06T17:25:02Z</time>
      </trkpt>
      <trkpt lat="44.34183" lon="2.50765">
        <ele>519.4</ele>
        <time>2011-04-06T17:25:03Z</time>
      </trkpt>
      <trkpt lat="44.34182" lon="2.50772">
        <ele>519.2</ele>
        <time>2011-04-06T17:25:04Z</time>
      </trkpt>
      <trkpt lat="44.34181" lon="2.50778">
        <ele>519</ele>
        <time>2011-04-06T17:25:05Z</time>
      </trkpt>
      <trkpt lat="44.34179" lon="2.50785">
        <ele>518.7</ele>
        <time>2011-04-06T17:25:06Z</time>
      </trkpt>
      <trkpt lat="44.34178" lon="2.50791">
        <ele>518.7</ele>
        <time>2011-04-06T17:25:07Z</time>
      </trkpt>
      <trkpt lat="44.34176" lon="2.50797">
        <ele>518.5</ele>
        <time>2011-04-06T17:25:08Z</time>
      </trkpt>
      <trkpt lat="44.34174" lon="2.50803">
        <ele>518.5</ele>
        <time>2011-04-06T17:25:09Z</time>
      </trkpt>
      <trkpt lat="44.34172" lon="2.50809">
        <ele>518.2</ele>
        <time>2011-04-06T17:25:10Z</time>
      </trkpt>
      <trkpt lat="44.34171" lon="2.50816">
        <ele>518.2</ele>
        <time>2011-04-06T17:25:11Z</time>
      </trkpt>
      <trkpt lat="44.3417" lon="2.50822">
        <ele>518</ele>
        <time>2011-04-06T17:25:12Z</time>
      </trkpt>
      <trkpt lat="44.34168" lon="2.50827">
        <ele>518.2</ele>
        <time>2011-04-06T17:25:13Z</time>
      </trkpt>
      <trkpt lat="44.34166" lon="2.50833">
        <ele>518.5</ele>
        <time>2011-04-06T17:25:14Z</time>
      </trkpt>
      <trkpt lat="44.34165" lon="2.50838">
        <ele>519</ele>
        <time>2011-04-06T17:25:15Z</time>
      </trkpt>
      <trkpt lat="44.34163" lon="2.50843">
        <ele>519.7</ele>
        <time>2011-04-06T17:25:16Z</time>
      </trkpt>
      <trkpt lat="44.34161" lon="2.50848">
        <ele>520.7</ele>
        <time>2011-04-06T17:25:17Z</time>
      </trkpt>
      <trkpt lat="44.3416" lon="2.50853">
        <ele>521.5</ele>
        <time>2011-04-06T17:25:18Z</time>
      </trkpt>
      <trkpt lat="44.34158" lon="2.50859">
        <ele>522</ele>
        <time>2011-04-06T17:25:19Z</time>
      </trkpt>
      <trkpt lat="44.34156" lon="2.50864">
        <ele>522.2</ele>
        <time>2011-04-06T17:25:20Z</time>
      </trkpt>
      <trkpt lat="44.34154" lon="2.50869">
        <ele>522.5</ele>
        <time>2011-04-06T17:25:21Z</time>
      </trkpt>
      <trkpt lat="44.34152" lon="2.50875">
        <ele>522.7</ele>
        <time>2011-04-06T17:25:22Z</time>
      </trkpt>
      <trkpt lat="44.3415" lon="2.5088">
        <ele>523</ele>
        <time>2011-04-06T17:25:23Z</time>
      </trkpt>
      <trkpt lat="44.34149" lon="2.50885">
        <ele>523.2</ele>
        <time>2011-04-06T17:25:24Z</time>
      </trkpt>
      <trkpt lat="44.34146" lon="2.50889">
        <ele>523.7</ele>
        <time>2011-04-06T17:25:25Z</time>
      </trkpt>
      <trkpt lat="44.34144" lon="2.50894">
        <ele>524</ele>
        <time>2011-04-06T17:25:26Z</time>
      </trkpt>
      <trkpt lat="44.34142" lon="2.50899">
        <ele>524.2</ele>
        <time>2011-04-06T17:25:27Z</time>
      </trkpt>
      <trkpt lat="44.3414" lon="2.50903">
        <ele>524.5</ele>
        <time>2011-04-06T17:25:28Z</time>
      </trkpt>
      <trkpt lat="44.34138" lon="2.50908">
        <ele>524.5</ele>
        <time>2011-04-06T17:25:29Z</time>
      </trkpt>
      <trkpt lat="44.34136" lon="2.50913">
        <ele>524.7</ele>
        <time>2011-04-06T17:25:30Z</time>
      </trkpt>
      <trkpt lat="44.34134" lon="2.50917">
        <ele>524.9</ele>
        <time>2011-04-06T17:25:31Z</time>
      </trkpt>
      <trkpt lat="44.34131" lon="2.50921">
        <ele>525</ele>
        <time>2011-04-06T17:25:32Z</time>
      </trkpt>
      <trkpt lat="44.34129" lon="2.50925">
        <ele>525.2</ele>
        <time>2011-04-06T17:25:33Z</time>
      </trkpt>
      <trkpt lat="44.34126" lon="2.5093">
        <ele>525.5</ele>
        <time>2011-04-06T17:25:34Z</time>
      </trkpt>
      <trkpt lat="44.34124" lon="2.50933">
        <ele>525.9</ele>
        <time>2011-04-06T17:25:35Z</time>
      </trkpt>
      <trkpt lat="44.34121" lon="2.50937">
        <ele>526.2</ele>
        <time>2011-04-06T17:25:36Z</time>
      </trkpt>
      <trkpt lat="44.34118" lon="2.5094">
        <ele>527</ele>
        <time>2011-04-06T17:25:37Z</time>
      </trkpt>
      <trkpt lat="44.34115" lon="2.50943">
        <ele>527.5</ele>
        <time>2011-04-06T17:25:38Z</time>
      </trkpt>
      <trkpt lat="44.34111" lon="2.50945">
        <ele>528.2</ele>
        <time>2011-04-06T17:25:39Z</time>
      </trkpt>
      <trkpt lat="44.34108" lon="2.50948">
        <ele>529</ele>
        <time>2011-04-06T17:25:40Z</time>
      </trkpt>
      <trkpt lat="44.34105" lon="2.50951">
        <ele>529.9</ele>
        <time>2011-04-06T17:25:41Z</time>
      </trkpt>
      <trkpt lat="44.34101" lon="2.50955">
        <ele>530.5</ele>
        <time>2011-04-06T17:25:42Z</time>
      </trkpt>
      <trkpt lat="44.34098" lon="2.50958">
        <ele>531.2</ele>
        <time>2011-04-06T17:25:43Z</time>
      </trkpt>
      <trkpt lat="44.34095" lon="2.50963">
        <ele>531.5</ele>
        <time>2011-04-06T17:25:44Z</time>
      </trkpt>
      <trkpt lat="44.34092" lon="2.50967">
        <ele>532</ele>
        <time>2011-04-06T17:25:45Z</time>
      </trkpt>
      <trkpt lat="44.34089" lon="2.50972">
        <ele>532.4</ele>
        <time>2011-04-06T17:25:46Z</time>
      </trkpt>
      <trkpt lat="44.34086" lon="2.50976">
        <ele>532.9</ele>
        <time>2011-04-06T17:25:47Z</time>
      </trkpt>
      <trkpt lat="44.34084" lon="2.50981">
        <ele>533.4</ele>
        <time>2011-04-06T17:25:48Z</time>
      </trkpt>
      <trkpt lat="44.34081" lon="2.50986">
        <ele>534</ele>
        <time>2011-04-06T17:25:49Z</time>
      </trkpt>
      <trkpt lat="44.34079" lon="2.5099">
        <ele>534.4</ele>
        <time>2011-04-06T17:25:50Z</time>
      </trkpt>
      <trkpt lat="44.34076" lon="2.50995">
        <ele>534.5</ele>
        <time>2011-04-06T17:25:51Z</time>
      </trkpt>
      <trkpt lat="44.34074" lon="2.50999">
        <ele>534.7</ele>
        <time>2011-04-06T17:25:52Z</time>
      </trkpt>
      <trkpt lat="44.34071" lon="2.51004">
        <ele>534.7</ele>
        <time>2011-04-06T17:25:53Z</time>
      </trkpt>
      <trkpt lat="44.34069" lon="2.51009">
        <ele>534.7</ele>
        <time>2011-04-06T17:25:54Z</time>
      </trkpt>
      <trkpt lat="44.34066" lon="2.51013">
        <ele>534.7</ele>
        <time>2011-04-06T17:25:55Z</time>
      </trkpt>
      <trkpt lat="44.34064" lon="2.51018">
        <ele>534.7</ele>
        <time>2011-04-06T17:25:56Z</time>
      </trkpt>
      <trkpt lat="44.34062" lon="2.51023">
        <ele>534.7</ele>
        <time>2011-04-06T17:25:57Z</time>
      </trkpt>
      <trkpt lat="44.34059" lon="2.51027">
        <ele>534.7</ele>
        <time>2011-04-06T17:25:58Z</time>
      </trkpt>
      <trkpt lat="44.34057" lon="2.51032">
        <ele>534.7</ele>
        <time>2011-04-06T17:25:59Z</time>
      </trkpt>
      <trkpt lat="44.34055" lon="2.51036">
        <ele>534.9</ele>
        <time>2011-04-06T17:26:00Z</time>
      </trkpt>
      <trkpt lat="44.34053" lon="2.51041">
        <ele>535</ele>
        <time>2011-04-06T17:26:01Z</time>
      </trkpt>
      <trkpt lat="44.34051" lon="2.51047">
        <ele>535.2</ele>
        <time>2011-04-06T17:26:02Z</time>
      </trkpt>
      <trkpt lat="44.3405" lon="2.51052">
        <ele>535.5</ele>
        <time>2011-04-06T17:26:03Z</time>
      </trkpt>
      <trkpt lat="44.34048" lon="2.51057">
        <ele>535.9</ele>
        <time>2011-04-06T17:26:04Z</time>
      </trkpt>
      <trkpt lat="44.34046" lon="2.51062">
        <ele>536.2</ele>
        <time>2011-04-06T17:26:05Z</time>
      </trkpt>
      <trkpt lat="44.34044" lon="2.51067">
        <ele>536.5</ele>
        <time>2011-04-06T17:26:06Z</time>
      </trkpt>
      <trkpt lat="44.34042" lon="2.51071">
        <ele>536.5</ele>
        <time>2011-04-06T17:26:07Z</time>
      </trkpt>
      <trkpt lat="44.3404" lon="2.51076">
        <ele>536.4</ele>
        <time>2011-04-06T17:26:08Z</time>
      </trkpt>
      <trkpt lat="44.34038" lon="2.5108">
        <ele>536.2</ele>
        <time>2011-04-06T17:26:09Z</time>
      </trkpt>
      <trkpt lat="44.34035" lon="2.51083">
        <ele>535.9</ele>
        <time>2011-04-06T17:26:10Z</time>
      </trkpt>
      <trkpt lat="44.34032" lon="2.51086">
        <ele>535.5</ele>
        <time>2011-04-06T17:26:11Z</time>
      </trkpt>
      <trkpt lat="44.34029" lon="2.51089">
        <ele>535.5</ele>
        <time>2011-04-06T17:26:12Z</time>
      </trkpt>
      <trkpt lat="44.34027" lon="2.51092">
        <ele>535.2</ele>
        <time>2011-04-06T17:26:13Z</time>
      </trkpt>
      <trkpt lat="44.34025" lon="2.51096">
        <ele>535.2</ele>
        <time>2011-04-06T17:26:14Z</time>
      </trkpt>
      <trkpt lat="44.34023" lon="2.51098">
        <ele>534.9</ele>
        <time>2011-04-06T17:26:15Z</time>
      </trkpt>
      <trkpt lat="44.3402" lon="2.511">
        <ele>534.5</ele>
        <time>2011-04-06T17:26:16Z</time>
      </trkpt>
      <trkpt lat="44.34017" lon="2.51102">
        <ele>534.2</ele>
        <time>2011-04-06T17:26:17Z</time>
      </trkpt>
      <trkpt lat="44.34015" lon="2.51104">
        <ele>533.9</ele>
        <time>2011-04-06T17:26:18Z</time>
      </trkpt>
      <trkpt lat="44.34013" lon="2.51106">
        <ele>533.7</ele>
        <time>2011-04-06T17:26:19Z</time>
      </trkpt>
      <trkpt lat="44.3401" lon="2.51108">
        <ele>533.9</ele>
        <time>2011-04-06T17:26:20Z</time>
      </trkpt>
      <trkpt lat="44.34007" lon="2.51111">
        <ele>533.9</ele>
        <time>2011-04-06T17:26:21Z</time>
      </trkpt>
      <trkpt lat="44.34006" lon="2.51113">
        <ele>534</ele>
        <time>2011-04-06T17:26:22Z</time>
      </trkpt>
      <trkpt lat="44.34004" lon="2.51115">
        <ele>533.9</ele>
        <time>2011-04-06T17:26:23Z</time>
      </trkpt>
      <trkpt lat="44.34001" lon="2.51117">
        <ele>533.5</ele>
        <time>2011-04-06T17:26:24Z</time>
      </trkpt>
      <trkpt lat="44.33999" lon="2.51118">
        <ele>533.5</ele>
        <time>2011-04-06T17:26:25Z</time>
      </trkpt>
      <trkpt lat="44.33995" lon="2.51122">
        <ele>533.7</ele>
        <time>2011-04-06T17:26:27Z</time>
      </trkpt>
      <trkpt lat="44.33991" lon="2.51125">
        <ele>534.5</ele>
        <time>2011-04-06T17:26:29Z</time>
      </trkpt>
      <trkpt lat="44.33989" lon="2.51126">
        <ele>535</ele>
        <time>2011-04-06T17:26:30Z</time>
      </trkpt>
      <trkpt lat="44.33986" lon="2.51126">
        <ele>535.2</ele>
        <time>2011-04-06T17:26:31Z</time>
      </trkpt>
      <trkpt lat="44.33983" lon="2.51125">
        <ele>535.5</ele>
        <time>2011-04-06T17:26:32Z</time>
      </trkpt>
      <trkpt lat="44.3398" lon="2.51126">
        <ele>536</ele>
        <time>2011-04-06T17:26:33Z</time>
      </trkpt>
      <trkpt lat="44.33978" lon="2.51126">
        <ele>536.5</ele>
        <time>2011-04-06T17:26:34Z</time>
      </trkpt>
      <trkpt lat="44.33975" lon="2.51125">
        <ele>537.2</ele>
        <time>2011-04-06T17:26:35Z</time>
      </trkpt>
      <trkpt lat="44.33972" lon="2.51124">
        <ele>538.2</ele>
        <time>2011-04-06T17:26:36Z</time>
      </trkpt>
      <trkpt lat="44.3397" lon="2.51124">
        <ele>539</ele>
        <time>2011-04-06T17:26:37Z</time>
      </trkpt>
      <trkpt lat="44.33967" lon="2.51123">
        <ele>539.9</ele>
        <time>2011-04-06T17:26:38Z</time>
      </trkpt>
      <trkpt lat="44.33964" lon="2.51122">
        <ele>540.7</ele>
        <time>2011-04-06T17:26:39Z</time>
      </trkpt>
      <trkpt lat="44.33962" lon="2.51121">
        <ele>541.5</ele>
        <time>2011-04-06T17:26:40Z</time>
      </trkpt>
      <trkpt lat="44.33959" lon="2.51119">
        <ele>542.2</ele>
        <time>2011-04-06T17:26:41Z</time>
      </trkpt>
      <trkpt lat="44.33956" lon="2.51118">
        <ele>542.9</ele>
        <time>2011-04-06T17:26:42Z</time>
      </trkpt>
      <trkpt lat="44.33953" lon="2.51117">
        <ele>543.4</ele>
        <time>2011-04-06T17:26:43Z</time>
      </trkpt>
      <trkpt lat="44.33951" lon="2.51117">
        <ele>543.7</ele>
        <time>2011-04-06T17:26:44Z</time>
      </trkpt>
      <trkpt lat="44.33948" lon="2.51116">
        <ele>544.2</ele>
        <time>2011-04-06T17:26:45Z</time>
      </trkpt>
      <trkpt lat="44.33945" lon="2.51114">
        <ele>544.7</ele>
        <time>2011-04-06T17:26:46Z</time>
      </trkpt>
      <trkpt lat="44.33943" lon="2.51113">
        <ele>545.2</ele>
        <time>2011-04-06T17:26:47Z</time>
      </trkpt>
      <trkpt lat="44.33941" lon="2.51113">
        <ele>546</ele>
        <time>2011-04-06T17:26:48Z</time>
      </trkpt>
      <trkpt lat="44.33938" lon="2.51111">
        <ele>546.7</ele>
        <time>2011-04-06T17:26:49Z</time>
      </trkpt>
      <trkpt lat="44.33936" lon="2.5111">
        <ele>547.5</ele>
        <time>2011-04-06T17:26:50Z</time>
      </trkpt>
      <trkpt lat="44.33934" lon="2.51109">
        <ele>548</ele>
        <time>2011-04-06T17:26:51Z</time>
      </trkpt>
      <trkpt lat="44.33931" lon="2.51107">
        <ele>548.5</ele>
        <time>2011-04-06T17:26:52Z</time>
      </trkpt>
      <trkpt lat="44.33929" lon="2.51106">
        <ele>548.9</ele>
        <time>2011-04-06T17:26:53Z</time>
      </trkpt>
      <trkpt lat="44.33927" lon="2.51105">
        <ele>549.2</ele>
        <time>2011-04-06T17:26:54Z</time>
      </trkpt>
      <trkpt lat="44.33924" lon="2.51103">
        <ele>549.7</ele>
        <time>2011-04-06T17:26:55Z</time>
      </trkpt>
      <trkpt lat="44.33922" lon="2.51102">
        <ele>550</ele>
        <time>2011-04-06T17:26:56Z</time>
      </trkpt>
      <trkpt lat="44.3392" lon="2.511">
        <ele>550.5</ele>
        <time>2011-04-06T17:26:57Z</time>
      </trkpt>
      <trkpt lat="44.33918" lon="2.51099">
        <ele>551</ele>
        <time>2011-04-06T17:26:58Z</time>
      </trkpt>
      <trkpt lat="44.33916" lon="2.51098">
        <ele>551.4</ele>
        <time>2011-04-06T17:26:59Z</time>
      </trkpt>
      <trkpt lat="44.33913" lon="2.51096">
        <ele>551.7</ele>
        <time>2011-04-06T17:27:00Z</time>
      </trkpt>
      <trkpt lat="44.33911" lon="2.51095">
        <ele>551.9</ele>
        <time>2011-04-06T17:27:01Z</time>
      </trkpt>
      <trkpt lat="44.33908" lon="2.51093">
        <ele>552</ele>
        <time>2011-04-06T17:27:02Z</time>
      </trkpt>
      <trkpt lat="44.33906" lon="2.51091">
        <ele>552.4</ele>
        <time>2011-04-06T17:27:03Z</time>
      </trkpt>
      <trkpt lat="44.33904" lon="2.5109">
        <ele>552.5</ele>
        <time>2011-04-06T17:27:04Z</time>
      </trkpt>
      <trkpt lat="44.33902" lon="2.51089">
        <ele>552.9</ele>
        <time>2011-04-06T17:27:05Z</time>
      </trkpt>
      <trkpt lat="44.33899" lon="2.51087">
        <ele>553</ele>
        <time>2011-04-06T17:27:06Z</time>
      </trkpt>
      <trkpt lat="44.33897" lon="2.51086">
        <ele>553</ele>
        <time>2011-04-06T17:27:07Z</time>
      </trkpt>
      <trkpt lat="44.33894" lon="2.51085">
        <ele>553.2</ele>
        <time>2011-04-06T17:27:08Z</time>
      </trkpt>
      <trkpt lat="44.33892" lon="2.51083">
        <ele>553</ele>
        <time>2011-04-06T17:27:09Z</time>
      </trkpt>
      <trkpt lat="44.33889" lon="2.51082">
        <ele>553</ele>
        <time>2011-04-06T17:27:10Z</time>
      </trkpt>
      <trkpt lat="44.33887" lon="2.51081">
        <ele>552.9</ele>
        <time>2011-04-06T17:27:11Z</time>
      </trkpt>
      <trkpt lat="44.33884" lon="2.51079">
        <ele>552.7</ele>
        <time>2011-04-06T17:27:12Z</time>
      </trkpt>
      <trkpt lat="44.33882" lon="2.51078">
        <ele>552.5</ele>
        <time>2011-04-06T17:27:13Z</time>
      </trkpt>
      <trkpt lat="44.3388" lon="2.51077">
        <ele>552.4</ele>
        <time>2011-04-06T17:27:14Z</time>
      </trkpt>
      <trkpt lat="44.33878" lon="2.51075">
        <ele>552.2</ele>
        <time>2011-04-06T17:27:15Z</time>
      </trkpt>
      <trkpt lat="44.33876" lon="2.51073">
        <ele>552.2</ele>
        <time>2011-04-06T17:27:16Z</time>
      </trkpt>
      <trkpt lat="44.33874" lon="2.51072">
        <ele>552</ele>
        <time>2011-04-06T17:27:17Z</time>
      </trkpt>
      <trkpt lat="44.33872" lon="2.5107">
        <ele>551.9</ele>
        <time>2011-04-06T17:27:18Z</time>
      </trkpt>
      <trkpt lat="44.33869" lon="2.51069">
        <ele>551.7</ele>
        <time>2011-04-06T17:27:19Z</time>
      </trkpt>
      <trkpt lat="44.33868" lon="2.51067">
        <ele>551.5</ele>
        <time>2011-04-06T17:27:20Z</time>
      </trkpt>
      <trkpt lat="44.33866" lon="2.51065">
        <ele>551.5</ele>
        <time>2011-04-06T17:27:21Z</time>
      </trkpt>
      <trkpt lat="44.33863" lon="2.51064">
        <ele>551.4</ele>
        <time>2011-04-06T17:27:22Z</time>
      </trkpt>
      <trkpt lat="44.33859" lon="2.51061">
        <ele>551.2</ele>
        <time>2011-04-06T17:27:24Z</time>
      </trkpt>
      <trkpt lat="44.33856" lon="2.51058">
        <ele>550.7</ele>
        <time>2011-04-06T17:27:26Z</time>
      </trkpt>
      <trkpt lat="44.33854" lon="2.51057">
        <ele>550.5</ele>
        <time>2011-04-06T17:27:27Z</time>
      </trkpt>
      <trkpt lat="44.33849" lon="2.51055">
        <ele>550</ele>
        <time>2011-04-06T17:27:29Z</time>
      </trkpt>
      <trkpt lat="44.33847" lon="2.51054">
        <ele>549.7</ele>
        <time>2011-04-06T17:27:30Z</time>
      </trkpt>
      <trkpt lat="44.33845" lon="2.51053">
        <ele>549.2</ele>
        <time>2011-04-06T17:27:31Z</time>
      </trkpt>
      <trkpt lat="44.33841" lon="2.51053">
        <ele>548.2</ele>
        <time>2011-04-06T17:27:33Z</time>
      </trkpt>
      <trkpt lat="44.33837" lon="2.51053">
        <ele>547.5</ele>
        <time>2011-04-06T17:27:35Z</time>
      </trkpt>
      <trkpt lat="44.33833" lon="2.51054">
        <ele>547</ele>
        <time>2011-04-06T17:27:37Z</time>
      </trkpt>
      <trkpt lat="44.3383" lon="2.51057">
        <ele>546.5</ele>
        <time>2011-04-06T17:27:39Z</time>
      </trkpt>
      <trkpt lat="44.33828" lon="2.51059">
        <ele>546</ele>
        <time>2011-04-06T17:27:41Z</time>
      </trkpt>
      <trkpt lat="44.33825" lon="2.51062">
        <ele>545.7</ele>
        <time>2011-04-06T17:27:43Z</time>
      </trkpt>
      <trkpt lat="44.33822" lon="2.51065">
        <ele>545.5</ele>
        <time>2011-04-06T17:27:45Z</time>
      </trkpt>
      <trkpt lat="44.3382" lon="2.51068">
        <ele>545.2</ele>
        <time>2011-04-06T17:27:47Z</time>
      </trkpt>
      <trkpt lat="44.33818" lon="2.51072">
        <ele>545</ele>
        <time>2011-04-06T17:27:49Z</time>
      </trkpt>
      <trkpt lat="44.33816" lon="2.51076">
        <ele>545</ele>
        <time>2011-04-06T17:27:51Z</time>
      </trkpt>
      <trkpt lat="44.33815" lon="2.5108">
        <ele>545</ele>
        <time>2011-04-06T17:27:53Z</time>
      </trkpt>
      <trkpt lat="44.33813" lon="2.51083">
        <ele>544.9</ele>
        <time>2011-04-06T17:27:55Z</time>
      </trkpt>
      <trkpt lat="44.33811" lon="2.51087">
        <ele>544.7</ele>
        <time>2011-04-06T17:27:57Z</time>
      </trkpt>
      <trkpt lat="44.3381" lon="2.51091">
        <ele>544.7</ele>
        <time>2011-04-06T17:27:59Z</time>
      </trkpt>
      <trkpt lat="44.33808" lon="2.51095">
        <ele>544.5</ele>
        <time>2011-04-06T17:28:01Z</time>
      </trkpt>
      <trkpt lat="44.33806" lon="2.51099">
        <ele>544.5</ele>
        <time>2011-04-06T17:28:03Z</time>
      </trkpt>
      <trkpt lat="44.33805" lon="2.51104">
        <ele>544.4</ele>
        <time>2011-04-06T17:28:05Z</time>
      </trkpt>
      <trkpt lat="44.33803" lon="2.51107">
        <ele>544.2</ele>
        <time>2011-04-06T17:28:07Z</time>
      </trkpt>
      <trkpt lat="44.33801" lon="2.51111">
        <ele>544.4</ele>
        <time>2011-04-06T17:28:09Z</time>
      </trkpt>
      <trkpt lat="44.338" lon="2.51115">
        <ele>544.4</ele>
        <time>2011-04-06T17:28:11Z</time>
      </trkpt>
      <trkpt lat="44.33798" lon="2.51119">
        <ele>544.4</ele>
        <time>2011-04-06T17:28:13Z</time>
      </trkpt>
      <trkpt lat="44.33797" lon="2.51123">
        <ele>544.5</ele>
        <time>2011-04-06T17:28:15Z</time>
      </trkpt>
      <trkpt lat="44.33796" lon="2.51125">
        <ele>544.5</ele>
        <time>2011-04-06T17:28:16Z</time>
      </trkpt>
      <trkpt lat="44.33794" lon="2.51132">
        <ele>544.5</ele>
        <time>2011-04-06T17:28:19Z</time>
      </trkpt>
      <trkpt lat="44.33793" lon="2.51136">
        <ele>544.7</ele>
        <time>2011-04-06T17:28:21Z</time>
      </trkpt>
      <trkpt lat="44.33792" lon="2.51141">
        <ele>544.7</ele>
        <time>2011-04-06T17:28:23Z</time>
      </trkpt>
      <trkpt lat="44.33791" lon="2.51145">
        <ele>544.7</ele>
        <time>2011-04-06T17:28:25Z</time>
      </trkpt>
      <trkpt lat="44.33791" lon="2.5115">
        <ele>544.7</ele>
        <time>2011-04-06T17:28:27Z</time>
      </trkpt>
      <trkpt lat="44.3379" lon="2.51155">
        <ele>544.7</ele>
        <time>2011-04-06T17:28:29Z</time>
      </trkpt>
      <trkpt lat="44.3379" lon="2.51159">
        <ele>544.7</ele>
        <time>2011-04-06T17:28:31Z</time>
      </trkpt>
      <trkpt lat="44.33789" lon="2.51164">
        <ele>544.7</ele>
        <time>2011-04-06T17:28:33Z</time>
      </trkpt>
      <trkpt lat="44.33788" lon="2.51168">
        <ele>544.7</ele>
        <time>2011-04-06T17:28:35Z</time>
      </trkpt>
      <trkpt lat="44.33787" lon="2.51173">
        <ele>544.5</ele>
        <time>2011-04-06T17:28:37Z</time>
      </trkpt>
      <trkpt lat="44.33786" lon="2.51177">
        <ele>544.7</ele>
        <time>2011-04-06T17:28:39Z</time>
      </trkpt>
      <trkpt lat="44.33785" lon="2.51182">
        <ele>544.5</ele>
        <time>2011-04-06T17:28:41Z</time>
      </trkpt>
      <trkpt lat="44.33784" lon="2.51187">
        <ele>544.5</ele>
        <time>2011-04-06T17:28:43Z</time>
      </trkpt>
      <trkpt lat="44.33783" lon="2.51191">
        <ele>544.5</ele>
        <time>2011-04-06T17:28:45Z</time>
      </trkpt>
      <trkpt lat="44.33782" lon="2.51196">
        <ele>544.5</ele>
        <time>2011-04-06T17:28:47Z</time>
      </trkpt>
      <trkpt lat="44.33782" lon="2.512">
        <ele>544.5</ele>
        <time>2011-04-06T17:28:49Z</time>
      </trkpt>
      <trkpt lat="44.33781" lon="2.51205">
        <ele>544.7</ele>
        <time>2011-04-06T17:28:51Z</time>
      </trkpt>
      <trkpt lat="44.3378" lon="2.51209">
        <ele>544.7</ele>
        <time>2011-04-06T17:28:53Z</time>
      </trkpt>
      <trkpt lat="44.33779" lon="2.51214">
        <ele>544.7</ele>
        <time>2011-04-06T17:28:55Z</time>
      </trkpt>
      <trkpt lat="44.33779" lon="2.51218">
        <ele>544.7</ele>
        <time>2011-04-06T17:28:57Z</time>
      </trkpt>
      <trkpt lat="44.33778" lon="2.51223">
        <ele>544.7</ele>
        <time>2011-04-06T17:28:59Z</time>
      </trkpt>
      <trkpt lat="44.33777" lon="2.51227">
        <ele>544.7</ele>
        <time>2011-04-06T17:29:01Z</time>
      </trkpt>
      <trkpt lat="44.33776" lon="2.51232">
        <ele>544.7</ele>
        <time>2011-04-06T17:29:03Z</time>
      </trkpt>
      <trkpt lat="44.33775" lon="2.51236">
        <ele>544.7</ele>
        <time>2011-04-06T17:29:05Z</time>
      </trkpt>
      <trkpt lat="44.33774" lon="2.51241">
        <ele>545</ele>
        <time>2011-04-06T17:29:07Z</time>
      </trkpt>
      <trkpt lat="44.33774" lon="2.51246">
        <ele>545.2</ele>
        <time>2011-04-06T17:29:09Z</time>
      </trkpt>
      <trkpt lat="44.33773" lon="2.5125">
        <ele>545.2</ele>
        <time>2011-04-06T17:29:11Z</time>
      </trkpt>
      <trkpt lat="44.33772" lon="2.51255">
        <ele>545.4</ele>
        <time>2011-04-06T17:29:13Z</time>
      </trkpt>
      <trkpt lat="44.33771" lon="2.51259">
        <ele>545.5</ele>
        <time>2011-04-06T17:29:15Z</time>
      </trkpt>
      <trkpt lat="44.3377" lon="2.51264">
        <ele>545.7</ele>
        <time>2011-04-06T17:29:17Z</time>
      </trkpt>
      <trkpt lat="44.3377" lon="2.51266">
        <ele>546</ele>
        <time>2011-04-06T17:29:18Z</time>
      </trkpt>
      <trkpt lat="44.33768" lon="2.51273">
        <ele>546.2</ele>
        <time>2011-04-06T17:29:21Z</time>
      </trkpt>
      <trkpt lat="44.33768" lon="2.51278">
        <ele>546.5</ele>
        <time>2011-04-06T17:29:23Z</time>
      </trkpt>
      <trkpt lat="44.33767" lon="2.51283">
        <ele>546.7</ele>
        <time>2011-04-06T17:29:25Z</time>
      </trkpt>
      <trkpt lat="44.33766" lon="2.51287">
        <ele>546.9</ele>
        <time>2011-04-06T17:29:27Z</time>
      </trkpt>
      <trkpt lat="44.33765" lon="2.51292">
        <ele>547</ele>
        <time>2011-04-06T17:29:29Z</time>
      </trkpt>
      <trkpt lat="44.33764" lon="2.51296">
        <ele>547.2</ele>
        <time>2011-04-06T17:29:31Z</time>
      </trkpt>
      <trkpt lat="44.33763" lon="2.51301">
        <ele>547.4</ele>
        <time>2011-04-06T17:29:33Z</time>
      </trkpt>
      <trkpt lat="44.33762" lon="2.51306">
        <ele>547.7</ele>
        <time>2011-04-06T17:29:35Z</time>
      </trkpt>
      <trkpt lat="44.33762" lon="2.5131">
        <ele>548</ele>
        <time>2011-04-06T17:29:37Z</time>
      </trkpt>
      <trkpt lat="44.33761" lon="2.51315">
        <ele>548.4</ele>
        <time>2011-04-06T17:29:39Z</time>
      </trkpt>
      <trkpt lat="44.3376" lon="2.5132">
        <ele>548.7</ele>
        <time>2011-04-06T17:29:41Z</time>
      </trkpt>
      <trkpt lat="44.33759" lon="2.51324">
        <ele>549</ele>
        <time>2011-04-06T17:29:43Z</time>
      </trkpt>
      <trkpt lat="44.33759" lon="2.51329">
        <ele>549.2</ele>
        <time>2011-04-06T17:29:45Z</time>
      </trkpt>
      <trkpt lat="44.33758" lon="2.51334">
        <ele>549.7</ele>
        <time>2011-04-06T17:29:47Z</time>
      </trkpt>
      <trkpt lat="44.33757" lon="2.51338">
        <ele>550</ele>
        <time>2011-04-06T17:29:49Z</time>
      </trkpt>
      <trkpt lat="44.33756" lon="2.51343">
        <ele>550.4</ele>
        <time>2011-04-06T17:29:51Z</time>
      </trkpt>
      <trkpt lat="44.33755" lon="2.51348">
        <ele>550.7</ele>
        <time>2011-04-06T17:29:53Z</time>
      </trkpt>
      <trkpt lat="44.33755" lon="2.51353">
        <ele>551</ele>
        <time>2011-04-06T17:29:55Z</time>
      </trkpt>
      <trkpt lat="44.33754" lon="2.51357">
        <ele>551.5</ele>
        <time>2011-04-06T17:29:57Z</time>
      </trkpt>
      <trkpt lat="44.33753" lon="2.51362">
        <ele>551.9</ele>
        <time>2011-04-06T17:29:59Z</time>
      </trkpt>
      <trkpt lat="44.33752" lon="2.51367">
        <ele>552.2</ele>
        <time>2011-04-06T17:30:01Z</time>
      </trkpt>
      <trkpt lat="44.33752" lon="2.51371">
        <ele>552.7</ele>
        <time>2011-04-06T17:30:03Z</time>
      </trkpt>
      <trkpt lat="44.33751" lon="2.51376">
        <ele>553</ele>
        <time>2011-04-06T17:30:05Z</time>
      </trkpt>
      <trkpt lat="44.3375" lon="2.5138">
        <ele>553.4</ele>
        <time>2011-04-06T17:30:07Z</time>
      </trkpt>
      <trkpt lat="44.33749" lon="2.51385">
        <ele>553.7</ele>
        <time>2011-04-06T17:30:09Z</time>
      </trkpt>
      <trkpt lat="44.33748" lon="2.5139">
        <ele>554</ele>
        <time>2011-04-06T17:30:11Z</time>
      </trkpt>
      <trkpt lat="44.33747" lon="2.51394">
        <ele>554.4</ele>
        <time>2011-04-06T17:30:13Z</time>
      </trkpt>
      <trkpt lat="44.33746" lon="2.51399">
        <ele>554.7</ele>
        <time>2011-04-06T17:30:15Z</time>
      </trkpt>
      <trkpt lat="44.33746" lon="2.51404">
        <ele>555.2</ele>
        <time>2011-04-06T17:30:17Z</time>
      </trkpt>
      <trkpt lat="44.33745" lon="2.51408">
        <ele>555.5</ele>
        <time>2011-04-06T17:30:19Z</time>
      </trkpt>
      <trkpt lat="44.33745" lon="2.51411">
        <ele>555.7</ele>
        <time>2011-04-06T17:30:20Z</time>
      </trkpt>
      <trkpt lat="44.33745" lon="2.51418">
        <ele>556.2</ele>
        <time>2011-04-06T17:30:23Z</time>
      </trkpt>
      <trkpt lat="44.33746" lon="2.51422">
        <ele>556.5</ele>
        <time>2011-04-06T17:30:25Z</time>
      </trkpt>
      <trkpt lat="44.33747" lon="2.51426">
        <ele>556.7</ele>
        <time>2011-04-06T17:30:27Z</time>
      </trkpt>
      <trkpt lat="44.33749" lon="2.5143">
        <ele>557.2</ele>
        <time>2011-04-06T17:30:29Z</time>
      </trkpt>
      <trkpt lat="44.33751" lon="2.51433">
        <ele>557.7</ele>
        <time>2011-04-06T17:30:31Z</time>
      </trkpt>
      <trkpt lat="44.33754" lon="2.51434">
        <ele>558.2</ele>
        <time>2011-04-06T17:30:33Z</time>
      </trkpt>
      <trkpt lat="44.33758" lon="2.51435">
        <ele>558.7</ele>
        <time>2011-04-06T17:30:35Z</time>
      </trkpt>
      <trkpt lat="44.33761" lon="2.51434">
        <ele>559.2</ele>
        <time>2011-04-06T17:30:37Z</time>
      </trkpt>
      <trkpt lat="44.33764" lon="2.51432">
        <ele>559.7</ele>
        <time>2011-04-06T17:30:39Z</time>
      </trkpt>
      <trkpt lat="44.33766" lon="2.51429">
        <ele>560</ele>
        <time>2011-04-06T17:30:41Z</time>
      </trkpt>
      <trkpt lat="44.33769" lon="2.51425">
        <ele>560.5</ele>
        <time>2011-04-06T17:30:43Z</time>
      </trkpt>
      <trkpt lat="44.33771" lon="2.51421">
        <ele>561.2</ele>
        <time>2011-04-06T17:30:45Z</time>
      </trkpt>
      <trkpt lat="44.33773" lon="2.51417">
        <ele>562.2</ele>
        <time>2011-04-06T17:30:47Z</time>
      </trkpt>
      <trkpt lat="44.33775" lon="2.51413">
        <ele>563.2</ele>
        <time>2011-04-06T17:30:49Z</time>
      </trkpt>
      <trkpt lat="44.33777" lon="2.51409">
        <ele>564.5</ele>
        <time>2011-04-06T17:30:51Z</time>
      </trkpt>
      <trkpt lat="44.33779" lon="2.51405">
        <ele>565.7</ele>
        <time>2011-04-06T17:30:53Z</time>
      </trkpt>
      <trkpt lat="44.33781" lon="2.51402">
        <ele>567</ele>
        <time>2011-04-06T17:30:55Z</time>
      </trkpt>
      <trkpt lat="44.33783" lon="2.51398">
        <ele>568</ele>
        <time>2011-04-06T17:30:57Z</time>
      </trkpt>
      <trkpt lat="44.33785" lon="2.51395">
        <ele>569</ele>
        <time>2011-04-06T17:30:59Z</time>
      </trkpt>
      <trkpt lat="44.33787" lon="2.51391">
        <ele>570.2</ele>
        <time>2011-04-06T17:31:01Z</time>
      </trkpt>
      <trkpt lat="44.3379" lon="2.51388">
        <ele>571.4</ele>
        <time>2011-04-06T17:31:03Z</time>
      </trkpt>
      <trkpt lat="44.33792" lon="2.51385">
        <ele>572.5</ele>
        <time>2011-04-06T17:31:05Z</time>
      </trkpt>
      <trkpt lat="44.33794" lon="2.51381">
        <ele>573.5</ele>
        <time>2011-04-06T17:31:07Z</time>
      </trkpt>
      <trkpt lat="44.33797" lon="2.51378">
        <ele>574.5</ele>
        <time>2011-04-06T17:31:09Z</time>
      </trkpt>
      <trkpt lat="44.33799" lon="2.51375">
        <ele>575.7</ele>
        <time>2011-04-06T17:31:11Z</time>
      </trkpt>
      <trkpt lat="44.33801" lon="2.51372">
        <ele>576.5</ele>
        <time>2011-04-06T17:31:13Z</time>
      </trkpt>
      <trkpt lat="44.33804" lon="2.5137">
        <ele>577.2</ele>
        <time>2011-04-06T17:31:15Z</time>
      </trkpt>
      <trkpt lat="44.33807" lon="2.51367">
        <ele>577.7</ele>
        <time>2011-04-06T17:31:17Z</time>
      </trkpt>
      <trkpt lat="44.3381" lon="2.51365">
        <ele>578.2</ele>
        <time>2011-04-06T17:31:19Z</time>
      </trkpt>
      <trkpt lat="44.33813" lon="2.51361">
        <ele>578.7</ele>
        <time>2011-04-06T17:31:21Z</time>
      </trkpt>
      <trkpt lat="44.33814" lon="2.5136">
        <ele>579</ele>
        <time>2011-04-06T17:31:22Z</time>
      </trkpt>
      <trkpt lat="44.33819" lon="2.51361">
        <ele>579.4</ele>
        <time>2011-04-06T17:31:26Z</time>
      </trkpt>
      <trkpt lat="44.3382" lon="2.51368">
        <ele>579</ele>
        <time>2011-04-06T17:31:29Z</time>
      </trkpt>
      <trkpt lat="44.33819" lon="2.51372">
        <ele>578.7</ele>
        <time>2011-04-06T17:31:31Z</time>
      </trkpt>
      <trkpt lat="44.33819" lon="2.51377">
        <ele>578.5</ele>
        <time>2011-04-06T17:31:33Z</time>
      </trkpt>
      <trkpt lat="44.33817" lon="2.51382">
        <ele>578.2</ele>
        <time>2011-04-06T17:31:36Z</time>
      </trkpt>
      <trkpt lat="44.33815" lon="2.51388">
        <ele>578.2</ele>
        <time>2011-04-06T17:31:39Z</time>
      </trkpt>
      <trkpt lat="44.33815" lon="2.51392">
        <ele>578</ele>
        <time>2011-04-06T17:31:41Z</time>
      </trkpt>
      <trkpt lat="44.33815" lon="2.51397">
        <ele>578</ele>
        <time>2011-04-06T17:31:43Z</time>
      </trkpt>
      <trkpt lat="44.33814" lon="2.51401">
        <ele>577.9</ele>
        <time>2011-04-06T17:31:45Z</time>
      </trkpt>
      <trkpt lat="44.33814" lon="2.51406">
        <ele>577.9</ele>
        <time>2011-04-06T17:31:47Z</time>
      </trkpt>
      <trkpt lat="44.33813" lon="2.5141">
        <ele>577.7</ele>
        <time>2011-04-06T17:31:49Z</time>
      </trkpt>
      <trkpt lat="44.33813" lon="2.51414">
        <ele>577.5</ele>
        <time>2011-04-06T17:31:51Z</time>
      </trkpt>
      <trkpt lat="44.33812" lon="2.51419">
        <ele>577.5</ele>
        <time>2011-04-06T17:31:53Z</time>
      </trkpt>
      <trkpt lat="44.33811" lon="2.51423">
        <ele>577.4</ele>
        <time>2011-04-06T17:31:55Z</time>
      </trkpt>
      <trkpt lat="44.3381" lon="2.51428">
        <ele>577.2</ele>
        <time>2011-04-06T17:31:57Z</time>
      </trkpt>
      <trkpt lat="44.3381" lon="2.51433">
        <ele>577.2</ele>
        <time>2011-04-06T17:31:59Z</time>
      </trkpt>
      <trkpt lat="44.33809" lon="2.51437">
        <ele>577.2</ele>
        <time>2011-04-06T17:32:01Z</time>
      </trkpt>
      <trkpt lat="44.33808" lon="2.51441">
        <ele>577.2</ele>
        <time>2011-04-06T17:32:03Z</time>
      </trkpt>
      <trkpt lat="44.33808" lon="2.51446">
        <ele>577</ele>
        <time>2011-04-06T17:32:05Z</time>
      </trkpt>
      <trkpt lat="44.33809" lon="2.5145">
        <ele>577</ele>
        <time>2011-04-06T17:32:07Z</time>
      </trkpt>
      <trkpt lat="44.33809" lon="2.51455">
        <ele>576.9</ele>
        <time>2011-04-06T17:32:09Z</time>
      </trkpt>
      <trkpt lat="44.33809" lon="2.51459">
        <ele>576.7</ele>
        <time>2011-04-06T17:32:11Z</time>
      </trkpt>
      <trkpt lat="44.33811" lon="2.51465">
        <ele>577</ele>
        <time>2011-04-06T17:32:14Z</time>
      </trkpt>
      <trkpt lat="44.33813" lon="2.51469">
        <ele>577.2</ele>
        <time>2011-04-06T17:32:17Z</time>
      </trkpt>
      <trkpt lat="44.33816" lon="2.51473">
        <ele>577.7</ele>
        <time>2011-04-06T17:32:20Z</time>
      </trkpt>
      <trkpt lat="44.33818" lon="2.51478">
        <ele>578.5</ele>
        <time>2011-04-06T17:32:23Z</time>
      </trkpt>
      <trkpt lat="44.33819" lon="2.51479">
        <ele>579</ele>
        <time>2011-04-06T17:32:24Z</time>
      </trkpt>
      <trkpt lat="44.33823" lon="2.51486">
        <ele>581.4</ele>
        <time>2011-04-06T17:32:29Z</time>
      </trkpt>
      <trkpt lat="44.33826" lon="2.5149">
        <ele>583.2</ele>
        <time>2011-04-06T17:32:32Z</time>
      </trkpt>
      <trkpt lat="44.33829" lon="2.51493">
        <ele>585.5</ele>
        <time>2011-04-06T17:32:35Z</time>
      </trkpt>
      <trkpt lat="44.33832" lon="2.51498">
        <ele>587.5</ele>
        <time>2011-04-06T17:32:39Z</time>
      </trkpt>
      <trkpt lat="44.33835" lon="2.51501">
        <ele>588.2</ele>
        <time>2011-04-06T17:32:42Z</time>
      </trkpt>
      <trkpt lat="44.33838" lon="2.51504">
        <ele>588.7</ele>
        <time>2011-04-06T17:32:45Z</time>
      </trkpt>
      <trkpt lat="44.33842" lon="2.51506">
        <ele>589.7</ele>
        <time>2011-04-06T17:32:48Z</time>
      </trkpt>
      <trkpt lat="44.33844" lon="2.5151">
        <ele>590.7</ele>
        <time>2011-04-06T17:32:51Z</time>
      </trkpt>
      <trkpt lat="44.33845" lon="2.51516">
        <ele>590.7</ele>
        <time>2011-04-06T17:32:54Z</time>
      </trkpt>
      <trkpt lat="44.33844" lon="2.5152">
        <ele>590.7</ele>
        <time>2011-04-06T17:32:56Z</time>
      </trkpt>
      <trkpt lat="44.33842" lon="2.51524">
        <ele>590.5</ele>
        <time>2011-04-06T17:32:58Z</time>
      </trkpt>
      <trkpt lat="44.3384" lon="2.51528">
        <ele>590.5</ele>
        <time>2011-04-06T17:33:00Z</time>
      </trkpt>
      <trkpt lat="44.33837" lon="2.51532">
        <ele>591.7</ele>
        <time>2011-04-06T17:33:03Z</time>
      </trkpt>
      <trkpt lat="44.33835" lon="2.51536">
        <ele>592.5</ele>
        <time>2011-04-06T17:33:05Z</time>
      </trkpt>
      <trkpt lat="44.33833" lon="2.51538">
        <ele>592.7</ele>
        <time>2011-04-06T17:33:06Z</time>
      </trkpt>
      <trkpt lat="44.33831" lon="2.51541">
        <ele>593</ele>
        <time>2011-04-06T17:33:07Z</time>
      </trkpt>
      <trkpt lat="44.33829" lon="2.51543">
        <ele>593.2</ele>
        <time>2011-04-06T17:33:08Z</time>
      </trkpt>
      <trkpt lat="44.33826" lon="2.51544">
        <ele>592.9</ele>
        <time>2011-04-06T17:33:09Z</time>
      </trkpt>
      <trkpt lat="44.33822" lon="2.51544">
        <ele>592.2</ele>
        <time>2011-04-06T17:33:10Z</time>
      </trkpt>
      <trkpt lat="44.33817" lon="2.51546">
        <ele>591.5</ele>
        <time>2011-04-06T17:33:11Z</time>
      </trkpt>
      <trkpt lat="44.33812" lon="2.51548">
        <ele>590.5</ele>
        <time>2011-04-06T17:33:12Z</time>
      </trkpt>
      <trkpt lat="44.33806" lon="2.5155">
        <ele>589.7</ele>
        <time>2011-04-06T17:33:13Z</time>
      </trkpt>
      <trkpt lat="44.33801" lon="2.51552">
        <ele>588.5</ele>
        <time>2011-04-06T17:33:14Z</time>
      </trkpt>
      <trkpt lat="44.33795" lon="2.51554">
        <ele>587.5</ele>
        <time>2011-04-06T17:33:15Z</time>
      </trkpt>
      <trkpt lat="44.33789" lon="2.51556">
        <ele>586.4</ele>
        <time>2011-04-06T17:33:16Z</time>
      </trkpt>
      <trkpt lat="44.33783" lon="2.51558">
        <ele>585</ele>
        <time>2011-04-06T17:33:17Z</time>
      </trkpt>
      <trkpt lat="44.33777" lon="2.51559">
        <ele>583.5</ele>
        <time>2011-04-06T17:33:18Z</time>
      </trkpt>
      <trkpt lat="44.33771" lon="2.51561">
        <ele>581.5</ele>
        <time>2011-04-06T17:33:19Z</time>
      </trkpt>
      <trkpt lat="44.33765" lon="2.51562">
        <ele>579.7</ele>
        <time>2011-04-06T17:33:20Z</time>
      </trkpt>
      <trkpt lat="44.33759" lon="2.51564">
        <ele>578</ele>
        <time>2011-04-06T17:33:21Z</time>
      </trkpt>
      <trkpt lat="44.33754" lon="2.51565">
        <ele>576.2</ele>
        <time>2011-04-06T17:33:22Z</time>
      </trkpt>
      <trkpt lat="44.33749" lon="2.51567">
        <ele>574.7</ele>
        <time>2011-04-06T17:33:23Z</time>
      </trkpt>
      <trkpt lat="44.33745" lon="2.51568">
        <ele>573.2</ele>
        <time>2011-04-06T17:33:24Z</time>
      </trkpt>
      <trkpt lat="44.33741" lon="2.5157">
        <ele>571.9</ele>
        <time>2011-04-06T17:33:25Z</time>
      </trkpt>
      <trkpt lat="44.33738" lon="2.51571">
        <ele>570.5</ele>
        <time>2011-04-06T17:33:26Z</time>
      </trkpt>
      <trkpt lat="44.33734" lon="2.51571">
        <ele>569.2</ele>
        <time>2011-04-06T17:33:27Z</time>
      </trkpt>
      <trkpt lat="44.33731" lon="2.51573">
        <ele>567.7</ele>
        <time>2011-04-06T17:33:28Z</time>
      </trkpt>
      <trkpt lat="44.33728" lon="2.51576">
        <ele>566.2</ele>
        <time>2011-04-06T17:33:29Z</time>
      </trkpt>
      <trkpt lat="44.33725" lon="2.51579">
        <ele>565</ele>
        <time>2011-04-06T17:33:30Z</time>
      </trkpt>
      <trkpt lat="44.33722" lon="2.51583">
        <ele>564</ele>
        <time>2011-04-06T17:33:31Z</time>
      </trkpt>
      <trkpt lat="44.33719" lon="2.51586">
        <ele>562.5</ele>
        <time>2011-04-06T17:33:32Z</time>
      </trkpt>
      <trkpt lat="44.33715" lon="2.51589">
        <ele>561.2</ele>
        <time>2011-04-06T17:33:33Z</time>
      </trkpt>
      <trkpt lat="44.33712" lon="2.51592">
        <ele>559.9</ele>
        <time>2011-04-06T17:33:34Z</time>
      </trkpt>
      <trkpt lat="44.33708" lon="2.51595">
        <ele>558.7</ele>
        <time>2011-04-06T17:33:35Z</time>
      </trkpt>
      <trkpt lat="44.33705" lon="2.51599">
        <ele>557.7</ele>
        <time>2011-04-06T17:33:36Z</time>
      </trkpt>
      <trkpt lat="44.33701" lon="2.51602">
        <ele>556.4</ele>
        <time>2011-04-06T17:33:37Z</time>
      </trkpt>
      <trkpt lat="44.33698" lon="2.51606">
        <ele>554.7</ele>
        <time>2011-04-06T17:33:38Z</time>
      </trkpt>
      <trkpt lat="44.33694" lon="2.5161">
        <ele>553.5</ele>
        <time>2011-04-06T17:33:39Z</time>
      </trkpt>
      <trkpt lat="44.33691" lon="2.51613">
        <ele>552.4</ele>
        <time>2011-04-06T17:33:40Z</time>
      </trkpt>
      <trkpt lat="44.33688" lon="2.51617">
        <ele>551.2</ele>
        <time>2011-04-06T17:33:41Z</time>
      </trkpt>
      <trkpt lat="44.33685" lon="2.51621">
        <ele>550.2</ele>
        <time>2011-04-06T17:33:42Z</time>
      </trkpt>
      <trkpt lat="44.33682" lon="2.51626">
        <ele>549.5</ele>
        <time>2011-04-06T17:33:43Z</time>
      </trkpt>
      <trkpt lat="44.3368" lon="2.51629">
        <ele>548.7</ele>
        <time>2011-04-06T17:33:44Z</time>
      </trkpt>
      <trkpt lat="44.33677" lon="2.51632">
        <ele>548.2</ele>
        <time>2011-04-06T17:33:45Z</time>
      </trkpt>
      <trkpt lat="44.33675" lon="2.51635">
        <ele>547.7</ele>
        <time>2011-04-06T17:33:46Z</time>
      </trkpt>
      <trkpt lat="44.33674" lon="2.51637">
        <ele>547.5</ele>
        <time>2011-04-06T17:33:47Z</time>
      </trkpt>
      <trkpt lat="44.33672" lon="2.51642">
        <ele>547.5</ele>
        <time>2011-04-06T17:33:49Z</time>
      </trkpt>
      <trkpt lat="44.33669" lon="2.51647">
        <ele>550</ele>
        <time>2011-04-06T17:34:05Z</time>
      </trkpt>
      <trkpt lat="44.33669" lon="2.51653">
        <ele>553</ele>
        <time>2011-04-06T17:34:12Z</time>
      </trkpt>
      <trkpt lat="44.33667" lon="2.51658">
        <ele>553.7</ele>
        <time>2011-04-06T17:34:15Z</time>
      </trkpt>
      <trkpt lat="44.33665" lon="2.51664">
        <ele>554</ele>
        <time>2011-04-06T17:34:18Z</time>
      </trkpt>
      <trkpt lat="44.33663" lon="2.51668">
        <ele>553.5</ele>
        <time>2011-04-06T17:34:21Z</time>
      </trkpt>
      <trkpt lat="44.33661" lon="2.51673">
        <ele>553.2</ele>
        <time>2011-04-06T17:34:24Z</time>
      </trkpt>
      <trkpt lat="44.3366" lon="2.51679">
        <ele>554</ele>
        <time>2011-04-06T17:34:28Z</time>
      </trkpt>
      <trkpt lat="44.33659" lon="2.5168">
        <ele>554.5</ele>
        <time>2011-04-06T17:34:29Z</time>
      </trkpt>
      <trkpt lat="44.33653" lon="2.51685">
        <ele>555</ele>
        <time>2011-04-06T17:34:34Z</time>
      </trkpt>
      <trkpt lat="44.33651" lon="2.51687">
        <ele>554.5</ele>
        <time>2011-04-06T17:34:36Z</time>
      </trkpt>
      <trkpt lat="44.33648" lon="2.51692">
        <ele>554</ele>
        <time>2011-04-06T17:34:38Z</time>
      </trkpt>
      <trkpt lat="44.33646" lon="2.51697">
        <ele>553.2</ele>
        <time>2011-04-06T17:34:41Z</time>
      </trkpt>
      <trkpt lat="44.33644" lon="2.51701">
        <ele>552.5</ele>
        <time>2011-04-06T17:34:43Z</time>
      </trkpt>
      <trkpt lat="44.33641" lon="2.51705">
        <ele>551.4</ele>
        <time>2011-04-06T17:34:45Z</time>
      </trkpt>
      <trkpt lat="44.33639" lon="2.51709">
        <ele>550.5</ele>
        <time>2011-04-06T17:34:48Z</time>
      </trkpt>
      <trkpt lat="44.33637" lon="2.51715">
        <ele>549.9</ele>
        <time>2011-04-06T17:34:52Z</time>
      </trkpt>
      <trkpt lat="44.33634" lon="2.51719">
        <ele>549.5</ele>
        <time>2011-04-06T17:35:02Z</time>
      </trkpt>
      <trkpt lat="44.33631" lon="2.51722">
        <ele>548.9</ele>
        <time>2011-04-06T17:35:04Z</time>
      </trkpt>
      <trkpt lat="44.33629" lon="2.51725">
        <ele>548.5</ele>
        <time>2011-04-06T17:35:05Z</time>
      </trkpt>
      <trkpt lat="44.33627" lon="2.51728">
        <ele>548.2</ele>
        <time>2011-04-06T17:35:06Z</time>
      </trkpt>
      <trkpt lat="44.33626" lon="2.5173">
        <ele>547.7</ele>
        <time>2011-04-06T17:35:07Z</time>
      </trkpt>
      <trkpt lat="44.33623" lon="2.51735">
        <ele>546.9</ele>
        <time>2011-04-06T17:35:09Z</time>
      </trkpt>
      <trkpt lat="44.33622" lon="2.51737">
        <ele>546</ele>
        <time>2011-04-06T17:35:10Z</time>
      </trkpt>
      <trkpt lat="44.3362" lon="2.5174">
        <ele>545.2</ele>
        <time>2011-04-06T17:35:11Z</time>
      </trkpt>
      <trkpt lat="44.33618" lon="2.51744">
        <ele>544.5</ele>
        <time>2011-04-06T17:35:12Z</time>
      </trkpt>
      <trkpt lat="44.33616" lon="2.51749">
        <ele>543</ele>
        <time>2011-04-06T17:35:14Z</time>
      </trkpt>
      <trkpt lat="44.33614" lon="2.51753">
        <ele>541.4</ele>
        <time>2011-04-06T17:35:16Z</time>
      </trkpt>
      <trkpt lat="44.33612" lon="2.51757">
        <ele>539.5</ele>
        <time>2011-04-06T17:35:18Z</time>
      </trkpt>
      <trkpt lat="44.3361" lon="2.51761">
        <ele>538.5</ele>
        <time>2011-04-06T17:35:20Z</time>
      </trkpt>
      <trkpt lat="44.33608" lon="2.51766">
        <ele>538.2</ele>
        <time>2011-04-06T17:35:22Z</time>
      </trkpt>
      <trkpt lat="44.33606" lon="2.51769">
        <ele>537.9</ele>
        <time>2011-04-06T17:35:23Z</time>
      </trkpt>
      <trkpt lat="44.33604" lon="2.51772">
        <ele>537.5</ele>
        <time>2011-04-06T17:35:24Z</time>
      </trkpt>
      <trkpt lat="44.33602" lon="2.51775">
        <ele>537</ele>
        <time>2011-04-06T17:35:25Z</time>
      </trkpt>
      <trkpt lat="44.336" lon="2.51777">
        <ele>536.7</ele>
        <time>2011-04-06T17:35:26Z</time>
      </trkpt>
      <trkpt lat="44.33599" lon="2.5178">
        <ele>536.4</ele>
        <time>2011-04-06T17:35:27Z</time>
      </trkpt>
      <trkpt lat="44.33596" lon="2.51785">
        <ele>535.4</ele>
        <time>2011-04-06T17:35:29Z</time>
      </trkpt>
      <trkpt lat="44.33594" lon="2.51787">
        <ele>534.7</ele>
        <time>2011-04-06T17:35:30Z</time>
      </trkpt>
      <trkpt lat="44.33592" lon="2.5179">
        <ele>534</ele>
        <time>2011-04-06T17:35:31Z</time>
      </trkpt>
      <trkpt lat="44.33591" lon="2.51793">
        <ele>533.5</ele>
        <time>2011-04-06T17:35:32Z</time>
      </trkpt>
      <trkpt lat="44.3359" lon="2.51797">
        <ele>532.7</ele>
        <time>2011-04-06T17:35:33Z</time>
      </trkpt>
      <trkpt lat="44.33587" lon="2.518">
        <ele>531.9</ele>
        <time>2011-04-06T17:35:34Z</time>
      </trkpt>
      <trkpt lat="44.33585" lon="2.51802">
        <ele>531</ele>
        <time>2011-04-06T17:35:35Z</time>
      </trkpt>
      <trkpt lat="44.33582" lon="2.51805">
        <ele>530.5</ele>
        <time>2011-04-06T17:35:36Z</time>
      </trkpt>
      <trkpt lat="44.3358" lon="2.51809">
        <ele>529.9</ele>
        <time>2011-04-06T17:35:37Z</time>
      </trkpt>
      <trkpt lat="44.33577" lon="2.51812">
        <ele>529.4</ele>
        <time>2011-04-06T17:35:38Z</time>
      </trkpt>
      <trkpt lat="44.33575" lon="2.51815">
        <ele>528.7</ele>
        <time>2011-04-06T17:35:39Z</time>
      </trkpt>
      <trkpt lat="44.33573" lon="2.51817">
        <ele>528.2</ele>
        <time>2011-04-06T17:35:40Z</time>
      </trkpt>
      <trkpt lat="44.3357" lon="2.51818">
        <ele>527.5</ele>
        <time>2011-04-06T17:35:41Z</time>
      </trkpt>
      <trkpt lat="44.33568" lon="2.51821">
        <ele>526.9</ele>
        <time>2011-04-06T17:35:42Z</time>
      </trkpt>
      <trkpt lat="44.33566" lon="2.51824">
        <ele>526.2</ele>
        <time>2011-04-06T17:35:43Z</time>
      </trkpt>
      <trkpt lat="44.33563" lon="2.51828">
        <ele>525.5</ele>
        <time>2011-04-06T17:35:44Z</time>
      </trkpt>
      <trkpt lat="44.33561" lon="2.51831">
        <ele>525</ele>
        <time>2011-04-06T17:35:45Z</time>
      </trkpt>
      <trkpt lat="44.33559" lon="2.51836">
        <ele>524.5</ele>
        <time>2011-04-06T17:35:46Z</time>
      </trkpt>
      <trkpt lat="44.33556" lon="2.5184">
        <ele>524</ele>
        <time>2011-04-06T17:35:47Z</time>
      </trkpt>
      <trkpt lat="44.33553" lon="2.51844">
        <ele>523.5</ele>
        <time>2011-04-06T17:35:48Z</time>
      </trkpt>
      <trkpt lat="44.3355" lon="2.51849">
        <ele>523</ele>
        <time>2011-04-06T17:35:49Z</time>
      </trkpt>
      <trkpt lat="44.33547" lon="2.51854">
        <ele>522.5</ele>
        <time>2011-04-06T17:35:50Z</time>
      </trkpt>
      <trkpt lat="44.33545" lon="2.51859">
        <ele>522</ele>
        <time>2011-04-06T17:35:51Z</time>
      </trkpt>
      <trkpt lat="44.33541" lon="2.51863">
        <ele>521.5</ele>
        <time>2011-04-06T17:35:52Z</time>
      </trkpt>
      <trkpt lat="44.33538" lon="2.51868">
        <ele>521</ele>
        <time>2011-04-06T17:35:53Z</time>
      </trkpt>
      <trkpt lat="44.33534" lon="2.51871">
        <ele>520.7</ele>
        <time>2011-04-06T17:35:54Z</time>
      </trkpt>
      <trkpt lat="44.33531" lon="2.51875">
        <ele>520.2</ele>
        <time>2011-04-06T17:35:55Z</time>
      </trkpt>
      <trkpt lat="44.33529" lon="2.51878">
        <ele>519.9</ele>
        <time>2011-04-06T17:35:56Z</time>
      </trkpt>
      <trkpt lat="44.33526" lon="2.51881">
        <ele>519.2</ele>
        <time>2011-04-06T17:35:57Z</time>
      </trkpt>
      <trkpt lat="44.33523" lon="2.51882">
        <ele>518.4</ele>
        <time>2011-04-06T17:35:58Z</time>
      </trkpt>
      <trkpt lat="44.3352" lon="2.51885">
        <ele>517.5</ele>
        <time>2011-04-06T17:36:01Z</time>
      </trkpt>
      <trkpt lat="44.33518" lon="2.51889">
        <ele>517.2</ele>
        <time>2011-04-06T17:36:03Z</time>
      </trkpt>
      <trkpt lat="44.33516" lon="2.51892">
        <ele>517</ele>
        <time>2011-04-06T17:36:04Z</time>
      </trkpt>
      <trkpt lat="44.33515" lon="2.51896">
        <ele>516.9</ele>
        <time>2011-04-06T17:36:05Z</time>
      </trkpt>
      <trkpt lat="44.33515" lon="2.519">
        <ele>516.5</ele>
        <time>2011-04-06T17:36:06Z</time>
      </trkpt>
      <trkpt lat="44.33515" lon="2.51905">
        <ele>516.2</ele>
        <time>2011-04-06T17:36:07Z</time>
      </trkpt>
      <trkpt lat="44.33516" lon="2.51909">
        <ele>515.9</ele>
        <time>2011-04-06T17:36:08Z</time>
      </trkpt>
      <trkpt lat="44.33517" lon="2.51914">
        <ele>515.4</ele>
        <time>2011-04-06T17:36:09Z</time>
      </trkpt>
      <trkpt lat="44.33518" lon="2.51919">
        <ele>515</ele>
        <time>2011-04-06T17:36:10Z</time>
      </trkpt>
      <trkpt lat="44.3352" lon="2.51925">
        <ele>514.4</ele>
        <time>2011-04-06T17:36:11Z</time>
      </trkpt>
      <trkpt lat="44.33522" lon="2.5193">
        <ele>514</ele>
        <time>2011-04-06T17:36:12Z</time>
      </trkpt>
      <trkpt lat="44.33525" lon="2.51936">
        <ele>513.5</ele>
        <time>2011-04-06T17:36:13Z</time>
      </trkpt>
      <trkpt lat="44.33529" lon="2.51941">
        <ele>513</ele>
        <time>2011-04-06T17:36:14Z</time>
      </trkpt>
      <trkpt lat="44.33533" lon="2.51946">
        <ele>512.5</ele>
        <time>2011-04-06T17:36:15Z</time>
      </trkpt>
      <trkpt lat="44.33537" lon="2.51951">
        <ele>512.2</ele>
        <time>2011-04-06T17:36:16Z</time>
      </trkpt>
      <trkpt lat="44.33542" lon="2.51956">
        <ele>511.8</ele>
        <time>2011-04-06T17:36:17Z</time>
      </trkpt>
      <trkpt lat="44.33547" lon="2.51961">
        <ele>511.5</ele>
        <time>2011-04-06T17:36:18Z</time>
      </trkpt>
      <trkpt lat="44.33552" lon="2.51966">
        <ele>511.1</ele>
        <time>2011-04-06T17:36:19Z</time>
      </trkpt>
      <trkpt lat="44.33557" lon="2.5197">
        <ele>510.7</ele>
        <time>2011-04-06T17:36:20Z</time>
      </trkpt>
      <trkpt lat="44.33563" lon="2.51975">
        <ele>510.6</ele>
        <time>2011-04-06T17:36:21Z</time>
      </trkpt>
      <trkpt lat="44.3357" lon="2.51979">
        <ele>510.5</ele>
        <time>2011-04-06T17:36:22Z</time>
      </trkpt>
      <trkpt lat="44.33576" lon="2.51982">
        <ele>510.7</ele>
        <time>2011-04-06T17:36:23Z</time>
      </trkpt>
      <trkpt lat="44.33583" lon="2.51985">
        <ele>511.2</ele>
        <time>2011-04-06T17:36:24Z</time>
      </trkpt>
      <trkpt lat="44.33589" lon="2.51988">
        <ele>512</ele>
        <time>2011-04-06T17:36:25Z</time>
      </trkpt>
      <trkpt lat="44.33595" lon="2.51991">
        <ele>512.7</ele>
        <time>2011-04-06T17:36:26Z</time>
      </trkpt>
      <trkpt lat="44.33602" lon="2.51994">
        <ele>513.2</ele>
        <time>2011-04-06T17:36:27Z</time>
      </trkpt>
      <trkpt lat="44.33609" lon="2.51996">
        <ele>514.2</ele>
        <time>2011-04-06T17:36:28Z</time>
      </trkpt>
      <trkpt lat="44.33616" lon="2.51997">
        <ele>515.9</ele>
        <time>2011-04-06T17:36:29Z</time>
      </trkpt>
      <trkpt lat="44.33622" lon="2.51998">
        <ele>517.7</ele>
        <time>2011-04-06T17:36:30Z</time>
      </trkpt>
      <trkpt lat="44.33628" lon="2.52">
        <ele>519.4</ele>
        <time>2011-04-06T17:36:31Z</time>
      </trkpt>
      <trkpt lat="44.33635" lon="2.52001">
        <ele>520.5</ele>
        <time>2011-04-06T17:36:32Z</time>
      </trkpt>
      <trkpt lat="44.33641" lon="2.52004">
        <ele>521.5</ele>
        <time>2011-04-06T17:36:33Z</time>
      </trkpt>
      <trkpt lat="44.33647" lon="2.52006">
        <ele>522.4</ele>
        <time>2011-04-06T17:36:34Z</time>
      </trkpt>
      <trkpt lat="44.33652" lon="2.52008">
        <ele>523.5</ele>
        <time>2011-04-06T17:36:35Z</time>
      </trkpt>
      <trkpt lat="44.33658" lon="2.52009">
        <ele>524.7</ele>
        <time>2011-04-06T17:36:36Z</time>
      </trkpt>
      <trkpt lat="44.33664" lon="2.52012">
        <ele>526.2</ele>
        <time>2011-04-06T17:36:37Z</time>
      </trkpt>
      <trkpt lat="44.33669" lon="2.52014">
        <ele>527.4</ele>
        <time>2011-04-06T17:36:38Z</time>
      </trkpt>
      <trkpt lat="44.33674" lon="2.52016">
        <ele>528.5</ele>
        <time>2011-04-06T17:36:39Z</time>
      </trkpt>
      <trkpt lat="44.33679" lon="2.52019">
        <ele>529.4</ele>
        <time>2011-04-06T17:36:40Z</time>
      </trkpt>
      <trkpt lat="44.33684" lon="2.52021">
        <ele>530.4</ele>
        <time>2011-04-06T17:36:41Z</time>
      </trkpt>
      <trkpt lat="44.33689" lon="2.52023">
        <ele>531</ele>
        <time>2011-04-06T17:36:42Z</time>
      </trkpt>
      <trkpt lat="44.33694" lon="2.52026">
        <ele>531.5</ele>
        <time>2011-04-06T17:36:43Z</time>
      </trkpt>
      <trkpt lat="44.33698" lon="2.52028">
        <ele>532</ele>
        <time>2011-04-06T17:36:44Z</time>
      </trkpt>
      <trkpt lat="44.33702" lon="2.5203">
        <ele>532.7</ele>
        <time>2011-04-06T17:36:45Z</time>
      </trkpt>
      <trkpt lat="44.33707" lon="2.52031">
        <ele>533.2</ele>
        <time>2011-04-06T17:36:46Z</time>
      </trkpt>
      <trkpt lat="44.33711" lon="2.52033">
        <ele>533.9</ele>
        <time>2011-04-06T17:36:47Z</time>
      </trkpt>
      <trkpt lat="44.33716" lon="2.52034">
        <ele>534.5</ele>
        <time>2011-04-06T17:36:48Z</time>
      </trkpt>
      <trkpt lat="44.33721" lon="2.52036">
        <ele>535</ele>
        <time>2011-04-06T17:36:49Z</time>
      </trkpt>
      <trkpt lat="44.33725" lon="2.52037">
        <ele>535.7</ele>
        <time>2011-04-06T17:36:50Z</time>
      </trkpt>
      <trkpt lat="44.3373" lon="2.52039">
        <ele>536.2</ele>
        <time>2011-04-06T17:36:51Z</time>
      </trkpt>
      <trkpt lat="44.33734" lon="2.52041">
        <ele>536.7</ele>
        <time>2011-04-06T17:36:52Z</time>
      </trkpt>
      <trkpt lat="44.33739" lon="2.52043">
        <ele>537</ele>
        <time>2011-04-06T17:36:53Z</time>
      </trkpt>
      <trkpt lat="44.33744" lon="2.52045">
        <ele>537.4</ele>
        <time>2011-04-06T17:36:54Z</time>
      </trkpt>
      <trkpt lat="44.33748" lon="2.52047">
        <ele>537.5</ele>
        <time>2011-04-06T17:36:55Z</time>
      </trkpt>
      <trkpt lat="44.33752" lon="2.52049">
        <ele>537.9</ele>
        <time>2011-04-06T17:36:56Z</time>
      </trkpt>
      <trkpt lat="44.33757" lon="2.5205">
        <ele>538</ele>
        <time>2011-04-06T17:36:57Z</time>
      </trkpt>
      <trkpt lat="44.33761" lon="2.52052">
        <ele>538.2</ele>
        <time>2011-04-06T17:36:58Z</time>
      </trkpt>
      <trkpt lat="44.33765" lon="2.52054">
        <ele>538.5</ele>
        <time>2011-04-06T17:36:59Z</time>
      </trkpt>
      <trkpt lat="44.3377" lon="2.52056">
        <ele>538.7</ele>
        <time>2011-04-06T17:37:00Z</time>
      </trkpt>
      <trkpt lat="44.33774" lon="2.52058">
        <ele>538.9</ele>
        <time>2011-04-06T17:37:01Z</time>
      </trkpt>
      <trkpt lat="44.33778" lon="2.52061">
        <ele>539</ele>
        <time>2011-04-06T17:37:02Z</time>
      </trkpt>
      <trkpt lat="44.33782" lon="2.52063">
        <ele>539.5</ele>
        <time>2011-04-06T17:37:03Z</time>
      </trkpt>
      <trkpt lat="44.33787" lon="2.52065">
        <ele>539.9</ele>
        <time>2011-04-06T17:37:04Z</time>
      </trkpt>
      <trkpt lat="44.3379" lon="2.52066">
        <ele>540.2</ele>
        <time>2011-04-06T17:37:05Z</time>
      </trkpt>
      <trkpt lat="44.33794" lon="2.52068">
        <ele>541</ele>
        <time>2011-04-06T17:37:06Z</time>
      </trkpt>
      <trkpt lat="44.33798" lon="2.5207">
        <ele>541.5</ele>
        <time>2011-04-06T17:37:07Z</time>
      </trkpt>
      <trkpt lat="44.33802" lon="2.52072">
        <ele>542</ele>
        <time>2011-04-06T17:37:08Z</time>
      </trkpt>
      <trkpt lat="44.33806" lon="2.52074">
        <ele>542.5</ele>
        <time>2011-04-06T17:37:09Z</time>
      </trkpt>
      <trkpt lat="44.33811" lon="2.52076">
        <ele>543</ele>
        <time>2011-04-06T17:37:10Z</time>
      </trkpt>
      <trkpt lat="44.33815" lon="2.52079">
        <ele>543.2</ele>
        <time>2011-04-06T17:37:11Z</time>
      </trkpt>
      <trkpt lat="44.33819" lon="2.52082">
        <ele>542.9</ele>
        <time>2011-04-06T17:37:12Z</time>
      </trkpt>
      <trkpt lat="44.33824" lon="2.52084">
        <ele>542.7</ele>
        <time>2011-04-06T17:37:13Z</time>
      </trkpt>
      <trkpt lat="44.33828" lon="2.52087">
        <ele>542.4</ele>
        <time>2011-04-06T17:37:14Z</time>
      </trkpt>
      <trkpt lat="44.33833" lon="2.52089">
        <ele>542.2</ele>
        <time>2011-04-06T17:37:15Z</time>
      </trkpt>
      <trkpt lat="44.33837" lon="2.52091">
        <ele>541.7</ele>
        <time>2011-04-06T17:37:16Z</time>
      </trkpt>
      <trkpt lat="44.33842" lon="2.52094">
        <ele>541.2</ele>
        <time>2011-04-06T17:37:17Z</time>
      </trkpt>
      <trkpt lat="44.33846" lon="2.52096">
        <ele>540.7</ele>
        <time>2011-04-06T17:37:18Z</time>
      </trkpt>
      <trkpt lat="44.3385" lon="2.52097">
        <ele>540.5</ele>
        <time>2011-04-06T17:37:19Z</time>
      </trkpt>
      <trkpt lat="44.33854" lon="2.52099">
        <ele>540.2</ele>
        <time>2011-04-06T17:37:20Z</time>
      </trkpt>
      <trkpt lat="44.33858" lon="2.52101">
        <ele>539.7</ele>
        <time>2011-04-06T17:37:21Z</time>
      </trkpt>
      <trkpt lat="44.33862" lon="2.52102">
        <ele>539.2</ele>
        <time>2011-04-06T17:37:22Z</time>
      </trkpt>
      <trkpt lat="44.33866" lon="2.52103">
        <ele>539</ele>
        <time>2011-04-06T17:37:23Z</time>
      </trkpt>
      <trkpt lat="44.3387" lon="2.52104">
        <ele>539</ele>
        <time>2011-04-06T17:37:24Z</time>
      </trkpt>
      <trkpt lat="44.33873" lon="2.52105">
        <ele>539.2</ele>
        <time>2011-04-06T17:37:25Z</time>
      </trkpt>
      <trkpt lat="44.33877" lon="2.52106">
        <ele>539.2</ele>
        <time>2011-04-06T17:37:26Z</time>
      </trkpt>
      <trkpt lat="44.3388" lon="2.52107">
        <ele>539.5</ele>
        <time>2011-04-06T17:37:27Z</time>
      </trkpt>
      <trkpt lat="44.33884" lon="2.52108">
        <ele>539.7</ele>
        <time>2011-04-06T17:37:28Z</time>
      </trkpt>
      <trkpt lat="44.33888" lon="2.52109">
        <ele>540</ele>
        <time>2011-04-06T17:37:29Z</time>
      </trkpt>
      <trkpt lat="44.33892" lon="2.5211">
        <ele>540</ele>
        <time>2011-04-06T17:37:30Z</time>
      </trkpt>
      <trkpt lat="44.33896" lon="2.52111">
        <ele>539.9</ele>
        <time>2011-04-06T17:37:31Z</time>
      </trkpt>
      <trkpt lat="44.339" lon="2.52112">
        <ele>539.7</ele>
        <time>2011-04-06T17:37:32Z</time>
      </trkpt>
      <trkpt lat="44.33904" lon="2.52113">
        <ele>539.2</ele>
        <time>2011-04-06T17:37:33Z</time>
      </trkpt>
      <trkpt lat="44.33908" lon="2.52113">
        <ele>538.7</ele>
        <time>2011-04-06T17:37:34Z</time>
      </trkpt>
      <trkpt lat="44.33912" lon="2.52114">
        <ele>538.4</ele>
        <time>2011-04-06T17:37:35Z</time>
      </trkpt>
      <trkpt lat="44.33917" lon="2.52114">
        <ele>538.4</ele>
        <time>2011-04-06T17:37:36Z</time>
      </trkpt>
      <trkpt lat="44.33921" lon="2.52114">
        <ele>538.4</ele>
        <time>2011-04-06T17:37:37Z</time>
      </trkpt>
      <trkpt lat="44.33926" lon="2.52114">
        <ele>538.5</ele>
        <time>2011-04-06T17:37:38Z</time>
      </trkpt>
      <trkpt lat="44.3393" lon="2.52115">
        <ele>538.7</ele>
        <time>2011-04-06T17:37:39Z</time>
      </trkpt>
      <trkpt lat="44.33935" lon="2.52115">
        <ele>538.9</ele>
        <time>2011-04-06T17:37:40Z</time>
      </trkpt>
      <trkpt lat="44.33939" lon="2.52115">
        <ele>539</ele>
        <time>2011-04-06T17:37:41Z</time>
      </trkpt>
      <trkpt lat="44.33943" lon="2.52115">
        <ele>539.5</ele>
        <time>2011-04-06T17:37:42Z</time>
      </trkpt>
      <trkpt lat="44.33948" lon="2.52115">
        <ele>539.9</ele>
        <time>2011-04-06T17:37:43Z</time>
      </trkpt>
      <trkpt lat="44.33953" lon="2.52115">
        <ele>539.7</ele>
        <time>2011-04-06T17:37:44Z</time>
      </trkpt>
      <trkpt lat="44.33957" lon="2.52115">
        <ele>539.7</ele>
        <time>2011-04-06T17:37:45Z</time>
      </trkpt>
      <trkpt lat="44.33962" lon="2.52116">
        <ele>539.7</ele>
        <time>2011-04-06T17:37:46Z</time>
      </trkpt>
      <trkpt lat="44.33967" lon="2.52116">
        <ele>539.7</ele>
        <time>2011-04-06T17:37:47Z</time>
      </trkpt>
      <trkpt lat="44.33972" lon="2.52116">
        <ele>540</ele>
        <time>2011-04-06T17:37:48Z</time>
      </trkpt>
      <trkpt lat="44.33977" lon="2.52115">
        <ele>540.2</ele>
        <time>2011-04-06T17:37:49Z</time>
      </trkpt>
      <trkpt lat="44.33982" lon="2.52115">
        <ele>540.5</ele>
        <time>2011-04-06T17:37:50Z</time>
      </trkpt>
      <trkpt lat="44.33987" lon="2.52115">
        <ele>541</ele>
        <time>2011-04-06T17:37:51Z</time>
      </trkpt>
      <trkpt lat="44.33992" lon="2.52115">
        <ele>541.4</ele>
        <time>2011-04-06T17:37:52Z</time>
      </trkpt>
      <trkpt lat="44.33996" lon="2.52114">
        <ele>541.5</ele>
        <time>2011-04-06T17:37:53Z</time>
      </trkpt>
      <trkpt lat="44.34001" lon="2.52115">
        <ele>541.7</ele>
        <time>2011-04-06T17:37:54Z</time>
      </trkpt>
      <trkpt lat="44.34006" lon="2.52114">
        <ele>541.5</ele>
        <time>2011-04-06T17:37:55Z</time>
      </trkpt>
      <trkpt lat="44.34011" lon="2.52114">
        <ele>541.5</ele>
        <time>2011-04-06T17:37:56Z</time>
      </trkpt>
      <trkpt lat="44.34016" lon="2.52114">
        <ele>541.2</ele>
        <time>2011-04-06T17:37:57Z</time>
      </trkpt>
      <trkpt lat="44.3402" lon="2.52114">
        <ele>541</ele>
        <time>2011-04-06T17:37:58Z</time>
      </trkpt>
      <trkpt lat="44.34025" lon="2.52114">
        <ele>540.7</ele>
        <time>2011-04-06T17:37:59Z</time>
      </trkpt>
      <trkpt lat="44.34029" lon="2.52114">
        <ele>540.5</ele>
        <time>2011-04-06T17:38:00Z</time>
      </trkpt>
      <trkpt lat="44.34033" lon="2.52114">
        <ele>540.5</ele>
        <time>2011-04-06T17:38:01Z</time>
      </trkpt>
      <trkpt lat="44.34037" lon="2.52114">
        <ele>541</ele>
        <time>2011-04-06T17:38:02Z</time>
      </trkpt>
      <trkpt lat="44.34041" lon="2.52114">
        <ele>541.7</ele>
        <time>2011-04-06T17:38:03Z</time>
      </trkpt>
      <trkpt lat="44.34045" lon="2.52114">
        <ele>541.9</ele>
        <time>2011-04-06T17:38:04Z</time>
      </trkpt>
      <trkpt lat="44.3405" lon="2.52115">
        <ele>541.5</ele>
        <time>2011-04-06T17:38:05Z</time>
      </trkpt>
      <trkpt lat="44.34054" lon="2.52115">
        <ele>541.2</ele>
        <time>2011-04-06T17:38:06Z</time>
      </trkpt>
      <trkpt lat="44.34059" lon="2.52116">
        <ele>540.9</ele>
        <time>2011-04-06T17:38:07Z</time>
      </trkpt>
      <trkpt lat="44.34064" lon="2.52117">
        <ele>540.5</ele>
        <time>2011-04-06T17:38:08Z</time>
      </trkpt>
      <trkpt lat="44.34068" lon="2.52117">
        <ele>540.2</ele>
        <time>2011-04-06T17:38:09Z</time>
      </trkpt>
      <trkpt lat="44.34073" lon="2.52117">
        <ele>539.9</ele>
        <time>2011-04-06T17:38:10Z</time>
      </trkpt>
      <trkpt lat="44.34077" lon="2.52118">
        <ele>539.5</ele>
        <time>2011-04-06T17:38:11Z</time>
      </trkpt>
      <trkpt lat="44.34082" lon="2.52118">
        <ele>539.2</ele>
        <time>2011-04-06T17:38:12Z</time>
      </trkpt>
      <trkpt lat="44.34087" lon="2.52119">
        <ele>539</ele>
        <time>2011-04-06T17:38:13Z</time>
      </trkpt>
      <trkpt lat="44.34091" lon="2.5212">
        <ele>539.4</ele>
        <time>2011-04-06T17:38:14Z</time>
      </trkpt>
      <trkpt lat="44.34096" lon="2.52121">
        <ele>539.7</ele>
        <time>2011-04-06T17:38:15Z</time>
      </trkpt>
      <trkpt lat="44.341" lon="2.52122">
        <ele>540.2</ele>
        <time>2011-04-06T17:38:16Z</time>
      </trkpt>
      <trkpt lat="44.34104" lon="2.52124">
        <ele>540.9</ele>
        <time>2011-04-06T17:38:17Z</time>
      </trkpt>
      <trkpt lat="44.34108" lon="2.52126">
        <ele>541.5</ele>
        <time>2011-04-06T17:38:18Z</time>
      </trkpt>
      <trkpt lat="44.34113" lon="2.52128">
        <ele>542</ele>
        <time>2011-04-06T17:38:19Z</time>
      </trkpt>
      <trkpt lat="44.34116" lon="2.5213">
        <ele>542.5</ele>
        <time>2011-04-06T17:38:20Z</time>
      </trkpt>
      <trkpt lat="44.3412" lon="2.52133">
        <ele>543</ele>
        <time>2011-04-06T17:38:21Z</time>
      </trkpt>
      <trkpt lat="44.34124" lon="2.52136">
        <ele>543.5</ele>
        <time>2011-04-06T17:38:22Z</time>
      </trkpt>
      <trkpt lat="44.34128" lon="2.52139">
        <ele>543.5</ele>
        <time>2011-04-06T17:38:23Z</time>
      </trkpt>
      <trkpt lat="44.34132" lon="2.52142">
        <ele>543.5</ele>
        <time>2011-04-06T17:38:24Z</time>
      </trkpt>
      <trkpt lat="44.34136" lon="2.52145">
        <ele>543.5</ele>
        <time>2011-04-06T17:38:25Z</time>
      </trkpt>
      <trkpt lat="44.3414" lon="2.52149">
        <ele>543.5</ele>
        <time>2011-04-06T17:38:26Z</time>
      </trkpt>
      <trkpt lat="44.34144" lon="2.52152">
        <ele>543.5</ele>
        <time>2011-04-06T17:38:27Z</time>
      </trkpt>
      <trkpt lat="44.34148" lon="2.52156">
        <ele>543.2</ele>
        <time>2011-04-06T17:38:28Z</time>
      </trkpt>
      <trkpt lat="44.34152" lon="2.5216">
        <ele>542.7</ele>
        <time>2011-04-06T17:38:29Z</time>
      </trkpt>
      <trkpt lat="44.34155" lon="2.52163">
        <ele>542.5</ele>
        <time>2011-04-06T17:38:30Z</time>
      </trkpt>
      <trkpt lat="44.34159" lon="2.52167">
        <ele>542.9</ele>
        <time>2011-04-06T17:38:31Z</time>
      </trkpt>
      <trkpt lat="44.34162" lon="2.5217">
        <ele>543</ele>
        <time>2011-04-06T17:38:32Z</time>
      </trkpt>
      <trkpt lat="44.34165" lon="2.52174">
        <ele>543.2</ele>
        <time>2011-04-06T17:38:33Z</time>
      </trkpt>
      <trkpt lat="44.34168" lon="2.52178">
        <ele>543.5</ele>
        <time>2011-04-06T17:38:34Z</time>
      </trkpt>
      <trkpt lat="44.34171" lon="2.52181">
        <ele>544.4</ele>
        <time>2011-04-06T17:38:35Z</time>
      </trkpt>
      <trkpt lat="44.34174" lon="2.52185">
        <ele>545.5</ele>
        <time>2011-04-06T17:38:36Z</time>
      </trkpt>
      <trkpt lat="44.34177" lon="2.52189">
        <ele>546.5</ele>
        <time>2011-04-06T17:38:37Z</time>
      </trkpt>
      <trkpt lat="44.3418" lon="2.52192">
        <ele>547.5</ele>
        <time>2011-04-06T17:38:38Z</time>
      </trkpt>
      <trkpt lat="44.34183" lon="2.52196">
        <ele>548.5</ele>
        <time>2011-04-06T17:38:39Z</time>
      </trkpt>
      <trkpt lat="44.34185" lon="2.52201">
        <ele>549.9</ele>
        <time>2011-04-06T17:38:40Z</time>
      </trkpt>
      <trkpt lat="44.34188" lon="2.52205">
        <ele>550.7</ele>
        <time>2011-04-06T17:38:41Z</time>
      </trkpt>
      <trkpt lat="44.3419" lon="2.52211">
        <ele>551.2</ele>
        <time>2011-04-06T17:38:42Z</time>
      </trkpt>
      <trkpt lat="44.34193" lon="2.52217">
        <ele>550.9</ele>
        <time>2011-04-06T17:38:43Z</time>
      </trkpt>
      <trkpt lat="44.34195" lon="2.52223">
        <ele>550</ele>
        <time>2011-04-06T17:38:44Z</time>
      </trkpt>
      <trkpt lat="44.34197" lon="2.5223">
        <ele>549</ele>
        <time>2011-04-06T17:38:45Z</time>
      </trkpt>
      <trkpt lat="44.342" lon="2.52237">
        <ele>547.9</ele>
        <time>2011-04-06T17:38:46Z</time>
      </trkpt>
      <trkpt lat="44.34201" lon="2.52244">
        <ele>546.7</ele>
        <time>2011-04-06T17:38:47Z</time>
      </trkpt>
      <trkpt lat="44.34202" lon="2.52252">
        <ele>545.9</ele>
        <time>2011-04-06T17:38:48Z</time>
      </trkpt>
      <trkpt lat="44.34204" lon="2.52259">
        <ele>544.9</ele>
        <time>2011-04-06T17:38:49Z</time>
      </trkpt>
      <trkpt lat="44.34204" lon="2.52266">
        <ele>544</ele>
        <time>2011-04-06T17:38:50Z</time>
      </trkpt>
      <trkpt lat="44.34205" lon="2.52273">
        <ele>542.7</ele>
        <time>2011-04-06T17:38:51Z</time>
      </trkpt>
      <trkpt lat="44.34206" lon="2.52279">
        <ele>541.5</ele>
        <time>2011-04-06T17:38:52Z</time>
      </trkpt>
      <trkpt lat="44.34207" lon="2.52284">
        <ele>540.5</ele>
        <time>2011-04-06T17:38:53Z</time>
      </trkpt>
      <trkpt lat="44.34207" lon="2.52288">
        <ele>539.5</ele>
        <time>2011-04-06T17:38:54Z</time>
      </trkpt>
      <trkpt lat="44.34208" lon="2.52294">
        <ele>537.9</ele>
        <time>2011-04-06T17:38:56Z</time>
      </trkpt>
      <trkpt lat="44.3421" lon="2.52297">
        <ele>534.5</ele>
        <time>2011-04-06T17:39:02Z</time>
      </trkpt>
      <trkpt lat="44.34214" lon="2.52297">
        <ele>533.7</ele>
        <time>2011-04-06T17:39:05Z</time>
      </trkpt>
      <trkpt lat="44.34217" lon="2.52302">
        <ele>530</ele>
        <time>2011-04-06T17:39:14Z</time>
      </trkpt>
      <trkpt lat="44.34218" lon="2.52308">
        <ele>523.7</ele>
        <time>2011-04-06T17:39:31Z</time>
      </trkpt>
      <trkpt lat="44.34215" lon="2.52313">
        <ele>521.7</ele>
        <time>2011-04-06T17:39:38Z</time>
      </trkpt>
      <trkpt lat="44.34215" lon="2.52313">
        <ele>521.9</ele>
        <time>2011-04-06T17:39:39Z</time>
      </trkpt>
      <trkpt lat="44.34217" lon="2.52321">
        <ele>521.2</ele>
        <time>2011-04-06T17:40:01Z</time>
      </trkpt>
      <trkpt lat="44.34217" lon="2.52327">
        <ele>520.5</ele>
        <time>2011-04-06T17:40:03Z</time>
      </trkpt>
      <trkpt lat="44.34217" lon="2.52331">
        <ele>520.2</ele>
        <time>2011-04-06T17:40:04Z</time>
      </trkpt>
      <trkpt lat="44.34216" lon="2.52335">
        <ele>519.9</ele>
        <time>2011-04-06T17:40:05Z</time>
      </trkpt>
      <trkpt lat="44.34216" lon="2.52339">
        <ele>519.7</ele>
        <time>2011-04-06T17:40:06Z</time>
      </trkpt>
      <trkpt lat="44.34216" lon="2.52343">
        <ele>519.5</ele>
        <time>2011-04-06T17:40:07Z</time>
      </trkpt>
      <trkpt lat="44.34216" lon="2.52347">
        <ele>519.2</ele>
        <time>2011-04-06T17:40:08Z</time>
      </trkpt>
      <trkpt lat="44.34215" lon="2.5235">
        <ele>519</ele>
        <time>2011-04-06T17:40:09Z</time>
      </trkpt>
      <trkpt lat="44.34214" lon="2.52354">
        <ele>518.7</ele>
        <time>2011-04-06T17:40:10Z</time>
      </trkpt>
      <trkpt lat="44.34213" lon="2.52358">
        <ele>518.5</ele>
        <time>2011-04-06T17:40:11Z</time>
      </trkpt>
      <trkpt lat="44.34212" lon="2.52361">
        <ele>518.4</ele>
        <time>2011-04-06T17:40:12Z</time>
      </trkpt>
      <trkpt lat="44.34211" lon="2.52365">
        <ele>518.2</ele>
        <time>2011-04-06T17:40:13Z</time>
      </trkpt>
      <trkpt lat="44.3421" lon="2.52369">
        <ele>518</ele>
        <time>2011-04-06T17:40:14Z</time>
      </trkpt>
      <trkpt lat="44.34209" lon="2.52372">
        <ele>518</ele>
        <time>2011-04-06T17:40:15Z</time>
      </trkpt>
      <trkpt lat="44.34208" lon="2.52376">
        <ele>517.7</ele>
        <time>2011-04-06T17:40:16Z</time>
      </trkpt>
      <trkpt lat="44.34207" lon="2.5238">
        <ele>517.5</ele>
        <time>2011-04-06T17:40:17Z</time>
      </trkpt>
      <trkpt lat="44.34206" lon="2.52384">
        <ele>517.4</ele>
        <time>2011-04-06T17:40:18Z</time>
      </trkpt>
      <trkpt lat="44.34204" lon="2.52387">
        <ele>517.4</ele>
        <time>2011-04-06T17:40:19Z</time>
      </trkpt>
      <trkpt lat="44.34203" lon="2.52391">
        <ele>517.5</ele>
        <time>2011-04-06T17:40:20Z</time>
      </trkpt>
      <trkpt lat="44.34201" lon="2.52395">
        <ele>517.5</ele>
        <time>2011-04-06T17:40:21Z</time>
      </trkpt>
      <trkpt lat="44.342" lon="2.52398">
        <ele>518</ele>
        <time>2011-04-06T17:40:22Z</time>
      </trkpt>
      <trkpt lat="44.34198" lon="2.52401">
        <ele>518.2</ele>
        <time>2011-04-06T17:40:23Z</time>
      </trkpt>
      <trkpt lat="44.34197" lon="2.52405">
        <ele>518.5</ele>
        <time>2011-04-06T17:40:24Z</time>
      </trkpt>
      <trkpt lat="44.34195" lon="2.52408">
        <ele>518.5</ele>
        <time>2011-04-06T17:40:25Z</time>
      </trkpt>
      <trkpt lat="44.34194" lon="2.5241">
        <ele>518.7</ele>
        <time>2011-04-06T17:40:26Z</time>
      </trkpt>
      <trkpt lat="44.34191" lon="2.52415">
        <ele>519.4</ele>
        <time>2011-04-06T17:40:28Z</time>
      </trkpt>
      <trkpt lat="44.34189" lon="2.5242">
        <ele>520.5</ele>
        <time>2011-04-06T17:40:30Z</time>
      </trkpt>
      <trkpt lat="44.34186" lon="2.52425">
        <ele>521.5</ele>
        <time>2011-04-06T17:40:32Z</time>
      </trkpt>
      <trkpt lat="44.34185" lon="2.52428">
        <ele>522.4</ele>
        <time>2011-04-06T17:40:33Z</time>
      </trkpt>
      <trkpt lat="44.34182" lon="2.52432">
        <ele>524.2</ele>
        <time>2011-04-06T17:40:35Z</time>
      </trkpt>
      <trkpt lat="44.3418" lon="2.52435">
        <ele>524.9</ele>
        <time>2011-04-06T17:40:36Z</time>
      </trkpt>
      <trkpt lat="44.34179" lon="2.52438">
        <ele>525.5</ele>
        <time>2011-04-06T17:40:37Z</time>
      </trkpt>
      <trkpt lat="44.34178" lon="2.5244">
        <ele>526</ele>
        <time>2011-04-06T17:40:38Z</time>
      </trkpt>
      <trkpt lat="44.34175" lon="2.52446">
        <ele>527.5</ele>
        <time>2011-04-06T17:40:40Z</time>
      </trkpt>
      <trkpt lat="44.34174" lon="2.52448">
        <ele>528.2</ele>
        <time>2011-04-06T17:40:41Z</time>
      </trkpt>
      <trkpt lat="44.34171" lon="2.52456">
        <ele>529.9</ele>
        <time>2011-04-06T17:40:44Z</time>
      </trkpt>
      <trkpt lat="44.34169" lon="2.52462">
        <ele>530.5</ele>
        <time>2011-04-06T17:40:46Z</time>
      </trkpt>
      <trkpt lat="44.34167" lon="2.52467">
        <ele>530.7</ele>
        <time>2011-04-06T17:40:48Z</time>
      </trkpt>
      <trkpt lat="44.34165" lon="2.52473">
        <ele>531</ele>
        <time>2011-04-06T17:40:50Z</time>
      </trkpt>
      <trkpt lat="44.34164" lon="2.52478">
        <ele>531.2</ele>
        <time>2011-04-06T17:40:52Z</time>
      </trkpt>
      <trkpt lat="44.34162" lon="2.52483">
        <ele>531.5</ele>
        <time>2011-04-06T17:40:54Z</time>
      </trkpt>
      <trkpt lat="44.3416" lon="2.52488">
        <ele>531.7</ele>
        <time>2011-04-06T17:40:56Z</time>
      </trkpt>
      <trkpt lat="44.34158" lon="2.52493">
        <ele>531.9</ele>
        <time>2011-04-06T17:40:58Z</time>
      </trkpt>
      <trkpt lat="44.34156" lon="2.52498">
        <ele>532</ele>
        <time>2011-04-06T17:41:00Z</time>
      </trkpt>
      <trkpt lat="44.34154" lon="2.52502">
        <ele>532.4</ele>
        <time>2011-04-06T17:41:02Z</time>
      </trkpt>
      <trkpt lat="44.34152" lon="2.52507">
        <ele>532.9</ele>
        <time>2011-04-06T17:41:04Z</time>
      </trkpt>
      <trkpt lat="44.3415" lon="2.52512">
        <ele>533.2</ele>
        <time>2011-04-06T17:41:06Z</time>
      </trkpt>
      <trkpt lat="44.34148" lon="2.52516">
        <ele>533.5</ele>
        <time>2011-04-06T17:41:08Z</time>
      </trkpt>
      <trkpt lat="44.34146" lon="2.52521">
        <ele>533.7</ele>
        <time>2011-04-06T17:41:10Z</time>
      </trkpt>
      <trkpt lat="44.34144" lon="2.52526">
        <ele>534.2</ele>
        <time>2011-04-06T17:41:12Z</time>
      </trkpt>
      <trkpt lat="44.34143" lon="2.5253">
        <ele>534.7</ele>
        <time>2011-04-06T17:41:14Z</time>
      </trkpt>
      <trkpt lat="44.34141" lon="2.52536">
        <ele>534.7</ele>
        <time>2011-04-06T17:41:16Z</time>
      </trkpt>
      <trkpt lat="44.3414" lon="2.52541">
        <ele>534.5</ele>
        <time>2011-04-06T17:41:18Z</time>
      </trkpt>
      <trkpt lat="44.34139" lon="2.52547">
        <ele>534.2</ele>
        <time>2011-04-06T17:41:20Z</time>
      </trkpt>
      <trkpt lat="44.34139" lon="2.52552">
        <ele>534.2</ele>
        <time>2011-04-06T17:41:22Z</time>
      </trkpt>
      <trkpt lat="44.34138" lon="2.52557">
        <ele>534.4</ele>
        <time>2011-04-06T17:41:24Z</time>
      </trkpt>
      <trkpt lat="44.34137" lon="2.52562">
        <ele>534.9</ele>
        <time>2011-04-06T17:41:26Z</time>
      </trkpt>
      <trkpt lat="44.34136" lon="2.52567">
        <ele>535.5</ele>
        <time>2011-04-06T17:41:28Z</time>
      </trkpt>
      <trkpt lat="44.34135" lon="2.52572">
        <ele>535.7</ele>
        <time>2011-04-06T17:41:30Z</time>
      </trkpt>
      <trkpt lat="44.34135" lon="2.52577">
        <ele>536.2</ele>
        <time>2011-04-06T17:41:32Z</time>
      </trkpt>
      <trkpt lat="44.34134" lon="2.52582">
        <ele>536.7</ele>
        <time>2011-04-06T17:41:34Z</time>
      </trkpt>
      <trkpt lat="44.34133" lon="2.52588">
        <ele>537</ele>
        <time>2011-04-06T17:41:36Z</time>
      </trkpt>
      <trkpt lat="44.34131" lon="2.52594">
        <ele>537</ele>
        <time>2011-04-06T17:41:38Z</time>
      </trkpt>
      <trkpt lat="44.3413" lon="2.52599">
        <ele>537</ele>
        <time>2011-04-06T17:41:40Z</time>
      </trkpt>
      <trkpt lat="44.34128" lon="2.52604">
        <ele>536.5</ele>
        <time>2011-04-06T17:41:42Z</time>
      </trkpt>
      <trkpt lat="44.34127" lon="2.52606">
        <ele>536.2</ele>
        <time>2011-04-06T17:41:43Z</time>
      </trkpt>
      <trkpt lat="44.34125" lon="2.52613">
        <ele>535.9</ele>
        <time>2011-04-06T17:41:46Z</time>
      </trkpt>
      <trkpt lat="44.34123" lon="2.52617">
        <ele>535.7</ele>
        <time>2011-04-06T17:41:48Z</time>
      </trkpt>
      <trkpt lat="44.3412" lon="2.52622">
        <ele>535.5</ele>
        <time>2011-04-06T17:41:51Z</time>
      </trkpt>
      <trkpt lat="44.34118" lon="2.52626">
        <ele>535.2</ele>
        <time>2011-04-06T17:41:54Z</time>
      </trkpt>
      <trkpt lat="44.34116" lon="2.52629">
        <ele>535.4</ele>
        <time>2011-04-06T17:41:56Z</time>
      </trkpt>
      <trkpt lat="44.34114" lon="2.52635">
        <ele>535.5</ele>
        <time>2011-04-06T17:41:59Z</time>
      </trkpt>
      <trkpt lat="44.34112" lon="2.5264">
        <ele>536</ele>
        <time>2011-04-06T17:42:02Z</time>
      </trkpt>
      <trkpt lat="44.34109" lon="2.52645">
        <ele>536.7</ele>
        <time>2011-04-06T17:42:05Z</time>
      </trkpt>
      <trkpt lat="44.34107" lon="2.5265">
        <ele>536.9</ele>
        <time>2011-04-06T17:42:08Z</time>
      </trkpt>
      <trkpt lat="44.34105" lon="2.52654">
        <ele>537.2</ele>
        <time>2011-04-06T17:42:10Z</time>
      </trkpt>
      <trkpt lat="44.34103" lon="2.52659">
        <ele>537.5</ele>
        <time>2011-04-06T17:42:13Z</time>
      </trkpt>
      <trkpt lat="44.34101" lon="2.52662">
        <ele>538</ele>
        <time>2011-04-06T17:42:15Z</time>
      </trkpt>
      <trkpt lat="44.34099" lon="2.52666">
        <ele>538.4</ele>
        <time>2011-04-06T17:42:17Z</time>
      </trkpt>
      <trkpt lat="44.34097" lon="2.52671">
        <ele>539.2</ele>
        <time>2011-04-06T17:42:20Z</time>
      </trkpt>
      <trkpt lat="44.34095" lon="2.52676">
        <ele>540.2</ele>
        <time>2011-04-06T17:42:23Z</time>
      </trkpt>
      <trkpt lat="44.34092" lon="2.52681">
        <ele>540.9</ele>
        <time>2011-04-06T17:42:26Z</time>
      </trkpt>
      <trkpt lat="44.3409" lon="2.52686">
        <ele>541.4</ele>
        <time>2011-04-06T17:42:29Z</time>
      </trkpt>
      <trkpt lat="44.34087" lon="2.52692">
        <ele>541.7</ele>
        <time>2011-04-06T17:42:32Z</time>
      </trkpt>
      <trkpt lat="44.34086" lon="2.52695">
        <ele>542</ele>
        <time>2011-04-06T17:42:34Z</time>
      </trkpt>
      <trkpt lat="44.34085" lon="2.52699">
        <ele>542.2</ele>
        <time>2011-04-06T17:42:36Z</time>
      </trkpt>
      <trkpt lat="44.34083" lon="2.52705">
        <ele>542.9</ele>
        <time>2011-04-06T17:42:39Z</time>
      </trkpt>
      <trkpt lat="44.34082" lon="2.52709">
        <ele>543</ele>
        <time>2011-04-06T17:42:41Z</time>
      </trkpt>
      <trkpt lat="44.3408" lon="2.52713">
        <ele>543.2</ele>
        <time>2011-04-06T17:42:43Z</time>
      </trkpt>
      <trkpt lat="44.3408" lon="2.52715">
        <ele>543.4</ele>
        <time>2011-04-06T17:42:44Z</time>
      </trkpt>
      <trkpt lat="44.34077" lon="2.5272">
        <ele>543.5</ele>
        <time>2011-04-06T17:42:47Z</time>
      </trkpt>
      <trkpt lat="44.34075" lon="2.52724">
        <ele>543.7</ele>
        <time>2011-04-06T17:42:49Z</time>
      </trkpt>
      <trkpt lat="44.34074" lon="2.52727">
        <ele>544</ele>
        <time>2011-04-06T17:42:51Z</time>
      </trkpt>
      <trkpt lat="44.34072" lon="2.52731">
        <ele>544.2</ele>
        <time>2011-04-06T17:42:53Z</time>
      </trkpt>
      <trkpt lat="44.34069" lon="2.52735">
        <ele>544.9</ele>
        <time>2011-04-06T17:42:56Z</time>
      </trkpt>
      <trkpt lat="44.34066" lon="2.5274">
        <ele>546</ele>
        <time>2011-04-06T17:42:59Z</time>
      </trkpt>
      <trkpt lat="44.34064" lon="2.52745">
        <ele>546.9</ele>
        <time>2011-04-06T17:43:02Z</time>
      </trkpt>
      <trkpt lat="44.34061" lon="2.52749">
        <ele>547.5</ele>
        <time>2011-04-06T17:43:05Z</time>
      </trkpt>
      <trkpt lat="44.34058" lon="2.52753">
        <ele>548.2</ele>
        <time>2011-04-06T17:43:08Z</time>
      </trkpt>
      <trkpt lat="44.34056" lon="2.52757">
        <ele>549.2</ele>
        <time>2011-04-06T17:43:11Z</time>
      </trkpt>
      <trkpt lat="44.34053" lon="2.52761">
        <ele>550</ele>
        <time>2011-04-06T17:43:14Z</time>
      </trkpt>
      <trkpt lat="44.3405" lon="2.52765">
        <ele>551</ele>
        <time>2011-04-06T17:43:17Z</time>
      </trkpt>
      <trkpt lat="44.34047" lon="2.52769">
        <ele>552.4</ele>
        <time>2011-04-06T17:43:20Z</time>
      </trkpt>
      <trkpt lat="44.34045" lon="2.52774">
        <ele>553.7</ele>
        <time>2011-04-06T17:43:23Z</time>
      </trkpt>
      <trkpt lat="44.34042" lon="2.52779">
        <ele>554.9</ele>
        <time>2011-04-06T17:43:26Z</time>
      </trkpt>
      <trkpt lat="44.3404" lon="2.52784">
        <ele>556</ele>
        <time>2011-04-06T17:43:29Z</time>
      </trkpt>
      <trkpt lat="44.34038" lon="2.52787">
        <ele>556.7</ele>
        <time>2011-04-06T17:43:31Z</time>
      </trkpt>
      <trkpt lat="44.34037" lon="2.52792">
        <ele>557.2</ele>
        <time>2011-04-06T17:43:33Z</time>
      </trkpt>
      <trkpt lat="44.34034" lon="2.52796">
        <ele>558.2</ele>
        <time>2011-04-06T17:43:36Z</time>
      </trkpt>
      <trkpt lat="44.34032" lon="2.52799">
        <ele>558.7</ele>
        <time>2011-04-06T17:43:38Z</time>
      </trkpt>
      <trkpt lat="44.3403" lon="2.52803">
        <ele>558.9</ele>
        <time>2011-04-06T17:43:40Z</time>
      </trkpt>
      <trkpt lat="44.34027" lon="2.52808">
        <ele>559.2</ele>
        <time>2011-04-06T17:43:43Z</time>
      </trkpt>
      <trkpt lat="44.34024" lon="2.52812">
        <ele>559.4</ele>
        <time>2011-04-06T17:43:46Z</time>
      </trkpt>
      <trkpt lat="44.34023" lon="2.52814">
        <ele>559.4</ele>
        <time>2011-04-06T17:43:47Z</time>
      </trkpt>
      <trkpt lat="44.3402" lon="2.52819">
        <ele>559.5</ele>
        <time>2011-04-06T17:43:50Z</time>
      </trkpt>
      <trkpt lat="44.34018" lon="2.52822">
        <ele>559.7</ele>
        <time>2011-04-06T17:43:52Z</time>
      </trkpt>
      <trkpt lat="44.34016" lon="2.52826">
        <ele>560</ele>
        <time>2011-04-06T17:43:54Z</time>
      </trkpt>
      <trkpt lat="44.34015" lon="2.52829">
        <ele>560.2</ele>
        <time>2011-04-06T17:43:56Z</time>
      </trkpt>
      <trkpt lat="44.34012" lon="2.52832">
        <ele>560.5</ele>
        <time>2011-04-06T17:43:58Z</time>
      </trkpt>
      <trkpt lat="44.3401" lon="2.52836">
        <ele>560.9</ele>
        <time>2011-04-06T17:44:00Z</time>
      </trkpt>
      <trkpt lat="44.34008" lon="2.52839">
        <ele>561.2</ele>
        <time>2011-04-06T17:44:02Z</time>
      </trkpt>
      <trkpt lat="44.34006" lon="2.52842">
        <ele>561.5</ele>
        <time>2011-04-06T17:44:04Z</time>
      </trkpt>
      <trkpt lat="44.34004" lon="2.52846">
        <ele>561.7</ele>
        <time>2011-04-06T17:44:06Z</time>
      </trkpt>
      <trkpt lat="44.34002" lon="2.5285">
        <ele>561.9</ele>
        <time>2011-04-06T17:44:08Z</time>
      </trkpt>
      <trkpt lat="44.33999" lon="2.52854">
        <ele>562</ele>
        <time>2011-04-06T17:44:10Z</time>
      </trkpt>
      <trkpt lat="44.33997" lon="2.52857">
        <ele>562</ele>
        <time>2011-04-06T17:44:12Z</time>
      </trkpt>
      <trkpt lat="44.33994" lon="2.52861">
        <ele>562.2</ele>
        <time>2011-04-06T17:44:14Z</time>
      </trkpt>
      <trkpt lat="44.33992" lon="2.52864">
        <ele>562.4</ele>
        <time>2011-04-06T17:44:16Z</time>
      </trkpt>
      <trkpt lat="44.33989" lon="2.52868">
        <ele>562.2</ele>
        <time>2011-04-06T17:44:18Z</time>
      </trkpt>
      <trkpt lat="44.33987" lon="2.52872">
        <ele>562</ele>
        <time>2011-04-06T17:44:20Z</time>
      </trkpt>
      <trkpt lat="44.33984" lon="2.52877">
        <ele>561.7</ele>
        <time>2011-04-06T17:44:22Z</time>
      </trkpt>
      <trkpt lat="44.33982" lon="2.52881">
        <ele>561.7</ele>
        <time>2011-04-06T17:44:23Z</time>
      </trkpt>
      <trkpt lat="44.33981" lon="2.52885">
        <ele>561.5</ele>
        <time>2011-04-06T17:44:24Z</time>
      </trkpt>
      <trkpt lat="44.33979" lon="2.52888">
        <ele>561.2</ele>
        <time>2011-04-06T17:44:25Z</time>
      </trkpt>
      <trkpt lat="44.33977" lon="2.52891">
        <ele>561</ele>
        <time>2011-04-06T17:44:26Z</time>
      </trkpt>
      <trkpt lat="44.33974" lon="2.52894">
        <ele>560.7</ele>
        <time>2011-04-06T17:44:27Z</time>
      </trkpt>
      <trkpt lat="44.33972" lon="2.52898">
        <ele>560.5</ele>
        <time>2011-04-06T17:44:28Z</time>
      </trkpt>
      <trkpt lat="44.3397" lon="2.52902">
        <ele>560.2</ele>
        <time>2011-04-06T17:44:29Z</time>
      </trkpt>
      <trkpt lat="44.33969" lon="2.52906">
        <ele>559.7</ele>
        <time>2011-04-06T17:44:30Z</time>
      </trkpt>
      <trkpt lat="44.33967" lon="2.5291">
        <ele>559.5</ele>
        <time>2011-04-06T17:44:31Z</time>
      </trkpt>
      <trkpt lat="44.33965" lon="2.52913">
        <ele>559.2</ele>
        <time>2011-04-06T17:44:32Z</time>
      </trkpt>
      <trkpt lat="44.33963" lon="2.52917">
        <ele>558.9</ele>
        <time>2011-04-06T17:44:33Z</time>
      </trkpt>
      <trkpt lat="44.33961" lon="2.52921">
        <ele>558.7</ele>
        <time>2011-04-06T17:44:34Z</time>
      </trkpt>
      <trkpt lat="44.33959" lon="2.52924">
        <ele>558.5</ele>
        <time>2011-04-06T17:44:35Z</time>
      </trkpt>
      <trkpt lat="44.33956" lon="2.52927">
        <ele>558.5</ele>
        <time>2011-04-06T17:44:36Z</time>
      </trkpt>
      <trkpt lat="44.33953" lon="2.5293">
        <ele>558.4</ele>
        <time>2011-04-06T17:44:37Z</time>
      </trkpt>
      <trkpt lat="44.33951" lon="2.52933">
        <ele>558.4</ele>
        <time>2011-04-06T17:44:38Z</time>
      </trkpt>
      <trkpt lat="44.33949" lon="2.52936">
        <ele>558.4</ele>
        <time>2011-04-06T17:44:39Z</time>
      </trkpt>
      <trkpt lat="44.33947" lon="2.5294">
        <ele>558.2</ele>
        <time>2011-04-06T17:44:40Z</time>
      </trkpt>
      <trkpt lat="44.33945" lon="2.52943">
        <ele>558</ele>
        <time>2011-04-06T17:44:41Z</time>
      </trkpt>
      <trkpt lat="44.33944" lon="2.52946">
        <ele>558</ele>
        <time>2011-04-06T17:44:42Z</time>
      </trkpt>
      <trkpt lat="44.33942" lon="2.52951">
        <ele>557.7</ele>
        <time>2011-04-06T17:44:44Z</time>
      </trkpt>
      <trkpt lat="44.33938" lon="2.52955">
        <ele>557.5</ele>
        <time>2011-04-06T17:44:46Z</time>
      </trkpt>
      <trkpt lat="44.33936" lon="2.52957">
        <ele>557.2</ele>
        <time>2011-04-06T17:44:47Z</time>
      </trkpt>
      <trkpt lat="44.33934" lon="2.5296">
        <ele>556.7</ele>
        <time>2011-04-06T17:44:48Z</time>
      </trkpt>
      <trkpt lat="44.3393" lon="2.52963">
        <ele>556.2</ele>
        <time>2011-04-06T17:44:49Z</time>
      </trkpt>
      <trkpt lat="44.33926" lon="2.52967">
        <ele>555.7</ele>
        <time>2011-04-06T17:44:50Z</time>
      </trkpt>
      <trkpt lat="44.33921" lon="2.5297">
        <ele>555</ele>
        <time>2011-04-06T17:44:51Z</time>
      </trkpt>
      <trkpt lat="44.33914" lon="2.52973">
        <ele>554.2</ele>
        <time>2011-04-06T17:44:52Z</time>
      </trkpt>
      <trkpt lat="44.33907" lon="2.52975">
        <ele>553.5</ele>
        <time>2011-04-06T17:44:53Z</time>
      </trkpt>
      <trkpt lat="44.33899" lon="2.52978">
        <ele>552.4</ele>
        <time>2011-04-06T17:44:54Z</time>
      </trkpt>
      <trkpt lat="44.33891" lon="2.52982">
        <ele>551.2</ele>
        <time>2011-04-06T17:44:55Z</time>
      </trkpt>
      <trkpt lat="44.33883" lon="2.52987">
        <ele>550</ele>
        <time>2011-04-06T17:44:56Z</time>
      </trkpt>
      <trkpt lat="44.33874" lon="2.52993">
        <ele>548.9</ele>
        <time>2011-04-06T17:44:57Z</time>
      </trkpt>
      <trkpt lat="44.33865" lon="2.52998">
        <ele>547.5</ele>
        <time>2011-04-06T17:44:58Z</time>
      </trkpt>
      <trkpt lat="44.33855" lon="2.53005">
        <ele>546.2</ele>
        <time>2011-04-06T17:44:59Z</time>
      </trkpt>
      <trkpt lat="44.33845" lon="2.53011">
        <ele>544.9</ele>
        <time>2011-04-06T17:45:00Z</time>
      </trkpt>
      <trkpt lat="44.33835" lon="2.53018">
        <ele>543.4</ele>
        <time>2011-04-06T17:45:01Z</time>
      </trkpt>
      <trkpt lat="44.33824" lon="2.53026">
        <ele>542</ele>
        <time>2011-04-06T17:45:02Z</time>
      </trkpt>
      <trkpt lat="44.33813" lon="2.53034">
        <ele>540.5</ele>
        <time>2011-04-06T17:45:03Z</time>
      </trkpt>
      <trkpt lat="44.33802" lon="2.53043">
        <ele>538.9</ele>
        <time>2011-04-06T17:45:04Z</time>
      </trkpt>
      <trkpt lat="44.33791" lon="2.5305">
        <ele>537.2</ele>
        <time>2011-04-06T17:45:05Z</time>
      </trkpt>
      <trkpt lat="44.33779" lon="2.53058">
        <ele>535.2</ele>
        <time>2011-04-06T17:45:06Z</time>
      </trkpt>
      <trkpt lat="44.33766" lon="2.53065">
        <ele>533.4</ele>
        <time>2011-04-06T17:45:07Z</time>
      </trkpt>
      <trkpt lat="44.33754" lon="2.53073">
        <ele>531.5</ele>
        <time>2011-04-06T17:45:08Z</time>
      </trkpt>
      <trkpt lat="44.33741" lon="2.53082">
        <ele>529.9</ele>
        <time>2011-04-06T17:45:09Z</time>
      </trkpt>
      <trkpt lat="44.33728" lon="2.5309">
        <ele>528.4</ele>
        <time>2011-04-06T17:45:10Z</time>
      </trkpt>
      <trkpt lat="44.33716" lon="2.531">
        <ele>527.2</ele>
        <time>2011-04-06T17:45:11Z</time>
      </trkpt>
      <trkpt lat="44.33705" lon="2.53109">
        <ele>526</ele>
        <time>2011-04-06T17:45:12Z</time>
      </trkpt>
      <trkpt lat="44.33694" lon="2.5312">
        <ele>525.2</ele>
        <time>2011-04-06T17:45:13Z</time>
      </trkpt>
      <trkpt lat="44.33683" lon="2.5313">
        <ele>524.2</ele>
        <time>2011-04-06T17:45:14Z</time>
      </trkpt>
      <trkpt lat="44.33673" lon="2.53142">
        <ele>523.2</ele>
        <time>2011-04-06T17:45:15Z</time>
      </trkpt>
      <trkpt lat="44.33664" lon="2.53154">
        <ele>522.2</ele>
        <time>2011-04-06T17:45:16Z</time>
      </trkpt>
      <trkpt lat="44.33658" lon="2.53166">
        <ele>521.2</ele>
        <time>2011-04-06T17:45:17Z</time>
      </trkpt>
      <trkpt lat="44.33653" lon="2.5318">
        <ele>520</ele>
        <time>2011-04-06T17:45:18Z</time>
      </trkpt>
      <trkpt lat="44.33651" lon="2.53194">
        <ele>518.9</ele>
        <time>2011-04-06T17:45:19Z</time>
      </trkpt>
      <trkpt lat="44.33652" lon="2.53209">
        <ele>517.7</ele>
        <time>2011-04-06T17:45:20Z</time>
      </trkpt>
      <trkpt lat="44.33653" lon="2.53224">
        <ele>516.4</ele>
        <time>2011-04-06T17:45:21Z</time>
      </trkpt>
      <trkpt lat="44.33655" lon="2.53239">
        <ele>515</ele>
        <time>2011-04-06T17:45:22Z</time>
      </trkpt>
      <trkpt lat="44.33659" lon="2.53253">
        <ele>513.7</ele>
        <time>2011-04-06T17:45:23Z</time>
      </trkpt>
      <trkpt lat="44.33665" lon="2.53267">
        <ele>512.7</ele>
        <time>2011-04-06T17:45:24Z</time>
      </trkpt>
      <trkpt lat="44.3367" lon="2.5328">
        <ele>511.7</ele>
        <time>2011-04-06T17:45:25Z</time>
      </trkpt>
      <trkpt lat="44.33675" lon="2.53294">
        <ele>511.1</ele>
        <time>2011-04-06T17:45:26Z</time>
      </trkpt>
      <trkpt lat="44.33679" lon="2.53308">
        <ele>510.5</ele>
        <time>2011-04-06T17:45:27Z</time>
      </trkpt>
      <trkpt lat="44.33684" lon="2.53322">
        <ele>510.1</ele>
        <time>2011-04-06T17:45:28Z</time>
      </trkpt>
      <trkpt lat="44.33689" lon="2.53335">
        <ele>509.7</ele>
        <time>2011-04-06T17:45:29Z</time>
      </trkpt>
      <trkpt lat="44.33694" lon="2.53348">
        <ele>509.2</ele>
        <time>2011-04-06T17:45:30Z</time>
      </trkpt>
      <trkpt lat="44.33699" lon="2.5336">
        <ele>508.7</ele>
        <time>2011-04-06T17:45:31Z</time>
      </trkpt>
      <trkpt lat="44.33705" lon="2.53372">
        <ele>508.7</ele>
        <time>2011-04-06T17:45:32Z</time>
      </trkpt>
      <trkpt lat="44.3371" lon="2.53382">
        <ele>508.6</ele>
        <time>2011-04-06T17:45:33Z</time>
      </trkpt>
      <trkpt lat="44.33716" lon="2.53391">
        <ele>508.7</ele>
        <time>2011-04-06T17:45:34Z</time>
      </trkpt>
      <trkpt lat="44.33721" lon="2.534">
        <ele>509.2</ele>
        <time>2011-04-06T17:45:35Z</time>
      </trkpt>
      <trkpt lat="44.33725" lon="2.53409">
        <ele>509.7</ele>
        <time>2011-04-06T17:45:36Z</time>
      </trkpt>
      <trkpt lat="44.33729" lon="2.53417">
        <ele>510.7</ele>
        <time>2011-04-06T17:45:37Z</time>
      </trkpt>
      <trkpt lat="44.33732" lon="2.53425">
        <ele>511.7</ele>
        <time>2011-04-06T17:45:38Z</time>
      </trkpt>
      <trkpt lat="44.33735" lon="2.53432">
        <ele>512.7</ele>
        <time>2011-04-06T17:45:39Z</time>
      </trkpt>
      <trkpt lat="44.33737" lon="2.53438">
        <ele>513.5</ele>
        <time>2011-04-06T17:45:40Z</time>
      </trkpt>
      <trkpt lat="44.33739" lon="2.53444">
        <ele>514.5</ele>
        <time>2011-04-06T17:45:41Z</time>
      </trkpt>
      <trkpt lat="44.3374" lon="2.53449">
        <ele>515.5</ele>
        <time>2011-04-06T17:45:42Z</time>
      </trkpt>
      <trkpt lat="44.33742" lon="2.53455">
        <ele>516.9</ele>
        <time>2011-04-06T17:45:43Z</time>
      </trkpt>
      <trkpt lat="44.33743" lon="2.5346">
        <ele>518.2</ele>
        <time>2011-04-06T17:45:44Z</time>
      </trkpt>
      <trkpt lat="44.33746" lon="2.53465">
        <ele>519.5</ele>
        <time>2011-04-06T17:45:45Z</time>
      </trkpt>
      <trkpt lat="44.33748" lon="2.5347">
        <ele>520.7</ele>
        <time>2011-04-06T17:45:46Z</time>
      </trkpt>
      <trkpt lat="44.33751" lon="2.53475">
        <ele>522</ele>
        <time>2011-04-06T17:45:47Z</time>
      </trkpt>
      <trkpt lat="44.33754" lon="2.53479">
        <ele>523.9</ele>
        <time>2011-04-06T17:45:48Z</time>
      </trkpt>
      <trkpt lat="44.33757" lon="2.53484">
        <ele>525.2</ele>
        <time>2011-04-06T17:45:49Z</time>
      </trkpt>
      <trkpt lat="44.3376" lon="2.53489">
        <ele>526.7</ele>
        <time>2011-04-06T17:45:50Z</time>
      </trkpt>
      <trkpt lat="44.33763" lon="2.53494">
        <ele>527.7</ele>
        <time>2011-04-06T17:45:51Z</time>
      </trkpt>
      <trkpt lat="44.33765" lon="2.53498">
        <ele>529</ele>
        <time>2011-04-06T17:45:52Z</time>
      </trkpt>
      <trkpt lat="44.33767" lon="2.53502">
        <ele>530.5</ele>
        <time>2011-04-06T17:45:53Z</time>
      </trkpt>
      <trkpt lat="44.33769" lon="2.53505">
        <ele>532.2</ele>
        <time>2011-04-06T17:45:54Z</time>
      </trkpt>
      <trkpt lat="44.3377" lon="2.53509">
        <ele>534</ele>
        <time>2011-04-06T17:45:55Z</time>
      </trkpt>
      <trkpt lat="44.33772" lon="2.53513">
        <ele>535.4</ele>
        <time>2011-04-06T17:45:56Z</time>
      </trkpt>
      <trkpt lat="44.33774" lon="2.53517">
        <ele>536.5</ele>
        <time>2011-04-06T17:45:57Z</time>
      </trkpt>
      <trkpt lat="44.33775" lon="2.53521">
        <ele>537.7</ele>
        <time>2011-04-06T17:45:58Z</time>
      </trkpt>
      <trkpt lat="44.33776" lon="2.53526">
        <ele>538.5</ele>
        <time>2011-04-06T17:45:59Z</time>
      </trkpt>
      <trkpt lat="44.33777" lon="2.5353">
        <ele>539.4</ele>
        <time>2011-04-06T17:46:00Z</time>
      </trkpt>
      <trkpt lat="44.33777" lon="2.53535">
        <ele>540.2</ele>
        <time>2011-04-06T17:46:01Z</time>
      </trkpt>
      <trkpt lat="44.33778" lon="2.5354">
        <ele>541</ele>
        <time>2011-04-06T17:46:02Z</time>
      </trkpt>
      <trkpt lat="44.33779" lon="2.53545">
        <ele>541.9</ele>
        <time>2011-04-06T17:46:03Z</time>
      </trkpt>
      <trkpt lat="44.33779" lon="2.53549">
        <ele>542.5</ele>
        <time>2011-04-06T17:46:04Z</time>
      </trkpt>
      <trkpt lat="44.3378" lon="2.53554">
        <ele>543.2</ele>
        <time>2011-04-06T17:46:05Z</time>
      </trkpt>
      <trkpt lat="44.3378" lon="2.53559">
        <ele>544</ele>
        <time>2011-04-06T17:46:06Z</time>
      </trkpt>
      <trkpt lat="44.33781" lon="2.53564">
        <ele>544.7</ele>
        <time>2011-04-06T17:46:07Z</time>
      </trkpt>
      <trkpt lat="44.33781" lon="2.53568">
        <ele>545.7</ele>
        <time>2011-04-06T17:46:08Z</time>
      </trkpt>
      <trkpt lat="44.33782" lon="2.53572">
        <ele>546.7</ele>
        <time>2011-04-06T17:46:09Z</time>
      </trkpt>
      <trkpt lat="44.33782" lon="2.53577">
        <ele>547.2</ele>
        <time>2011-04-06T17:46:10Z</time>
      </trkpt>
      <trkpt lat="44.33783" lon="2.53583">
        <ele>547.4</ele>
        <time>2011-04-06T17:46:11Z</time>
      </trkpt>
      <trkpt lat="44.33783" lon="2.53588">
        <ele>547.2</ele>
        <time>2011-04-06T17:46:12Z</time>
      </trkpt>
      <trkpt lat="44.33783" lon="2.53593">
        <ele>546.9</ele>
        <time>2011-04-06T17:46:13Z</time>
      </trkpt>
      <trkpt lat="44.33784" lon="2.53598">
        <ele>546.7</ele>
        <time>2011-04-06T17:46:14Z</time>
      </trkpt>
      <trkpt lat="44.33784" lon="2.53604">
        <ele>546.7</ele>
        <time>2011-04-06T17:46:15Z</time>
      </trkpt>
      <trkpt lat="44.33784" lon="2.53609">
        <ele>546.5</ele>
        <time>2011-04-06T17:46:16Z</time>
      </trkpt>
      <trkpt lat="44.33785" lon="2.53614">
        <ele>546.2</ele>
        <time>2011-04-06T17:46:17Z</time>
      </trkpt>
      <trkpt lat="44.33785" lon="2.53619">
        <ele>546</ele>
        <time>2011-04-06T17:46:18Z</time>
      </trkpt>
      <trkpt lat="44.33785" lon="2.53625">
        <ele>545.5</ele>
        <time>2011-04-06T17:46:19Z</time>
      </trkpt>
      <trkpt lat="44.33786" lon="2.5363">
        <ele>545</ele>
        <time>2011-04-06T17:46:20Z</time>
      </trkpt>
      <trkpt lat="44.33786" lon="2.53636">
        <ele>544.4</ele>
        <time>2011-04-06T17:46:21Z</time>
      </trkpt>
      <trkpt lat="44.33787" lon="2.53641">
        <ele>543.9</ele>
        <time>2011-04-06T17:46:22Z</time>
      </trkpt>
      <trkpt lat="44.33787" lon="2.53646">
        <ele>543.7</ele>
        <time>2011-04-06T17:46:23Z</time>
      </trkpt>
      <trkpt lat="44.33787" lon="2.53652">
        <ele>543.4</ele>
        <time>2011-04-06T17:46:24Z</time>
      </trkpt>
      <trkpt lat="44.33788" lon="2.53657">
        <ele>542.9</ele>
        <time>2011-04-06T17:46:25Z</time>
      </trkpt>
      <trkpt lat="44.33788" lon="2.53663">
        <ele>542.2</ele>
        <time>2011-04-06T17:46:26Z</time>
      </trkpt>
      <trkpt lat="44.33788" lon="2.53668">
        <ele>542</ele>
        <time>2011-04-06T17:46:27Z</time>
      </trkpt>
      <trkpt lat="44.33788" lon="2.53673">
        <ele>541.7</ele>
        <time>2011-04-06T17:46:28Z</time>
      </trkpt>
      <trkpt lat="44.33789" lon="2.53678">
        <ele>541.4</ele>
        <time>2011-04-06T17:46:29Z</time>
      </trkpt>
      <trkpt lat="44.33789" lon="2.53684">
        <ele>541</ele>
        <time>2011-04-06T17:46:30Z</time>
      </trkpt>
      <trkpt lat="44.33789" lon="2.53689">
        <ele>540.5</ele>
        <time>2011-04-06T17:46:31Z</time>
      </trkpt>
      <trkpt lat="44.3379" lon="2.53694">
        <ele>540.2</ele>
        <time>2011-04-06T17:46:32Z</time>
      </trkpt>
      <trkpt lat="44.3379" lon="2.53699">
        <ele>540</ele>
        <time>2011-04-06T17:46:33Z</time>
      </trkpt>
      <trkpt lat="44.3379" lon="2.53704">
        <ele>540</ele>
        <time>2011-04-06T17:46:34Z</time>
      </trkpt>
      <trkpt lat="44.3379" lon="2.53709">
        <ele>540</ele>
        <time>2011-04-06T17:46:35Z</time>
      </trkpt>
      <trkpt lat="44.33789" lon="2.53714">
        <ele>540</ele>
        <time>2011-04-06T17:46:36Z</time>
      </trkpt>
      <trkpt lat="44.33789" lon="2.53719">
        <ele>540.2</ele>
        <time>2011-04-06T17:46:37Z</time>
      </trkpt>
      <trkpt lat="44.33789" lon="2.53724">
        <ele>540.5</ele>
        <time>2011-04-06T17:46:38Z</time>
      </trkpt>
      <trkpt lat="44.33788" lon="2.53729">
        <ele>540.9</ele>
        <time>2011-04-06T17:46:39Z</time>
      </trkpt>
      <trkpt lat="44.33788" lon="2.53734">
        <ele>541.2</ele>
        <time>2011-04-06T17:46:40Z</time>
      </trkpt>
      <trkpt lat="44.33788" lon="2.53738">
        <ele>541.7</ele>
        <time>2011-04-06T17:46:41Z</time>
      </trkpt>
      <trkpt lat="44.33788" lon="2.53743">
        <ele>542.2</ele>
        <time>2011-04-06T17:46:42Z</time>
      </trkpt>
      <trkpt lat="44.33787" lon="2.53747">
        <ele>542.7</ele>
        <time>2011-04-06T17:46:43Z</time>
      </trkpt>
      <trkpt lat="44.33787" lon="2.53751">
        <ele>543</ele>
        <time>2011-04-06T17:46:44Z</time>
      </trkpt>
      <trkpt lat="44.33787" lon="2.53756">
        <ele>543.2</ele>
        <time>2011-04-06T17:46:45Z</time>
      </trkpt>
      <trkpt lat="44.33787" lon="2.5376">
        <ele>543.5</ele>
        <time>2011-04-06T17:46:46Z</time>
      </trkpt>
      <trkpt lat="44.33787" lon="2.53764">
        <ele>543.5</ele>
        <time>2011-04-06T17:46:47Z</time>
      </trkpt>
      <trkpt lat="44.33786" lon="2.53768">
        <ele>543.5</ele>
        <time>2011-04-06T17:46:48Z</time>
      </trkpt>
      <trkpt lat="44.33786" lon="2.53772">
        <ele>543.5</ele>
        <time>2011-04-06T17:46:49Z</time>
      </trkpt>
      <trkpt lat="44.33785" lon="2.53776">
        <ele>543.5</ele>
        <time>2011-04-06T17:46:50Z</time>
      </trkpt>
      <trkpt lat="44.33785" lon="2.5378">
        <ele>543.2</ele>
        <time>2011-04-06T17:46:51Z</time>
      </trkpt>
      <trkpt lat="44.33785" lon="2.53784">
        <ele>543</ele>
        <time>2011-04-06T17:46:52Z</time>
      </trkpt>
      <trkpt lat="44.33785" lon="2.53788">
        <ele>542.7</ele>
        <time>2011-04-06T17:46:53Z</time>
      </trkpt>
      <trkpt lat="44.33784" lon="2.53793">
        <ele>541.7</ele>
        <time>2011-04-06T17:46:55Z</time>
      </trkpt>
      <trkpt lat="44.33784" lon="2.53797">
        <ele>541</ele>
        <time>2011-04-06T17:46:57Z</time>
      </trkpt>
      <trkpt lat="44.33785" lon="2.538">
        <ele>540.7</ele>
        <time>2011-04-06T17:46:58Z</time>
      </trkpt>
      <trkpt lat="44.33788" lon="2.53801">
        <ele>541</ele>
        <time>2011-04-06T17:46:59Z</time>
      </trkpt>
      <trkpt lat="44.33792" lon="2.53804">
        <ele>543</ele>
        <time>2011-04-06T17:47:04Z</time>
      </trkpt>
      <trkpt lat="44.33795" lon="2.53807">
        <ele>543</ele>
        <time>2011-04-06T17:47:11Z</time>
      </trkpt>
      <trkpt lat="44.33796" lon="2.53812">
        <ele>541.4</ele>
        <time>2011-04-06T17:47:14Z</time>
      </trkpt>
      <trkpt lat="44.33795" lon="2.53818">
        <ele>539.7</ele>
        <time>2011-04-06T17:47:17Z</time>
      </trkpt>
      <trkpt lat="44.33793" lon="2.53821">
        <ele>538</ele>
        <time>2011-04-06T17:47:20Z</time>
      </trkpt>
      <trkpt lat="44.33789" lon="2.53825">
        <ele>536.7</ele>
        <time>2011-04-06T17:47:22Z</time>
      </trkpt>
      <trkpt lat="44.33787" lon="2.53827">
        <ele>536.2</ele>
        <time>2011-04-06T17:47:23Z</time>
      </trkpt>
      <trkpt lat="44.33787" lon="2.53833">
        <ele>535.2</ele>
        <time>2011-04-06T17:47:27Z</time>
      </trkpt>
      <trkpt lat="44.33784" lon="2.53838">
        <ele>534.9</ele>
        <time>2011-04-06T17:47:31Z</time>
      </trkpt>
      <trkpt lat="44.33781" lon="2.53838">
        <ele>535</ele>
        <time>2011-04-06T17:47:33Z</time>
      </trkpt>
      <trkpt lat="44.33778" lon="2.53836">
        <ele>534.5</ele>
        <time>2011-04-06T17:47:34Z</time>
      </trkpt>
      <trkpt lat="44.33774" lon="2.53833">
        <ele>533.5</ele>
        <time>2011-04-06T17:47:35Z</time>
      </trkpt>
      <trkpt lat="44.33769" lon="2.5383">
        <ele>532.5</ele>
        <time>2011-04-06T17:47:36Z</time>
      </trkpt>
      <trkpt lat="44.33765" lon="2.5383">
        <ele>531.2</ele>
        <time>2011-04-06T17:47:37Z</time>
      </trkpt>
      <trkpt lat="44.3376" lon="2.53831">
        <ele>529.7</ele>
        <time>2011-04-06T17:47:38Z</time>
      </trkpt>
      <trkpt lat="44.33755" lon="2.53831">
        <ele>527.7</ele>
        <time>2011-04-06T17:47:39Z</time>
      </trkpt>
      <trkpt lat="44.33752" lon="2.53828">
        <ele>526.7</ele>
        <time>2011-04-06T17:47:40Z</time>
      </trkpt>
      <trkpt lat="44.3375" lon="2.53822">
        <ele>525.7</ele>
        <time>2011-04-06T17:47:41Z</time>
      </trkpt>
      <trkpt lat="44.33747" lon="2.53818">
        <ele>524.9</ele>
        <time>2011-04-06T17:47:42Z</time>
      </trkpt>
      <trkpt lat="44.33742" lon="2.53815">
        <ele>524.2</ele>
        <time>2011-04-06T17:47:43Z</time>
      </trkpt>
      <trkpt lat="44.33738" lon="2.53816">
        <ele>523.2</ele>
        <time>2011-04-06T17:47:44Z</time>
      </trkpt>
      <trkpt lat="44.33733" lon="2.53819">
        <ele>522.4</ele>
        <time>2011-04-06T17:47:45Z</time>
      </trkpt>
      <trkpt lat="44.33731" lon="2.53821">
        <ele>521.4</ele>
        <time>2011-04-06T17:47:46Z</time>
      </trkpt>
      <trkpt lat="44.3373" lon="2.53827">
        <ele>521.2</ele>
        <time>2011-04-06T17:47:48Z</time>
      </trkpt>
      <trkpt lat="44.33731" lon="2.53832">
        <ele>524</ele>
        <time>2011-04-06T17:47:51Z</time>
      </trkpt>
      <trkpt lat="44.33731" lon="2.53834">
        <ele>524.5</ele>
        <time>2011-04-06T17:47:52Z</time>
      </trkpt>
      <trkpt lat="44.33728" lon="2.5384">
        <ele>525.4</ele>
        <time>2011-04-06T17:47:55Z</time>
      </trkpt>
      <trkpt lat="44.33726" lon="2.53844">
        <ele>525.5</ele>
        <time>2011-04-06T17:47:57Z</time>
      </trkpt>
      <trkpt lat="44.33724" lon="2.53848">
        <ele>525.5</ele>
        <time>2011-04-06T17:47:59Z</time>
      </trkpt>
      <trkpt lat="44.33724" lon="2.53854">
        <ele>526.5</ele>
        <time>2011-04-06T17:48:02Z</time>
      </trkpt>
      <trkpt lat="44.33726" lon="2.53857">
        <ele>527.9</ele>
        <time>2011-04-06T17:48:04Z</time>
      </trkpt>
      <trkpt lat="44.33729" lon="2.53859">
        <ele>530</ele>
        <time>2011-04-06T17:48:06Z</time>
      </trkpt>
      <trkpt lat="44.33733" lon="2.53861">
        <ele>533.2</ele>
        <time>2011-04-06T17:48:09Z</time>
      </trkpt>
      <trkpt lat="44.33737" lon="2.53862">
        <ele>536.2</ele>
        <time>2011-04-06T17:48:12Z</time>
      </trkpt>
      <trkpt lat="44.3374" lon="2.53863">
        <ele>538.9</ele>
        <time>2011-04-06T17:48:14Z</time>
      </trkpt>
      <trkpt lat="44.33743" lon="2.53864">
        <ele>541.4</ele>
        <time>2011-04-06T17:48:16Z</time>
      </trkpt>
      <trkpt lat="44.33747" lon="2.53864">
        <ele>545.2</ele>
        <time>2011-04-06T17:48:19Z</time>
      </trkpt>
      <trkpt lat="44.33752" lon="2.53866">
        <ele>548.2</ele>
        <time>2011-04-06T17:48:22Z</time>
      </trkpt>
      <trkpt lat="44.33756" lon="2.53868">
        <ele>550.5</ele>
        <time>2011-04-06T17:48:25Z</time>
      </trkpt>
      <trkpt lat="44.33759" lon="2.53868">
        <ele>553.7</ele>
        <time>2011-04-06T17:48:28Z</time>
      </trkpt>
      <trkpt lat="44.33763" lon="2.53864">
        <ele>555.5</ele>
        <time>2011-04-06T17:48:33Z</time>
      </trkpt>
      <trkpt lat="44.33765" lon="2.53859">
        <ele>555.4</ele>
        <time>2011-04-06T17:48:37Z</time>
      </trkpt>
      <trkpt lat="44.33767" lon="2.53855">
        <ele>554.7</ele>
        <time>2011-04-06T17:48:40Z</time>
      </trkpt>
      <trkpt lat="44.3377" lon="2.5385">
        <ele>554.4</ele>
        <time>2011-04-06T17:48:43Z</time>
      </trkpt>
      <trkpt lat="44.33771" lon="2.53846">
        <ele>554</ele>
        <time>2011-04-06T17:48:45Z</time>
      </trkpt>
      <trkpt lat="44.33773" lon="2.53844">
        <ele>553.9</ele>
        <time>2011-04-06T17:48:46Z</time>
      </trkpt>
      <trkpt lat="44.33775" lon="2.53841">
        <ele>553.5</ele>
        <time>2011-04-06T17:48:47Z</time>
      </trkpt>
      <trkpt lat="44.33777" lon="2.5384">
        <ele>553.2</ele>
        <time>2011-04-06T17:48:48Z</time>
      </trkpt>
      <trkpt lat="44.3378" lon="2.53838">
        <ele>552.7</ele>
        <time>2011-04-06T17:48:49Z</time>
      </trkpt>
      <trkpt lat="44.33783" lon="2.53838">
        <ele>552.2</ele>
        <time>2011-04-06T17:48:50Z</time>
      </trkpt>
      <trkpt lat="44.33787" lon="2.53837">
        <ele>551.4</ele>
        <time>2011-04-06T17:48:51Z</time>
      </trkpt>
      <trkpt lat="44.33791" lon="2.53836">
        <ele>550.5</ele>
        <time>2011-04-06T17:48:52Z</time>
      </trkpt>
      <trkpt lat="44.33796" lon="2.53835">
        <ele>550</ele>
        <time>2011-04-06T17:48:53Z</time>
      </trkpt>
      <trkpt lat="44.33802" lon="2.53833">
        <ele>549.5</ele>
        <time>2011-04-06T17:48:54Z</time>
      </trkpt>
      <trkpt lat="44.33809" lon="2.53832">
        <ele>548.7</ele>
        <time>2011-04-06T17:48:55Z</time>
      </trkpt>
      <trkpt lat="44.33817" lon="2.53832">
        <ele>547.9</ele>
        <time>2011-04-06T17:48:56Z</time>
      </trkpt>
      <trkpt lat="44.33825" lon="2.53831">
        <ele>547</ele>
        <time>2011-04-06T17:48:57Z</time>
      </trkpt>
      <trkpt lat="44.33834" lon="2.5383">
        <ele>546.2</ele>
        <time>2011-04-06T17:48:58Z</time>
      </trkpt>
      <trkpt lat="44.33842" lon="2.5383">
        <ele>545.5</ele>
        <time>2011-04-06T17:48:59Z</time>
      </trkpt>
      <trkpt lat="44.33851" lon="2.53829">
        <ele>544.9</ele>
        <time>2011-04-06T17:49:00Z</time>
      </trkpt>
      <trkpt lat="44.3386" lon="2.53828">
        <ele>544.7</ele>
        <time>2011-04-06T17:49:01Z</time>
      </trkpt>
      <trkpt lat="44.33869" lon="2.53827">
        <ele>544.5</ele>
        <time>2011-04-06T17:49:02Z</time>
      </trkpt>
      <trkpt lat="44.33877" lon="2.53826">
        <ele>544.2</ele>
        <time>2011-04-06T17:49:03Z</time>
      </trkpt>
      <trkpt lat="44.33885" lon="2.53824">
        <ele>544.4</ele>
        <time>2011-04-06T17:49:04Z</time>
      </trkpt>
      <trkpt lat="44.33892" lon="2.53821">
        <ele>544.7</ele>
        <time>2011-04-06T17:49:05Z</time>
      </trkpt>
      <trkpt lat="44.33898" lon="2.53819">
        <ele>545.7</ele>
        <time>2011-04-06T17:49:06Z</time>
      </trkpt>
      <trkpt lat="44.33904" lon="2.53818">
        <ele>546.7</ele>
        <time>2011-04-06T17:49:07Z</time>
      </trkpt>
      <trkpt lat="44.33909" lon="2.53817">
        <ele>548</ele>
        <time>2011-04-06T17:49:08Z</time>
      </trkpt>
      <trkpt lat="44.33915" lon="2.53816">
        <ele>549.4</ele>
        <time>2011-04-06T17:49:09Z</time>
      </trkpt>
      <trkpt lat="44.3392" lon="2.53815">
        <ele>550.9</ele>
        <time>2011-04-06T17:49:10Z</time>
      </trkpt>
      <trkpt lat="44.33925" lon="2.53814">
        <ele>552.2</ele>
        <time>2011-04-06T17:49:11Z</time>
      </trkpt>
      <trkpt lat="44.33931" lon="2.53814">
        <ele>553.4</ele>
        <time>2011-04-06T17:49:12Z</time>
      </trkpt>
      <trkpt lat="44.33936" lon="2.53813">
        <ele>554.2</ele>
        <time>2011-04-06T17:49:13Z</time>
      </trkpt>
      <trkpt lat="44.33942" lon="2.53813">
        <ele>554.7</ele>
        <time>2011-04-06T17:49:14Z</time>
      </trkpt>
      <trkpt lat="44.33947" lon="2.53813">
        <ele>555.2</ele>
        <time>2011-04-06T17:49:15Z</time>
      </trkpt>
      <trkpt lat="44.33952" lon="2.53813">
        <ele>555.5</ele>
        <time>2011-04-06T17:49:16Z</time>
      </trkpt>
      <trkpt lat="44.33957" lon="2.53814">
        <ele>555.4</ele>
        <time>2011-04-06T17:49:17Z</time>
      </trkpt>
      <trkpt lat="44.33961" lon="2.53814">
        <ele>555.5</ele>
        <time>2011-04-06T17:49:18Z</time>
      </trkpt>
      <trkpt lat="44.33965" lon="2.53814">
        <ele>555.9</ele>
        <time>2011-04-06T17:49:19Z</time>
      </trkpt>
      <trkpt lat="44.33969" lon="2.53814">
        <ele>556.2</ele>
        <time>2011-04-06T17:49:20Z</time>
      </trkpt>
      <trkpt lat="44.33973" lon="2.53814">
        <ele>556.5</ele>
        <time>2011-04-06T17:49:21Z</time>
      </trkpt>
      <trkpt lat="44.33978" lon="2.53815">
        <ele>556.7</ele>
        <time>2011-04-06T17:49:22Z</time>
      </trkpt>
      <trkpt lat="44.33982" lon="2.53814">
        <ele>557.2</ele>
        <time>2011-04-06T17:49:23Z</time>
      </trkpt>
      <trkpt lat="44.33987" lon="2.53815">
        <ele>557.2</ele>
        <time>2011-04-06T17:49:24Z</time>
      </trkpt>
      <trkpt lat="44.33992" lon="2.53816">
        <ele>557.2</ele>
        <time>2011-04-06T17:49:25Z</time>
      </trkpt>
      <trkpt lat="44.33997" lon="2.53817">
        <ele>557</ele>
        <time>2011-04-06T17:49:26Z</time>
      </trkpt>
      <trkpt lat="44.34002" lon="2.53819">
        <ele>556.7</ele>
        <time>2011-04-06T17:49:27Z</time>
      </trkpt>
      <trkpt lat="44.34007" lon="2.5382">
        <ele>556.5</ele>
        <time>2011-04-06T17:49:28Z</time>
      </trkpt>
      <trkpt lat="44.34012" lon="2.53822">
        <ele>556.2</ele>
        <time>2011-04-06T17:49:29Z</time>
      </trkpt>
      <trkpt lat="44.34017" lon="2.53824">
        <ele>556.2</ele>
        <time>2011-04-06T17:49:30Z</time>
      </trkpt>
      <trkpt lat="44.34021" lon="2.53826">
        <ele>556.4</ele>
        <time>2011-04-06T17:49:31Z</time>
      </trkpt>
      <trkpt lat="44.34026" lon="2.53827">
        <ele>556.2</ele>
        <time>2011-04-06T17:49:32Z</time>
      </trkpt>
      <trkpt lat="44.34031" lon="2.53829">
        <ele>555.7</ele>
        <time>2011-04-06T17:49:33Z</time>
      </trkpt>
      <trkpt lat="44.34036" lon="2.53831">
        <ele>555.2</ele>
        <time>2011-04-06T17:49:34Z</time>
      </trkpt>
      <trkpt lat="44.34041" lon="2.53832">
        <ele>554.7</ele>
        <time>2011-04-06T17:49:35Z</time>
      </trkpt>
      <trkpt lat="44.34045" lon="2.53833">
        <ele>554.7</ele>
        <time>2011-04-06T17:49:36Z</time>
      </trkpt>
      <trkpt lat="44.3405" lon="2.53834">
        <ele>554.7</ele>
        <time>2011-04-06T17:49:37Z</time>
      </trkpt>
      <trkpt lat="44.34054" lon="2.53836">
        <ele>555</ele>
        <time>2011-04-06T17:49:38Z</time>
      </trkpt>
      <trkpt lat="44.34058" lon="2.53836">
        <ele>555.4</ele>
        <time>2011-04-06T17:49:39Z</time>
      </trkpt>
      <trkpt lat="44.34062" lon="2.53837">
        <ele>555.5</ele>
        <time>2011-04-06T17:49:40Z</time>
      </trkpt>
      <trkpt lat="44.34065" lon="2.53838">
        <ele>556</ele>
        <time>2011-04-06T17:49:41Z</time>
      </trkpt>
      <trkpt lat="44.34068" lon="2.53838">
        <ele>556.4</ele>
        <time>2011-04-06T17:49:42Z</time>
      </trkpt>
      <trkpt lat="44.34071" lon="2.53839">
        <ele>556.9</ele>
        <time>2011-04-06T17:49:43Z</time>
      </trkpt>
      <trkpt lat="44.34074" lon="2.5384">
        <ele>557.4</ele>
        <time>2011-04-06T17:49:44Z</time>
      </trkpt>
      <trkpt lat="44.34077" lon="2.5384">
        <ele>558</ele>
        <time>2011-04-06T17:49:45Z</time>
      </trkpt>
      <trkpt lat="44.3408" lon="2.5384">
        <ele>558.4</ele>
        <time>2011-04-06T17:49:46Z</time>
      </trkpt>
      <trkpt lat="44.34082" lon="2.5384">
        <ele>558.5</ele>
        <time>2011-04-06T17:49:47Z</time>
      </trkpt>
      <trkpt lat="44.34085" lon="2.5384">
        <ele>558.7</ele>
        <time>2011-04-06T17:49:48Z</time>
      </trkpt>
      <trkpt lat="44.34087" lon="2.53841">
        <ele>558.7</ele>
        <time>2011-04-06T17:49:49Z</time>
      </trkpt>
      <trkpt lat="44.3409" lon="2.53841">
        <ele>559</ele>
        <time>2011-04-06T17:49:50Z</time>
      </trkpt>
      <trkpt lat="44.34092" lon="2.53842">
        <ele>559.2</ele>
        <time>2011-04-06T17:49:51Z</time>
      </trkpt>
      <trkpt lat="44.34095" lon="2.53842">
        <ele>559.4</ele>
        <time>2011-04-06T17:49:52Z</time>
      </trkpt>
      <trkpt lat="44.34097" lon="2.53841">
        <ele>559.5</ele>
        <time>2011-04-06T17:49:53Z</time>
      </trkpt>
      <trkpt lat="44.341" lon="2.53841">
        <ele>560</ele>
        <time>2011-04-06T17:49:54Z</time>
      </trkpt>
      <trkpt lat="44.34102" lon="2.53841">
        <ele>560.5</ele>
        <time>2011-04-06T17:49:55Z</time>
      </trkpt>
      <trkpt lat="44.34105" lon="2.53841">
        <ele>560.7</ele>
        <time>2011-04-06T17:49:56Z</time>
      </trkpt>
      <trkpt lat="44.34109" lon="2.53841">
        <ele>561.2</ele>
        <time>2011-04-06T17:49:58Z</time>
      </trkpt>
      <trkpt lat="44.34112" lon="2.53841">
        <ele>561.4</ele>
        <time>2011-04-06T17:49:59Z</time>
      </trkpt>
      <trkpt lat="44.34114" lon="2.53841">
        <ele>561.5</ele>
        <time>2011-04-06T17:50:00Z</time>
      </trkpt>
      <trkpt lat="44.34117" lon="2.53841">
        <ele>561.5</ele>
        <time>2011-04-06T17:50:01Z</time>
      </trkpt>
      <trkpt lat="44.3412" lon="2.53842">
        <ele>560.9</ele>
        <time>2011-04-06T17:50:02Z</time>
      </trkpt>
      <trkpt lat="44.34122" lon="2.53842">
        <ele>560.5</ele>
        <time>2011-04-06T17:50:03Z</time>
      </trkpt>
      <trkpt lat="44.34127" lon="2.53843">
        <ele>560</ele>
        <time>2011-04-06T17:50:05Z</time>
      </trkpt>
      <trkpt lat="44.34131" lon="2.53844">
        <ele>560.2</ele>
        <time>2011-04-06T17:50:07Z</time>
      </trkpt>
      <trkpt lat="44.34135" lon="2.53844">
        <ele>560.7</ele>
        <time>2011-04-06T17:50:09Z</time>
      </trkpt>
      <trkpt lat="44.34139" lon="2.53844">
        <ele>561.4</ele>
        <time>2011-04-06T17:50:11Z</time>
      </trkpt>
      <trkpt lat="44.34143" lon="2.53843">
        <ele>561.7</ele>
        <time>2011-04-06T17:50:13Z</time>
      </trkpt>
      <trkpt lat="44.34147" lon="2.53843">
        <ele>561.9</ele>
        <time>2011-04-06T17:50:15Z</time>
      </trkpt>
      <trkpt lat="44.34151" lon="2.53843">
        <ele>562</ele>
        <time>2011-04-06T17:50:17Z</time>
      </trkpt>
      <trkpt lat="44.34155" lon="2.53844">
        <ele>562.2</ele>
        <time>2011-04-06T17:50:19Z</time>
      </trkpt>
      <trkpt lat="44.34159" lon="2.53844">
        <ele>562.2</ele>
        <time>2011-04-06T17:50:21Z</time>
      </trkpt>
      <trkpt lat="44.34163" lon="2.53844">
        <ele>562.2</ele>
        <time>2011-04-06T17:50:23Z</time>
      </trkpt>
      <trkpt lat="44.34165" lon="2.53844">
        <ele>562</ele>
        <time>2011-04-06T17:50:24Z</time>
      </trkpt>
      <trkpt lat="44.34168" lon="2.53845">
        <ele>562</ele>
        <time>2011-04-06T17:50:25Z</time>
      </trkpt>
      <trkpt lat="44.3417" lon="2.53845">
        <ele>561.9</ele>
        <time>2011-04-06T17:50:26Z</time>
      </trkpt>
      <trkpt lat="44.34172" lon="2.53846">
        <ele>561.7</ele>
        <time>2011-04-06T17:50:27Z</time>
      </trkpt>
      <trkpt lat="44.34175" lon="2.53846">
        <ele>561.2</ele>
        <time>2011-04-06T17:50:28Z</time>
      </trkpt>
      <trkpt lat="44.34177" lon="2.53846">
        <ele>560.9</ele>
        <time>2011-04-06T17:50:29Z</time>
      </trkpt>
      <trkpt lat="44.34179" lon="2.53847">
        <ele>560.5</ele>
        <time>2011-04-06T17:50:30Z</time>
      </trkpt>
      <trkpt lat="44.34182" lon="2.53847">
        <ele>560.4</ele>
        <time>2011-04-06T17:50:31Z</time>
      </trkpt>
      <trkpt lat="44.34184" lon="2.53847">
        <ele>560.2</ele>
        <time>2011-04-06T17:50:32Z</time>
      </trkpt>
      <trkpt lat="44.34188" lon="2.53848">
        <ele>559.9</ele>
        <time>2011-04-06T17:50:34Z</time>
      </trkpt>
      <trkpt lat="44.34192" lon="2.53849">
        <ele>559.7</ele>
        <time>2011-04-06T17:50:36Z</time>
      </trkpt>
      <trkpt lat="44.34196" lon="2.5385">
        <ele>559.5</ele>
        <time>2011-04-06T17:50:38Z</time>
      </trkpt>
      <trkpt lat="44.342" lon="2.53851">
        <ele>559</ele>
        <time>2011-04-06T17:50:40Z</time>
      </trkpt>
      <trkpt lat="44.34204" lon="2.53852">
        <ele>558.5</ele>
        <time>2011-04-06T17:50:42Z</time>
      </trkpt>
      <trkpt lat="44.34208" lon="2.53853">
        <ele>558</ele>
        <time>2011-04-06T17:50:44Z</time>
      </trkpt>
      <trkpt lat="44.34212" lon="2.53854">
        <ele>557.7</ele>
        <time>2011-04-06T17:50:46Z</time>
      </trkpt>
      <trkpt lat="44.34216" lon="2.53854">
        <ele>557.5</ele>
        <time>2011-04-06T17:50:48Z</time>
      </trkpt>
      <trkpt lat="44.3422" lon="2.53855">
        <ele>557</ele>
        <time>2011-04-06T17:50:50Z</time>
      </trkpt>
      <trkpt lat="44.34224" lon="2.53855">
        <ele>556.7</ele>
        <time>2011-04-06T17:50:52Z</time>
      </trkpt>
      <trkpt lat="44.34227" lon="2.53854">
        <ele>557</ele>
        <time>2011-04-06T17:50:54Z</time>
      </trkpt>
      <trkpt lat="44.34229" lon="2.53855">
        <ele>557.2</ele>
        <time>2011-04-06T17:50:55Z</time>
      </trkpt>
      <trkpt lat="44.34234" lon="2.53854">
        <ele>557.5</ele>
        <time>2011-04-06T17:50:58Z</time>
      </trkpt>
      <trkpt lat="44.34237" lon="2.53854">
        <ele>557.7</ele>
        <time>2011-04-06T17:51:00Z</time>
      </trkpt>
      <trkpt lat="44.34241" lon="2.53854">
        <ele>558.2</ele>
        <time>2011-04-06T17:51:02Z</time>
      </trkpt>
      <trkpt lat="44.34244" lon="2.53854">
        <ele>558.7</ele>
        <time>2011-04-06T17:51:05Z</time>
      </trkpt>
      <trkpt lat="44.34248" lon="2.53856">
        <ele>559</ele>
        <time>2011-04-06T17:51:07Z</time>
      </trkpt>
      <trkpt lat="44.34251" lon="2.53856">
        <ele>559.5</ele>
        <time>2011-04-06T17:51:09Z</time>
      </trkpt>
      <trkpt lat="44.34254" lon="2.53858">
        <ele>559.5</ele>
        <time>2011-04-06T17:51:11Z</time>
      </trkpt>
      <trkpt lat="44.34258" lon="2.53859">
        <ele>559.5</ele>
        <time>2011-04-06T17:51:13Z</time>
      </trkpt>
      <trkpt lat="44.34261" lon="2.53859">
        <ele>560.5</ele>
        <time>2011-04-06T17:51:15Z</time>
      </trkpt>
      <trkpt lat="44.34264" lon="2.53859">
        <ele>561.7</ele>
        <time>2011-04-06T17:51:17Z</time>
      </trkpt>
      <trkpt lat="44.34267" lon="2.53859">
        <ele>563</ele>
        <time>2011-04-06T17:51:19Z</time>
      </trkpt>
      <trkpt lat="44.34271" lon="2.53859">
        <ele>564.2</ele>
        <time>2011-04-06T17:51:21Z</time>
      </trkpt>
      <trkpt lat="44.34274" lon="2.53858">
        <ele>565.2</ele>
        <time>2011-04-06T17:51:23Z</time>
      </trkpt>
      <trkpt lat="44.34277" lon="2.53858">
        <ele>565.9</ele>
        <time>2011-04-06T17:51:25Z</time>
      </trkpt>
      <trkpt lat="44.34281" lon="2.53859">
        <ele>566.9</ele>
        <time>2011-04-06T17:51:27Z</time>
      </trkpt>
      <trkpt lat="44.34284" lon="2.5386">
        <ele>567.2</ele>
        <time>2011-04-06T17:51:29Z</time>
      </trkpt>
      <trkpt lat="44.34287" lon="2.53861">
        <ele>567.7</ele>
        <time>2011-04-06T17:51:31Z</time>
      </trkpt>
      <trkpt lat="44.3429" lon="2.53863">
        <ele>568</ele>
        <time>2011-04-06T17:51:33Z</time>
      </trkpt>
      <trkpt lat="44.34294" lon="2.53866">
        <ele>568.2</ele>
        <time>2011-04-06T17:51:35Z</time>
      </trkpt>
      <trkpt lat="44.34298" lon="2.53867">
        <ele>568.9</ele>
        <time>2011-04-06T17:51:37Z</time>
      </trkpt>
      <trkpt lat="44.34302" lon="2.53869">
        <ele>569.2</ele>
        <time>2011-04-06T17:51:39Z</time>
      </trkpt>
      <trkpt lat="44.34304" lon="2.5387">
        <ele>569.5</ele>
        <time>2011-04-06T17:51:40Z</time>
      </trkpt>
      <trkpt lat="44.34307" lon="2.53871">
        <ele>569.7</ele>
        <time>2011-04-06T17:51:41Z</time>
      </trkpt>
      <trkpt lat="44.34309" lon="2.53871">
        <ele>570.2</ele>
        <time>2011-04-06T17:51:42Z</time>
      </trkpt>
      <trkpt lat="44.34312" lon="2.53872">
        <ele>570.5</ele>
        <time>2011-04-06T17:51:43Z</time>
      </trkpt>
      <trkpt lat="44.34314" lon="2.53872">
        <ele>570.7</ele>
        <time>2011-04-06T17:51:44Z</time>
      </trkpt>
      <trkpt lat="44.34317" lon="2.53871">
        <ele>570.7</ele>
        <time>2011-04-06T17:51:45Z</time>
      </trkpt>
      <trkpt lat="44.3432" lon="2.53871">
        <ele>570.5</ele>
        <time>2011-04-06T17:51:46Z</time>
      </trkpt>
      <trkpt lat="44.34323" lon="2.5387">
        <ele>570.5</ele>
        <time>2011-04-06T17:51:47Z</time>
      </trkpt>
      <trkpt lat="44.34327" lon="2.53869">
        <ele>570.2</ele>
        <time>2011-04-06T17:51:48Z</time>
      </trkpt>
      <trkpt lat="44.3433" lon="2.53868">
        <ele>570.2</ele>
        <time>2011-04-06T17:51:49Z</time>
      </trkpt>
      <trkpt lat="44.34333" lon="2.53866">
        <ele>570</ele>
        <time>2011-04-06T17:51:50Z</time>
      </trkpt>
      <trkpt lat="44.34336" lon="2.53865">
        <ele>569.7</ele>
        <time>2011-04-06T17:51:51Z</time>
      </trkpt>
      <trkpt lat="44.34338" lon="2.53863">
        <ele>569.5</ele>
        <time>2011-04-06T17:51:52Z</time>
      </trkpt>
      <trkpt lat="44.34341" lon="2.5386">
        <ele>569</ele>
        <time>2011-04-06T17:51:53Z</time>
      </trkpt>
      <trkpt lat="44.34343" lon="2.53857">
        <ele>568.5</ele>
        <time>2011-04-06T17:51:54Z</time>
      </trkpt>
      <trkpt lat="44.34345" lon="2.53854">
        <ele>568.2</ele>
        <time>2011-04-06T17:51:55Z</time>
      </trkpt>
      <trkpt lat="44.34348" lon="2.53853">
        <ele>568.2</ele>
        <time>2011-04-06T17:51:56Z</time>
      </trkpt>
      <trkpt lat="44.34353" lon="2.53849">
        <ele>567.5</ele>
        <time>2011-04-06T17:51:59Z</time>
      </trkpt>
      <trkpt lat="44.34355" lon="2.53848">
        <ele>566.9</ele>
        <time>2011-04-06T17:52:00Z</time>
      </trkpt>
      <trkpt lat="44.34358" lon="2.53846">
        <ele>566</ele>
        <time>2011-04-06T17:52:01Z</time>
      </trkpt>
      <trkpt lat="44.3436" lon="2.53844">
        <ele>565.7</ele>
        <time>2011-04-06T17:52:02Z</time>
      </trkpt>
      <trkpt lat="44.34363" lon="2.53842">
        <ele>565.5</ele>
        <time>2011-04-06T17:52:03Z</time>
      </trkpt>
      <trkpt lat="44.34365" lon="2.53839">
        <ele>565.5</ele>
        <time>2011-04-06T17:52:04Z</time>
      </trkpt>
      <trkpt lat="44.34367" lon="2.53836">
        <ele>565.7</ele>
        <time>2011-04-06T17:52:05Z</time>
      </trkpt>
      <trkpt lat="44.34369" lon="2.53834">
        <ele>566</ele>
        <time>2011-04-06T17:52:06Z</time>
      </trkpt>
      <trkpt lat="44.34371" lon="2.53832">
        <ele>566</ele>
        <time>2011-04-06T17:52:07Z</time>
      </trkpt>
      <trkpt lat="44.34373" lon="2.53827">
        <ele>566.4</ele>
        <time>2011-04-06T17:52:09Z</time>
      </trkpt>
      <trkpt lat="44.34374" lon="2.53822">
        <ele>566.9</ele>
        <time>2011-04-06T17:52:11Z</time>
      </trkpt>
      <trkpt lat="44.34377" lon="2.53818">
        <ele>567.2</ele>
        <time>2011-04-06T17:52:13Z</time>
      </trkpt>
      <trkpt lat="44.34379" lon="2.53815">
        <ele>566.4</ele>
        <time>2011-04-06T17:52:14Z</time>
      </trkpt>
      <trkpt lat="44.34382" lon="2.53811">
        <ele>565.2</ele>
        <time>2011-04-06T17:52:15Z</time>
      </trkpt>
      <trkpt lat="44.34384" lon="2.53809">
        <ele>564.5</ele>
        <time>2011-04-06T17:52:16Z</time>
      </trkpt>
      <trkpt lat="44.34386" lon="2.53808">
        <ele>564</ele>
        <time>2011-04-06T17:52:17Z</time>
      </trkpt>
      <trkpt lat="44.34388" lon="2.53806">
        <ele>563.4</ele>
        <time>2011-04-06T17:52:18Z</time>
      </trkpt>
      <trkpt lat="44.34391" lon="2.53803">
        <ele>562.5</ele>
        <time>2011-04-06T17:52:19Z</time>
      </trkpt>
      <trkpt lat="44.34395" lon="2.53799">
        <ele>561.7</ele>
        <time>2011-04-06T17:52:20Z</time>
      </trkpt>
      <trkpt lat="44.34399" lon="2.53796">
        <ele>561</ele>
        <time>2011-04-06T17:52:21Z</time>
      </trkpt>
      <trkpt lat="44.34403" lon="2.53792">
        <ele>559.9</ele>
        <time>2011-04-06T17:52:22Z</time>
      </trkpt>
      <trkpt lat="44.34406" lon="2.53789">
        <ele>558.7</ele>
        <time>2011-04-06T17:52:23Z</time>
      </trkpt>
      <trkpt lat="44.34411" lon="2.53787">
        <ele>557.4</ele>
        <time>2011-04-06T17:52:24Z</time>
      </trkpt>
      <trkpt lat="44.34417" lon="2.53788">
        <ele>555.7</ele>
        <time>2011-04-06T17:52:25Z</time>
      </trkpt>
      <trkpt lat="44.34424" lon="2.53787">
        <ele>554.2</ele>
        <time>2011-04-06T17:52:26Z</time>
      </trkpt>
      <trkpt lat="44.3443" lon="2.53786">
        <ele>553.2</ele>
        <time>2011-04-06T17:52:27Z</time>
      </trkpt>
      <trkpt lat="44.34434" lon="2.53787">
        <ele>552.9</ele>
        <time>2011-04-06T17:52:28Z</time>
      </trkpt>
      <trkpt lat="44.34436" lon="2.53791">
        <ele>552.7</ele>
        <time>2011-04-06T17:52:29Z</time>
      </trkpt>
      <trkpt lat="44.34436" lon="2.53795">
        <ele>551.9</ele>
        <time>2011-04-06T17:52:30Z</time>
      </trkpt>
      <trkpt lat="44.34435" lon="2.53799">
        <ele>550.7</ele>
        <time>2011-04-06T17:52:31Z</time>
      </trkpt>
      <trkpt lat="44.34434" lon="2.53803">
        <ele>549.5</ele>
        <time>2011-04-06T17:52:32Z</time>
      </trkpt>
      <trkpt lat="44.34434" lon="2.53808">
        <ele>548.2</ele>
        <time>2011-04-06T17:52:33Z</time>
      </trkpt>
      <trkpt lat="44.34433" lon="2.53812">
        <ele>547.2</ele>
        <time>2011-04-06T17:52:34Z</time>
      </trkpt>
      <trkpt lat="44.34433" lon="2.53816">
        <ele>546.2</ele>
        <time>2011-04-06T17:52:35Z</time>
      </trkpt>
      <trkpt lat="44.34432" lon="2.5382">
        <ele>545.2</ele>
        <time>2011-04-06T17:52:36Z</time>
      </trkpt>
      <trkpt lat="44.34432" lon="2.53824">
        <ele>544</ele>
        <time>2011-04-06T17:52:37Z</time>
      </trkpt>
      <trkpt lat="44.34431" lon="2.53828">
        <ele>543.2</ele>
        <time>2011-04-06T17:52:38Z</time>
      </trkpt>
      <trkpt lat="44.3443" lon="2.53833">
        <ele>542.5</ele>
        <time>2011-04-06T17:52:39Z</time>
      </trkpt>
      <trkpt lat="44.34429" lon="2.53839">
        <ele>542.2</ele>
        <time>2011-04-06T17:52:40Z</time>
      </trkpt>
      <trkpt lat="44.34428" lon="2.53845">
        <ele>542</ele>
        <time>2011-04-06T17:52:41Z</time>
      </trkpt>
      <trkpt lat="44.34427" lon="2.5385">
        <ele>541.7</ele>
        <time>2011-04-06T17:52:42Z</time>
      </trkpt>
      <trkpt lat="44.34427" lon="2.53855">
        <ele>541.5</ele>
        <time>2011-04-06T17:52:43Z</time>
      </trkpt>
      <trkpt lat="44.34425" lon="2.5386">
        <ele>541.2</ele>
        <time>2011-04-06T17:52:44Z</time>
      </trkpt>
      <trkpt lat="44.34425" lon="2.53864">
        <ele>541.2</ele>
        <time>2011-04-06T17:52:45Z</time>
      </trkpt>
      <trkpt lat="44.34424" lon="2.53869">
        <ele>541.2</ele>
        <time>2011-04-06T17:52:46Z</time>
      </trkpt>
      <trkpt lat="44.34424" lon="2.53873">
        <ele>541.2</ele>
        <time>2011-04-06T17:52:47Z</time>
      </trkpt>
      <trkpt lat="44.34422" lon="2.53878">
        <ele>540.9</ele>
        <time>2011-04-06T17:52:48Z</time>
      </trkpt>
      <trkpt lat="44.34421" lon="2.53883">
        <ele>540.2</ele>
        <time>2011-04-06T17:52:49Z</time>
      </trkpt>
      <trkpt lat="44.3442" lon="2.53888">
        <ele>539.7</ele>
        <time>2011-04-06T17:52:50Z</time>
      </trkpt>
      <trkpt lat="44.34418" lon="2.53893">
        <ele>539</ele>
        <time>2011-04-06T17:52:51Z</time>
      </trkpt>
      <trkpt lat="44.34417" lon="2.53897">
        <ele>538.5</ele>
        <time>2011-04-06T17:52:52Z</time>
      </trkpt>
      <trkpt lat="44.34414" lon="2.53902">
        <ele>538.2</ele>
        <time>2011-04-06T17:52:53Z</time>
      </trkpt>
      <trkpt lat="44.34412" lon="2.53906">
        <ele>538</ele>
        <time>2011-04-06T17:52:54Z</time>
      </trkpt>
      <trkpt lat="44.3441" lon="2.53911">
        <ele>538</ele>
        <time>2011-04-06T17:52:55Z</time>
      </trkpt>
      <trkpt lat="44.34408" lon="2.53916">
        <ele>537.7</ele>
        <time>2011-04-06T17:52:56Z</time>
      </trkpt>
      <trkpt lat="44.34405" lon="2.5392">
        <ele>537.5</ele>
        <time>2011-04-06T17:52:57Z</time>
      </trkpt>
      <trkpt lat="44.34403" lon="2.53925">
        <ele>537.5</ele>
        <time>2011-04-06T17:52:58Z</time>
      </trkpt>
      <trkpt lat="44.344" lon="2.53929">
        <ele>537.4</ele>
        <time>2011-04-06T17:52:59Z</time>
      </trkpt>
      <trkpt lat="44.34398" lon="2.53934">
        <ele>537.2</ele>
        <time>2011-04-06T17:53:00Z</time>
      </trkpt>
      <trkpt lat="44.34395" lon="2.53938">
        <ele>537</ele>
        <time>2011-04-06T17:53:01Z</time>
      </trkpt>
      <trkpt lat="44.34393" lon="2.53942">
        <ele>536.9</ele>
        <time>2011-04-06T17:53:02Z</time>
      </trkpt>
      <trkpt lat="44.3439" lon="2.53947">
        <ele>536.5</ele>
        <time>2011-04-06T17:53:03Z</time>
      </trkpt>
      <trkpt lat="44.34387" lon="2.53951">
        <ele>536.4</ele>
        <time>2011-04-06T17:53:04Z</time>
      </trkpt>
      <trkpt lat="44.34384" lon="2.53956">
        <ele>536.2</ele>
        <time>2011-04-06T17:53:05Z</time>
      </trkpt>
      <trkpt lat="44.34381" lon="2.53961">
        <ele>535.9</ele>
        <time>2011-04-06T17:53:06Z</time>
      </trkpt>
      <trkpt lat="44.34379" lon="2.53966">
        <ele>535.5</ele>
        <time>2011-04-06T17:53:07Z</time>
      </trkpt>
      <trkpt lat="44.34377" lon="2.53971">
        <ele>535</ele>
        <time>2011-04-06T17:53:08Z</time>
      </trkpt>
      <trkpt lat="44.34375" lon="2.53977">
        <ele>534.7</ele>
        <time>2011-04-06T17:53:09Z</time>
      </trkpt>
      <trkpt lat="44.34374" lon="2.53984">
        <ele>534</ele>
        <time>2011-04-06T17:53:10Z</time>
      </trkpt>
      <trkpt lat="44.34374" lon="2.53992">
        <ele>533.2</ele>
        <time>2011-04-06T17:53:11Z</time>
      </trkpt>
      <trkpt lat="44.34376" lon="2.53999">
        <ele>532.9</ele>
        <time>2011-04-06T17:53:12Z</time>
      </trkpt>
      <trkpt lat="44.34378" lon="2.54005">
        <ele>533</ele>
        <time>2011-04-06T17:53:13Z</time>
      </trkpt>
      <trkpt lat="44.3438" lon="2.54009">
        <ele>533.2</ele>
        <time>2011-04-06T17:53:14Z</time>
      </trkpt>
      <trkpt lat="44.34382" lon="2.54012">
        <ele>533.5</ele>
        <time>2011-04-06T17:53:15Z</time>
      </trkpt>
      <trkpt lat="44.34384" lon="2.54015">
        <ele>533.7</ele>
        <time>2011-04-06T17:53:16Z</time>
      </trkpt>
      <trkpt lat="44.34386" lon="2.54017">
        <ele>533.9</ele>
        <time>2011-04-06T17:53:17Z</time>
      </trkpt>
      <trkpt lat="44.34388" lon="2.5402">
        <ele>534</ele>
        <time>2011-04-06T17:53:18Z</time>
      </trkpt>
      <trkpt lat="44.3439" lon="2.54022">
        <ele>534</ele>
        <time>2011-04-06T17:53:19Z</time>
      </trkpt>
      <trkpt lat="44.34393" lon="2.54023">
        <ele>534</ele>
        <time>2011-04-06T17:53:20Z</time>
      </trkpt>
      <trkpt lat="44.34395" lon="2.54025">
        <ele>534.2</ele>
        <time>2011-04-06T17:53:21Z</time>
      </trkpt>
      <trkpt lat="44.34398" lon="2.54026">
        <ele>534.4</ele>
        <time>2011-04-06T17:53:22Z</time>
      </trkpt>
      <trkpt lat="44.34402" lon="2.54028">
        <ele>534.7</ele>
        <time>2011-04-06T17:53:24Z</time>
      </trkpt>
      <trkpt lat="44.34406" lon="2.54031">
        <ele>534.7</ele>
        <time>2011-04-06T17:53:26Z</time>
      </trkpt>
      <trkpt lat="44.34408" lon="2.54033">
        <ele>534.7</ele>
        <time>2011-04-06T17:53:27Z</time>
      </trkpt>
      <trkpt lat="44.3441" lon="2.54034">
        <ele>534.7</ele>
        <time>2011-04-06T17:53:28Z</time>
      </trkpt>
      <trkpt lat="44.34413" lon="2.54036">
        <ele>534.5</ele>
        <time>2011-04-06T17:53:29Z</time>
      </trkpt>
      <trkpt lat="44.34416" lon="2.54038">
        <ele>534.5</ele>
        <time>2011-04-06T17:53:30Z</time>
      </trkpt>
      <trkpt lat="44.34419" lon="2.54039">
        <ele>534.5</ele>
        <time>2011-04-06T17:53:31Z</time>
      </trkpt>
      <trkpt lat="44.34422" lon="2.54041">
        <ele>534.7</ele>
        <time>2011-04-06T17:53:32Z</time>
      </trkpt>
      <trkpt lat="44.34425" lon="2.54043">
        <ele>534.7</ele>
        <time>2011-04-06T17:53:33Z</time>
      </trkpt>
      <trkpt lat="44.34428" lon="2.54046">
        <ele>534.5</ele>
        <time>2011-04-06T17:53:34Z</time>
      </trkpt>
      <trkpt lat="44.34431" lon="2.54048">
        <ele>534.5</ele>
        <time>2011-04-06T17:53:35Z</time>
      </trkpt>
      <trkpt lat="44.34434" lon="2.5405">
        <ele>534.5</ele>
        <time>2011-04-06T17:53:36Z</time>
      </trkpt>
      <trkpt lat="44.34437" lon="2.54052">
        <ele>534.5</ele>
        <time>2011-04-06T17:53:37Z</time>
      </trkpt>
      <trkpt lat="44.3444" lon="2.54055">
        <ele>534.5</ele>
        <time>2011-04-06T17:53:38Z</time>
      </trkpt>
      <trkpt lat="44.34443" lon="2.54057">
        <ele>534.5</ele>
        <time>2011-04-06T17:53:39Z</time>
      </trkpt>
      <trkpt lat="44.34446" lon="2.5406">
        <ele>534.5</ele>
        <time>2011-04-06T17:53:40Z</time>
      </trkpt>
      <trkpt lat="44.34449" lon="2.54063">
        <ele>534.2</ele>
        <time>2011-04-06T17:53:41Z</time>
      </trkpt>
      <trkpt lat="44.34452" lon="2.54065">
        <ele>534</ele>
        <time>2011-04-06T17:53:42Z</time>
      </trkpt>
      <trkpt lat="44.34455" lon="2.54068">
        <ele>534</ele>
        <time>2011-04-06T17:53:43Z</time>
      </trkpt>
      <trkpt lat="44.34458" lon="2.54071">
        <ele>533.7</ele>
        <time>2011-04-06T17:53:44Z</time>
      </trkpt>
      <trkpt lat="44.34461" lon="2.54074">
        <ele>533.4</ele>
        <time>2011-04-06T17:53:45Z</time>
      </trkpt>
      <trkpt lat="44.34464" lon="2.54078">
        <ele>533</ele>
        <time>2011-04-06T17:53:46Z</time>
      </trkpt>
      <trkpt lat="44.34467" lon="2.54082">
        <ele>532.9</ele>
        <time>2011-04-06T17:53:47Z</time>
      </trkpt>
      <trkpt lat="44.3447" lon="2.54085">
        <ele>532.5</ele>
        <time>2011-04-06T17:53:48Z</time>
      </trkpt>
      <trkpt lat="44.34473" lon="2.5409">
        <ele>532</ele>
        <time>2011-04-06T17:53:49Z</time>
      </trkpt>
      <trkpt lat="44.34477" lon="2.54094">
        <ele>531.7</ele>
        <time>2011-04-06T17:53:50Z</time>
      </trkpt>
      <trkpt lat="44.34481" lon="2.54098">
        <ele>531.2</ele>
        <time>2011-04-06T17:53:51Z</time>
      </trkpt>
      <trkpt lat="44.34485" lon="2.54103">
        <ele>530.7</ele>
        <time>2011-04-06T17:53:52Z</time>
      </trkpt>
      <trkpt lat="44.34489" lon="2.54107">
        <ele>530.2</ele>
        <time>2011-04-06T17:53:53Z</time>
      </trkpt>
      <trkpt lat="44.34493" lon="2.54112">
        <ele>529.7</ele>
        <time>2011-04-06T17:53:54Z</time>
      </trkpt>
      <trkpt lat="44.34498" lon="2.54117">
        <ele>529.2</ele>
        <time>2011-04-06T17:53:55Z</time>
      </trkpt>
      <trkpt lat="44.34503" lon="2.54122">
        <ele>528.5</ele>
        <time>2011-04-06T17:53:56Z</time>
      </trkpt>
      <trkpt lat="44.34508" lon="2.54128">
        <ele>528</ele>
        <time>2011-04-06T17:53:57Z</time>
      </trkpt>
      <trkpt lat="44.34512" lon="2.54134">
        <ele>527.4</ele>
        <time>2011-04-06T17:53:58Z</time>
      </trkpt>
      <trkpt lat="44.34518" lon="2.54139">
        <ele>526.7</ele>
        <time>2011-04-06T17:53:59Z</time>
      </trkpt>
      <trkpt lat="44.34522" lon="2.54145">
        <ele>526.2</ele>
        <time>2011-04-06T17:54:00Z</time>
      </trkpt>
      <trkpt lat="44.34527" lon="2.54151">
        <ele>525.7</ele>
        <time>2011-04-06T17:54:01Z</time>
      </trkpt>
      <trkpt lat="44.34532" lon="2.54155">
        <ele>525.4</ele>
        <time>2011-04-06T17:54:02Z</time>
      </trkpt>
      <trkpt lat="44.34536" lon="2.5416">
        <ele>525</ele>
        <time>2011-04-06T17:54:03Z</time>
      </trkpt>
      <trkpt lat="44.3454" lon="2.54165">
        <ele>524.7</ele>
        <time>2011-04-06T17:54:04Z</time>
      </trkpt>
      <trkpt lat="44.34544" lon="2.54169">
        <ele>524.5</ele>
        <time>2011-04-06T17:54:05Z</time>
      </trkpt>
      <trkpt lat="44.34548" lon="2.54174">
        <ele>524.2</ele>
        <time>2011-04-06T17:54:06Z</time>
      </trkpt>
      <trkpt lat="44.34551" lon="2.54178">
        <ele>523.9</ele>
        <time>2011-04-06T17:54:07Z</time>
      </trkpt>
      <trkpt lat="44.34555" lon="2.54183">
        <ele>523.5</ele>
        <time>2011-04-06T17:54:08Z</time>
      </trkpt>
      <trkpt lat="44.34559" lon="2.54188">
        <ele>523.2</ele>
        <time>2011-04-06T17:54:09Z</time>
      </trkpt>
      <trkpt lat="44.34562" lon="2.54192">
        <ele>522.9</ele>
        <time>2011-04-06T17:54:10Z</time>
      </trkpt>
      <trkpt lat="44.34566" lon="2.54197">
        <ele>522.7</ele>
        <time>2011-04-06T17:54:11Z</time>
      </trkpt>
      <trkpt lat="44.3457" lon="2.54203">
        <ele>522.5</ele>
        <time>2011-04-06T17:54:12Z</time>
      </trkpt>
      <trkpt lat="44.34573" lon="2.54208">
        <ele>522.2</ele>
        <time>2011-04-06T17:54:13Z</time>
      </trkpt>
      <trkpt lat="44.34577" lon="2.54213">
        <ele>522</ele>
        <time>2011-04-06T17:54:14Z</time>
      </trkpt>
      <trkpt lat="44.3458" lon="2.54218">
        <ele>521.7</ele>
        <time>2011-04-06T17:54:15Z</time>
      </trkpt>
      <trkpt lat="44.34584" lon="2.54223">
        <ele>521.5</ele>
        <time>2011-04-06T17:54:16Z</time>
      </trkpt>
      <trkpt lat="44.34587" lon="2.54228">
        <ele>521.4</ele>
        <time>2011-04-06T17:54:17Z</time>
      </trkpt>
      <trkpt lat="44.3459" lon="2.54232">
        <ele>521.2</ele>
        <time>2011-04-06T17:54:18Z</time>
      </trkpt>
      <trkpt lat="44.34594" lon="2.54237">
        <ele>521</ele>
        <time>2011-04-06T17:54:19Z</time>
      </trkpt>
      <trkpt lat="44.34597" lon="2.54242">
        <ele>520.9</ele>
        <time>2011-04-06T17:54:20Z</time>
      </trkpt>
      <trkpt lat="44.346" lon="2.54246">
        <ele>520.7</ele>
        <time>2011-04-06T17:54:21Z</time>
      </trkpt>
      <trkpt lat="44.34604" lon="2.5425">
        <ele>520.5</ele>
        <time>2011-04-06T17:54:22Z</time>
      </trkpt>
      <trkpt lat="44.34607" lon="2.54254">
        <ele>520.5</ele>
        <time>2011-04-06T17:54:23Z</time>
      </trkpt>
      <trkpt lat="44.34611" lon="2.54258">
        <ele>520.4</ele>
        <time>2011-04-06T17:54:24Z</time>
      </trkpt>
      <trkpt lat="44.34615" lon="2.54262">
        <ele>520.4</ele>
        <time>2011-04-06T17:54:25Z</time>
      </trkpt>
      <trkpt lat="44.34618" lon="2.54265">
        <ele>520.2</ele>
        <time>2011-04-06T17:54:26Z</time>
      </trkpt>
      <trkpt lat="44.34622" lon="2.54269">
        <ele>520.2</ele>
        <time>2011-04-06T17:54:27Z</time>
      </trkpt>
      <trkpt lat="44.34625" lon="2.54273">
        <ele>520</ele>
        <time>2011-04-06T17:54:28Z</time>
      </trkpt>
      <trkpt lat="44.34629" lon="2.54276">
        <ele>519.9</ele>
        <time>2011-04-06T17:54:29Z</time>
      </trkpt>
      <trkpt lat="44.34633" lon="2.5428">
        <ele>519.7</ele>
        <time>2011-04-06T17:54:30Z</time>
      </trkpt>
      <trkpt lat="44.34636" lon="2.54283">
        <ele>519.5</ele>
        <time>2011-04-06T17:54:31Z</time>
      </trkpt>
      <trkpt lat="44.3464" lon="2.54287">
        <ele>519.5</ele>
        <time>2011-04-06T17:54:32Z</time>
      </trkpt>
      <trkpt lat="44.34644" lon="2.5429">
        <ele>519.2</ele>
        <time>2011-04-06T17:54:33Z</time>
      </trkpt>
      <trkpt lat="44.34648" lon="2.54293">
        <ele>519.2</ele>
        <time>2011-04-06T17:54:34Z</time>
      </trkpt>
      <trkpt lat="44.34651" lon="2.54296">
        <ele>519</ele>
        <time>2011-04-06T17:54:35Z</time>
      </trkpt>
      <trkpt lat="44.34655" lon="2.54299">
        <ele>518.7</ele>
        <time>2011-04-06T17:54:36Z</time>
      </trkpt>
      <trkpt lat="44.34659" lon="2.54301">
        <ele>518.5</ele>
        <time>2011-04-06T17:54:37Z</time>
      </trkpt>
      <trkpt lat="44.34662" lon="2.54304">
        <ele>518.5</ele>
        <time>2011-04-06T17:54:38Z</time>
      </trkpt>
      <trkpt lat="44.34666" lon="2.54307">
        <ele>518.2</ele>
        <time>2011-04-06T17:54:39Z</time>
      </trkpt>
      <trkpt lat="44.34669" lon="2.54309">
        <ele>518.2</ele>
        <time>2011-04-06T17:54:40Z</time>
      </trkpt>
      <trkpt lat="44.34673" lon="2.54312">
        <ele>518</ele>
        <time>2011-04-06T17:54:41Z</time>
      </trkpt>
      <trkpt lat="44.34676" lon="2.54315">
        <ele>518</ele>
        <time>2011-04-06T17:54:42Z</time>
      </trkpt>
      <trkpt lat="44.34679" lon="2.54318">
        <ele>517.9</ele>
        <time>2011-04-06T17:54:43Z</time>
      </trkpt>
      <trkpt lat="44.34682" lon="2.54321">
        <ele>517.7</ele>
        <time>2011-04-06T17:54:44Z</time>
      </trkpt>
      <trkpt lat="44.34685" lon="2.54324">
        <ele>517.7</ele>
        <time>2011-04-06T17:54:45Z</time>
      </trkpt>
      <trkpt lat="44.34689" lon="2.54327">
        <ele>517.5</ele>
        <time>2011-04-06T17:54:46Z</time>
      </trkpt>
      <trkpt lat="44.34692" lon="2.5433">
        <ele>517.5</ele>
        <time>2011-04-06T17:54:47Z</time>
      </trkpt>
      <trkpt lat="44.34695" lon="2.54333">
        <ele>517.5</ele>
        <time>2011-04-06T17:54:48Z</time>
      </trkpt>
      <trkpt lat="44.34699" lon="2.54335">
        <ele>517.5</ele>
        <time>2011-04-06T17:54:49Z</time>
      </trkpt>
      <trkpt lat="44.34702" lon="2.54338">
        <ele>517.2</ele>
        <time>2011-04-06T17:54:50Z</time>
      </trkpt>
      <trkpt lat="44.34705" lon="2.54341">
        <ele>517.2</ele>
        <time>2011-04-06T17:54:51Z</time>
      </trkpt>
      <trkpt lat="44.34708" lon="2.54343">
        <ele>517.2</ele>
        <time>2011-04-06T17:54:52Z</time>
      </trkpt>
      <trkpt lat="44.34711" lon="2.54345">
        <ele>517.2</ele>
        <time>2011-04-06T17:54:53Z</time>
      </trkpt>
      <trkpt lat="44.34714" lon="2.54347">
        <ele>517.2</ele>
        <time>2011-04-06T17:54:54Z</time>
      </trkpt>
      <trkpt lat="44.34717" lon="2.5435">
        <ele>517</ele>
        <time>2011-04-06T17:54:55Z</time>
      </trkpt>
      <trkpt lat="44.3472" lon="2.54352">
        <ele>517</ele>
        <time>2011-04-06T17:54:56Z</time>
      </trkpt>
      <trkpt lat="44.34724" lon="2.54354">
        <ele>516.9</ele>
        <time>2011-04-06T17:54:57Z</time>
      </trkpt>
      <trkpt lat="44.34727" lon="2.54356">
        <ele>516.7</ele>
        <time>2011-04-06T17:54:58Z</time>
      </trkpt>
      <trkpt lat="44.34731" lon="2.54357">
        <ele>516.7</ele>
        <time>2011-04-06T17:54:59Z</time>
      </trkpt>
      <trkpt lat="44.34734" lon="2.54359">
        <ele>516.5</ele>
        <time>2011-04-06T17:55:00Z</time>
      </trkpt>
      <trkpt lat="44.34738" lon="2.54361">
        <ele>516.4</ele>
        <time>2011-04-06T17:55:01Z</time>
      </trkpt>
      <trkpt lat="44.34741" lon="2.54363">
        <ele>516.2</ele>
        <time>2011-04-06T17:55:02Z</time>
      </trkpt>
      <trkpt lat="44.34744" lon="2.54366">
        <ele>516</ele>
        <time>2011-04-06T17:55:03Z</time>
      </trkpt>
      <trkpt lat="44.34748" lon="2.54368">
        <ele>515.9</ele>
        <time>2011-04-06T17:55:04Z</time>
      </trkpt>
      <trkpt lat="44.34751" lon="2.5437">
        <ele>515.7</ele>
        <time>2011-04-06T17:55:05Z</time>
      </trkpt>
      <trkpt lat="44.34755" lon="2.54372">
        <ele>515.7</ele>
        <time>2011-04-06T17:55:06Z</time>
      </trkpt>
      <trkpt lat="44.34759" lon="2.54375">
        <ele>515.5</ele>
        <time>2011-04-06T17:55:07Z</time>
      </trkpt>
      <trkpt lat="44.34762" lon="2.54377">
        <ele>515.5</ele>
        <time>2011-04-06T17:55:08Z</time>
      </trkpt>
      <trkpt lat="44.34766" lon="2.54379">
        <ele>515.5</ele>
        <time>2011-04-06T17:55:09Z</time>
      </trkpt>
      <trkpt lat="44.3477" lon="2.54381">
        <ele>515.4</ele>
        <time>2011-04-06T17:55:10Z</time>
      </trkpt>
      <trkpt lat="44.34773" lon="2.54383">
        <ele>515.4</ele>
        <time>2011-04-06T17:55:11Z</time>
      </trkpt>
      <trkpt lat="44.34777" lon="2.54385">
        <ele>515.4</ele>
        <time>2011-04-06T17:55:12Z</time>
      </trkpt>
      <trkpt lat="44.3478" lon="2.54386">
        <ele>515.4</ele>
        <time>2011-04-06T17:55:13Z</time>
      </trkpt>
      <trkpt lat="44.34784" lon="2.54388">
        <ele>515.4</ele>
        <time>2011-04-06T17:55:14Z</time>
      </trkpt>
      <trkpt lat="44.34787" lon="2.54389">
        <ele>515.4</ele>
        <time>2011-04-06T17:55:15Z</time>
      </trkpt>
      <trkpt lat="44.34791" lon="2.5439">
        <ele>515.5</ele>
        <time>2011-04-06T17:55:16Z</time>
      </trkpt>
      <trkpt lat="44.34795" lon="2.54392">
        <ele>515.7</ele>
        <time>2011-04-06T17:55:17Z</time>
      </trkpt>
      <trkpt lat="44.34799" lon="2.54393">
        <ele>515.5</ele>
        <time>2011-04-06T17:55:18Z</time>
      </trkpt>
      <trkpt lat="44.34804" lon="2.54394">
        <ele>515.5</ele>
        <time>2011-04-06T17:55:19Z</time>
      </trkpt>
      <trkpt lat="44.34809" lon="2.54394">
        <ele>515.4</ele>
        <time>2011-04-06T17:55:20Z</time>
      </trkpt>
      <trkpt lat="44.34814" lon="2.54394">
        <ele>515.4</ele>
        <time>2011-04-06T17:55:21Z</time>
      </trkpt>
      <trkpt lat="44.34819" lon="2.54392">
        <ele>515.7</ele>
        <time>2011-04-06T17:55:22Z</time>
      </trkpt>
      <trkpt lat="44.34824" lon="2.54388">
        <ele>515.7</ele>
        <time>2011-04-06T17:55:23Z</time>
      </trkpt>
      <trkpt lat="44.34829" lon="2.54384">
        <ele>515.9</ele>
        <time>2011-04-06T17:55:24Z</time>
      </trkpt>
      <trkpt lat="44.34834" lon="2.5438">
        <ele>516</ele>
        <time>2011-04-06T17:55:25Z</time>
      </trkpt>
      <trkpt lat="44.34839" lon="2.54376">
        <ele>516</ele>
        <time>2011-04-06T17:55:26Z</time>
      </trkpt>
      <trkpt lat="44.34845" lon="2.54373">
        <ele>516.2</ele>
        <time>2011-04-06T17:55:27Z</time>
      </trkpt>
      <trkpt lat="44.34852" lon="2.54371">
        <ele>516.2</ele>
        <time>2011-04-06T17:55:28Z</time>
      </trkpt>
      <trkpt lat="44.34858" lon="2.5437">
        <ele>516.5</ele>
        <time>2011-04-06T17:55:29Z</time>
      </trkpt>
      <trkpt lat="44.34865" lon="2.54367">
        <ele>516.7</ele>
        <time>2011-04-06T17:55:30Z</time>
      </trkpt>
      <trkpt lat="44.34871" lon="2.54364">
        <ele>517</ele>
        <time>2011-04-06T17:55:31Z</time>
      </trkpt>
      <trkpt lat="44.34875" lon="2.54358">
        <ele>517.2</ele>
        <time>2011-04-06T17:55:32Z</time>
      </trkpt>
      <trkpt lat="44.34878" lon="2.54352">
        <ele>517.2</ele>
        <time>2011-04-06T17:55:33Z</time>
      </trkpt>
      <trkpt lat="44.34881" lon="2.54345">
        <ele>517.2</ele>
        <time>2011-04-06T17:55:34Z</time>
      </trkpt>
      <trkpt lat="44.34883" lon="2.54339">
        <ele>517.4</ele>
        <time>2011-04-06T17:55:35Z</time>
      </trkpt>
      <trkpt lat="44.34884" lon="2.54332">
        <ele>517.5</ele>
        <time>2011-04-06T17:55:36Z</time>
      </trkpt>
      <trkpt lat="44.34885" lon="2.54326">
        <ele>517.7</ele>
        <time>2011-04-06T17:55:37Z</time>
      </trkpt>
      <trkpt lat="44.34887" lon="2.5432">
        <ele>517.9</ele>
        <time>2011-04-06T17:55:38Z</time>
      </trkpt>
      <trkpt lat="44.34888" lon="2.54313">
        <ele>518</ele>
        <time>2011-04-06T17:55:39Z</time>
      </trkpt>
      <trkpt lat="44.3489" lon="2.54307">
        <ele>518.2</ele>
        <time>2011-04-06T17:55:40Z</time>
      </trkpt>
      <trkpt lat="44.34891" lon="2.54301">
        <ele>518.5</ele>
        <time>2011-04-06T17:55:41Z</time>
      </trkpt>
      <trkpt lat="44.34893" lon="2.54295">
        <ele>518.9</ele>
        <time>2011-04-06T17:55:42Z</time>
      </trkpt>
      <trkpt lat="44.34895" lon="2.54289">
        <ele>519.2</ele>
        <time>2011-04-06T17:55:43Z</time>
      </trkpt>
      <trkpt lat="44.34898" lon="2.54282">
        <ele>519.4</ele>
        <time>2011-04-06T17:55:44Z</time>
      </trkpt>
      <trkpt lat="44.349" lon="2.54276">
        <ele>519.5</ele>
        <time>2011-04-06T17:55:45Z</time>
      </trkpt>
      <trkpt lat="44.34903" lon="2.54271">
        <ele>519.7</ele>
        <time>2011-04-06T17:55:46Z</time>
      </trkpt>
      <trkpt lat="44.34906" lon="2.54265">
        <ele>520</ele>
        <time>2011-04-06T17:55:47Z</time>
      </trkpt>
      <trkpt lat="44.34909" lon="2.5426">
        <ele>520.4</ele>
        <time>2011-04-06T17:55:48Z</time>
      </trkpt>
      <trkpt lat="44.34912" lon="2.54255">
        <ele>520.7</ele>
        <time>2011-04-06T17:55:49Z</time>
      </trkpt>
      <trkpt lat="44.34915" lon="2.5425">
        <ele>521.2</ele>
        <time>2011-04-06T17:55:50Z</time>
      </trkpt>
      <trkpt lat="44.34918" lon="2.54246">
        <ele>522</ele>
        <time>2011-04-06T17:55:51Z</time>
      </trkpt>
      <trkpt lat="44.34921" lon="2.54241">
        <ele>522.7</ele>
        <time>2011-04-06T17:55:52Z</time>
      </trkpt>
      <trkpt lat="44.34924" lon="2.54237">
        <ele>523.2</ele>
        <time>2011-04-06T17:55:53Z</time>
      </trkpt>
      <trkpt lat="44.34927" lon="2.54233">
        <ele>523.7</ele>
        <time>2011-04-06T17:55:54Z</time>
      </trkpt>
      <trkpt lat="44.3493" lon="2.54229">
        <ele>524.2</ele>
        <time>2011-04-06T17:55:55Z</time>
      </trkpt>
      <trkpt lat="44.34934" lon="2.54225">
        <ele>524.5</ele>
        <time>2011-04-06T17:55:56Z</time>
      </trkpt>
      <trkpt lat="44.34937" lon="2.54221">
        <ele>524.9</ele>
        <time>2011-04-06T17:55:57Z</time>
      </trkpt>
      <trkpt lat="44.3494" lon="2.54217">
        <ele>525.2</ele>
        <time>2011-04-06T17:55:58Z</time>
      </trkpt>
      <trkpt lat="44.34943" lon="2.54213">
        <ele>525.5</ele>
        <time>2011-04-06T17:55:59Z</time>
      </trkpt>
      <trkpt lat="44.34947" lon="2.54209">
        <ele>526</ele>
        <time>2011-04-06T17:56:00Z</time>
      </trkpt>
      <trkpt lat="44.3495" lon="2.54205">
        <ele>526.5</ele>
        <time>2011-04-06T17:56:01Z</time>
      </trkpt>
      <trkpt lat="44.34953" lon="2.54202">
        <ele>527</ele>
        <time>2011-04-06T17:56:02Z</time>
      </trkpt>
      <trkpt lat="44.34957" lon="2.54199">
        <ele>527.7</ele>
        <time>2011-04-06T17:56:03Z</time>
      </trkpt>
      <trkpt lat="44.3496" lon="2.54196">
        <ele>528.4</ele>
        <time>2011-04-06T17:56:04Z</time>
      </trkpt>
      <trkpt lat="44.34964" lon="2.54194">
        <ele>529</ele>
        <time>2011-04-06T17:56:05Z</time>
      </trkpt>
      <trkpt lat="44.34967" lon="2.54191">
        <ele>529.5</ele>
        <time>2011-04-06T17:56:06Z</time>
      </trkpt>
      <trkpt lat="44.34971" lon="2.54189">
        <ele>530.4</ele>
        <time>2011-04-06T17:56:07Z</time>
      </trkpt>
      <trkpt lat="44.34974" lon="2.54187">
        <ele>531.2</ele>
        <time>2011-04-06T17:56:08Z</time>
      </trkpt>
      <trkpt lat="44.34978" lon="2.54185">
        <ele>532.2</ele>
        <time>2011-04-06T17:56:09Z</time>
      </trkpt>
      <trkpt lat="44.34981" lon="2.54183">
        <ele>533.2</ele>
        <time>2011-04-06T17:56:10Z</time>
      </trkpt>
      <trkpt lat="44.34985" lon="2.5418">
        <ele>534.4</ele>
        <time>2011-04-06T17:56:11Z</time>
      </trkpt>
      <trkpt lat="44.34989" lon="2.54177">
        <ele>535.2</ele>
        <time>2011-04-06T17:56:12Z</time>
      </trkpt>
      <trkpt lat="44.34994" lon="2.54175">
        <ele>535.9</ele>
        <time>2011-04-06T17:56:13Z</time>
      </trkpt>
      <trkpt lat="44.34998" lon="2.54171">
        <ele>536.5</ele>
        <time>2011-04-06T17:56:14Z</time>
      </trkpt>
      <trkpt lat="44.35003" lon="2.54168">
        <ele>537.2</ele>
        <time>2011-04-06T17:56:15Z</time>
      </trkpt>
      <trkpt lat="44.35009" lon="2.54164">
        <ele>537.7</ele>
        <time>2011-04-06T17:56:16Z</time>
      </trkpt>
      <trkpt lat="44.35014" lon="2.54161">
        <ele>538</ele>
        <time>2011-04-06T17:56:17Z</time>
      </trkpt>
      <trkpt lat="44.3502" lon="2.54157">
        <ele>538.5</ele>
        <time>2011-04-06T17:56:18Z</time>
      </trkpt>
      <trkpt lat="44.35026" lon="2.54153">
        <ele>539</ele>
        <time>2011-04-06T17:56:19Z</time>
      </trkpt>
      <trkpt lat="44.35031" lon="2.5415">
        <ele>539.7</ele>
        <time>2011-04-06T17:56:20Z</time>
      </trkpt>
      <trkpt lat="44.35036" lon="2.54146">
        <ele>540.4</ele>
        <time>2011-04-06T17:56:21Z</time>
      </trkpt>
      <trkpt lat="44.35041" lon="2.54143">
        <ele>541</ele>
        <time>2011-04-06T17:56:22Z</time>
      </trkpt>
      <trkpt lat="44.35045" lon="2.54139">
        <ele>541.5</ele>
        <time>2011-04-06T17:56:23Z</time>
      </trkpt>
      <trkpt lat="44.3505" lon="2.54137">
        <ele>542</ele>
        <time>2011-04-06T17:56:24Z</time>
      </trkpt>
      <trkpt lat="44.35054" lon="2.54133">
        <ele>542.7</ele>
        <time>2011-04-06T17:56:25Z</time>
      </trkpt>
      <trkpt lat="44.35058" lon="2.54131">
        <ele>543.2</ele>
        <time>2011-04-06T17:56:26Z</time>
      </trkpt>
      <trkpt lat="44.35062" lon="2.54128">
        <ele>543.9</ele>
        <time>2011-04-06T17:56:27Z</time>
      </trkpt>
      <trkpt lat="44.35066" lon="2.54125">
        <ele>544.5</ele>
        <time>2011-04-06T17:56:28Z</time>
      </trkpt>
      <trkpt lat="44.3507" lon="2.54122">
        <ele>545</ele>
        <time>2011-04-06T17:56:29Z</time>
      </trkpt>
      <trkpt lat="44.35074" lon="2.54118">
        <ele>545.7</ele>
        <time>2011-04-06T17:56:30Z</time>
      </trkpt>
      <trkpt lat="44.35078" lon="2.54115">
        <ele>546.4</ele>
        <time>2011-04-06T17:56:31Z</time>
      </trkpt>
      <trkpt lat="44.35082" lon="2.54112">
        <ele>547</ele>
        <time>2011-04-06T17:56:32Z</time>
      </trkpt>
      <trkpt lat="44.35087" lon="2.54109">
        <ele>547.5</ele>
        <time>2011-04-06T17:56:33Z</time>
      </trkpt>
      <trkpt lat="44.35091" lon="2.54105">
        <ele>548</ele>
        <time>2011-04-06T17:56:34Z</time>
      </trkpt>
      <trkpt lat="44.35095" lon="2.54102">
        <ele>548.2</ele>
        <time>2011-04-06T17:56:35Z</time>
      </trkpt>
      <trkpt lat="44.35099" lon="2.54098">
        <ele>548.4</ele>
        <time>2011-04-06T17:56:36Z</time>
      </trkpt>
      <trkpt lat="44.35103" lon="2.54095">
        <ele>548.5</ele>
        <time>2011-04-06T17:56:37Z</time>
      </trkpt>
      <trkpt lat="44.35107" lon="2.54091">
        <ele>548.5</ele>
        <time>2011-04-06T17:56:38Z</time>
      </trkpt>
      <trkpt lat="44.35111" lon="2.54088">
        <ele>548.7</ele>
        <time>2011-04-06T17:56:39Z</time>
      </trkpt>
      <trkpt lat="44.35115" lon="2.54084">
        <ele>548.7</ele>
        <time>2011-04-06T17:56:40Z</time>
      </trkpt>
      <trkpt lat="44.3512" lon="2.5408">
        <ele>548.7</ele>
        <time>2011-04-06T17:56:41Z</time>
      </trkpt>
      <trkpt lat="44.35124" lon="2.54077">
        <ele>548.7</ele>
        <time>2011-04-06T17:56:42Z</time>
      </trkpt>
      <trkpt lat="44.35128" lon="2.54074">
        <ele>548.7</ele>
        <time>2011-04-06T17:56:43Z</time>
      </trkpt>
      <trkpt lat="44.35133" lon="2.5407">
        <ele>548.5</ele>
        <time>2011-04-06T17:56:44Z</time>
      </trkpt>
      <trkpt lat="44.35137" lon="2.54067">
        <ele>548.5</ele>
        <time>2011-04-06T17:56:45Z</time>
      </trkpt>
      <trkpt lat="44.35142" lon="2.54064">
        <ele>548.5</ele>
        <time>2011-04-06T17:56:46Z</time>
      </trkpt>
      <trkpt lat="44.35147" lon="2.54061">
        <ele>548.5</ele>
        <time>2011-04-06T17:56:47Z</time>
      </trkpt>
      <trkpt lat="44.35152" lon="2.54058">
        <ele>548.4</ele>
        <time>2011-04-06T17:56:48Z</time>
      </trkpt>
      <trkpt lat="44.35156" lon="2.54054">
        <ele>548.2</ele>
        <time>2011-04-06T17:56:49Z</time>
      </trkpt>
      <trkpt lat="44.35161" lon="2.54049">
        <ele>548.2</ele>
        <time>2011-04-06T17:56:50Z</time>
      </trkpt>
      <trkpt lat="44.35165" lon="2.54045">
        <ele>548</ele>
        <time>2011-04-06T17:56:51Z</time>
      </trkpt>
      <trkpt lat="44.3517" lon="2.54041">
        <ele>547.9</ele>
        <time>2011-04-06T17:56:52Z</time>
      </trkpt>
      <trkpt lat="44.35174" lon="2.54036">
        <ele>547.5</ele>
        <time>2011-04-06T17:56:53Z</time>
      </trkpt>
      <trkpt lat="44.35179" lon="2.54032">
        <ele>547.2</ele>
        <time>2011-04-06T17:56:54Z</time>
      </trkpt>
      <trkpt lat="44.35183" lon="2.54027">
        <ele>547</ele>
        <time>2011-04-06T17:56:55Z</time>
      </trkpt>
      <trkpt lat="44.35187" lon="2.54021">
        <ele>546.5</ele>
        <time>2011-04-06T17:56:56Z</time>
      </trkpt>
      <trkpt lat="44.35192" lon="2.54016">
        <ele>546</ele>
        <time>2011-04-06T17:56:57Z</time>
      </trkpt>
      <trkpt lat="44.35196" lon="2.54011">
        <ele>545.5</ele>
        <time>2011-04-06T17:56:58Z</time>
      </trkpt>
      <trkpt lat="44.352" lon="2.54005">
        <ele>545.2</ele>
        <time>2011-04-06T17:56:59Z</time>
      </trkpt>
      <trkpt lat="44.35204" lon="2.53999">
        <ele>544.7</ele>
        <time>2011-04-06T17:57:00Z</time>
      </trkpt>
      <trkpt lat="44.35208" lon="2.53994">
        <ele>544.2</ele>
        <time>2011-04-06T17:57:01Z</time>
      </trkpt>
      <trkpt lat="44.35212" lon="2.53988">
        <ele>543.7</ele>
        <time>2011-04-06T17:57:02Z</time>
      </trkpt>
      <trkpt lat="44.35216" lon="2.53982">
        <ele>543.2</ele>
        <time>2011-04-06T17:57:03Z</time>
      </trkpt>
      <trkpt lat="44.3522" lon="2.53976">
        <ele>542.9</ele>
        <time>2011-04-06T17:57:04Z</time>
      </trkpt>
      <trkpt lat="44.35224" lon="2.53971">
        <ele>542.7</ele>
        <time>2011-04-06T17:57:05Z</time>
      </trkpt>
      <trkpt lat="44.35228" lon="2.53965">
        <ele>542.7</ele>
        <time>2011-04-06T17:57:06Z</time>
      </trkpt>
      <trkpt lat="44.35232" lon="2.5396">
        <ele>542.7</ele>
        <time>2011-04-06T17:57:07Z</time>
      </trkpt>
      <trkpt lat="44.35236" lon="2.53954">
        <ele>542.9</ele>
        <time>2011-04-06T17:57:08Z</time>
      </trkpt>
      <trkpt lat="44.3524" lon="2.53949">
        <ele>543.2</ele>
        <time>2011-04-06T17:57:09Z</time>
      </trkpt>
      <trkpt lat="44.35245" lon="2.53944">
        <ele>543.5</ele>
        <time>2011-04-06T17:57:10Z</time>
      </trkpt>
      <trkpt lat="44.35249" lon="2.53939">
        <ele>544</ele>
        <time>2011-04-06T17:57:11Z</time>
      </trkpt>
      <trkpt lat="44.35253" lon="2.53935">
        <ele>544.5</ele>
        <time>2011-04-06T17:57:12Z</time>
      </trkpt>
      <trkpt lat="44.35257" lon="2.5393">
        <ele>545.2</ele>
        <time>2011-04-06T17:57:13Z</time>
      </trkpt>
      <trkpt lat="44.3526" lon="2.53924">
        <ele>545.7</ele>
        <time>2011-04-06T17:57:14Z</time>
      </trkpt>
      <trkpt lat="44.35264" lon="2.53919">
        <ele>546.2</ele>
        <time>2011-04-06T17:57:15Z</time>
      </trkpt>
      <trkpt lat="44.35268" lon="2.53914">
        <ele>546.4</ele>
        <time>2011-04-06T17:57:16Z</time>
      </trkpt>
      <trkpt lat="44.35273" lon="2.5391">
        <ele>546.5</ele>
        <time>2011-04-06T17:57:17Z</time>
      </trkpt>
      <trkpt lat="44.35277" lon="2.53905">
        <ele>546.5</ele>
        <time>2011-04-06T17:57:18Z</time>
      </trkpt>
      <trkpt lat="44.35281" lon="2.539">
        <ele>546.5</ele>
        <time>2011-04-06T17:57:19Z</time>
      </trkpt>
      <trkpt lat="44.35286" lon="2.53896">
        <ele>546.5</ele>
        <time>2011-04-06T17:57:20Z</time>
      </trkpt>
      <trkpt lat="44.3529" lon="2.53892">
        <ele>546.7</ele>
        <time>2011-04-06T17:57:21Z</time>
      </trkpt>
      <trkpt lat="44.35295" lon="2.53888">
        <ele>546.7</ele>
        <time>2011-04-06T17:57:22Z</time>
      </trkpt>
      <trkpt lat="44.353" lon="2.53884">
        <ele>546.7</ele>
        <time>2011-04-06T17:57:23Z</time>
      </trkpt>
      <trkpt lat="44.35304" lon="2.5388">
        <ele>546.7</ele>
        <time>2011-04-06T17:57:24Z</time>
      </trkpt>
      <trkpt lat="44.35309" lon="2.53877">
        <ele>546.5</ele>
        <time>2011-04-06T17:57:25Z</time>
      </trkpt>
      <trkpt lat="44.35314" lon="2.53873">
        <ele>546.5</ele>
        <time>2011-04-06T17:57:26Z</time>
      </trkpt>
      <trkpt lat="44.35318" lon="2.53869">
        <ele>546.7</ele>
        <time>2011-04-06T17:57:27Z</time>
      </trkpt>
      <trkpt lat="44.35323" lon="2.53865">
        <ele>547</ele>
        <time>2011-04-06T17:57:28Z</time>
      </trkpt>
      <trkpt lat="44.35327" lon="2.53862">
        <ele>547.4</ele>
        <time>2011-04-06T17:57:29Z</time>
      </trkpt>
      <trkpt lat="44.35332" lon="2.53859">
        <ele>547.7</ele>
        <time>2011-04-06T17:57:30Z</time>
      </trkpt>
      <trkpt lat="44.35337" lon="2.53856">
        <ele>548</ele>
        <time>2011-04-06T17:57:31Z</time>
      </trkpt>
      <trkpt lat="44.35341" lon="2.53853">
        <ele>548.2</ele>
        <time>2011-04-06T17:57:32Z</time>
      </trkpt>
      <trkpt lat="44.35346" lon="2.5385">
        <ele>548.7</ele>
        <time>2011-04-06T17:57:33Z</time>
      </trkpt>
      <trkpt lat="44.35351" lon="2.53847">
        <ele>549.5</ele>
        <time>2011-04-06T17:57:34Z</time>
      </trkpt>
      <trkpt lat="44.35355" lon="2.53843">
        <ele>550.2</ele>
        <time>2011-04-06T17:57:35Z</time>
      </trkpt>
      <trkpt lat="44.3536" lon="2.5384">
        <ele>551</ele>
        <time>2011-04-06T17:57:36Z</time>
      </trkpt>
      <trkpt lat="44.35365" lon="2.53837">
        <ele>551.7</ele>
        <time>2011-04-06T17:57:37Z</time>
      </trkpt>
      <trkpt lat="44.3537" lon="2.53834">
        <ele>552.2</ele>
        <time>2011-04-06T17:57:38Z</time>
      </trkpt>
      <trkpt lat="44.35375" lon="2.53831">
        <ele>552.7</ele>
        <time>2011-04-06T17:57:39Z</time>
      </trkpt>
      <trkpt lat="44.3538" lon="2.53827">
        <ele>553</ele>
        <time>2011-04-06T17:57:40Z</time>
      </trkpt>
      <trkpt lat="44.35385" lon="2.53824">
        <ele>553.4</ele>
        <time>2011-04-06T17:57:41Z</time>
      </trkpt>
      <trkpt lat="44.3539" lon="2.53821">
        <ele>553.5</ele>
        <time>2011-04-06T17:57:42Z</time>
      </trkpt>
      <trkpt lat="44.35395" lon="2.53818">
        <ele>553.9</ele>
        <time>2011-04-06T17:57:43Z</time>
      </trkpt>
      <trkpt lat="44.354" lon="2.53814">
        <ele>554.4</ele>
        <time>2011-04-06T17:57:44Z</time>
      </trkpt>
      <trkpt lat="44.35405" lon="2.53811">
        <ele>554.7</ele>
        <time>2011-04-06T17:57:45Z</time>
      </trkpt>
      <trkpt lat="44.3541" lon="2.53807">
        <ele>555.2</ele>
        <time>2011-04-06T17:57:46Z</time>
      </trkpt>
      <trkpt lat="44.35415" lon="2.53804">
        <ele>555.5</ele>
        <time>2011-04-06T17:57:47Z</time>
      </trkpt>
      <trkpt lat="44.35419" lon="2.53801">
        <ele>556</ele>
        <time>2011-04-06T17:57:48Z</time>
      </trkpt>
      <trkpt lat="44.35424" lon="2.53797">
        <ele>556.5</ele>
        <time>2011-04-06T17:57:49Z</time>
      </trkpt>
      <trkpt lat="44.35429" lon="2.53794">
        <ele>557.2</ele>
        <time>2011-04-06T17:57:50Z</time>
      </trkpt>
      <trkpt lat="44.35433" lon="2.5379">
        <ele>557.7</ele>
        <time>2011-04-06T17:57:51Z</time>
      </trkpt>
      <trkpt lat="44.35438" lon="2.53787">
        <ele>558</ele>
        <time>2011-04-06T17:57:52Z</time>
      </trkpt>
      <trkpt lat="44.35443" lon="2.53784">
        <ele>558.2</ele>
        <time>2011-04-06T17:57:53Z</time>
      </trkpt>
      <trkpt lat="44.35448" lon="2.53781">
        <ele>558.2</ele>
        <time>2011-04-06T17:57:54Z</time>
      </trkpt>
      <trkpt lat="44.35453" lon="2.53779">
        <ele>558.7</ele>
        <time>2011-04-06T17:57:55Z</time>
      </trkpt>
      <trkpt lat="44.35458" lon="2.53777">
        <ele>559.2</ele>
        <time>2011-04-06T17:57:56Z</time>
      </trkpt>
      <trkpt lat="44.35463" lon="2.53775">
        <ele>560</ele>
        <time>2011-04-06T17:57:57Z</time>
      </trkpt>
      <trkpt lat="44.35469" lon="2.53774">
        <ele>560.7</ele>
        <time>2011-04-06T17:57:58Z</time>
      </trkpt>
      <trkpt lat="44.35475" lon="2.53774">
        <ele>561.2</ele>
        <time>2011-04-06T17:57:59Z</time>
      </trkpt>
      <trkpt lat="44.3548" lon="2.53773">
        <ele>561.5</ele>
        <time>2011-04-06T17:58:00Z</time>
      </trkpt>
      <trkpt lat="44.35486" lon="2.53773">
        <ele>562.2</ele>
        <time>2011-04-06T17:58:01Z</time>
      </trkpt>
      <trkpt lat="44.35491" lon="2.53774">
        <ele>563</ele>
        <time>2011-04-06T17:58:02Z</time>
      </trkpt>
      <trkpt lat="44.35496" lon="2.53774">
        <ele>563.9</ele>
        <time>2011-04-06T17:58:03Z</time>
      </trkpt>
      <trkpt lat="44.35501" lon="2.53775">
        <ele>565</ele>
        <time>2011-04-06T17:58:04Z</time>
      </trkpt>
      <trkpt lat="44.35506" lon="2.53775">
        <ele>565.9</ele>
        <time>2011-04-06T17:58:05Z</time>
      </trkpt>
      <trkpt lat="44.35511" lon="2.53775">
        <ele>566.7</ele>
        <time>2011-04-06T17:58:06Z</time>
      </trkpt>
      <trkpt lat="44.35516" lon="2.53777">
        <ele>567.4</ele>
        <time>2011-04-06T17:58:07Z</time>
      </trkpt>
      <trkpt lat="44.35521" lon="2.53778">
        <ele>567.5</ele>
        <time>2011-04-06T17:58:08Z</time>
      </trkpt>
      <trkpt lat="44.35526" lon="2.5378">
        <ele>567.2</ele>
        <time>2011-04-06T17:58:09Z</time>
      </trkpt>
      <trkpt lat="44.35531" lon="2.53783">
        <ele>566.5</ele>
        <time>2011-04-06T17:58:10Z</time>
      </trkpt>
      <trkpt lat="44.35536" lon="2.53786">
        <ele>566</ele>
        <time>2011-04-06T17:58:11Z</time>
      </trkpt>
      <trkpt lat="44.35541" lon="2.53789">
        <ele>565.9</ele>
        <time>2011-04-06T17:58:12Z</time>
      </trkpt>
      <trkpt lat="44.35546" lon="2.53793">
        <ele>565.5</ele>
        <time>2011-04-06T17:58:13Z</time>
      </trkpt>
      <trkpt lat="44.35551" lon="2.53797">
        <ele>565.4</ele>
        <time>2011-04-06T17:58:14Z</time>
      </trkpt>
      <trkpt lat="44.35555" lon="2.538">
        <ele>565.5</ele>
        <time>2011-04-06T17:58:15Z</time>
      </trkpt>
      <trkpt lat="44.35559" lon="2.53803">
        <ele>566</ele>
        <time>2011-04-06T17:58:16Z</time>
      </trkpt>
      <trkpt lat="44.35564" lon="2.53807">
        <ele>566.5</ele>
        <time>2011-04-06T17:58:17Z</time>
      </trkpt>
      <trkpt lat="44.35568" lon="2.53811">
        <ele>566.5</ele>
        <time>2011-04-06T17:58:18Z</time>
      </trkpt>
      <trkpt lat="44.35572" lon="2.53815">
        <ele>566.5</ele>
        <time>2011-04-06T17:58:19Z</time>
      </trkpt>
      <trkpt lat="44.35576" lon="2.53819">
        <ele>566.5</ele>
        <time>2011-04-06T17:58:20Z</time>
      </trkpt>
      <trkpt lat="44.35581" lon="2.53823">
        <ele>566</ele>
        <time>2011-04-06T17:58:21Z</time>
      </trkpt>
      <trkpt lat="44.35585" lon="2.53828">
        <ele>565</ele>
        <time>2011-04-06T17:58:22Z</time>
      </trkpt>
      <trkpt lat="44.3559" lon="2.53832">
        <ele>563.9</ele>
        <time>2011-04-06T17:58:23Z</time>
      </trkpt>
      <trkpt lat="44.35594" lon="2.53836">
        <ele>563</ele>
        <time>2011-04-06T17:58:24Z</time>
      </trkpt>
      <trkpt lat="44.35599" lon="2.5384">
        <ele>562.2</ele>
        <time>2011-04-06T17:58:25Z</time>
      </trkpt>
      <trkpt lat="44.35603" lon="2.53844">
        <ele>561.5</ele>
        <time>2011-04-06T17:58:26Z</time>
      </trkpt>
      <trkpt lat="44.35607" lon="2.53848">
        <ele>560.5</ele>
        <time>2011-04-06T17:58:27Z</time>
      </trkpt>
      <trkpt lat="44.35612" lon="2.53852">
        <ele>559.2</ele>
        <time>2011-04-06T17:58:28Z</time>
      </trkpt>
      <trkpt lat="44.35617" lon="2.53856">
        <ele>558</ele>
        <time>2011-04-06T17:58:29Z</time>
      </trkpt>
      <trkpt lat="44.35621" lon="2.5386">
        <ele>557</ele>
        <time>2011-04-06T17:58:30Z</time>
      </trkpt>
      <trkpt lat="44.35625" lon="2.53863">
        <ele>556.5</ele>
        <time>2011-04-06T17:58:31Z</time>
      </trkpt>
      <trkpt lat="44.3563" lon="2.53867">
        <ele>556.2</ele>
        <time>2011-04-06T17:58:32Z</time>
      </trkpt>
      <trkpt lat="44.35634" lon="2.5387">
        <ele>556.5</ele>
        <time>2011-04-06T17:58:33Z</time>
      </trkpt>
      <trkpt lat="44.35638" lon="2.53874">
        <ele>556.7</ele>
        <time>2011-04-06T17:58:34Z</time>
      </trkpt>
      <trkpt lat="44.35642" lon="2.53877">
        <ele>557</ele>
        <time>2011-04-06T17:58:35Z</time>
      </trkpt>
      <trkpt lat="44.35646" lon="2.53881">
        <ele>557</ele>
        <time>2011-04-06T17:58:36Z</time>
      </trkpt>
      <trkpt lat="44.3565" lon="2.53885">
        <ele>557</ele>
        <time>2011-04-06T17:58:37Z</time>
      </trkpt>
      <trkpt lat="44.35654" lon="2.53889">
        <ele>556.7</ele>
        <time>2011-04-06T17:58:38Z</time>
      </trkpt>
      <trkpt lat="44.35658" lon="2.53893">
        <ele>556.5</ele>
        <time>2011-04-06T17:58:39Z</time>
      </trkpt>
      <trkpt lat="44.35661" lon="2.53897">
        <ele>556.2</ele>
        <time>2011-04-06T17:58:40Z</time>
      </trkpt>
      <trkpt lat="44.35665" lon="2.53901">
        <ele>555.7</ele>
        <time>2011-04-06T17:58:41Z</time>
      </trkpt>
      <trkpt lat="44.35669" lon="2.53906">
        <ele>555.2</ele>
        <time>2011-04-06T17:58:42Z</time>
      </trkpt>
      <trkpt lat="44.35672" lon="2.5391">
        <ele>554.7</ele>
        <time>2011-04-06T17:58:43Z</time>
      </trkpt>
      <trkpt lat="44.35676" lon="2.53915">
        <ele>554.5</ele>
        <time>2011-04-06T17:58:44Z</time>
      </trkpt>
      <trkpt lat="44.35679" lon="2.5392">
        <ele>553.9</ele>
        <time>2011-04-06T17:58:45Z</time>
      </trkpt>
      <trkpt lat="44.35682" lon="2.53925">
        <ele>553.4</ele>
        <time>2011-04-06T17:58:46Z</time>
      </trkpt>
      <trkpt lat="44.35685" lon="2.5393">
        <ele>553.2</ele>
        <time>2011-04-06T17:58:47Z</time>
      </trkpt>
      <trkpt lat="44.35689" lon="2.53935">
        <ele>552.9</ele>
        <time>2011-04-06T17:58:48Z</time>
      </trkpt>
      <trkpt lat="44.35692" lon="2.5394">
        <ele>552.5</ele>
        <time>2011-04-06T17:58:49Z</time>
      </trkpt>
      <trkpt lat="44.35695" lon="2.53945">
        <ele>552.2</ele>
        <time>2011-04-06T17:58:50Z</time>
      </trkpt>
      <trkpt lat="44.35698" lon="2.5395">
        <ele>551.9</ele>
        <time>2011-04-06T17:58:51Z</time>
      </trkpt>
      <trkpt lat="44.35702" lon="2.53955">
        <ele>551.7</ele>
        <time>2011-04-06T17:58:52Z</time>
      </trkpt>
      <trkpt lat="44.35705" lon="2.5396">
        <ele>551.9</ele>
        <time>2011-04-06T17:58:53Z</time>
      </trkpt>
      <trkpt lat="44.35708" lon="2.53964">
        <ele>552.2</ele>
        <time>2011-04-06T17:58:54Z</time>
      </trkpt>
      <trkpt lat="44.35711" lon="2.53969">
        <ele>552.9</ele>
        <time>2011-04-06T17:58:55Z</time>
      </trkpt>
      <trkpt lat="44.35713" lon="2.53975">
        <ele>553.2</ele>
        <time>2011-04-06T17:58:56Z</time>
      </trkpt>
      <trkpt lat="44.35716" lon="2.5398">
        <ele>553.7</ele>
        <time>2011-04-06T17:58:57Z</time>
      </trkpt>
      <trkpt lat="44.35719" lon="2.53984">
        <ele>554.7</ele>
        <time>2011-04-06T17:58:58Z</time>
      </trkpt>
      <trkpt lat="44.35721" lon="2.53988">
        <ele>556.2</ele>
        <time>2011-04-06T17:58:59Z</time>
      </trkpt>
      <trkpt lat="44.35724" lon="2.53993">
        <ele>558</ele>
        <time>2011-04-06T17:59:00Z</time>
      </trkpt>
      <trkpt lat="44.35727" lon="2.53998">
        <ele>559.5</ele>
        <time>2011-04-06T17:59:01Z</time>
      </trkpt>
      <trkpt lat="44.35731" lon="2.54002">
        <ele>561</ele>
        <time>2011-04-06T17:59:02Z</time>
      </trkpt>
      <trkpt lat="44.35734" lon="2.54007">
        <ele>562</ele>
        <time>2011-04-06T17:59:03Z</time>
      </trkpt>
      <trkpt lat="44.35737" lon="2.54012">
        <ele>562.9</ele>
        <time>2011-04-06T17:59:04Z</time>
      </trkpt>
      <trkpt lat="44.35739" lon="2.54017">
        <ele>563.7</ele>
        <time>2011-04-06T17:59:05Z</time>
      </trkpt>
      <trkpt lat="44.35742" lon="2.54022">
        <ele>564.7</ele>
        <time>2011-04-06T17:59:06Z</time>
      </trkpt>
      <trkpt lat="44.35745" lon="2.54027">
        <ele>565.5</ele>
        <time>2011-04-06T17:59:07Z</time>
      </trkpt>
      <trkpt lat="44.35749" lon="2.54033">
        <ele>565.7</ele>
        <time>2011-04-06T17:59:08Z</time>
      </trkpt>
      <trkpt lat="44.35752" lon="2.54038">
        <ele>565.5</ele>
        <time>2011-04-06T17:59:09Z</time>
      </trkpt>
      <trkpt lat="44.35756" lon="2.54044">
        <ele>565.2</ele>
        <time>2011-04-06T17:59:10Z</time>
      </trkpt>
      <trkpt lat="44.35759" lon="2.5405">
        <ele>564.7</ele>
        <time>2011-04-06T17:59:11Z</time>
      </trkpt>
      <trkpt lat="44.35763" lon="2.54056">
        <ele>564.2</ele>
        <time>2011-04-06T17:59:12Z</time>
      </trkpt>
      <trkpt lat="44.35767" lon="2.54061">
        <ele>563.5</ele>
        <time>2011-04-06T17:59:13Z</time>
      </trkpt>
      <trkpt lat="44.3577" lon="2.54066">
        <ele>563.5</ele>
        <time>2011-04-06T17:59:14Z</time>
      </trkpt>
      <trkpt lat="44.35774" lon="2.54071">
        <ele>563.7</ele>
        <time>2011-04-06T17:59:15Z</time>
      </trkpt>
      <trkpt lat="44.35777" lon="2.54077">
        <ele>563.7</ele>
        <time>2011-04-06T17:59:16Z</time>
      </trkpt>
      <trkpt lat="44.3578" lon="2.54082">
        <ele>564</ele>
        <time>2011-04-06T17:59:17Z</time>
      </trkpt>
      <trkpt lat="44.35784" lon="2.54088">
        <ele>563.7</ele>
        <time>2011-04-06T17:59:18Z</time>
      </trkpt>
      <trkpt lat="44.35787" lon="2.54094">
        <ele>563</ele>
        <time>2011-04-06T17:59:19Z</time>
      </trkpt>
      <trkpt lat="44.3579" lon="2.541">
        <ele>562.2</ele>
        <time>2011-04-06T17:59:20Z</time>
      </trkpt>
      <trkpt lat="44.35793" lon="2.54107">
        <ele>561.2</ele>
        <time>2011-04-06T17:59:21Z</time>
      </trkpt>
      <trkpt lat="44.35795" lon="2.54114">
        <ele>560</ele>
        <time>2011-04-06T17:59:22Z</time>
      </trkpt>
      <trkpt lat="44.35797" lon="2.54121">
        <ele>559</ele>
        <time>2011-04-06T17:59:23Z</time>
      </trkpt>
      <trkpt lat="44.35797" lon="2.54128">
        <ele>557.7</ele>
        <time>2011-04-06T17:59:24Z</time>
      </trkpt>
      <trkpt lat="44.35797" lon="2.54136">
        <ele>556.5</ele>
        <time>2011-04-06T17:59:25Z</time>
      </trkpt>
      <trkpt lat="44.35797" lon="2.54143">
        <ele>555.2</ele>
        <time>2011-04-06T17:59:26Z</time>
      </trkpt>
      <trkpt lat="44.35798" lon="2.54151">
        <ele>554</ele>
        <time>2011-04-06T17:59:27Z</time>
      </trkpt>
      <trkpt lat="44.358" lon="2.54158">
        <ele>552.9</ele>
        <time>2011-04-06T17:59:28Z</time>
      </trkpt>
      <trkpt lat="44.35801" lon="2.54166">
        <ele>551.7</ele>
        <time>2011-04-06T17:59:29Z</time>
      </trkpt>
      <trkpt lat="44.35803" lon="2.54175">
        <ele>550.7</ele>
        <time>2011-04-06T17:59:30Z</time>
      </trkpt>
      <trkpt lat="44.35805" lon="2.54183">
        <ele>549.7</ele>
        <time>2011-04-06T17:59:31Z</time>
      </trkpt>
      <trkpt lat="44.35807" lon="2.54192">
        <ele>548.5</ele>
        <time>2011-04-06T17:59:32Z</time>
      </trkpt>
      <trkpt lat="44.35808" lon="2.542">
        <ele>547.5</ele>
        <time>2011-04-06T17:59:33Z</time>
      </trkpt>
      <trkpt lat="44.3581" lon="2.54208">
        <ele>546.5</ele>
        <time>2011-04-06T17:59:34Z</time>
      </trkpt>
      <trkpt lat="44.35812" lon="2.54217">
        <ele>545.5</ele>
        <time>2011-04-06T17:59:35Z</time>
      </trkpt>
      <trkpt lat="44.35814" lon="2.54225">
        <ele>544.5</ele>
        <time>2011-04-06T17:59:36Z</time>
      </trkpt>
      <trkpt lat="44.35816" lon="2.54233">
        <ele>543.5</ele>
        <time>2011-04-06T17:59:37Z</time>
      </trkpt>
      <trkpt lat="44.35818" lon="2.54241">
        <ele>542.7</ele>
        <time>2011-04-06T17:59:38Z</time>
      </trkpt>
      <trkpt lat="44.3582" lon="2.54249">
        <ele>541.7</ele>
        <time>2011-04-06T17:59:39Z</time>
      </trkpt>
      <trkpt lat="44.35822" lon="2.54256">
        <ele>540.9</ele>
        <time>2011-04-06T17:59:40Z</time>
      </trkpt>
      <trkpt lat="44.35825" lon="2.54264">
        <ele>540.2</ele>
        <time>2011-04-06T17:59:41Z</time>
      </trkpt>
      <trkpt lat="44.35827" lon="2.54272">
        <ele>539.4</ele>
        <time>2011-04-06T17:59:42Z</time>
      </trkpt>
      <trkpt lat="44.35829" lon="2.5428">
        <ele>538.5</ele>
        <time>2011-04-06T17:59:43Z</time>
      </trkpt>
      <trkpt lat="44.35831" lon="2.54288">
        <ele>538</ele>
        <time>2011-04-06T17:59:44Z</time>
      </trkpt>
      <trkpt lat="44.35833" lon="2.54295">
        <ele>537.4</ele>
        <time>2011-04-06T17:59:45Z</time>
      </trkpt>
      <trkpt lat="44.35835" lon="2.54302">
        <ele>536.7</ele>
        <time>2011-04-06T17:59:46Z</time>
      </trkpt>
      <trkpt lat="44.35838" lon="2.5431">
        <ele>536</ele>
        <time>2011-04-06T17:59:47Z</time>
      </trkpt>
      <trkpt lat="44.35839" lon="2.54317">
        <ele>535.5</ele>
        <time>2011-04-06T17:59:48Z</time>
      </trkpt>
      <trkpt lat="44.35841" lon="2.54324">
        <ele>535</ele>
        <time>2011-04-06T17:59:49Z</time>
      </trkpt>
      <trkpt lat="44.35843" lon="2.54331">
        <ele>534.7</ele>
        <time>2011-04-06T17:59:50Z</time>
      </trkpt>
      <trkpt lat="44.35845" lon="2.54338">
        <ele>534</ele>
        <time>2011-04-06T17:59:51Z</time>
      </trkpt>
      <trkpt lat="44.35847" lon="2.54345">
        <ele>533.5</ele>
        <time>2011-04-06T17:59:52Z</time>
      </trkpt>
      <trkpt lat="44.35848" lon="2.54352">
        <ele>533</ele>
        <time>2011-04-06T17:59:53Z</time>
      </trkpt>
      <trkpt lat="44.3585" lon="2.54359">
        <ele>532.7</ele>
        <time>2011-04-06T17:59:54Z</time>
      </trkpt>
      <trkpt lat="44.35851" lon="2.54365">
        <ele>532.5</ele>
        <time>2011-04-06T17:59:55Z</time>
      </trkpt>
      <trkpt lat="44.35853" lon="2.54372">
        <ele>532</ele>
        <time>2011-04-06T17:59:56Z</time>
      </trkpt>
      <trkpt lat="44.35855" lon="2.54378">
        <ele>531.7</ele>
        <time>2011-04-06T17:59:57Z</time>
      </trkpt>
      <trkpt lat="44.35856" lon="2.54385">
        <ele>531.4</ele>
        <time>2011-04-06T17:59:58Z</time>
      </trkpt>
      <trkpt lat="44.35858" lon="2.54391">
        <ele>531</ele>
        <time>2011-04-06T17:59:59Z</time>
      </trkpt>
      <trkpt lat="44.3586" lon="2.54397">
        <ele>530.7</ele>
        <time>2011-04-06T18:00:00Z</time>
      </trkpt>
      <trkpt lat="44.35862" lon="2.54404">
        <ele>530.5</ele>
        <time>2011-04-06T18:00:01Z</time>
      </trkpt>
      <trkpt lat="44.35864" lon="2.5441">
        <ele>530.2</ele>
        <time>2011-04-06T18:00:02Z</time>
      </trkpt>
      <trkpt lat="44.35866" lon="2.54416">
        <ele>530</ele>
        <time>2011-04-06T18:00:03Z</time>
      </trkpt>
      <trkpt lat="44.35868" lon="2.54421">
        <ele>529.9</ele>
        <time>2011-04-06T18:00:04Z</time>
      </trkpt>
      <trkpt lat="44.35869" lon="2.54427">
        <ele>529.7</ele>
        <time>2011-04-06T18:00:05Z</time>
      </trkpt>
      <trkpt lat="44.35871" lon="2.54432">
        <ele>529.7</ele>
        <time>2011-04-06T18:00:06Z</time>
      </trkpt>
      <trkpt lat="44.35872" lon="2.54437">
        <ele>529.7</ele>
        <time>2011-04-06T18:00:07Z</time>
      </trkpt>
      <trkpt lat="44.35873" lon="2.54442">
        <ele>529.7</ele>
        <time>2011-04-06T18:00:08Z</time>
      </trkpt>
      <trkpt lat="44.35874" lon="2.54448">
        <ele>529.5</ele>
        <time>2011-04-06T18:00:09Z</time>
      </trkpt>
      <trkpt lat="44.35874" lon="2.54454">
        <ele>529.5</ele>
        <time>2011-04-06T18:00:10Z</time>
      </trkpt>
      <trkpt lat="44.35875" lon="2.5446">
        <ele>529.5</ele>
        <time>2011-04-06T18:00:11Z</time>
      </trkpt>
      <trkpt lat="44.35876" lon="2.54466">
        <ele>529.5</ele>
        <time>2011-04-06T18:00:12Z</time>
      </trkpt>
      <trkpt lat="44.35876" lon="2.54473">
        <ele>529.5</ele>
        <time>2011-04-06T18:00:13Z</time>
      </trkpt>
      <trkpt lat="44.35877" lon="2.54479">
        <ele>529.2</ele>
        <time>2011-04-06T18:00:14Z</time>
      </trkpt>
      <trkpt lat="44.35877" lon="2.54485">
        <ele>529</ele>
        <time>2011-04-06T18:00:15Z</time>
      </trkpt>
      <trkpt lat="44.35877" lon="2.54492">
        <ele>528.9</ele>
        <time>2011-04-06T18:00:16Z</time>
      </trkpt>
      <trkpt lat="44.35877" lon="2.54498">
        <ele>528.5</ele>
        <time>2011-04-06T18:00:17Z</time>
      </trkpt>
      <trkpt lat="44.35877" lon="2.54505">
        <ele>528.2</ele>
        <time>2011-04-06T18:00:18Z</time>
      </trkpt>
      <trkpt lat="44.35877" lon="2.54511">
        <ele>528</ele>
        <time>2011-04-06T18:00:19Z</time>
      </trkpt>
      <trkpt lat="44.35877" lon="2.54518">
        <ele>527.7</ele>
        <time>2011-04-06T18:00:20Z</time>
      </trkpt>
      <trkpt lat="44.35877" lon="2.54524">
        <ele>527.4</ele>
        <time>2011-04-06T18:00:21Z</time>
      </trkpt>
      <trkpt lat="44.35877" lon="2.5453">
        <ele>527</ele>
        <time>2011-04-06T18:00:22Z</time>
      </trkpt>
      <trkpt lat="44.35877" lon="2.54537">
        <ele>526.7</ele>
        <time>2011-04-06T18:00:23Z</time>
      </trkpt>
      <trkpt lat="44.35876" lon="2.54543">
        <ele>526.2</ele>
        <time>2011-04-06T18:00:24Z</time>
      </trkpt>
      <trkpt lat="44.35875" lon="2.5455">
        <ele>526</ele>
        <time>2011-04-06T18:00:25Z</time>
      </trkpt>
      <trkpt lat="44.35874" lon="2.54556">
        <ele>525.5</ele>
        <time>2011-04-06T18:00:26Z</time>
      </trkpt>
      <trkpt lat="44.35873" lon="2.54563">
        <ele>525.2</ele>
        <time>2011-04-06T18:00:27Z</time>
      </trkpt>
      <trkpt lat="44.35872" lon="2.54569">
        <ele>524.7</ele>
        <time>2011-04-06T18:00:28Z</time>
      </trkpt>
      <trkpt lat="44.35871" lon="2.54575">
        <ele>524.5</ele>
        <time>2011-04-06T18:00:29Z</time>
      </trkpt>
      <trkpt lat="44.3587" lon="2.54582">
        <ele>524.2</ele>
        <time>2011-04-06T18:00:30Z</time>
      </trkpt>
      <trkpt lat="44.35869" lon="2.54588">
        <ele>523.9</ele>
        <time>2011-04-06T18:00:31Z</time>
      </trkpt>
      <trkpt lat="44.35867" lon="2.54595">
        <ele>523.7</ele>
        <time>2011-04-06T18:00:32Z</time>
      </trkpt>
      <trkpt lat="44.35866" lon="2.54601">
        <ele>523.4</ele>
        <time>2011-04-06T18:00:33Z</time>
      </trkpt>
      <trkpt lat="44.35864" lon="2.54607">
        <ele>523</ele>
        <time>2011-04-06T18:00:34Z</time>
      </trkpt>
      <trkpt lat="44.35862" lon="2.54614">
        <ele>522.7</ele>
        <time>2011-04-06T18:00:35Z</time>
      </trkpt>
      <trkpt lat="44.3586" lon="2.5462">
        <ele>522.5</ele>
        <time>2011-04-06T18:00:36Z</time>
      </trkpt>
      <trkpt lat="44.35858" lon="2.54627">
        <ele>522</ele>
        <time>2011-04-06T18:00:37Z</time>
      </trkpt>
      <trkpt lat="44.35856" lon="2.54633">
        <ele>521.7</ele>
        <time>2011-04-06T18:00:38Z</time>
      </trkpt>
      <trkpt lat="44.35854" lon="2.54639">
        <ele>521.5</ele>
        <time>2011-04-06T18:00:39Z</time>
      </trkpt>
      <trkpt lat="44.35852" lon="2.54645">
        <ele>521.2</ele>
        <time>2011-04-06T18:00:40Z</time>
      </trkpt>
      <trkpt lat="44.3585" lon="2.54651">
        <ele>521</ele>
        <time>2011-04-06T18:00:41Z</time>
      </trkpt>
      <trkpt lat="44.35848" lon="2.54657">
        <ele>520.9</ele>
        <time>2011-04-06T18:00:42Z</time>
      </trkpt>
      <trkpt lat="44.35845" lon="2.54662">
        <ele>520.5</ele>
        <time>2011-04-06T18:00:43Z</time>
      </trkpt>
      <trkpt lat="44.35843" lon="2.54668">
        <ele>520.4</ele>
        <time>2011-04-06T18:00:44Z</time>
      </trkpt>
      <trkpt lat="44.35841" lon="2.54674">
        <ele>520.2</ele>
        <time>2011-04-06T18:00:45Z</time>
      </trkpt>
      <trkpt lat="44.35838" lon="2.54679">
        <ele>519.9</ele>
        <time>2011-04-06T18:00:46Z</time>
      </trkpt>
      <trkpt lat="44.35836" lon="2.54685">
        <ele>519.7</ele>
        <time>2011-04-06T18:00:47Z</time>
      </trkpt>
      <trkpt lat="44.35833" lon="2.5469">
        <ele>519.5</ele>
        <time>2011-04-06T18:00:48Z</time>
      </trkpt>
      <trkpt lat="44.35831" lon="2.54696">
        <ele>519.2</ele>
        <time>2011-04-06T18:00:49Z</time>
      </trkpt>
      <trkpt lat="44.35828" lon="2.54701">
        <ele>519</ele>
        <time>2011-04-06T18:00:50Z</time>
      </trkpt>
      <trkpt lat="44.35825" lon="2.54707">
        <ele>518.7</ele>
        <time>2011-04-06T18:00:51Z</time>
      </trkpt>
      <trkpt lat="44.35823" lon="2.54713">
        <ele>518.5</ele>
        <time>2011-04-06T18:00:52Z</time>
      </trkpt>
      <trkpt lat="44.3582" lon="2.54718">
        <ele>518.2</ele>
        <time>2011-04-06T18:00:53Z</time>
      </trkpt>
      <trkpt lat="44.35817" lon="2.54724">
        <ele>518</ele>
        <time>2011-04-06T18:00:54Z</time>
      </trkpt>
      <trkpt lat="44.35815" lon="2.5473">
        <ele>517.9</ele>
        <time>2011-04-06T18:00:55Z</time>
      </trkpt>
      <trkpt lat="44.35812" lon="2.54735">
        <ele>517.7</ele>
        <time>2011-04-06T18:00:56Z</time>
      </trkpt>
      <trkpt lat="44.35809" lon="2.54741">
        <ele>517.5</ele>
        <time>2011-04-06T18:00:57Z</time>
      </trkpt>
      <trkpt lat="44.35807" lon="2.54747">
        <ele>517.2</ele>
        <time>2011-04-06T18:00:58Z</time>
      </trkpt>
      <trkpt lat="44.35804" lon="2.54752">
        <ele>517.2</ele>
        <time>2011-04-06T18:00:59Z</time>
      </trkpt>
      <trkpt lat="44.35802" lon="2.54757">
        <ele>517</ele>
        <time>2011-04-06T18:01:00Z</time>
      </trkpt>
      <trkpt lat="44.35799" lon="2.54763">
        <ele>517</ele>
        <time>2011-04-06T18:01:01Z</time>
      </trkpt>
      <trkpt lat="44.35796" lon="2.54768">
        <ele>516.9</ele>
        <time>2011-04-06T18:01:02Z</time>
      </trkpt>
      <trkpt lat="44.35793" lon="2.54774">
        <ele>516.7</ele>
        <time>2011-04-06T18:01:03Z</time>
      </trkpt>
      <trkpt lat="44.35791" lon="2.54779">
        <ele>516.7</ele>
        <time>2011-04-06T18:01:04Z</time>
      </trkpt>
      <trkpt lat="44.35788" lon="2.54784">
        <ele>516.5</ele>
        <time>2011-04-06T18:01:05Z</time>
      </trkpt>
      <trkpt lat="44.35786" lon="2.54789">
        <ele>516.4</ele>
        <time>2011-04-06T18:01:06Z</time>
      </trkpt>
      <trkpt lat="44.35783" lon="2.54795">
        <ele>516.2</ele>
        <time>2011-04-06T18:01:07Z</time>
      </trkpt>
      <trkpt lat="44.35781" lon="2.548">
        <ele>516.2</ele>
        <time>2011-04-06T18:01:08Z</time>
      </trkpt>
      <trkpt lat="44.35778" lon="2.54806">
        <ele>516.2</ele>
        <time>2011-04-06T18:01:09Z</time>
      </trkpt>
      <trkpt lat="44.35776" lon="2.54811">
        <ele>516.2</ele>
        <time>2011-04-06T18:01:10Z</time>
      </trkpt>
      <trkpt lat="44.35773" lon="2.54817">
        <ele>516</ele>
        <time>2011-04-06T18:01:11Z</time>
      </trkpt>
      <trkpt lat="44.35771" lon="2.54823">
        <ele>516</ele>
        <time>2011-04-06T18:01:12Z</time>
      </trkpt>
      <trkpt lat="44.35769" lon="2.54829">
        <ele>516.2</ele>
        <time>2011-04-06T18:01:13Z</time>
      </trkpt>
      <trkpt lat="44.35767" lon="2.54834">
        <ele>516.2</ele>
        <time>2011-04-06T18:01:14Z</time>
      </trkpt>
      <trkpt lat="44.35764" lon="2.5484">
        <ele>516.2</ele>
        <time>2011-04-06T18:01:15Z</time>
      </trkpt>
      <trkpt lat="44.35762" lon="2.54846">
        <ele>516.2</ele>
        <time>2011-04-06T18:01:16Z</time>
      </trkpt>
      <trkpt lat="44.35759" lon="2.54851">
        <ele>516.2</ele>
        <time>2011-04-06T18:01:17Z</time>
      </trkpt>
      <trkpt lat="44.35757" lon="2.54856">
        <ele>516.2</ele>
        <time>2011-04-06T18:01:18Z</time>
      </trkpt>
      <trkpt lat="44.35755" lon="2.54861">
        <ele>516.2</ele>
        <time>2011-04-06T18:01:19Z</time>
      </trkpt>
      <trkpt lat="44.35752" lon="2.54867">
        <ele>516.4</ele>
        <time>2011-04-06T18:01:20Z</time>
      </trkpt>
      <trkpt lat="44.3575" lon="2.54872">
        <ele>516.2</ele>
        <time>2011-04-06T18:01:21Z</time>
      </trkpt>
      <trkpt lat="44.35748" lon="2.54878">
        <ele>516.2</ele>
        <time>2011-04-06T18:01:22Z</time>
      </trkpt>
      <trkpt lat="44.35746" lon="2.54884">
        <ele>516.4</ele>
        <time>2011-04-06T18:01:23Z</time>
      </trkpt>
      <trkpt lat="44.35745" lon="2.5489">
        <ele>516.4</ele>
        <time>2011-04-06T18:01:24Z</time>
      </trkpt>
      <trkpt lat="44.35743" lon="2.54896">
        <ele>516.5</ele>
        <time>2011-04-06T18:01:25Z</time>
      </trkpt>
      <trkpt lat="44.35741" lon="2.54902">
        <ele>516.9</ele>
        <time>2011-04-06T18:01:26Z</time>
      </trkpt>
      <trkpt lat="44.3574" lon="2.54908">
        <ele>517.2</ele>
        <time>2011-04-06T18:01:27Z</time>
      </trkpt>
      <trkpt lat="44.35738" lon="2.54915">
        <ele>517.5</ele>
        <time>2011-04-06T18:01:28Z</time>
      </trkpt>
      <trkpt lat="44.35736" lon="2.54921">
        <ele>517.7</ele>
        <time>2011-04-06T18:01:29Z</time>
      </trkpt>
      <trkpt lat="44.35734" lon="2.54927">
        <ele>517.7</ele>
        <time>2011-04-06T18:01:30Z</time>
      </trkpt>
      <trkpt lat="44.35731" lon="2.54933">
        <ele>517.7</ele>
        <time>2011-04-06T18:01:31Z</time>
      </trkpt>
      <trkpt lat="44.35729" lon="2.54939">
        <ele>517.9</ele>
        <time>2011-04-06T18:01:32Z</time>
      </trkpt>
      <trkpt lat="44.35727" lon="2.54945">
        <ele>518</ele>
        <time>2011-04-06T18:01:33Z</time>
      </trkpt>
      <trkpt lat="44.35724" lon="2.54951">
        <ele>518</ele>
        <time>2011-04-06T18:01:34Z</time>
      </trkpt>
      <trkpt lat="44.35722" lon="2.54957">
        <ele>518</ele>
        <time>2011-04-06T18:01:35Z</time>
      </trkpt>
      <trkpt lat="44.35719" lon="2.54963">
        <ele>518</ele>
        <time>2011-04-06T18:01:36Z</time>
      </trkpt>
      <trkpt lat="44.35717" lon="2.54969">
        <ele>518.2</ele>
        <time>2011-04-06T18:01:37Z</time>
      </trkpt>
      <trkpt lat="44.35714" lon="2.54975">
        <ele>518.2</ele>
        <time>2011-04-06T18:01:38Z</time>
      </trkpt>
      <trkpt lat="44.35711" lon="2.54981">
        <ele>518.2</ele>
        <time>2011-04-06T18:01:39Z</time>
      </trkpt>
      <trkpt lat="44.35709" lon="2.54987">
        <ele>518.2</ele>
        <time>2011-04-06T18:01:40Z</time>
      </trkpt>
      <trkpt lat="44.35706" lon="2.54993">
        <ele>518.4</ele>
        <time>2011-04-06T18:01:41Z</time>
      </trkpt>
      <trkpt lat="44.35703" lon="2.54998">
        <ele>518.4</ele>
        <time>2011-04-06T18:01:42Z</time>
      </trkpt>
      <trkpt lat="44.35701" lon="2.55003">
        <ele>518.4</ele>
        <time>2011-04-06T18:01:43Z</time>
      </trkpt>
      <trkpt lat="44.35698" lon="2.55009">
        <ele>518.4</ele>
        <time>2011-04-06T18:01:44Z</time>
      </trkpt>
      <trkpt lat="44.35695" lon="2.55014">
        <ele>518.4</ele>
        <time>2011-04-06T18:01:45Z</time>
      </trkpt>
      <trkpt lat="44.35692" lon="2.5502">
        <ele>518.4</ele>
        <time>2011-04-06T18:01:46Z</time>
      </trkpt>
      <trkpt lat="44.35689" lon="2.55026">
        <ele>518.4</ele>
        <time>2011-04-06T18:01:47Z</time>
      </trkpt>
      <trkpt lat="44.35686" lon="2.55031">
        <ele>518.4</ele>
        <time>2011-04-06T18:01:48Z</time>
      </trkpt>
      <trkpt lat="44.35683" lon="2.55036">
        <ele>518.4</ele>
        <time>2011-04-06T18:01:49Z</time>
      </trkpt>
      <trkpt lat="44.3568" lon="2.55042">
        <ele>518.4</ele>
        <time>2011-04-06T18:01:50Z</time>
      </trkpt>
      <trkpt lat="44.35677" lon="2.55047">
        <ele>518.5</ele>
        <time>2011-04-06T18:01:51Z</time>
      </trkpt>
      <trkpt lat="44.35674" lon="2.55052">
        <ele>518.5</ele>
        <time>2011-04-06T18:01:52Z</time>
      </trkpt>
      <trkpt lat="44.35671" lon="2.55058">
        <ele>518.5</ele>
        <time>2011-04-06T18:01:53Z</time>
      </trkpt>
      <trkpt lat="44.35668" lon="2.55063">
        <ele>518.5</ele>
        <time>2011-04-06T18:01:54Z</time>
      </trkpt>
      <trkpt lat="44.35665" lon="2.55068">
        <ele>518.5</ele>
        <time>2011-04-06T18:01:55Z</time>
      </trkpt>
      <trkpt lat="44.35662" lon="2.55073">
        <ele>518.5</ele>
        <time>2011-04-06T18:01:56Z</time>
      </trkpt>
      <trkpt lat="44.35659" lon="2.55078">
        <ele>518.5</ele>
        <time>2011-04-06T18:01:57Z</time>
      </trkpt>
      <trkpt lat="44.35656" lon="2.55083">
        <ele>518.5</ele>
        <time>2011-04-06T18:01:58Z</time>
      </trkpt>
      <trkpt lat="44.35653" lon="2.55089">
        <ele>518.5</ele>
        <time>2011-04-06T18:01:59Z</time>
      </trkpt>
      <trkpt lat="44.35649" lon="2.55094">
        <ele>518.5</ele>
        <time>2011-04-06T18:02:00Z</time>
      </trkpt>
      <trkpt lat="44.35646" lon="2.55099">
        <ele>518.5</ele>
        <time>2011-04-06T18:02:01Z</time>
      </trkpt>
      <trkpt lat="44.35643" lon="2.55104">
        <ele>518.5</ele>
        <time>2011-04-06T18:02:02Z</time>
      </trkpt>
      <trkpt lat="44.3564" lon="2.55108">
        <ele>518.5</ele>
        <time>2011-04-06T18:02:03Z</time>
      </trkpt>
      <trkpt lat="44.35638" lon="2.55114">
        <ele>518.7</ele>
        <time>2011-04-06T18:02:04Z</time>
      </trkpt>
      <trkpt lat="44.35635" lon="2.55119">
        <ele>518.7</ele>
        <time>2011-04-06T18:02:05Z</time>
      </trkpt>
      <trkpt lat="44.35632" lon="2.55123">
        <ele>518.7</ele>
        <time>2011-04-06T18:02:06Z</time>
      </trkpt>
      <trkpt lat="44.35629" lon="2.55128">
        <ele>518.7</ele>
        <time>2011-04-06T18:02:07Z</time>
      </trkpt>
      <trkpt lat="44.35625" lon="2.55133">
        <ele>518.7</ele>
        <time>2011-04-06T18:02:08Z</time>
      </trkpt>
      <trkpt lat="44.35622" lon="2.55138">
        <ele>518.9</ele>
        <time>2011-04-06T18:02:09Z</time>
      </trkpt>
      <trkpt lat="44.35619" lon="2.55143">
        <ele>518.9</ele>
        <time>2011-04-06T18:02:10Z</time>
      </trkpt>
      <trkpt lat="44.35615" lon="2.55148">
        <ele>519</ele>
        <time>2011-04-06T18:02:11Z</time>
      </trkpt>
      <trkpt lat="44.35612" lon="2.55153">
        <ele>519</ele>
        <time>2011-04-06T18:02:12Z</time>
      </trkpt>
      <trkpt lat="44.35608" lon="2.55157">
        <ele>519</ele>
        <time>2011-04-06T18:02:13Z</time>
      </trkpt>
      <trkpt lat="44.35605" lon="2.55161">
        <ele>519</ele>
        <time>2011-04-06T18:02:14Z</time>
      </trkpt>
      <trkpt lat="44.35601" lon="2.55166">
        <ele>519</ele>
        <time>2011-04-06T18:02:15Z</time>
      </trkpt>
      <trkpt lat="44.35598" lon="2.5517">
        <ele>519.2</ele>
        <time>2011-04-06T18:02:16Z</time>
      </trkpt>
      <trkpt lat="44.35594" lon="2.55174">
        <ele>519.2</ele>
        <time>2011-04-06T18:02:17Z</time>
      </trkpt>
      <trkpt lat="44.3559" lon="2.55178">
        <ele>519.2</ele>
        <time>2011-04-06T18:02:18Z</time>
      </trkpt>
      <trkpt lat="44.35586" lon="2.55182">
        <ele>519.2</ele>
        <time>2011-04-06T18:02:19Z</time>
      </trkpt>
      <trkpt lat="44.35582" lon="2.55186">
        <ele>519.2</ele>
        <time>2011-04-06T18:02:20Z</time>
      </trkpt>
      <trkpt lat="44.35578" lon="2.5519">
        <ele>519.2</ele>
        <time>2011-04-06T18:02:21Z</time>
      </trkpt>
      <trkpt lat="44.35575" lon="2.55194">
        <ele>519.2</ele>
        <time>2011-04-06T18:02:22Z</time>
      </trkpt>
      <trkpt lat="44.35571" lon="2.55197">
        <ele>519.4</ele>
        <time>2011-04-06T18:02:23Z</time>
      </trkpt>
      <trkpt lat="44.35567" lon="2.55201">
        <ele>519.4</ele>
        <time>2011-04-06T18:02:24Z</time>
      </trkpt>
      <trkpt lat="44.35563" lon="2.55204">
        <ele>519.5</ele>
        <time>2011-04-06T18:02:25Z</time>
      </trkpt>
      <trkpt lat="44.35558" lon="2.55208">
        <ele>519.9</ele>
        <time>2011-04-06T18:02:26Z</time>
      </trkpt>
      <trkpt lat="44.35554" lon="2.55211">
        <ele>520</ele>
        <time>2011-04-06T18:02:27Z</time>
      </trkpt>
      <trkpt lat="44.3555" lon="2.55214">
        <ele>520.4</ele>
        <time>2011-04-06T18:02:28Z</time>
      </trkpt>
      <trkpt lat="44.35547" lon="2.55216">
        <ele>520.5</ele>
        <time>2011-04-06T18:02:29Z</time>
      </trkpt>
      <trkpt lat="44.35543" lon="2.55218">
        <ele>520.5</ele>
        <time>2011-04-06T18:02:30Z</time>
      </trkpt>
      <trkpt lat="44.3554" lon="2.55221">
        <ele>520.5</ele>
        <time>2011-04-06T18:02:31Z</time>
      </trkpt>
      <trkpt lat="44.35536" lon="2.55223">
        <ele>520.7</ele>
        <time>2011-04-06T18:02:32Z</time>
      </trkpt>
      <trkpt lat="44.35532" lon="2.55226">
        <ele>520.7</ele>
        <time>2011-04-06T18:02:33Z</time>
      </trkpt>
      <trkpt lat="44.35529" lon="2.55228">
        <ele>520.7</ele>
        <time>2011-04-06T18:02:34Z</time>
      </trkpt>
      <trkpt lat="44.35525" lon="2.5523">
        <ele>520.7</ele>
        <time>2011-04-06T18:02:35Z</time>
      </trkpt>
      <trkpt lat="44.35521" lon="2.55233">
        <ele>520.7</ele>
        <time>2011-04-06T18:02:36Z</time>
      </trkpt>
      <trkpt lat="44.35517" lon="2.55235">
        <ele>520.7</ele>
        <time>2011-04-06T18:02:37Z</time>
      </trkpt>
      <trkpt lat="44.35513" lon="2.55237">
        <ele>520.9</ele>
        <time>2011-04-06T18:02:38Z</time>
      </trkpt>
      <trkpt lat="44.3551" lon="2.5524">
        <ele>521</ele>
        <time>2011-04-06T18:02:39Z</time>
      </trkpt>
      <trkpt lat="44.35506" lon="2.55242">
        <ele>521.2</ele>
        <time>2011-04-06T18:02:40Z</time>
      </trkpt>
      <trkpt lat="44.35502" lon="2.55245">
        <ele>521.4</ele>
        <time>2011-04-06T18:02:41Z</time>
      </trkpt>
      <trkpt lat="44.35498" lon="2.55247">
        <ele>521.4</ele>
        <time>2011-04-06T18:02:42Z</time>
      </trkpt>
      <trkpt lat="44.35494" lon="2.5525">
        <ele>521.5</ele>
        <time>2011-04-06T18:02:43Z</time>
      </trkpt>
      <trkpt lat="44.3549" lon="2.55252">
        <ele>521.5</ele>
        <time>2011-04-06T18:02:44Z</time>
      </trkpt>
      <trkpt lat="44.35487" lon="2.55255">
        <ele>521.5</ele>
        <time>2011-04-06T18:02:45Z</time>
      </trkpt>
      <trkpt lat="44.35483" lon="2.55257">
        <ele>521.5</ele>
        <time>2011-04-06T18:02:46Z</time>
      </trkpt>
      <trkpt lat="44.35479" lon="2.5526">
        <ele>521.4</ele>
        <time>2011-04-06T18:02:47Z</time>
      </trkpt>
      <trkpt lat="44.35475" lon="2.55262">
        <ele>521.4</ele>
        <time>2011-04-06T18:02:48Z</time>
      </trkpt>
      <trkpt lat="44.35471" lon="2.55265">
        <ele>521.4</ele>
        <time>2011-04-06T18:02:49Z</time>
      </trkpt>
      <trkpt lat="44.35467" lon="2.55267">
        <ele>521.4</ele>
        <time>2011-04-06T18:02:50Z</time>
      </trkpt>
      <trkpt lat="44.35464" lon="2.5527">
        <ele>521.4</ele>
        <time>2011-04-06T18:02:51Z</time>
      </trkpt>
      <trkpt lat="44.3546" lon="2.55273">
        <ele>521.4</ele>
        <time>2011-04-06T18:02:52Z</time>
      </trkpt>
      <trkpt lat="44.35456" lon="2.55275">
        <ele>521.2</ele>
        <time>2011-04-06T18:02:53Z</time>
      </trkpt>
      <trkpt lat="44.35453" lon="2.55278">
        <ele>521.2</ele>
        <time>2011-04-06T18:02:54Z</time>
      </trkpt>
      <trkpt lat="44.35449" lon="2.55281">
        <ele>521.2</ele>
        <time>2011-04-06T18:02:55Z</time>
      </trkpt>
      <trkpt lat="44.35446" lon="2.55283">
        <ele>521.2</ele>
        <time>2011-04-06T18:02:56Z</time>
      </trkpt>
      <trkpt lat="44.35442" lon="2.55286">
        <ele>521.2</ele>
        <time>2011-04-06T18:02:57Z</time>
      </trkpt>
      <trkpt lat="44.35439" lon="2.55289">
        <ele>521.2</ele>
        <time>2011-04-06T18:02:58Z</time>
      </trkpt>
      <trkpt lat="44.35436" lon="2.55292">
        <ele>521.2</ele>
        <time>2011-04-06T18:02:59Z</time>
      </trkpt>
      <trkpt lat="44.35432" lon="2.55294">
        <ele>521.2</ele>
        <time>2011-04-06T18:03:00Z</time>
      </trkpt>
      <trkpt lat="44.35429" lon="2.55297">
        <ele>521.2</ele>
        <time>2011-04-06T18:03:01Z</time>
      </trkpt>
      <trkpt lat="44.35426" lon="2.55299">
        <ele>521.2</ele>
        <time>2011-04-06T18:03:02Z</time>
      </trkpt>
      <trkpt lat="44.35423" lon="2.55301">
        <ele>521</ele>
        <time>2011-04-06T18:03:03Z</time>
      </trkpt>
      <trkpt lat="44.3542" lon="2.55304">
        <ele>521</ele>
        <time>2011-04-06T18:03:04Z</time>
      </trkpt>
      <trkpt lat="44.35417" lon="2.55306">
        <ele>521</ele>
        <time>2011-04-06T18:03:05Z</time>
      </trkpt>
      <trkpt lat="44.35414" lon="2.55309">
        <ele>521</ele>
        <time>2011-04-06T18:03:06Z</time>
      </trkpt>
      <trkpt lat="44.35411" lon="2.55311">
        <ele>521</ele>
        <time>2011-04-06T18:03:07Z</time>
      </trkpt>
      <trkpt lat="44.35408" lon="2.55314">
        <ele>521</ele>
        <time>2011-04-06T18:03:08Z</time>
      </trkpt>
      <trkpt lat="44.35405" lon="2.55316">
        <ele>521</ele>
        <time>2011-04-06T18:03:09Z</time>
      </trkpt>
      <trkpt lat="44.35402" lon="2.55318">
        <ele>521.2</ele>
        <time>2011-04-06T18:03:10Z</time>
      </trkpt>
      <trkpt lat="44.35399" lon="2.55321">
        <ele>521.2</ele>
        <time>2011-04-06T18:03:11Z</time>
      </trkpt>
      <trkpt lat="44.35396" lon="2.55323">
        <ele>521</ele>
        <time>2011-04-06T18:03:12Z</time>
      </trkpt>
      <trkpt lat="44.35394" lon="2.55325">
        <ele>521</ele>
        <time>2011-04-06T18:03:13Z</time>
      </trkpt>
      <trkpt lat="44.35391" lon="2.55327">
        <ele>521</ele>
        <time>2011-04-06T18:03:14Z</time>
      </trkpt>
      <trkpt lat="44.35388" lon="2.5533">
        <ele>521</ele>
        <time>2011-04-06T18:03:15Z</time>
      </trkpt>
      <trkpt lat="44.35385" lon="2.55332">
        <ele>521</ele>
        <time>2011-04-06T18:03:16Z</time>
      </trkpt>
      <trkpt lat="44.35382" lon="2.55335">
        <ele>520.9</ele>
        <time>2011-04-06T18:03:17Z</time>
      </trkpt>
      <trkpt lat="44.35378" lon="2.55338">
        <ele>520.9</ele>
        <time>2011-04-06T18:03:18Z</time>
      </trkpt>
      <trkpt lat="44.35375" lon="2.5534">
        <ele>520.7</ele>
        <time>2011-04-06T18:03:19Z</time>
      </trkpt>
      <trkpt lat="44.35371" lon="2.55344">
        <ele>520.9</ele>
        <time>2011-04-06T18:03:20Z</time>
      </trkpt>
      <trkpt lat="44.35368" lon="2.55347">
        <ele>521</ele>
        <time>2011-04-06T18:03:21Z</time>
      </trkpt>
      <trkpt lat="44.35366" lon="2.5535">
        <ele>521</ele>
        <time>2011-04-06T18:03:22Z</time>
      </trkpt>
      <trkpt lat="44.35363" lon="2.55354">
        <ele>521</ele>
        <time>2011-04-06T18:03:23Z</time>
      </trkpt>
      <trkpt lat="44.35361" lon="2.55357">
        <ele>521.2</ele>
        <time>2011-04-06T18:03:24Z</time>
      </trkpt>
      <trkpt lat="44.35358" lon="2.55361">
        <ele>521.2</ele>
        <time>2011-04-06T18:03:25Z</time>
      </trkpt>
      <trkpt lat="44.35355" lon="2.55363">
        <ele>521.5</ele>
        <time>2011-04-06T18:03:26Z</time>
      </trkpt>
      <trkpt lat="44.35352" lon="2.55366">
        <ele>521.7</ele>
        <time>2011-04-06T18:03:27Z</time>
      </trkpt>
      <trkpt lat="44.35349" lon="2.5537">
        <ele>522</ele>
        <time>2011-04-06T18:03:28Z</time>
      </trkpt>
      <trkpt lat="44.35347" lon="2.55375">
        <ele>522</ele>
        <time>2011-04-06T18:03:29Z</time>
      </trkpt>
      <trkpt lat="44.35347" lon="2.55379">
        <ele>522.2</ele>
        <time>2011-04-06T18:03:30Z</time>
      </trkpt>
      <trkpt lat="44.35348" lon="2.55382">
        <ele>522.5</ele>
        <time>2011-04-06T18:03:31Z</time>
      </trkpt>
      <trkpt lat="44.3535" lon="2.55384">
        <ele>522.7</ele>
        <time>2011-04-06T18:03:32Z</time>
      </trkpt>
      <trkpt lat="44.35353" lon="2.55386">
        <ele>522.9</ele>
        <time>2011-04-06T18:03:33Z</time>
      </trkpt>
      <trkpt lat="44.35355" lon="2.55389">
        <ele>523.2</ele>
        <time>2011-04-06T18:03:34Z</time>
      </trkpt>
      <trkpt lat="44.35356" lon="2.55392">
        <ele>523.5</ele>
        <time>2011-04-06T18:03:35Z</time>
      </trkpt>
      <trkpt lat="44.35358" lon="2.55395">
        <ele>524</ele>
        <time>2011-04-06T18:03:36Z</time>
      </trkpt>
      <trkpt lat="44.35358" lon="2.55398">
        <ele>524.5</ele>
        <time>2011-04-06T18:03:37Z</time>
      </trkpt>
      <trkpt lat="44.35359" lon="2.55401">
        <ele>524.9</ele>
        <time>2011-04-06T18:03:38Z</time>
      </trkpt>
      <trkpt lat="44.35359" lon="2.55405">
        <ele>525.2</ele>
        <time>2011-04-06T18:03:39Z</time>
      </trkpt>
      <trkpt lat="44.35358" lon="2.55411">
        <ele>526</ele>
        <time>2011-04-06T18:03:41Z</time>
      </trkpt>
      <trkpt lat="44.35357" lon="2.55414">
        <ele>526.2</ele>
        <time>2011-04-06T18:03:42Z</time>
      </trkpt>
      <trkpt lat="44.35355" lon="2.55419">
        <ele>526.7</ele>
        <time>2011-04-06T18:03:44Z</time>
      </trkpt>
      <trkpt lat="44.35353" lon="2.55424">
        <ele>527</ele>
        <time>2011-04-06T18:03:46Z</time>
      </trkpt>
      <trkpt lat="44.3535" lon="2.55429">
        <ele>527.2</ele>
        <time>2011-04-06T18:03:48Z</time>
      </trkpt>
      <trkpt lat="44.35347" lon="2.55433">
        <ele>527.5</ele>
        <time>2011-04-06T18:03:50Z</time>
      </trkpt>
      <trkpt lat="44.35343" lon="2.55435">
        <ele>527.7</ele>
        <time>2011-04-06T18:03:52Z</time>
      </trkpt>
      <trkpt lat="44.35339" lon="2.55437">
        <ele>527.9</ele>
        <time>2011-04-06T18:03:54Z</time>
      </trkpt>
      <trkpt lat="44.35336" lon="2.5544">
        <ele>528.2</ele>
        <time>2011-04-06T18:03:56Z</time>
      </trkpt>
      <trkpt lat="44.35334" lon="2.55443">
        <ele>528.5</ele>
        <time>2011-04-06T18:03:58Z</time>
      </trkpt>
      <trkpt lat="44.35331" lon="2.55447">
        <ele>528.7</ele>
        <time>2011-04-06T18:04:00Z</time>
      </trkpt>
      <trkpt lat="44.35329" lon="2.5545">
        <ele>529</ele>
        <time>2011-04-06T18:04:02Z</time>
      </trkpt>
      <trkpt lat="44.35326" lon="2.55454">
        <ele>529.7</ele>
        <time>2011-04-06T18:04:04Z</time>
      </trkpt>
      <trkpt lat="44.35324" lon="2.55457">
        <ele>530.2</ele>
        <time>2011-04-06T18:04:06Z</time>
      </trkpt>
      <trkpt lat="44.35322" lon="2.55461">
        <ele>531</ele>
        <time>2011-04-06T18:04:08Z</time>
      </trkpt>
      <trkpt lat="44.35321" lon="2.55463">
        <ele>531.5</ele>
        <time>2011-04-06T18:04:09Z</time>
      </trkpt>
      <trkpt lat="44.35317" lon="2.55468">
        <ele>532.7</ele>
        <time>2011-04-06T18:04:12Z</time>
      </trkpt>
      <trkpt lat="44.35315" lon="2.55471">
        <ele>533.2</ele>
        <time>2011-04-06T18:04:14Z</time>
      </trkpt>
      <trkpt lat="44.35312" lon="2.55476">
        <ele>533.7</ele>
        <time>2011-04-06T18:04:16Z</time>
      </trkpt>
      <trkpt lat="44.3531" lon="2.5548">
        <ele>534.2</ele>
        <time>2011-04-06T18:04:18Z</time>
      </trkpt>
      <trkpt lat="44.35309" lon="2.55485">
        <ele>534.7</ele>
        <time>2011-04-06T18:04:20Z</time>
      </trkpt>
      <trkpt lat="44.35308" lon="2.5549">
        <ele>535.2</ele>
        <time>2011-04-06T18:04:22Z</time>
      </trkpt>
      <trkpt lat="44.35308" lon="2.55495">
        <ele>535.5</ele>
        <time>2011-04-06T18:04:24Z</time>
      </trkpt>
      <trkpt lat="44.35307" lon="2.55499">
        <ele>536</ele>
        <time>2011-04-06T18:04:26Z</time>
      </trkpt>
      <trkpt lat="44.35307" lon="2.55504">
        <ele>536.5</ele>
        <time>2011-04-06T18:04:28Z</time>
      </trkpt>
      <trkpt lat="44.35307" lon="2.55509">
        <ele>537</ele>
        <time>2011-04-06T18:04:30Z</time>
      </trkpt>
      <trkpt lat="44.35307" lon="2.55513">
        <ele>537.5</ele>
        <time>2011-04-06T18:04:32Z</time>
      </trkpt>
      <trkpt lat="44.35308" lon="2.55517">
        <ele>538.2</ele>
        <time>2011-04-06T18:04:34Z</time>
      </trkpt>
      <trkpt lat="44.3531" lon="2.55521">
        <ele>539</ele>
        <time>2011-04-06T18:04:36Z</time>
      </trkpt>
      <trkpt lat="44.35312" lon="2.55525">
        <ele>540</ele>
        <time>2011-04-06T18:04:38Z</time>
      </trkpt>
      <trkpt lat="44.35314" lon="2.55528">
        <ele>541.2</ele>
        <time>2011-04-06T18:04:40Z</time>
      </trkpt>
      <trkpt lat="44.35317" lon="2.55532">
        <ele>542</ele>
        <time>2011-04-06T18:04:42Z</time>
      </trkpt>
      <trkpt lat="44.3532" lon="2.55534">
        <ele>542.9</ele>
        <time>2011-04-06T18:04:44Z</time>
      </trkpt>
      <trkpt lat="44.35323" lon="2.55537">
        <ele>543.7</ele>
        <time>2011-04-06T18:04:46Z</time>
      </trkpt>
      <trkpt lat="44.35327" lon="2.55538">
        <ele>544.5</ele>
        <time>2011-04-06T18:04:48Z</time>
      </trkpt>
      <trkpt lat="44.3533" lon="2.55539">
        <ele>545.2</ele>
        <time>2011-04-06T18:04:50Z</time>
      </trkpt>
      <trkpt lat="44.35334" lon="2.5554">
        <ele>546</ele>
        <time>2011-04-06T18:04:52Z</time>
      </trkpt>
      <trkpt lat="44.35337" lon="2.55541">
        <ele>546.5</ele>
        <time>2011-04-06T18:04:54Z</time>
      </trkpt>
      <trkpt lat="44.35341" lon="2.55541">
        <ele>547</ele>
        <time>2011-04-06T18:04:56Z</time>
      </trkpt>
      <trkpt lat="44.35344" lon="2.55542">
        <ele>547.9</ele>
        <time>2011-04-06T18:04:58Z</time>
      </trkpt>
      <trkpt lat="44.35348" lon="2.55542">
        <ele>548.7</ele>
        <time>2011-04-06T18:05:00Z</time>
      </trkpt>
      <trkpt lat="44.35351" lon="2.55543">
        <ele>549.2</ele>
        <time>2011-04-06T18:05:02Z</time>
      </trkpt>
      <trkpt lat="44.35354" lon="2.55542">
        <ele>549.5</ele>
        <time>2011-04-06T18:05:04Z</time>
      </trkpt>
      <trkpt lat="44.35358" lon="2.55542">
        <ele>549.7</ele>
        <time>2011-04-06T18:05:06Z</time>
      </trkpt>
      <trkpt lat="44.35361" lon="2.55541">
        <ele>550</ele>
        <time>2011-04-06T18:05:08Z</time>
      </trkpt>
      <trkpt lat="44.35364" lon="2.55541">
        <ele>550</ele>
        <time>2011-04-06T18:05:10Z</time>
      </trkpt>
      <trkpt lat="44.35366" lon="2.55541">
        <ele>550</ele>
        <time>2011-04-06T18:05:11Z</time>
      </trkpt>
      <trkpt lat="44.35372" lon="2.55543">
        <ele>550</ele>
        <time>2011-04-06T18:05:14Z</time>
      </trkpt>
      <trkpt lat="44.35375" lon="2.55543">
        <ele>550.2</ele>
        <time>2011-04-06T18:05:16Z</time>
      </trkpt>
      <trkpt lat="44.35378" lon="2.55543">
        <ele>550.5</ele>
        <time>2011-04-06T18:05:18Z</time>
      </trkpt>
      <trkpt lat="44.35381" lon="2.55543">
        <ele>550.9</ele>
        <time>2011-04-06T18:05:20Z</time>
      </trkpt>
      <trkpt lat="44.35386" lon="2.55544">
        <ele>551.2</ele>
        <time>2011-04-06T18:05:24Z</time>
      </trkpt>
      <trkpt lat="44.35389" lon="2.55544">
        <ele>551.2</ele>
        <time>2011-04-06T18:05:26Z</time>
      </trkpt>
      <trkpt lat="44.35393" lon="2.55544">
        <ele>551.5</ele>
        <time>2011-04-06T18:05:29Z</time>
      </trkpt>
      <trkpt lat="44.35397" lon="2.55544">
        <ele>551.7</ele>
        <time>2011-04-06T18:05:31Z</time>
      </trkpt>
      <trkpt lat="44.354" lon="2.55543">
        <ele>552.2</ele>
        <time>2011-04-06T18:05:33Z</time>
      </trkpt>
      <trkpt lat="44.35404" lon="2.55543">
        <ele>552.9</ele>
        <time>2011-04-06T18:05:35Z</time>
      </trkpt>
      <trkpt lat="44.35407" lon="2.55542">
        <ele>553.2</ele>
        <time>2011-04-06T18:05:37Z</time>
      </trkpt>
      <trkpt lat="44.3541" lon="2.55541">
        <ele>553.5</ele>
        <time>2011-04-06T18:05:39Z</time>
      </trkpt>
      <trkpt lat="44.35413" lon="2.5554">
        <ele>553.9</ele>
        <time>2011-04-06T18:05:41Z</time>
      </trkpt>
      <trkpt lat="44.35417" lon="2.55539">
        <ele>554</ele>
        <time>2011-04-06T18:05:44Z</time>
      </trkpt>
      <trkpt lat="44.35421" lon="2.55539">
        <ele>554</ele>
        <time>2011-04-06T18:05:46Z</time>
      </trkpt>
      <trkpt lat="44.35424" lon="2.55538">
        <ele>554.4</ele>
        <time>2011-04-06T18:05:48Z</time>
      </trkpt>
      <trkpt lat="44.35427" lon="2.55536">
        <ele>554.7</ele>
        <time>2011-04-06T18:05:50Z</time>
      </trkpt>
      <trkpt lat="44.35431" lon="2.55535">
        <ele>554.9</ele>
        <time>2011-04-06T18:05:52Z</time>
      </trkpt>
      <trkpt lat="44.35434" lon="2.55534">
        <ele>555</ele>
        <time>2011-04-06T18:05:54Z</time>
      </trkpt>
      <trkpt lat="44.35437" lon="2.55534">
        <ele>555.4</ele>
        <time>2011-04-06T18:05:56Z</time>
      </trkpt>
      <trkpt lat="44.3544" lon="2.55533">
        <ele>555.5</ele>
        <time>2011-04-06T18:05:58Z</time>
      </trkpt>
      <trkpt lat="44.35444" lon="2.55532">
        <ele>555.5</ele>
        <time>2011-04-06T18:06:00Z</time>
      </trkpt>
      <trkpt lat="44.35447" lon="2.55531">
        <ele>555.7</ele>
        <time>2011-04-06T18:06:02Z</time>
      </trkpt>
      <trkpt lat="44.35451" lon="2.55531">
        <ele>555.9</ele>
        <time>2011-04-06T18:06:04Z</time>
      </trkpt>
      <trkpt lat="44.35454" lon="2.5553">
        <ele>556.2</ele>
        <time>2011-04-06T18:06:06Z</time>
      </trkpt>
      <trkpt lat="44.35457" lon="2.5553">
        <ele>556.5</ele>
        <time>2011-04-06T18:06:08Z</time>
      </trkpt>
      <trkpt lat="44.3546" lon="2.55529">
        <ele>557</ele>
        <time>2011-04-06T18:06:10Z</time>
      </trkpt>
      <trkpt lat="44.35463" lon="2.55529">
        <ele>557.7</ele>
        <time>2011-04-06T18:06:12Z</time>
      </trkpt>
      <trkpt lat="44.35465" lon="2.55528">
        <ele>558</ele>
        <time>2011-04-06T18:06:13Z</time>
      </trkpt>
      <trkpt lat="44.35471" lon="2.55527">
        <ele>559.5</ele>
        <time>2011-04-06T18:06:17Z</time>
      </trkpt>
      <trkpt lat="44.35474" lon="2.55526">
        <ele>560</ele>
        <time>2011-04-06T18:06:19Z</time>
      </trkpt>
      <trkpt lat="44.35478" lon="2.55526">
        <ele>560.7</ele>
        <time>2011-04-06T18:06:21Z</time>
      </trkpt>
      <trkpt lat="44.35481" lon="2.55527">
        <ele>561.5</ele>
        <time>2011-04-06T18:06:23Z</time>
      </trkpt>
      <trkpt lat="44.35484" lon="2.55527">
        <ele>562.5</ele>
        <time>2011-04-06T18:06:25Z</time>
      </trkpt>
      <trkpt lat="44.35488" lon="2.55527">
        <ele>563.4</ele>
        <time>2011-04-06T18:06:27Z</time>
      </trkpt>
      <trkpt lat="44.35491" lon="2.55528">
        <ele>564.2</ele>
        <time>2011-04-06T18:06:29Z</time>
      </trkpt>
      <trkpt lat="44.35495" lon="2.55529">
        <ele>565.2</ele>
        <time>2011-04-06T18:06:31Z</time>
      </trkpt>
      <trkpt lat="44.35499" lon="2.5553">
        <ele>566</ele>
        <time>2011-04-06T18:06:33Z</time>
      </trkpt>
      <trkpt lat="44.35502" lon="2.55531">
        <ele>566.7</ele>
        <time>2011-04-06T18:06:35Z</time>
      </trkpt>
      <trkpt lat="44.35506" lon="2.55533">
        <ele>567.2</ele>
        <time>2011-04-06T18:06:37Z</time>
      </trkpt>
      <trkpt lat="44.3551" lon="2.55536">
        <ele>567.9</ele>
        <time>2011-04-06T18:06:39Z</time>
      </trkpt>
      <trkpt lat="44.35514" lon="2.55538">
        <ele>568.4</ele>
        <time>2011-04-06T18:06:41Z</time>
      </trkpt>
      <trkpt lat="44.35518" lon="2.55541">
        <ele>568.7</ele>
        <time>2011-04-06T18:06:43Z</time>
      </trkpt>
      <trkpt lat="44.35522" lon="2.55544">
        <ele>569.2</ele>
        <time>2011-04-06T18:06:45Z</time>
      </trkpt>
      <trkpt lat="44.35525" lon="2.55547">
        <ele>569.5</ele>
        <time>2011-04-06T18:06:47Z</time>
      </trkpt>
      <trkpt lat="44.35529" lon="2.55549">
        <ele>569.7</ele>
        <time>2011-04-06T18:06:49Z</time>
      </trkpt>
      <trkpt lat="44.35533" lon="2.55552">
        <ele>569.7</ele>
        <time>2011-04-06T18:06:51Z</time>
      </trkpt>
      <trkpt lat="44.35536" lon="2.55556">
        <ele>569.9</ele>
        <time>2011-04-06T18:06:53Z</time>
      </trkpt>
      <trkpt lat="44.3554" lon="2.55559">
        <ele>570</ele>
        <time>2011-04-06T18:06:55Z</time>
      </trkpt>
      <trkpt lat="44.35543" lon="2.55563">
        <ele>570.2</ele>
        <time>2011-04-06T18:06:57Z</time>
      </trkpt>
      <trkpt lat="44.35546" lon="2.55568">
        <ele>570.2</ele>
        <time>2011-04-06T18:06:59Z</time>
      </trkpt>
      <trkpt lat="44.35547" lon="2.55572">
        <ele>570.5</ele>
        <time>2011-04-06T18:07:01Z</time>
      </trkpt>
      <trkpt lat="44.35548" lon="2.55578">
        <ele>570.5</ele>
        <time>2011-04-06T18:07:04Z</time>
      </trkpt>
      <trkpt lat="44.35551" lon="2.55581">
        <ele>569.2</ele>
        <time>2011-04-06T18:07:14Z</time>
      </trkpt>
      <trkpt lat="44.35553" lon="2.55582">
        <ele>569.2</ele>
        <time>2011-04-06T18:07:15Z</time>
      </trkpt>
      <trkpt lat="44.35557" lon="2.55584">
        <ele>569.5</ele>
        <time>2011-04-06T18:07:18Z</time>
      </trkpt>
      <trkpt lat="44.35561" lon="2.55583">
        <ele>569.9</ele>
        <time>2011-04-06T18:07:21Z</time>
      </trkpt>
      <trkpt lat="44.35565" lon="2.55586">
        <ele>570.4</ele>
        <time>2011-04-06T18:07:24Z</time>
      </trkpt>
      <trkpt lat="44.35569" lon="2.55587">
        <ele>570.9</ele>
        <time>2011-04-06T18:07:26Z</time>
      </trkpt>
      <trkpt lat="44.35572" lon="2.55589">
        <ele>571.2</ele>
        <time>2011-04-06T18:07:28Z</time>
      </trkpt>
      <trkpt lat="44.35575" lon="2.55593">
        <ele>571.7</ele>
        <time>2011-04-06T18:07:31Z</time>
      </trkpt>
      <trkpt lat="44.35578" lon="2.55597">
        <ele>572</ele>
        <time>2011-04-06T18:07:33Z</time>
      </trkpt>
      <trkpt lat="44.35581" lon="2.556">
        <ele>572.4</ele>
        <time>2011-04-06T18:07:35Z</time>
      </trkpt>
      <trkpt lat="44.35584" lon="2.55603">
        <ele>572.9</ele>
        <time>2011-04-06T18:07:37Z</time>
      </trkpt>
      <trkpt lat="44.35588" lon="2.55606">
        <ele>573</ele>
        <time>2011-04-06T18:07:39Z</time>
      </trkpt>
      <trkpt lat="44.35591" lon="2.55608">
        <ele>573.2</ele>
        <time>2011-04-06T18:07:41Z</time>
      </trkpt>
      <trkpt lat="44.35594" lon="2.55612">
        <ele>573.2</ele>
        <time>2011-04-06T18:07:43Z</time>
      </trkpt>
      <trkpt lat="44.35597" lon="2.55615">
        <ele>573.5</ele>
        <time>2011-04-06T18:07:45Z</time>
      </trkpt>
      <trkpt lat="44.35601" lon="2.55618">
        <ele>573.7</ele>
        <time>2011-04-06T18:07:47Z</time>
      </trkpt>
      <trkpt lat="44.35604" lon="2.55621">
        <ele>573.7</ele>
        <time>2011-04-06T18:07:49Z</time>
      </trkpt>
      <trkpt lat="44.35608" lon="2.55623">
        <ele>573.7</ele>
        <time>2011-04-06T18:07:51Z</time>
      </trkpt>
      <trkpt lat="44.35611" lon="2.55627">
        <ele>574</ele>
        <time>2011-04-06T18:07:53Z</time>
      </trkpt>
      <trkpt lat="44.35613" lon="2.55629">
        <ele>574.2</ele>
        <time>2011-04-06T18:07:54Z</time>
      </trkpt>
      <trkpt lat="44.35616" lon="2.55631">
        <ele>574.7</ele>
        <time>2011-04-06T18:07:55Z</time>
      </trkpt>
      <trkpt lat="44.35619" lon="2.55633">
        <ele>575</ele>
        <time>2011-04-06T18:07:56Z</time>
      </trkpt>
      <trkpt lat="44.35621" lon="2.55634">
        <ele>575.2</ele>
        <time>2011-04-06T18:07:57Z</time>
      </trkpt>
      <trkpt lat="44.35625" lon="2.55637">
        <ele>575.5</ele>
        <time>2011-04-06T18:07:59Z</time>
      </trkpt>
      <trkpt lat="44.35628" lon="2.55639">
        <ele>575.5</ele>
        <time>2011-04-06T18:08:01Z</time>
      </trkpt>
      <trkpt lat="44.35631" lon="2.55642">
        <ele>575.5</ele>
        <time>2011-04-06T18:08:03Z</time>
      </trkpt>
      <trkpt lat="44.35634" lon="2.55644">
        <ele>575.2</ele>
        <time>2011-04-06T18:08:05Z</time>
      </trkpt>
      <trkpt lat="44.35637" lon="2.55647">
        <ele>575.2</ele>
        <time>2011-04-06T18:08:07Z</time>
      </trkpt>
      <trkpt lat="44.3564" lon="2.55648">
        <ele>575.2</ele>
        <time>2011-04-06T18:08:09Z</time>
      </trkpt>
      <trkpt lat="44.35643" lon="2.5565">
        <ele>575</ele>
        <time>2011-04-06T18:08:11Z</time>
      </trkpt>
      <trkpt lat="44.35645" lon="2.55651">
        <ele>575.2</ele>
        <time>2011-04-06T18:08:12Z</time>
      </trkpt>
      <trkpt lat="44.35648" lon="2.55652">
        <ele>575.2</ele>
        <time>2011-04-06T18:08:13Z</time>
      </trkpt>
      <trkpt lat="44.35651" lon="2.55653">
        <ele>575.2</ele>
        <time>2011-04-06T18:08:14Z</time>
      </trkpt>
      <trkpt lat="44.35653" lon="2.55655">
        <ele>575</ele>
        <time>2011-04-06T18:08:15Z</time>
      </trkpt>
      <trkpt lat="44.35655" lon="2.55658">
        <ele>575.2</ele>
        <time>2011-04-06T18:08:16Z</time>
      </trkpt>
    </trkseg>
  </trk>
</gpx>